<?xml version="1.0" encoding="UTF-8" standalone="no" ?>
<gpx xmlns="http://www.topografix.com/GPX/1/1" xmlns:xsi="http://www.w3.org/2001/XMLSchema-instance" xsi:schemaLocation="http://www.topografix.com/GPX/1/1 http://www.topografix.com/GPX/1/1/gpx.xsd" version="1.1" creator="VisuGPX - https://www.visugpx.com">
  <metadata>
    <name>Pic de Badboucou</name>
    <desc><![CDATA[[url]https://plus.google.com/photos/105108571230570121986/albums[/url]
[img]https://lh5.googleusercontent.com/-yaX8eIuuRVA/UZqGxNq26EI/AAAAAAAAL-M/8pg-2fONeYw/w702-h527-no/2013.05.20 Batboucou %25289%2529.jpg[/img]]]></desc>
  </metadata>
  <trk>
    <name><![CDATA[pic de Batboucou]]></name>
    <trkseg>
      <trkpt lat="42.88588" lon="-0.27264">
        <ele>1510</ele>
        <time>2013-05-20T05:29:13Z</time>
      </trkpt>
      <trkpt lat="42.88574" lon="-0.27267">
        <ele>1509</ele>
        <time>2013-05-20T05:29:31Z</time>
      </trkpt>
      <trkpt lat="42.88573" lon="-0.27269">
        <ele>1509</ele>
        <time>2013-05-20T05:29:41Z</time>
      </trkpt>
      <trkpt lat="42.88571" lon="-0.2727">
        <ele>1510</ele>
        <time>2013-05-20T05:29:56Z</time>
      </trkpt>
      <trkpt lat="42.88572" lon="-0.27272">
        <ele>1509</ele>
        <time>2013-05-20T05:30:09Z</time>
      </trkpt>
      <trkpt lat="42.88571" lon="-0.27276">
        <ele>1510</ele>
        <time>2013-05-20T05:30:27Z</time>
      </trkpt>
      <trkpt lat="42.88573" lon="-0.27263">
        <ele>1510</ele>
        <time>2013-05-20T05:30:45Z</time>
      </trkpt>
      <trkpt lat="42.88571" lon="-0.27256">
        <ele>1510</ele>
        <time>2013-05-20T05:31:00Z</time>
      </trkpt>
      <trkpt lat="42.88572" lon="-0.27259">
        <ele>1510</ele>
        <time>2013-05-20T05:31:18Z</time>
      </trkpt>
      <trkpt lat="42.88576" lon="-0.27263">
        <ele>1510</ele>
        <time>2013-05-20T05:31:26Z</time>
      </trkpt>
      <trkpt lat="42.88574" lon="-0.27263">
        <ele>1510</ele>
        <time>2013-05-20T05:31:34Z</time>
      </trkpt>
      <trkpt lat="42.88579" lon="-0.27264">
        <ele>1510</ele>
        <time>2013-05-20T05:31:43Z</time>
      </trkpt>
      <trkpt lat="42.88583" lon="-0.27263">
        <ele>1510</ele>
        <time>2013-05-20T05:31:58Z</time>
      </trkpt>
      <trkpt lat="42.88583" lon="-0.27263">
        <ele>1509</ele>
        <time>2013-05-20T05:32:02Z</time>
      </trkpt>
      <trkpt lat="42.8858" lon="-0.27264">
        <ele>1509</ele>
        <time>2013-05-20T05:32:13Z</time>
      </trkpt>
      <trkpt lat="42.8858" lon="-0.27265">
        <ele>1509</ele>
        <time>2013-05-20T05:32:25Z</time>
      </trkpt>
      <trkpt lat="42.8858" lon="-0.27266">
        <ele>1509</ele>
        <time>2013-05-20T05:32:42Z</time>
      </trkpt>
      <trkpt lat="42.88581" lon="-0.27267">
        <ele>1509</ele>
        <time>2013-05-20T05:32:55Z</time>
      </trkpt>
      <trkpt lat="42.88579" lon="-0.27269">
        <ele>1510</ele>
        <time>2013-05-20T05:32:59Z</time>
      </trkpt>
      <trkpt lat="42.88578" lon="-0.2728">
        <ele>1511</ele>
        <time>2013-05-20T05:33:06Z</time>
      </trkpt>
      <trkpt lat="42.88578" lon="-0.2728">
        <ele>1510</ele>
        <time>2013-05-20T05:33:12Z</time>
      </trkpt>
      <trkpt lat="42.88577" lon="-0.2728">
        <ele>1511</ele>
        <time>2013-05-20T05:33:21Z</time>
      </trkpt>
      <trkpt lat="42.88574" lon="-0.27282">
        <ele>1511</ele>
        <time>2013-05-20T05:33:28Z</time>
      </trkpt>
      <trkpt lat="42.88571" lon="-0.27286">
        <ele>1511</ele>
        <time>2013-05-20T05:33:35Z</time>
      </trkpt>
      <trkpt lat="42.8857" lon="-0.27289">
        <ele>1511</ele>
        <time>2013-05-20T05:33:44Z</time>
      </trkpt>
      <trkpt lat="42.88564" lon="-0.2729">
        <ele>1511</ele>
        <time>2013-05-20T05:33:52Z</time>
      </trkpt>
      <trkpt lat="42.88559" lon="-0.27293">
        <ele>1511</ele>
        <time>2013-05-20T05:34:01Z</time>
      </trkpt>
      <trkpt lat="42.88558" lon="-0.27293">
        <ele>1511</ele>
        <time>2013-05-20T05:34:03Z</time>
      </trkpt>
      <trkpt lat="42.88556" lon="-0.27294">
        <ele>1511</ele>
        <time>2013-05-20T05:34:06Z</time>
      </trkpt>
      <trkpt lat="42.88551" lon="-0.27301">
        <ele>1511</ele>
        <time>2013-05-20T05:34:13Z</time>
      </trkpt>
      <trkpt lat="42.88546" lon="-0.2731">
        <ele>1511</ele>
        <time>2013-05-20T05:34:21Z</time>
      </trkpt>
      <trkpt lat="42.88553" lon="-0.27333">
        <ele>1511</ele>
        <time>2013-05-20T05:34:28Z</time>
      </trkpt>
      <trkpt lat="42.88551" lon="-0.27333">
        <ele>1511</ele>
        <time>2013-05-20T05:34:35Z</time>
      </trkpt>
      <trkpt lat="42.88547" lon="-0.27328">
        <ele>1511</ele>
        <time>2013-05-20T05:34:42Z</time>
      </trkpt>
      <trkpt lat="42.88544" lon="-0.27325">
        <ele>1510</ele>
        <time>2013-05-20T05:34:50Z</time>
      </trkpt>
      <trkpt lat="42.88547" lon="-0.27326">
        <ele>1511</ele>
        <time>2013-05-20T05:35:02Z</time>
      </trkpt>
      <trkpt lat="42.88546" lon="-0.27324">
        <ele>1510</ele>
        <time>2013-05-20T05:35:11Z</time>
      </trkpt>
      <trkpt lat="42.88547" lon="-0.27324">
        <ele>1511</ele>
        <time>2013-05-20T05:35:19Z</time>
      </trkpt>
      <trkpt lat="42.88546" lon="-0.27328">
        <ele>1512</ele>
        <time>2013-05-20T05:35:24Z</time>
      </trkpt>
      <trkpt lat="42.8854" lon="-0.27329">
        <ele>1514</ele>
        <time>2013-05-20T05:35:31Z</time>
      </trkpt>
      <trkpt lat="42.88537" lon="-0.27331">
        <ele>1515</ele>
        <time>2013-05-20T05:35:38Z</time>
      </trkpt>
      <trkpt lat="42.88531" lon="-0.27334">
        <ele>1516</ele>
        <time>2013-05-20T05:35:47Z</time>
      </trkpt>
      <trkpt lat="42.88527" lon="-0.27334">
        <ele>1518</ele>
        <time>2013-05-20T05:35:54Z</time>
      </trkpt>
      <trkpt lat="42.88525" lon="-0.27335">
        <ele>1519</ele>
        <time>2013-05-20T05:36:01Z</time>
      </trkpt>
      <trkpt lat="42.8852" lon="-0.27337">
        <ele>1520</ele>
        <time>2013-05-20T05:36:11Z</time>
      </trkpt>
      <trkpt lat="42.88515" lon="-0.2734">
        <ele>1521</ele>
        <time>2013-05-20T05:36:19Z</time>
      </trkpt>
      <trkpt lat="42.88514" lon="-0.27342">
        <ele>1523</ele>
        <time>2013-05-20T05:36:27Z</time>
      </trkpt>
      <trkpt lat="42.88513" lon="-0.2734">
        <ele>1523</ele>
        <time>2013-05-20T05:36:34Z</time>
      </trkpt>
      <trkpt lat="42.8851" lon="-0.27338">
        <ele>1524</ele>
        <time>2013-05-20T05:36:41Z</time>
      </trkpt>
      <trkpt lat="42.88509" lon="-0.2734">
        <ele>1526</ele>
        <time>2013-05-20T05:36:48Z</time>
      </trkpt>
      <trkpt lat="42.88508" lon="-0.27341">
        <ele>1527</ele>
        <time>2013-05-20T05:36:55Z</time>
      </trkpt>
      <trkpt lat="42.88505" lon="-0.27344">
        <ele>1527</ele>
        <time>2013-05-20T05:37:03Z</time>
      </trkpt>
      <trkpt lat="42.88502" lon="-0.2734">
        <ele>1528</ele>
        <time>2013-05-20T05:37:12Z</time>
      </trkpt>
      <trkpt lat="42.88502" lon="-0.2734">
        <ele>1529</ele>
        <time>2013-05-20T05:37:20Z</time>
      </trkpt>
      <trkpt lat="42.88497" lon="-0.27341">
        <ele>1531</ele>
        <time>2013-05-20T05:37:27Z</time>
      </trkpt>
      <trkpt lat="42.88494" lon="-0.2734">
        <ele>1532</ele>
        <time>2013-05-20T05:37:35Z</time>
      </trkpt>
      <trkpt lat="42.88489" lon="-0.27344">
        <ele>1533</ele>
        <time>2013-05-20T05:37:43Z</time>
      </trkpt>
      <trkpt lat="42.88488" lon="-0.27345">
        <ele>1535</ele>
        <time>2013-05-20T05:37:51Z</time>
      </trkpt>
      <trkpt lat="42.88485" lon="-0.27344">
        <ele>1536</ele>
        <time>2013-05-20T05:37:59Z</time>
      </trkpt>
      <trkpt lat="42.88481" lon="-0.27346">
        <ele>1538</ele>
        <time>2013-05-20T05:38:07Z</time>
      </trkpt>
      <trkpt lat="42.88478" lon="-0.27347">
        <ele>1538</ele>
        <time>2013-05-20T05:38:15Z</time>
      </trkpt>
      <trkpt lat="42.88476" lon="-0.27345">
        <ele>1539</ele>
        <time>2013-05-20T05:38:23Z</time>
      </trkpt>
      <trkpt lat="42.88477" lon="-0.27341">
        <ele>1539</ele>
        <time>2013-05-20T05:38:33Z</time>
      </trkpt>
      <trkpt lat="42.88474" lon="-0.27344">
        <ele>1541</ele>
        <time>2013-05-20T05:38:44Z</time>
      </trkpt>
      <trkpt lat="42.88472" lon="-0.27347">
        <ele>1543</ele>
        <time>2013-05-20T05:38:50Z</time>
      </trkpt>
      <trkpt lat="42.88468" lon="-0.2735">
        <ele>1544</ele>
        <time>2013-05-20T05:38:57Z</time>
      </trkpt>
      <trkpt lat="42.88467" lon="-0.27355">
        <ele>1544</ele>
        <time>2013-05-20T05:39:04Z</time>
      </trkpt>
      <trkpt lat="42.88467" lon="-0.27362">
        <ele>1545</ele>
        <time>2013-05-20T05:39:11Z</time>
      </trkpt>
      <trkpt lat="42.88472" lon="-0.2737">
        <ele>1546</ele>
        <time>2013-05-20T05:39:20Z</time>
      </trkpt>
      <trkpt lat="42.88473" lon="-0.27374">
        <ele>1547</ele>
        <time>2013-05-20T05:39:29Z</time>
      </trkpt>
      <trkpt lat="42.88474" lon="-0.27377">
        <ele>1548</ele>
        <time>2013-05-20T05:39:37Z</time>
      </trkpt>
      <trkpt lat="42.88473" lon="-0.2738">
        <ele>1550</ele>
        <time>2013-05-20T05:39:46Z</time>
      </trkpt>
      <trkpt lat="42.88472" lon="-0.27385">
        <ele>1552</ele>
        <time>2013-05-20T05:39:55Z</time>
      </trkpt>
      <trkpt lat="42.88472" lon="-0.2739">
        <ele>1553</ele>
        <time>2013-05-20T05:40:07Z</time>
      </trkpt>
      <trkpt lat="42.88472" lon="-0.27394">
        <ele>1553</ele>
        <time>2013-05-20T05:40:18Z</time>
      </trkpt>
      <trkpt lat="42.88472" lon="-0.274">
        <ele>1556</ele>
        <time>2013-05-20T05:40:27Z</time>
      </trkpt>
      <trkpt lat="42.88469" lon="-0.27405">
        <ele>1557</ele>
        <time>2013-05-20T05:40:39Z</time>
      </trkpt>
      <trkpt lat="42.88468" lon="-0.27403">
        <ele>1557</ele>
        <time>2013-05-20T05:40:47Z</time>
      </trkpt>
      <trkpt lat="42.88468" lon="-0.27408">
        <ele>1558</ele>
        <time>2013-05-20T05:40:56Z</time>
      </trkpt>
      <trkpt lat="42.88472" lon="-0.27412">
        <ele>1560</ele>
        <time>2013-05-20T05:41:06Z</time>
      </trkpt>
      <trkpt lat="42.88469" lon="-0.27415">
        <ele>1560</ele>
        <time>2013-05-20T05:41:16Z</time>
      </trkpt>
      <trkpt lat="42.88469" lon="-0.27418">
        <ele>1563</ele>
        <time>2013-05-20T05:41:25Z</time>
      </trkpt>
      <trkpt lat="42.88467" lon="-0.27424">
        <ele>1563</ele>
        <time>2013-05-20T05:41:33Z</time>
      </trkpt>
      <trkpt lat="42.88465" lon="-0.27431">
        <ele>1566</ele>
        <time>2013-05-20T05:41:44Z</time>
      </trkpt>
      <trkpt lat="42.88465" lon="-0.27432">
        <ele>1568</ele>
        <time>2013-05-20T05:41:54Z</time>
      </trkpt>
      <trkpt lat="42.88466" lon="-0.27435">
        <ele>1569</ele>
        <time>2013-05-20T05:42:02Z</time>
      </trkpt>
      <trkpt lat="42.88475" lon="-0.27434">
        <ele>1569</ele>
        <time>2013-05-20T05:42:13Z</time>
      </trkpt>
      <trkpt lat="42.8848" lon="-0.27438">
        <ele>1569</ele>
        <time>2013-05-20T05:42:22Z</time>
      </trkpt>
      <trkpt lat="42.88482" lon="-0.27436">
        <ele>1570</ele>
        <time>2013-05-20T05:42:31Z</time>
      </trkpt>
      <trkpt lat="42.88482" lon="-0.27439">
        <ele>1570</ele>
        <time>2013-05-20T05:42:38Z</time>
      </trkpt>
      <trkpt lat="42.88484" lon="-0.27443">
        <ele>1570</ele>
        <time>2013-05-20T05:42:46Z</time>
      </trkpt>
      <trkpt lat="42.88486" lon="-0.27448">
        <ele>1571</ele>
        <time>2013-05-20T05:42:53Z</time>
      </trkpt>
      <trkpt lat="42.88487" lon="-0.27452">
        <ele>1573</ele>
        <time>2013-05-20T05:43:04Z</time>
      </trkpt>
      <trkpt lat="42.88486" lon="-0.27456">
        <ele>1574</ele>
        <time>2013-05-20T05:43:14Z</time>
      </trkpt>
      <trkpt lat="42.88483" lon="-0.2746">
        <ele>1574</ele>
        <time>2013-05-20T05:43:23Z</time>
      </trkpt>
      <trkpt lat="42.88485" lon="-0.27463">
        <ele>1575</ele>
        <time>2013-05-20T05:43:34Z</time>
      </trkpt>
      <trkpt lat="42.88488" lon="-0.27467">
        <ele>1577</ele>
        <time>2013-05-20T05:43:43Z</time>
      </trkpt>
      <trkpt lat="42.88493" lon="-0.27469">
        <ele>1578</ele>
        <time>2013-05-20T05:43:52Z</time>
      </trkpt>
      <trkpt lat="42.88494" lon="-0.2747">
        <ele>1579</ele>
        <time>2013-05-20T05:43:59Z</time>
      </trkpt>
      <trkpt lat="42.88496" lon="-0.2747">
        <ele>1579</ele>
        <time>2013-05-20T05:44:06Z</time>
      </trkpt>
      <trkpt lat="42.885" lon="-0.27471">
        <ele>1578</ele>
        <time>2013-05-20T05:44:15Z</time>
      </trkpt>
      <trkpt lat="42.88503" lon="-0.27471">
        <ele>1578</ele>
        <time>2013-05-20T05:44:24Z</time>
      </trkpt>
      <trkpt lat="42.88508" lon="-0.27474">
        <ele>1578</ele>
        <time>2013-05-20T05:44:29Z</time>
      </trkpt>
      <trkpt lat="42.88509" lon="-0.27477">
        <ele>1578</ele>
        <time>2013-05-20T05:44:34Z</time>
      </trkpt>
      <trkpt lat="42.88513" lon="-0.27481">
        <ele>1579</ele>
        <time>2013-05-20T05:44:42Z</time>
      </trkpt>
      <trkpt lat="42.88517" lon="-0.27488">
        <ele>1579</ele>
        <time>2013-05-20T05:44:52Z</time>
      </trkpt>
      <trkpt lat="42.88521" lon="-0.27491">
        <ele>1579</ele>
        <time>2013-05-20T05:44:59Z</time>
      </trkpt>
      <trkpt lat="42.88521" lon="-0.2749">
        <ele>1579</ele>
        <time>2013-05-20T05:45:14Z</time>
      </trkpt>
      <trkpt lat="42.88527" lon="-0.27494">
        <ele>1579</ele>
        <time>2013-05-20T05:45:22Z</time>
      </trkpt>
      <trkpt lat="42.88534" lon="-0.27499">
        <ele>1580</ele>
        <time>2013-05-20T05:45:29Z</time>
      </trkpt>
      <trkpt lat="42.88538" lon="-0.27502">
        <ele>1579</ele>
        <time>2013-05-20T05:45:36Z</time>
      </trkpt>
      <trkpt lat="42.88546" lon="-0.27509">
        <ele>1580</ele>
        <time>2013-05-20T05:45:45Z</time>
      </trkpt>
      <trkpt lat="42.88551" lon="-0.27511">
        <ele>1581</ele>
        <time>2013-05-20T05:45:52Z</time>
      </trkpt>
      <trkpt lat="42.88555" lon="-0.27518">
        <ele>1580</ele>
        <time>2013-05-20T05:45:58Z</time>
      </trkpt>
      <trkpt lat="42.8856" lon="-0.27529">
        <ele>1580</ele>
        <time>2013-05-20T05:46:07Z</time>
      </trkpt>
      <trkpt lat="42.8856" lon="-0.27535">
        <ele>1580</ele>
        <time>2013-05-20T05:46:13Z</time>
      </trkpt>
      <trkpt lat="42.88563" lon="-0.2754">
        <ele>1581</ele>
        <time>2013-05-20T05:46:19Z</time>
      </trkpt>
      <trkpt lat="42.8857" lon="-0.27543">
        <ele>1580</ele>
        <time>2013-05-20T05:46:27Z</time>
      </trkpt>
      <trkpt lat="42.88574" lon="-0.27542">
        <ele>1581</ele>
        <time>2013-05-20T05:46:34Z</time>
      </trkpt>
      <trkpt lat="42.88577" lon="-0.27543">
        <ele>1580</ele>
        <time>2013-05-20T05:46:41Z</time>
      </trkpt>
      <trkpt lat="42.88581" lon="-0.27544">
        <ele>1581</ele>
        <time>2013-05-20T05:46:46Z</time>
      </trkpt>
      <trkpt lat="42.88584" lon="-0.27545">
        <ele>1581</ele>
        <time>2013-05-20T05:46:52Z</time>
      </trkpt>
      <trkpt lat="42.88586" lon="-0.27545">
        <ele>1581</ele>
        <time>2013-05-20T05:46:59Z</time>
      </trkpt>
      <trkpt lat="42.88593" lon="-0.27548">
        <ele>1581</ele>
        <time>2013-05-20T05:47:05Z</time>
      </trkpt>
      <trkpt lat="42.88597" lon="-0.27547">
        <ele>1581</ele>
        <time>2013-05-20T05:47:10Z</time>
      </trkpt>
      <trkpt lat="42.88599" lon="-0.27551">
        <ele>1582</ele>
        <time>2013-05-20T05:47:18Z</time>
      </trkpt>
      <trkpt lat="42.886" lon="-0.27553">
        <ele>1583</ele>
        <time>2013-05-20T05:47:25Z</time>
      </trkpt>
      <trkpt lat="42.886" lon="-0.27557">
        <ele>1585</ele>
        <time>2013-05-20T05:47:33Z</time>
      </trkpt>
      <trkpt lat="42.88601" lon="-0.27558">
        <ele>1586</ele>
        <time>2013-05-20T05:47:39Z</time>
      </trkpt>
      <trkpt lat="42.88599" lon="-0.27559">
        <ele>1587</ele>
        <time>2013-05-20T05:47:48Z</time>
      </trkpt>
      <trkpt lat="42.886" lon="-0.27562">
        <ele>1587</ele>
        <time>2013-05-20T05:47:55Z</time>
      </trkpt>
      <trkpt lat="42.88598" lon="-0.27565">
        <ele>1588</ele>
        <time>2013-05-20T05:48:03Z</time>
      </trkpt>
      <trkpt lat="42.88598" lon="-0.27569">
        <ele>1589</ele>
        <time>2013-05-20T05:48:10Z</time>
      </trkpt>
      <trkpt lat="42.88597" lon="-0.27572">
        <ele>1591</ele>
        <time>2013-05-20T05:48:16Z</time>
      </trkpt>
      <trkpt lat="42.88598" lon="-0.27577">
        <ele>1592</ele>
        <time>2013-05-20T05:48:25Z</time>
      </trkpt>
      <trkpt lat="42.88599" lon="-0.2758">
        <ele>1593</ele>
        <time>2013-05-20T05:48:32Z</time>
      </trkpt>
      <trkpt lat="42.88598" lon="-0.27585">
        <ele>1594</ele>
        <time>2013-05-20T05:48:39Z</time>
      </trkpt>
      <trkpt lat="42.88594" lon="-0.27585">
        <ele>1595</ele>
        <time>2013-05-20T05:48:47Z</time>
      </trkpt>
      <trkpt lat="42.88594" lon="-0.27591">
        <ele>1597</ele>
        <time>2013-05-20T05:48:56Z</time>
      </trkpt>
      <trkpt lat="42.88593" lon="-0.27594">
        <ele>1597</ele>
        <time>2013-05-20T05:49:03Z</time>
      </trkpt>
      <trkpt lat="42.8859" lon="-0.27595">
        <ele>1598</ele>
        <time>2013-05-20T05:49:11Z</time>
      </trkpt>
      <trkpt lat="42.8859" lon="-0.276">
        <ele>1600</ele>
        <time>2013-05-20T05:49:19Z</time>
      </trkpt>
      <trkpt lat="42.8859" lon="-0.27603">
        <ele>1601</ele>
        <time>2013-05-20T05:49:24Z</time>
      </trkpt>
      <trkpt lat="42.88591" lon="-0.2761">
        <ele>1602</ele>
        <time>2013-05-20T05:49:31Z</time>
      </trkpt>
      <trkpt lat="42.88592" lon="-0.27613">
        <ele>1603</ele>
        <time>2013-05-20T05:49:41Z</time>
      </trkpt>
      <trkpt lat="42.88591" lon="-0.27617">
        <ele>1604</ele>
        <time>2013-05-20T05:49:50Z</time>
      </trkpt>
      <trkpt lat="42.88591" lon="-0.27618">
        <ele>1604</ele>
        <time>2013-05-20T05:49:57Z</time>
      </trkpt>
      <trkpt lat="42.88592" lon="-0.27622">
        <ele>1605</ele>
        <time>2013-05-20T05:50:04Z</time>
      </trkpt>
      <trkpt lat="42.88591" lon="-0.2762">
        <ele>1606</ele>
        <time>2013-05-20T05:50:14Z</time>
      </trkpt>
      <trkpt lat="42.8859" lon="-0.27626">
        <ele>1607</ele>
        <time>2013-05-20T05:50:21Z</time>
      </trkpt>
      <trkpt lat="42.88588" lon="-0.27631">
        <ele>1608</ele>
        <time>2013-05-20T05:50:29Z</time>
      </trkpt>
      <trkpt lat="42.88587" lon="-0.27633">
        <ele>1610</ele>
        <time>2013-05-20T05:50:35Z</time>
      </trkpt>
      <trkpt lat="42.88588" lon="-0.27637">
        <ele>1611</ele>
        <time>2013-05-20T05:50:45Z</time>
      </trkpt>
      <trkpt lat="42.88588" lon="-0.27638">
        <ele>1611</ele>
        <time>2013-05-20T05:50:54Z</time>
      </trkpt>
      <trkpt lat="42.88585" lon="-0.27641">
        <ele>1613</ele>
        <time>2013-05-20T05:51:03Z</time>
      </trkpt>
      <trkpt lat="42.88584" lon="-0.27645">
        <ele>1613</ele>
        <time>2013-05-20T05:51:10Z</time>
      </trkpt>
      <trkpt lat="42.88581" lon="-0.27644">
        <ele>1614</ele>
        <time>2013-05-20T05:51:18Z</time>
      </trkpt>
      <trkpt lat="42.88578" lon="-0.27647">
        <ele>1616</ele>
        <time>2013-05-20T05:51:27Z</time>
      </trkpt>
      <trkpt lat="42.88578" lon="-0.2765">
        <ele>1616</ele>
        <time>2013-05-20T05:51:33Z</time>
      </trkpt>
      <trkpt lat="42.88576" lon="-0.27653">
        <ele>1617</ele>
        <time>2013-05-20T05:51:39Z</time>
      </trkpt>
      <trkpt lat="42.88574" lon="-0.27653">
        <ele>1618</ele>
        <time>2013-05-20T05:51:46Z</time>
      </trkpt>
      <trkpt lat="42.88572" lon="-0.27655">
        <ele>1619</ele>
        <time>2013-05-20T05:51:50Z</time>
      </trkpt>
      <trkpt lat="42.88574" lon="-0.27661">
        <ele>1619</ele>
        <time>2013-05-20T05:51:58Z</time>
      </trkpt>
      <trkpt lat="42.88573" lon="-0.27664">
        <ele>1620</ele>
        <time>2013-05-20T05:52:04Z</time>
      </trkpt>
      <trkpt lat="42.88575" lon="-0.27666">
        <ele>1620</ele>
        <time>2013-05-20T05:52:11Z</time>
      </trkpt>
      <trkpt lat="42.88574" lon="-0.27671">
        <ele>1621</ele>
        <time>2013-05-20T05:52:19Z</time>
      </trkpt>
      <trkpt lat="42.88572" lon="-0.27674">
        <ele>1623</ele>
        <time>2013-05-20T05:52:28Z</time>
      </trkpt>
      <trkpt lat="42.88571" lon="-0.27677">
        <ele>1624</ele>
        <time>2013-05-20T05:52:36Z</time>
      </trkpt>
      <trkpt lat="42.8857" lon="-0.27681">
        <ele>1625</ele>
        <time>2013-05-20T05:52:43Z</time>
      </trkpt>
      <trkpt lat="42.88568" lon="-0.27684">
        <ele>1626</ele>
        <time>2013-05-20T05:52:52Z</time>
      </trkpt>
      <trkpt lat="42.88569" lon="-0.27684">
        <ele>1625</ele>
        <time>2013-05-20T05:53:00Z</time>
      </trkpt>
      <trkpt lat="42.88568" lon="-0.27687">
        <ele>1625</ele>
        <time>2013-05-20T05:53:07Z</time>
      </trkpt>
      <trkpt lat="42.88566" lon="-0.2769">
        <ele>1626</ele>
        <time>2013-05-20T05:53:13Z</time>
      </trkpt>
      <trkpt lat="42.88565" lon="-0.27692">
        <ele>1627</ele>
        <time>2013-05-20T05:53:19Z</time>
      </trkpt>
      <trkpt lat="42.88563" lon="-0.27691">
        <ele>1628</ele>
        <time>2013-05-20T05:53:27Z</time>
      </trkpt>
      <trkpt lat="42.88559" lon="-0.27692">
        <ele>1629</ele>
        <time>2013-05-20T05:53:35Z</time>
      </trkpt>
      <trkpt lat="42.88559" lon="-0.27697">
        <ele>1630</ele>
        <time>2013-05-20T05:53:43Z</time>
      </trkpt>
      <trkpt lat="42.88558" lon="-0.27699">
        <ele>1631</ele>
        <time>2013-05-20T05:53:50Z</time>
      </trkpt>
      <trkpt lat="42.88558" lon="-0.27705">
        <ele>1632</ele>
        <time>2013-05-20T05:53:59Z</time>
      </trkpt>
      <trkpt lat="42.88557" lon="-0.2771">
        <ele>1633</ele>
        <time>2013-05-20T05:54:07Z</time>
      </trkpt>
      <trkpt lat="42.88557" lon="-0.27715">
        <ele>1634</ele>
        <time>2013-05-20T05:54:16Z</time>
      </trkpt>
      <trkpt lat="42.88557" lon="-0.27719">
        <ele>1635</ele>
        <time>2013-05-20T05:54:23Z</time>
      </trkpt>
      <trkpt lat="42.88556" lon="-0.27724">
        <ele>1635</ele>
        <time>2013-05-20T05:54:32Z</time>
      </trkpt>
      <trkpt lat="42.88555" lon="-0.27729">
        <ele>1636</ele>
        <time>2013-05-20T05:54:40Z</time>
      </trkpt>
      <trkpt lat="42.88553" lon="-0.2773">
        <ele>1637</ele>
        <time>2013-05-20T05:54:48Z</time>
      </trkpt>
      <trkpt lat="42.88554" lon="-0.27725">
        <ele>1638</ele>
        <time>2013-05-20T05:54:56Z</time>
      </trkpt>
      <trkpt lat="42.88553" lon="-0.27722">
        <ele>1639</ele>
        <time>2013-05-20T05:55:05Z</time>
      </trkpt>
      <trkpt lat="42.88553" lon="-0.27722">
        <ele>1637</ele>
        <time>2013-05-20T05:55:14Z</time>
      </trkpt>
      <trkpt lat="42.88553" lon="-0.27724">
        <ele>1637</ele>
        <time>2013-05-20T05:55:24Z</time>
      </trkpt>
      <trkpt lat="42.88551" lon="-0.27729">
        <ele>1637</ele>
        <time>2013-05-20T05:55:38Z</time>
      </trkpt>
      <trkpt lat="42.8855" lon="-0.27729">
        <ele>1637</ele>
        <time>2013-05-20T05:55:55Z</time>
      </trkpt>
      <trkpt lat="42.8855" lon="-0.27728">
        <ele>1637</ele>
        <time>2013-05-20T05:56:10Z</time>
      </trkpt>
      <trkpt lat="42.88552" lon="-0.27725">
        <ele>1637</ele>
        <time>2013-05-20T05:56:25Z</time>
      </trkpt>
      <trkpt lat="42.88552" lon="-0.2772">
        <ele>1637</ele>
        <time>2013-05-20T05:56:41Z</time>
      </trkpt>
      <trkpt lat="42.88554" lon="-0.27717">
        <ele>1637</ele>
        <time>2013-05-20T05:57:00Z</time>
      </trkpt>
      <trkpt lat="42.88554" lon="-0.27716">
        <ele>1637</ele>
        <time>2013-05-20T05:57:12Z</time>
      </trkpt>
      <trkpt lat="42.88554" lon="-0.2772">
        <ele>1637</ele>
        <time>2013-05-20T05:57:26Z</time>
      </trkpt>
      <trkpt lat="42.88553" lon="-0.27724">
        <ele>1637</ele>
        <time>2013-05-20T05:57:42Z</time>
      </trkpt>
      <trkpt lat="42.88552" lon="-0.27721">
        <ele>1637</ele>
        <time>2013-05-20T05:58:02Z</time>
      </trkpt>
      <trkpt lat="42.88554" lon="-0.27723">
        <ele>1638</ele>
        <time>2013-05-20T05:58:12Z</time>
      </trkpt>
      <trkpt lat="42.88553" lon="-0.27722">
        <ele>1638</ele>
        <time>2013-05-20T05:58:23Z</time>
      </trkpt>
      <trkpt lat="42.88553" lon="-0.27722">
        <ele>1638</ele>
        <time>2013-05-20T05:58:34Z</time>
      </trkpt>
      <trkpt lat="42.88554" lon="-0.2772">
        <ele>1638</ele>
        <time>2013-05-20T05:58:47Z</time>
      </trkpt>
      <trkpt lat="42.88552" lon="-0.2772">
        <ele>1638</ele>
        <time>2013-05-20T05:59:01Z</time>
      </trkpt>
      <trkpt lat="42.88552" lon="-0.2772">
        <ele>1639</ele>
        <time>2013-05-20T05:59:12Z</time>
      </trkpt>
      <trkpt lat="42.88554" lon="-0.27724">
        <ele>1638</ele>
        <time>2013-05-20T05:59:25Z</time>
      </trkpt>
      <trkpt lat="42.88554" lon="-0.27725">
        <ele>1638</ele>
        <time>2013-05-20T05:59:40Z</time>
      </trkpt>
      <trkpt lat="42.88555" lon="-0.27725">
        <ele>1639</ele>
        <time>2013-05-20T05:59:51Z</time>
      </trkpt>
      <trkpt lat="42.88551" lon="-0.27723">
        <ele>1639</ele>
        <time>2013-05-20T05:59:56Z</time>
      </trkpt>
      <trkpt lat="42.88546" lon="-0.27721">
        <ele>1641</ele>
        <time>2013-05-20T06:00:04Z</time>
      </trkpt>
      <trkpt lat="42.88543" lon="-0.27719">
        <ele>1642</ele>
        <time>2013-05-20T06:00:12Z</time>
      </trkpt>
      <trkpt lat="42.8854" lon="-0.27717">
        <ele>1643</ele>
        <time>2013-05-20T06:00:19Z</time>
      </trkpt>
      <trkpt lat="42.88535" lon="-0.27714">
        <ele>1644</ele>
        <time>2013-05-20T06:00:28Z</time>
      </trkpt>
      <trkpt lat="42.88533" lon="-0.27711">
        <ele>1646</ele>
        <time>2013-05-20T06:00:35Z</time>
      </trkpt>
      <trkpt lat="42.88529" lon="-0.27707">
        <ele>1647</ele>
        <time>2013-05-20T06:00:43Z</time>
      </trkpt>
      <trkpt lat="42.88523" lon="-0.27704">
        <ele>1649</ele>
        <time>2013-05-20T06:00:51Z</time>
      </trkpt>
      <trkpt lat="42.88521" lon="-0.27701">
        <ele>1650</ele>
        <time>2013-05-20T06:00:58Z</time>
      </trkpt>
      <trkpt lat="42.88519" lon="-0.27698">
        <ele>1651</ele>
        <time>2013-05-20T06:01:05Z</time>
      </trkpt>
      <trkpt lat="42.88517" lon="-0.27697">
        <ele>1652</ele>
        <time>2013-05-20T06:01:12Z</time>
      </trkpt>
      <trkpt lat="42.88516" lon="-0.27697">
        <ele>1652</ele>
        <time>2013-05-20T06:01:20Z</time>
      </trkpt>
      <trkpt lat="42.88516" lon="-0.27697">
        <ele>1654</ele>
        <time>2013-05-20T06:01:26Z</time>
      </trkpt>
      <trkpt lat="42.88514" lon="-0.27696">
        <ele>1654</ele>
        <time>2013-05-20T06:01:33Z</time>
      </trkpt>
      <trkpt lat="42.88511" lon="-0.27694">
        <ele>1655</ele>
        <time>2013-05-20T06:01:39Z</time>
      </trkpt>
      <trkpt lat="42.8851" lon="-0.27695">
        <ele>1656</ele>
        <time>2013-05-20T06:01:46Z</time>
      </trkpt>
      <trkpt lat="42.88509" lon="-0.27697">
        <ele>1656</ele>
        <time>2013-05-20T06:01:53Z</time>
      </trkpt>
      <trkpt lat="42.88507" lon="-0.27701">
        <ele>1658</ele>
        <time>2013-05-20T06:02:01Z</time>
      </trkpt>
      <trkpt lat="42.88505" lon="-0.27701">
        <ele>1658</ele>
        <time>2013-05-20T06:02:10Z</time>
      </trkpt>
      <trkpt lat="42.88504" lon="-0.27699">
        <ele>1659</ele>
        <time>2013-05-20T06:02:17Z</time>
      </trkpt>
      <trkpt lat="42.88501" lon="-0.27699">
        <ele>1662</ele>
        <time>2013-05-20T06:02:25Z</time>
      </trkpt>
      <trkpt lat="42.88501" lon="-0.27702">
        <ele>1662</ele>
        <time>2013-05-20T06:02:35Z</time>
      </trkpt>
      <trkpt lat="42.88499" lon="-0.27704">
        <ele>1662</ele>
        <time>2013-05-20T06:02:43Z</time>
      </trkpt>
      <trkpt lat="42.88496" lon="-0.27704">
        <ele>1663</ele>
        <time>2013-05-20T06:02:51Z</time>
      </trkpt>
      <trkpt lat="42.88496" lon="-0.27706">
        <ele>1664</ele>
        <time>2013-05-20T06:02:58Z</time>
      </trkpt>
      <trkpt lat="42.88496" lon="-0.27708">
        <ele>1665</ele>
        <time>2013-05-20T06:03:05Z</time>
      </trkpt>
      <trkpt lat="42.88494" lon="-0.27713">
        <ele>1666</ele>
        <time>2013-05-20T06:03:13Z</time>
      </trkpt>
      <trkpt lat="42.88493" lon="-0.27713">
        <ele>1667</ele>
        <time>2013-05-20T06:03:20Z</time>
      </trkpt>
      <trkpt lat="42.88491" lon="-0.27713">
        <ele>1668</ele>
        <time>2013-05-20T06:03:28Z</time>
      </trkpt>
      <trkpt lat="42.88491" lon="-0.27714">
        <ele>1668</ele>
        <time>2013-05-20T06:03:35Z</time>
      </trkpt>
      <trkpt lat="42.88489" lon="-0.27712">
        <ele>1670</ele>
        <time>2013-05-20T06:03:42Z</time>
      </trkpt>
      <trkpt lat="42.88487" lon="-0.2771">
        <ele>1671</ele>
        <time>2013-05-20T06:03:48Z</time>
      </trkpt>
      <trkpt lat="42.88486" lon="-0.27707">
        <ele>1671</ele>
        <time>2013-05-20T06:03:54Z</time>
      </trkpt>
      <trkpt lat="42.88486" lon="-0.27708">
        <ele>1672</ele>
        <time>2013-05-20T06:04:04Z</time>
      </trkpt>
      <trkpt lat="42.88482" lon="-0.27711">
        <ele>1673</ele>
        <time>2013-05-20T06:04:11Z</time>
      </trkpt>
      <trkpt lat="42.88482" lon="-0.27712">
        <ele>1674</ele>
        <time>2013-05-20T06:04:13Z</time>
      </trkpt>
      <trkpt lat="42.88482" lon="-0.27711">
        <ele>1674</ele>
        <time>2013-05-20T06:04:18Z</time>
      </trkpt>
      <trkpt lat="42.88482" lon="-0.27711">
        <ele>1675</ele>
        <time>2013-05-20T06:04:25Z</time>
      </trkpt>
      <trkpt lat="42.88481" lon="-0.27714">
        <ele>1676</ele>
        <time>2013-05-20T06:04:33Z</time>
      </trkpt>
      <trkpt lat="42.88478" lon="-0.27716">
        <ele>1677</ele>
        <time>2013-05-20T06:04:40Z</time>
      </trkpt>
      <trkpt lat="42.88477" lon="-0.27718">
        <ele>1677</ele>
        <time>2013-05-20T06:04:50Z</time>
      </trkpt>
      <trkpt lat="42.88476" lon="-0.27722">
        <ele>1678</ele>
        <time>2013-05-20T06:04:56Z</time>
      </trkpt>
      <trkpt lat="42.88476" lon="-0.27726">
        <ele>1680</ele>
        <time>2013-05-20T06:05:04Z</time>
      </trkpt>
      <trkpt lat="42.88475" lon="-0.27726">
        <ele>1680</ele>
        <time>2013-05-20T06:05:12Z</time>
      </trkpt>
      <trkpt lat="42.88473" lon="-0.27724">
        <ele>1681</ele>
        <time>2013-05-20T06:05:19Z</time>
      </trkpt>
      <trkpt lat="42.88471" lon="-0.2772">
        <ele>1682</ele>
        <time>2013-05-20T06:05:27Z</time>
      </trkpt>
      <trkpt lat="42.88467" lon="-0.27717">
        <ele>1683</ele>
        <time>2013-05-20T06:05:34Z</time>
      </trkpt>
      <trkpt lat="42.88466" lon="-0.27719">
        <ele>1684</ele>
        <time>2013-05-20T06:05:40Z</time>
      </trkpt>
      <trkpt lat="42.88464" lon="-0.27727">
        <ele>1685</ele>
        <time>2013-05-20T06:05:48Z</time>
      </trkpt>
      <trkpt lat="42.88464" lon="-0.27732">
        <ele>1687</ele>
        <time>2013-05-20T06:05:55Z</time>
      </trkpt>
      <trkpt lat="42.88464" lon="-0.27736">
        <ele>1688</ele>
        <time>2013-05-20T06:06:02Z</time>
      </trkpt>
      <trkpt lat="42.88465" lon="-0.2774">
        <ele>1689</ele>
        <time>2013-05-20T06:06:10Z</time>
      </trkpt>
      <trkpt lat="42.88465" lon="-0.27737">
        <ele>1689</ele>
        <time>2013-05-20T06:06:18Z</time>
      </trkpt>
      <trkpt lat="42.88462" lon="-0.27733">
        <ele>1691</ele>
        <time>2013-05-20T06:06:25Z</time>
      </trkpt>
      <trkpt lat="42.8846" lon="-0.27731">
        <ele>1692</ele>
        <time>2013-05-20T06:06:32Z</time>
      </trkpt>
      <trkpt lat="42.88457" lon="-0.2773">
        <ele>1693</ele>
        <time>2013-05-20T06:06:39Z</time>
      </trkpt>
      <trkpt lat="42.88456" lon="-0.27727">
        <ele>1694</ele>
        <time>2013-05-20T06:06:46Z</time>
      </trkpt>
      <trkpt lat="42.88456" lon="-0.27725">
        <ele>1696</ele>
        <time>2013-05-20T06:06:51Z</time>
      </trkpt>
      <trkpt lat="42.88457" lon="-0.27719">
        <ele>1696</ele>
        <time>2013-05-20T06:06:59Z</time>
      </trkpt>
      <trkpt lat="42.88454" lon="-0.2772">
        <ele>1697</ele>
        <time>2013-05-20T06:07:07Z</time>
      </trkpt>
      <trkpt lat="42.88451" lon="-0.27725">
        <ele>1696</ele>
        <time>2013-05-20T06:07:13Z</time>
      </trkpt>
      <trkpt lat="42.88449" lon="-0.27733">
        <ele>1696</ele>
        <time>2013-05-20T06:07:20Z</time>
      </trkpt>
      <trkpt lat="42.88448" lon="-0.27738">
        <ele>1698</ele>
        <time>2013-05-20T06:07:27Z</time>
      </trkpt>
      <trkpt lat="42.88448" lon="-0.27742">
        <ele>1699</ele>
        <time>2013-05-20T06:07:31Z</time>
      </trkpt>
      <trkpt lat="42.88447" lon="-0.27745">
        <ele>1700</ele>
        <time>2013-05-20T06:07:37Z</time>
      </trkpt>
      <trkpt lat="42.88448" lon="-0.27752">
        <ele>1702</ele>
        <time>2013-05-20T06:07:45Z</time>
      </trkpt>
      <trkpt lat="42.88454" lon="-0.27759">
        <ele>1702</ele>
        <time>2013-05-20T06:07:54Z</time>
      </trkpt>
      <trkpt lat="42.88457" lon="-0.27762">
        <ele>1703</ele>
        <time>2013-05-20T06:08:00Z</time>
      </trkpt>
      <trkpt lat="42.88459" lon="-0.27768">
        <ele>1704</ele>
        <time>2013-05-20T06:08:07Z</time>
      </trkpt>
      <trkpt lat="42.8846" lon="-0.27774">
        <ele>1706</ele>
        <time>2013-05-20T06:08:15Z</time>
      </trkpt>
      <trkpt lat="42.8846" lon="-0.27776">
        <ele>1707</ele>
        <time>2013-05-20T06:08:24Z</time>
      </trkpt>
      <trkpt lat="42.88461" lon="-0.2778">
        <ele>1708</ele>
        <time>2013-05-20T06:08:31Z</time>
      </trkpt>
      <trkpt lat="42.88462" lon="-0.27786">
        <ele>1710</ele>
        <time>2013-05-20T06:08:39Z</time>
      </trkpt>
      <trkpt lat="42.88462" lon="-0.27789">
        <ele>1710</ele>
        <time>2013-05-20T06:08:48Z</time>
      </trkpt>
      <trkpt lat="42.88461" lon="-0.27793">
        <ele>1711</ele>
        <time>2013-05-20T06:08:56Z</time>
      </trkpt>
      <trkpt lat="42.88462" lon="-0.27798">
        <ele>1712</ele>
        <time>2013-05-20T06:09:02Z</time>
      </trkpt>
      <trkpt lat="42.88461" lon="-0.27797">
        <ele>1712</ele>
        <time>2013-05-20T06:09:09Z</time>
      </trkpt>
      <trkpt lat="42.88462" lon="-0.27791">
        <ele>1712</ele>
        <time>2013-05-20T06:09:22Z</time>
      </trkpt>
      <trkpt lat="42.88462" lon="-0.27791">
        <ele>1712</ele>
        <time>2013-05-20T06:09:33Z</time>
      </trkpt>
      <trkpt lat="42.88462" lon="-0.27793">
        <ele>1713</ele>
        <time>2013-05-20T06:09:45Z</time>
      </trkpt>
      <trkpt lat="42.8846" lon="-0.27792">
        <ele>1713</ele>
        <time>2013-05-20T06:09:54Z</time>
      </trkpt>
      <trkpt lat="42.88458" lon="-0.2779">
        <ele>1715</ele>
        <time>2013-05-20T06:10:00Z</time>
      </trkpt>
      <trkpt lat="42.88455" lon="-0.27786">
        <ele>1716</ele>
        <time>2013-05-20T06:10:08Z</time>
      </trkpt>
      <trkpt lat="42.88451" lon="-0.27784">
        <ele>1718</ele>
        <time>2013-05-20T06:10:17Z</time>
      </trkpt>
      <trkpt lat="42.88448" lon="-0.27784">
        <ele>1718</ele>
        <time>2013-05-20T06:10:25Z</time>
      </trkpt>
      <trkpt lat="42.88448" lon="-0.27788">
        <ele>1718</ele>
        <time>2013-05-20T06:10:32Z</time>
      </trkpt>
      <trkpt lat="42.88448" lon="-0.27793">
        <ele>1720</ele>
        <time>2013-05-20T06:10:39Z</time>
      </trkpt>
      <trkpt lat="42.88447" lon="-0.27792">
        <ele>1720</ele>
        <time>2013-05-20T06:10:46Z</time>
      </trkpt>
      <trkpt lat="42.88444" lon="-0.27788">
        <ele>1721</ele>
        <time>2013-05-20T06:10:55Z</time>
      </trkpt>
      <trkpt lat="42.88443" lon="-0.27787">
        <ele>1722</ele>
        <time>2013-05-20T06:11:02Z</time>
      </trkpt>
      <trkpt lat="42.88442" lon="-0.27786">
        <ele>1722</ele>
        <time>2013-05-20T06:11:09Z</time>
      </trkpt>
      <trkpt lat="42.88441" lon="-0.27784">
        <ele>1722</ele>
        <time>2013-05-20T06:11:19Z</time>
      </trkpt>
      <trkpt lat="42.88441" lon="-0.27787">
        <ele>1723</ele>
        <time>2013-05-20T06:11:27Z</time>
      </trkpt>
      <trkpt lat="42.88441" lon="-0.27791">
        <ele>1723</ele>
        <time>2013-05-20T06:11:35Z</time>
      </trkpt>
      <trkpt lat="42.88441" lon="-0.27793">
        <ele>1724</ele>
        <time>2013-05-20T06:11:41Z</time>
      </trkpt>
      <trkpt lat="42.8844" lon="-0.27794">
        <ele>1725</ele>
        <time>2013-05-20T06:11:50Z</time>
      </trkpt>
      <trkpt lat="42.8844" lon="-0.27792">
        <ele>1726</ele>
        <time>2013-05-20T06:11:58Z</time>
      </trkpt>
      <trkpt lat="42.88441" lon="-0.27796">
        <ele>1726</ele>
        <time>2013-05-20T06:12:07Z</time>
      </trkpt>
      <trkpt lat="42.88442" lon="-0.27803">
        <ele>1727</ele>
        <time>2013-05-20T06:12:16Z</time>
      </trkpt>
      <trkpt lat="42.88442" lon="-0.2781">
        <ele>1729</ele>
        <time>2013-05-20T06:12:24Z</time>
      </trkpt>
      <trkpt lat="42.88441" lon="-0.27806">
        <ele>1729</ele>
        <time>2013-05-20T06:12:32Z</time>
      </trkpt>
      <trkpt lat="42.88437" lon="-0.27801">
        <ele>1730</ele>
        <time>2013-05-20T06:12:42Z</time>
      </trkpt>
      <trkpt lat="42.88435" lon="-0.27799">
        <ele>1732</ele>
        <time>2013-05-20T06:12:50Z</time>
      </trkpt>
      <trkpt lat="42.8843" lon="-0.27795">
        <ele>1733</ele>
        <time>2013-05-20T06:13:00Z</time>
      </trkpt>
      <trkpt lat="42.88426" lon="-0.27793">
        <ele>1735</ele>
        <time>2013-05-20T06:13:08Z</time>
      </trkpt>
      <trkpt lat="42.88423" lon="-0.27791">
        <ele>1736</ele>
        <time>2013-05-20T06:13:15Z</time>
      </trkpt>
      <trkpt lat="42.88423" lon="-0.27797">
        <ele>1737</ele>
        <time>2013-05-20T06:13:24Z</time>
      </trkpt>
      <trkpt lat="42.88423" lon="-0.27804">
        <ele>1738</ele>
        <time>2013-05-20T06:13:31Z</time>
      </trkpt>
      <trkpt lat="42.88424" lon="-0.27811">
        <ele>1739</ele>
        <time>2013-05-20T06:13:38Z</time>
      </trkpt>
      <trkpt lat="42.88426" lon="-0.27815">
        <ele>1740</ele>
        <time>2013-05-20T06:13:47Z</time>
      </trkpt>
      <trkpt lat="42.88427" lon="-0.27815">
        <ele>1741</ele>
        <time>2013-05-20T06:13:54Z</time>
      </trkpt>
      <trkpt lat="42.88425" lon="-0.27813">
        <ele>1742</ele>
        <time>2013-05-20T06:14:03Z</time>
      </trkpt>
      <trkpt lat="42.88425" lon="-0.27814">
        <ele>1743</ele>
        <time>2013-05-20T06:14:10Z</time>
      </trkpt>
      <trkpt lat="42.88425" lon="-0.27817">
        <ele>1743</ele>
        <time>2013-05-20T06:14:17Z</time>
      </trkpt>
      <trkpt lat="42.88425" lon="-0.27817">
        <ele>1743</ele>
        <time>2013-05-20T06:14:25Z</time>
      </trkpt>
      <trkpt lat="42.88425" lon="-0.27813">
        <ele>1743</ele>
        <time>2013-05-20T06:14:34Z</time>
      </trkpt>
      <trkpt lat="42.88421" lon="-0.27813">
        <ele>1745</ele>
        <time>2013-05-20T06:14:42Z</time>
      </trkpt>
      <trkpt lat="42.88421" lon="-0.27813">
        <ele>1745</ele>
        <time>2013-05-20T06:14:49Z</time>
      </trkpt>
      <trkpt lat="42.88419" lon="-0.2781">
        <ele>1746</ele>
        <time>2013-05-20T06:14:56Z</time>
      </trkpt>
      <trkpt lat="42.88416" lon="-0.27809">
        <ele>1746</ele>
        <time>2013-05-20T06:15:06Z</time>
      </trkpt>
      <trkpt lat="42.88416" lon="-0.27806">
        <ele>1747</ele>
        <time>2013-05-20T06:15:15Z</time>
      </trkpt>
      <trkpt lat="42.88413" lon="-0.27803">
        <ele>1747</ele>
        <time>2013-05-20T06:15:25Z</time>
      </trkpt>
      <trkpt lat="42.88412" lon="-0.27801">
        <ele>1748</ele>
        <time>2013-05-20T06:15:34Z</time>
      </trkpt>
      <trkpt lat="42.88413" lon="-0.27803">
        <ele>1749</ele>
        <time>2013-05-20T06:15:44Z</time>
      </trkpt>
      <trkpt lat="42.88413" lon="-0.2781">
        <ele>1749</ele>
        <time>2013-05-20T06:15:52Z</time>
      </trkpt>
      <trkpt lat="42.88412" lon="-0.27807">
        <ele>1749</ele>
        <time>2013-05-20T06:16:01Z</time>
      </trkpt>
      <trkpt lat="42.88411" lon="-0.27807">
        <ele>1750</ele>
        <time>2013-05-20T06:16:08Z</time>
      </trkpt>
      <trkpt lat="42.88413" lon="-0.2781">
        <ele>1751</ele>
        <time>2013-05-20T06:16:21Z</time>
      </trkpt>
      <trkpt lat="42.88412" lon="-0.27814">
        <ele>1751</ele>
        <time>2013-05-20T06:16:31Z</time>
      </trkpt>
      <trkpt lat="42.88411" lon="-0.27818">
        <ele>1752</ele>
        <time>2013-05-20T06:16:40Z</time>
      </trkpt>
      <trkpt lat="42.8841" lon="-0.27815">
        <ele>1752</ele>
        <time>2013-05-20T06:16:49Z</time>
      </trkpt>
      <trkpt lat="42.88408" lon="-0.27814">
        <ele>1754</ele>
        <time>2013-05-20T06:16:57Z</time>
      </trkpt>
      <trkpt lat="42.88409" lon="-0.27814">
        <ele>1754</ele>
        <time>2013-05-20T06:17:05Z</time>
      </trkpt>
      <trkpt lat="42.88407" lon="-0.27814">
        <ele>1755</ele>
        <time>2013-05-20T06:17:16Z</time>
      </trkpt>
      <trkpt lat="42.88408" lon="-0.27815">
        <ele>1755</ele>
        <time>2013-05-20T06:17:25Z</time>
      </trkpt>
      <trkpt lat="42.88407" lon="-0.27813">
        <ele>1754</ele>
        <time>2013-05-20T06:17:34Z</time>
      </trkpt>
      <trkpt lat="42.88408" lon="-0.27815">
        <ele>1755</ele>
        <time>2013-05-20T06:17:44Z</time>
      </trkpt>
      <trkpt lat="42.88409" lon="-0.27822">
        <ele>1756</ele>
        <time>2013-05-20T06:17:51Z</time>
      </trkpt>
      <trkpt lat="42.88409" lon="-0.27825">
        <ele>1757</ele>
        <time>2013-05-20T06:17:59Z</time>
      </trkpt>
      <trkpt lat="42.88408" lon="-0.27822">
        <ele>1757</ele>
        <time>2013-05-20T06:18:05Z</time>
      </trkpt>
      <trkpt lat="42.88406" lon="-0.27821">
        <ele>1759</ele>
        <time>2013-05-20T06:18:15Z</time>
      </trkpt>
      <trkpt lat="42.88403" lon="-0.27821">
        <ele>1760</ele>
        <time>2013-05-20T06:18:23Z</time>
      </trkpt>
      <trkpt lat="42.88404" lon="-0.27824">
        <ele>1760</ele>
        <time>2013-05-20T06:18:30Z</time>
      </trkpt>
      <trkpt lat="42.88404" lon="-0.2783">
        <ele>1761</ele>
        <time>2013-05-20T06:18:38Z</time>
      </trkpt>
      <trkpt lat="42.88403" lon="-0.2783">
        <ele>1762</ele>
        <time>2013-05-20T06:18:44Z</time>
      </trkpt>
      <trkpt lat="42.884" lon="-0.2783">
        <ele>1764</ele>
        <time>2013-05-20T06:18:51Z</time>
      </trkpt>
      <trkpt lat="42.88397" lon="-0.27829">
        <ele>1765</ele>
        <time>2013-05-20T06:18:59Z</time>
      </trkpt>
      <trkpt lat="42.88395" lon="-0.27828">
        <ele>1766</ele>
        <time>2013-05-20T06:19:07Z</time>
      </trkpt>
      <trkpt lat="42.88393" lon="-0.27827">
        <ele>1767</ele>
        <time>2013-05-20T06:19:13Z</time>
      </trkpt>
      <trkpt lat="42.8839" lon="-0.27823">
        <ele>1768</ele>
        <time>2013-05-20T06:19:22Z</time>
      </trkpt>
      <trkpt lat="42.88388" lon="-0.2782">
        <ele>1770</ele>
        <time>2013-05-20T06:19:30Z</time>
      </trkpt>
      <trkpt lat="42.88385" lon="-0.27818">
        <ele>1771</ele>
        <time>2013-05-20T06:19:38Z</time>
      </trkpt>
      <trkpt lat="42.88384" lon="-0.27819">
        <ele>1772</ele>
        <time>2013-05-20T06:19:48Z</time>
      </trkpt>
      <trkpt lat="42.88383" lon="-0.27822">
        <ele>1772</ele>
        <time>2013-05-20T06:19:55Z</time>
      </trkpt>
      <trkpt lat="42.88382" lon="-0.27826">
        <ele>1774</ele>
        <time>2013-05-20T06:20:03Z</time>
      </trkpt>
      <trkpt lat="42.88381" lon="-0.2783">
        <ele>1775</ele>
        <time>2013-05-20T06:20:11Z</time>
      </trkpt>
      <trkpt lat="42.8838" lon="-0.27829">
        <ele>1776</ele>
        <time>2013-05-20T06:20:20Z</time>
      </trkpt>
      <trkpt lat="42.88379" lon="-0.27827">
        <ele>1776</ele>
        <time>2013-05-20T06:20:26Z</time>
      </trkpt>
      <trkpt lat="42.88379" lon="-0.27825">
        <ele>1777</ele>
        <time>2013-05-20T06:20:33Z</time>
      </trkpt>
      <trkpt lat="42.88378" lon="-0.27822">
        <ele>1778</ele>
        <time>2013-05-20T06:20:42Z</time>
      </trkpt>
      <trkpt lat="42.88377" lon="-0.27819">
        <ele>1779</ele>
        <time>2013-05-20T06:20:50Z</time>
      </trkpt>
      <trkpt lat="42.88376" lon="-0.27817">
        <ele>1780</ele>
        <time>2013-05-20T06:20:57Z</time>
      </trkpt>
      <trkpt lat="42.88373" lon="-0.27817">
        <ele>1780</ele>
        <time>2013-05-20T06:21:06Z</time>
      </trkpt>
      <trkpt lat="42.88373" lon="-0.27817">
        <ele>1780</ele>
        <time>2013-05-20T06:21:15Z</time>
      </trkpt>
      <trkpt lat="42.88371" lon="-0.27824">
        <ele>1782</ele>
        <time>2013-05-20T06:21:23Z</time>
      </trkpt>
      <trkpt lat="42.88369" lon="-0.27828">
        <ele>1783</ele>
        <time>2013-05-20T06:21:31Z</time>
      </trkpt>
      <trkpt lat="42.88369" lon="-0.27829">
        <ele>1784</ele>
        <time>2013-05-20T06:21:38Z</time>
      </trkpt>
      <trkpt lat="42.88369" lon="-0.27828">
        <ele>1785</ele>
        <time>2013-05-20T06:21:44Z</time>
      </trkpt>
      <trkpt lat="42.88367" lon="-0.27827">
        <ele>1785</ele>
        <time>2013-05-20T06:21:51Z</time>
      </trkpt>
      <trkpt lat="42.88367" lon="-0.27823">
        <ele>1786</ele>
        <time>2013-05-20T06:21:57Z</time>
      </trkpt>
      <trkpt lat="42.88365" lon="-0.27821">
        <ele>1787</ele>
        <time>2013-05-20T06:22:06Z</time>
      </trkpt>
      <trkpt lat="42.88362" lon="-0.27823">
        <ele>1788</ele>
        <time>2013-05-20T06:22:14Z</time>
      </trkpt>
      <trkpt lat="42.88361" lon="-0.2783">
        <ele>1790</ele>
        <time>2013-05-20T06:22:24Z</time>
      </trkpt>
      <trkpt lat="42.8836" lon="-0.27833">
        <ele>1791</ele>
        <time>2013-05-20T06:22:32Z</time>
      </trkpt>
      <trkpt lat="42.88359" lon="-0.27832">
        <ele>1791</ele>
        <time>2013-05-20T06:22:40Z</time>
      </trkpt>
      <trkpt lat="42.88358" lon="-0.27828">
        <ele>1792</ele>
        <time>2013-05-20T06:22:46Z</time>
      </trkpt>
      <trkpt lat="42.88358" lon="-0.27822">
        <ele>1793</ele>
        <time>2013-05-20T06:22:55Z</time>
      </trkpt>
      <trkpt lat="42.88354" lon="-0.27819">
        <ele>1794</ele>
        <time>2013-05-20T06:23:02Z</time>
      </trkpt>
      <trkpt lat="42.88349" lon="-0.27817">
        <ele>1796</ele>
        <time>2013-05-20T06:23:12Z</time>
      </trkpt>
      <trkpt lat="42.88346" lon="-0.27816">
        <ele>1797</ele>
        <time>2013-05-20T06:23:20Z</time>
      </trkpt>
      <trkpt lat="42.88343" lon="-0.27815">
        <ele>1798</ele>
        <time>2013-05-20T06:23:28Z</time>
      </trkpt>
      <trkpt lat="42.88342" lon="-0.2782">
        <ele>1798</ele>
        <time>2013-05-20T06:23:34Z</time>
      </trkpt>
      <trkpt lat="42.88342" lon="-0.27825">
        <ele>1800</ele>
        <time>2013-05-20T06:23:44Z</time>
      </trkpt>
      <trkpt lat="42.88342" lon="-0.27825">
        <ele>1801</ele>
        <time>2013-05-20T06:23:53Z</time>
      </trkpt>
      <trkpt lat="42.8834" lon="-0.27823">
        <ele>1802</ele>
        <time>2013-05-20T06:24:02Z</time>
      </trkpt>
      <trkpt lat="42.88337" lon="-0.27823">
        <ele>1803</ele>
        <time>2013-05-20T06:24:11Z</time>
      </trkpt>
      <trkpt lat="42.88333" lon="-0.27821">
        <ele>1805</ele>
        <time>2013-05-20T06:24:20Z</time>
      </trkpt>
      <trkpt lat="42.88332" lon="-0.27825">
        <ele>1806</ele>
        <time>2013-05-20T06:24:28Z</time>
      </trkpt>
      <trkpt lat="42.88334" lon="-0.2783">
        <ele>1806</ele>
        <time>2013-05-20T06:24:34Z</time>
      </trkpt>
      <trkpt lat="42.88335" lon="-0.27838">
        <ele>1808</ele>
        <time>2013-05-20T06:24:45Z</time>
      </trkpt>
      <trkpt lat="42.88336" lon="-0.27842">
        <ele>1809</ele>
        <time>2013-05-20T06:24:53Z</time>
      </trkpt>
      <trkpt lat="42.88336" lon="-0.27845">
        <ele>1810</ele>
        <time>2013-05-20T06:25:04Z</time>
      </trkpt>
      <trkpt lat="42.88336" lon="-0.27842">
        <ele>1811</ele>
        <time>2013-05-20T06:25:10Z</time>
      </trkpt>
      <trkpt lat="42.88333" lon="-0.2784">
        <ele>1812</ele>
        <time>2013-05-20T06:25:20Z</time>
      </trkpt>
      <trkpt lat="42.88333" lon="-0.27835">
        <ele>1811</ele>
        <time>2013-05-20T06:25:33Z</time>
      </trkpt>
      <trkpt lat="42.88332" lon="-0.27836">
        <ele>1812</ele>
        <time>2013-05-20T06:25:38Z</time>
      </trkpt>
      <trkpt lat="42.88328" lon="-0.27836">
        <ele>1813</ele>
        <time>2013-05-20T06:25:45Z</time>
      </trkpt>
      <trkpt lat="42.88325" lon="-0.27835">
        <ele>1814</ele>
        <time>2013-05-20T06:25:54Z</time>
      </trkpt>
      <trkpt lat="42.88321" lon="-0.27833">
        <ele>1816</ele>
        <time>2013-05-20T06:26:02Z</time>
      </trkpt>
      <trkpt lat="42.88319" lon="-0.27828">
        <ele>1817</ele>
        <time>2013-05-20T06:26:11Z</time>
      </trkpt>
      <trkpt lat="42.88318" lon="-0.27823">
        <ele>1818</ele>
        <time>2013-05-20T06:26:18Z</time>
      </trkpt>
      <trkpt lat="42.88318" lon="-0.27819">
        <ele>1819</ele>
        <time>2013-05-20T06:26:26Z</time>
      </trkpt>
      <trkpt lat="42.88314" lon="-0.27815">
        <ele>1821</ele>
        <time>2013-05-20T06:26:35Z</time>
      </trkpt>
      <trkpt lat="42.88314" lon="-0.27816">
        <ele>1821</ele>
        <time>2013-05-20T06:26:36Z</time>
      </trkpt>
      <trkpt lat="42.88308" lon="-0.2782">
        <ele>1822</ele>
        <time>2013-05-20T06:26:44Z</time>
      </trkpt>
      <trkpt lat="42.88307" lon="-0.27826">
        <ele>1824</ele>
        <time>2013-05-20T06:26:52Z</time>
      </trkpt>
      <trkpt lat="42.88306" lon="-0.27835">
        <ele>1825</ele>
        <time>2013-05-20T06:27:00Z</time>
      </trkpt>
      <trkpt lat="42.88306" lon="-0.27842">
        <ele>1826</ele>
        <time>2013-05-20T06:27:08Z</time>
      </trkpt>
      <trkpt lat="42.88305" lon="-0.27847">
        <ele>1827</ele>
        <time>2013-05-20T06:27:15Z</time>
      </trkpt>
      <trkpt lat="42.88305" lon="-0.27853">
        <ele>1828</ele>
        <time>2013-05-20T06:27:22Z</time>
      </trkpt>
      <trkpt lat="42.88306" lon="-0.2786">
        <ele>1830</ele>
        <time>2013-05-20T06:27:32Z</time>
      </trkpt>
      <trkpt lat="42.88306" lon="-0.27864">
        <ele>1831</ele>
        <time>2013-05-20T06:27:38Z</time>
      </trkpt>
      <trkpt lat="42.88307" lon="-0.27871">
        <ele>1833</ele>
        <time>2013-05-20T06:27:48Z</time>
      </trkpt>
      <trkpt lat="42.88308" lon="-0.27876">
        <ele>1834</ele>
        <time>2013-05-20T06:27:57Z</time>
      </trkpt>
      <trkpt lat="42.8831" lon="-0.27881">
        <ele>1836</ele>
        <time>2013-05-20T06:28:06Z</time>
      </trkpt>
      <trkpt lat="42.88311" lon="-0.27888">
        <ele>1838</ele>
        <time>2013-05-20T06:28:16Z</time>
      </trkpt>
      <trkpt lat="42.88314" lon="-0.27892">
        <ele>1839</ele>
        <time>2013-05-20T06:28:25Z</time>
      </trkpt>
      <trkpt lat="42.88314" lon="-0.27892">
        <ele>1841</ele>
        <time>2013-05-20T06:28:33Z</time>
      </trkpt>
      <trkpt lat="42.88315" lon="-0.2789">
        <ele>1840</ele>
        <time>2013-05-20T06:28:42Z</time>
      </trkpt>
      <trkpt lat="42.8831" lon="-0.27888">
        <ele>1842</ele>
        <time>2013-05-20T06:28:49Z</time>
      </trkpt>
      <trkpt lat="42.88306" lon="-0.27888">
        <ele>1842</ele>
        <time>2013-05-20T06:28:58Z</time>
      </trkpt>
      <trkpt lat="42.88301" lon="-0.27888">
        <ele>1844</ele>
        <time>2013-05-20T06:29:08Z</time>
      </trkpt>
      <trkpt lat="42.88296" lon="-0.27887">
        <ele>1845</ele>
        <time>2013-05-20T06:29:18Z</time>
      </trkpt>
      <trkpt lat="42.88291" lon="-0.27884">
        <ele>1847</ele>
        <time>2013-05-20T06:29:25Z</time>
      </trkpt>
      <trkpt lat="42.88287" lon="-0.2788">
        <ele>1848</ele>
        <time>2013-05-20T06:29:35Z</time>
      </trkpt>
      <trkpt lat="42.88288" lon="-0.27878">
        <ele>1848</ele>
        <time>2013-05-20T06:29:48Z</time>
      </trkpt>
      <trkpt lat="42.88286" lon="-0.27875">
        <ele>1849</ele>
        <time>2013-05-20T06:29:55Z</time>
      </trkpt>
      <trkpt lat="42.88285" lon="-0.27875">
        <ele>1849</ele>
        <time>2013-05-20T06:30:03Z</time>
      </trkpt>
      <trkpt lat="42.88285" lon="-0.27879">
        <ele>1850</ele>
        <time>2013-05-20T06:30:09Z</time>
      </trkpt>
      <trkpt lat="42.88284" lon="-0.27883">
        <ele>1850</ele>
        <time>2013-05-20T06:30:16Z</time>
      </trkpt>
      <trkpt lat="42.88285" lon="-0.27885">
        <ele>1850</ele>
        <time>2013-05-20T06:30:23Z</time>
      </trkpt>
      <trkpt lat="42.88284" lon="-0.27889">
        <ele>1852</ele>
        <time>2013-05-20T06:30:31Z</time>
      </trkpt>
      <trkpt lat="42.88284" lon="-0.27894">
        <ele>1853</ele>
        <time>2013-05-20T06:30:39Z</time>
      </trkpt>
      <trkpt lat="42.88284" lon="-0.27901">
        <ele>1855</ele>
        <time>2013-05-20T06:30:48Z</time>
      </trkpt>
      <trkpt lat="42.88285" lon="-0.279">
        <ele>1855</ele>
        <time>2013-05-20T06:30:55Z</time>
      </trkpt>
      <trkpt lat="42.88283" lon="-0.27899">
        <ele>1856</ele>
        <time>2013-05-20T06:31:03Z</time>
      </trkpt>
      <trkpt lat="42.8828" lon="-0.27896">
        <ele>1856</ele>
        <time>2013-05-20T06:31:10Z</time>
      </trkpt>
      <trkpt lat="42.8828" lon="-0.27896">
        <ele>1856</ele>
        <time>2013-05-20T06:31:12Z</time>
      </trkpt>
      <trkpt lat="42.88278" lon="-0.27897">
        <ele>1857</ele>
        <time>2013-05-20T06:31:19Z</time>
      </trkpt>
      <trkpt lat="42.88274" lon="-0.27899">
        <ele>1858</ele>
        <time>2013-05-20T06:31:29Z</time>
      </trkpt>
      <trkpt lat="42.88273" lon="-0.27903">
        <ele>1859</ele>
        <time>2013-05-20T06:31:36Z</time>
      </trkpt>
      <trkpt lat="42.88276" lon="-0.27909">
        <ele>1861</ele>
        <time>2013-05-20T06:31:43Z</time>
      </trkpt>
      <trkpt lat="42.88277" lon="-0.27914">
        <ele>1862</ele>
        <time>2013-05-20T06:31:51Z</time>
      </trkpt>
      <trkpt lat="42.88274" lon="-0.27915">
        <ele>1863</ele>
        <time>2013-05-20T06:32:00Z</time>
      </trkpt>
      <trkpt lat="42.88271" lon="-0.27919">
        <ele>1865</ele>
        <time>2013-05-20T06:32:09Z</time>
      </trkpt>
      <trkpt lat="42.8827" lon="-0.27922">
        <ele>1865</ele>
        <time>2013-05-20T06:32:17Z</time>
      </trkpt>
      <trkpt lat="42.88272" lon="-0.27924">
        <ele>1867</ele>
        <time>2013-05-20T06:32:26Z</time>
      </trkpt>
      <trkpt lat="42.88274" lon="-0.27929">
        <ele>1867</ele>
        <time>2013-05-20T06:32:34Z</time>
      </trkpt>
      <trkpt lat="42.88276" lon="-0.27932">
        <ele>1868</ele>
        <time>2013-05-20T06:32:42Z</time>
      </trkpt>
      <trkpt lat="42.88278" lon="-0.27933">
        <ele>1869</ele>
        <time>2013-05-20T06:32:50Z</time>
      </trkpt>
      <trkpt lat="42.88279" lon="-0.27938">
        <ele>1871</ele>
        <time>2013-05-20T06:32:59Z</time>
      </trkpt>
      <trkpt lat="42.88279" lon="-0.2794">
        <ele>1871</ele>
        <time>2013-05-20T06:33:09Z</time>
      </trkpt>
      <trkpt lat="42.88282" lon="-0.27943">
        <ele>1872</ele>
        <time>2013-05-20T06:33:17Z</time>
      </trkpt>
      <trkpt lat="42.88283" lon="-0.27946">
        <ele>1873</ele>
        <time>2013-05-20T06:33:25Z</time>
      </trkpt>
      <trkpt lat="42.88285" lon="-0.27949">
        <ele>1873</ele>
        <time>2013-05-20T06:33:35Z</time>
      </trkpt>
      <trkpt lat="42.88289" lon="-0.27954">
        <ele>1875</ele>
        <time>2013-05-20T06:33:44Z</time>
      </trkpt>
      <trkpt lat="42.88288" lon="-0.27956">
        <ele>1876</ele>
        <time>2013-05-20T06:33:50Z</time>
      </trkpt>
      <trkpt lat="42.88287" lon="-0.27955">
        <ele>1876</ele>
        <time>2013-05-20T06:33:56Z</time>
      </trkpt>
      <trkpt lat="42.88283" lon="-0.27954">
        <ele>1877</ele>
        <time>2013-05-20T06:34:04Z</time>
      </trkpt>
      <trkpt lat="42.88286" lon="-0.27954">
        <ele>1877</ele>
        <time>2013-05-20T06:34:14Z</time>
      </trkpt>
      <trkpt lat="42.8828" lon="-0.27954">
        <ele>1878</ele>
        <time>2013-05-20T06:34:22Z</time>
      </trkpt>
      <trkpt lat="42.88278" lon="-0.27954">
        <ele>1879</ele>
        <time>2013-05-20T06:34:30Z</time>
      </trkpt>
      <trkpt lat="42.88278" lon="-0.27958">
        <ele>1880</ele>
        <time>2013-05-20T06:34:38Z</time>
      </trkpt>
      <trkpt lat="42.8828" lon="-0.27963">
        <ele>1881</ele>
        <time>2013-05-20T06:34:47Z</time>
      </trkpt>
      <trkpt lat="42.88283" lon="-0.27968">
        <ele>1882</ele>
        <time>2013-05-20T06:34:54Z</time>
      </trkpt>
      <trkpt lat="42.88288" lon="-0.27971">
        <ele>1883</ele>
        <time>2013-05-20T06:35:02Z</time>
      </trkpt>
      <trkpt lat="42.88288" lon="-0.2797">
        <ele>1883</ele>
        <time>2013-05-20T06:35:09Z</time>
      </trkpt>
      <trkpt lat="42.88286" lon="-0.27971">
        <ele>1884</ele>
        <time>2013-05-20T06:35:16Z</time>
      </trkpt>
      <trkpt lat="42.88286" lon="-0.2797">
        <ele>1884</ele>
        <time>2013-05-20T06:35:23Z</time>
      </trkpt>
      <trkpt lat="42.88284" lon="-0.27971">
        <ele>1886</ele>
        <time>2013-05-20T06:35:34Z</time>
      </trkpt>
      <trkpt lat="42.88279" lon="-0.27972">
        <ele>1887</ele>
        <time>2013-05-20T06:35:43Z</time>
      </trkpt>
      <trkpt lat="42.88275" lon="-0.27974">
        <ele>1888</ele>
        <time>2013-05-20T06:35:51Z</time>
      </trkpt>
      <trkpt lat="42.88273" lon="-0.27975">
        <ele>1889</ele>
        <time>2013-05-20T06:35:59Z</time>
      </trkpt>
      <trkpt lat="42.8827" lon="-0.27976">
        <ele>1889</ele>
        <time>2013-05-20T06:36:05Z</time>
      </trkpt>
      <trkpt lat="42.88265" lon="-0.27977">
        <ele>1891</ele>
        <time>2013-05-20T06:36:14Z</time>
      </trkpt>
      <trkpt lat="42.88264" lon="-0.27979">
        <ele>1891</ele>
        <time>2013-05-20T06:36:21Z</time>
      </trkpt>
      <trkpt lat="42.88264" lon="-0.27982">
        <ele>1892</ele>
        <time>2013-05-20T06:36:31Z</time>
      </trkpt>
      <trkpt lat="42.88267" lon="-0.27988">
        <ele>1893</ele>
        <time>2013-05-20T06:36:38Z</time>
      </trkpt>
      <trkpt lat="42.8827" lon="-0.2799">
        <ele>1893</ele>
        <time>2013-05-20T06:36:48Z</time>
      </trkpt>
      <trkpt lat="42.88272" lon="-0.27993">
        <ele>1895</ele>
        <time>2013-05-20T06:36:58Z</time>
      </trkpt>
      <trkpt lat="42.88275" lon="-0.27997">
        <ele>1895</ele>
        <time>2013-05-20T06:37:06Z</time>
      </trkpt>
      <trkpt lat="42.88278" lon="-0.28001">
        <ele>1897</ele>
        <time>2013-05-20T06:37:14Z</time>
      </trkpt>
      <trkpt lat="42.88282" lon="-0.28004">
        <ele>1898</ele>
        <time>2013-05-20T06:37:23Z</time>
      </trkpt>
      <trkpt lat="42.88285" lon="-0.28005">
        <ele>1899</ele>
        <time>2013-05-20T06:37:29Z</time>
      </trkpt>
      <trkpt lat="42.88287" lon="-0.2801">
        <ele>1899</ele>
        <time>2013-05-20T06:37:36Z</time>
      </trkpt>
      <trkpt lat="42.88289" lon="-0.28017">
        <ele>1902</ele>
        <time>2013-05-20T06:37:46Z</time>
      </trkpt>
      <trkpt lat="42.88289" lon="-0.28017">
        <ele>1902</ele>
        <time>2013-05-20T06:37:53Z</time>
      </trkpt>
      <trkpt lat="42.88289" lon="-0.28017">
        <ele>1902</ele>
        <time>2013-05-20T06:37:59Z</time>
      </trkpt>
      <trkpt lat="42.88288" lon="-0.28018">
        <ele>1903</ele>
        <time>2013-05-20T06:38:00Z</time>
      </trkpt>
      <trkpt lat="42.88285" lon="-0.28022">
        <ele>1902</ele>
        <time>2013-05-20T06:38:07Z</time>
      </trkpt>
      <trkpt lat="42.88283" lon="-0.28023">
        <ele>1904</ele>
        <time>2013-05-20T06:38:13Z</time>
      </trkpt>
      <trkpt lat="42.88279" lon="-0.28024">
        <ele>1904</ele>
        <time>2013-05-20T06:38:21Z</time>
      </trkpt>
      <trkpt lat="42.88276" lon="-0.28022">
        <ele>1906</ele>
        <time>2013-05-20T06:38:29Z</time>
      </trkpt>
      <trkpt lat="42.88274" lon="-0.28022">
        <ele>1905</ele>
        <time>2013-05-20T06:38:38Z</time>
      </trkpt>
      <trkpt lat="42.88272" lon="-0.28023">
        <ele>1906</ele>
        <time>2013-05-20T06:38:45Z</time>
      </trkpt>
      <trkpt lat="42.88266" lon="-0.28022">
        <ele>1908</ele>
        <time>2013-05-20T06:38:54Z</time>
      </trkpt>
      <trkpt lat="42.88259" lon="-0.28021">
        <ele>1910</ele>
        <time>2013-05-20T06:39:05Z</time>
      </trkpt>
      <trkpt lat="42.88257" lon="-0.28019">
        <ele>1911</ele>
        <time>2013-05-20T06:39:12Z</time>
      </trkpt>
      <trkpt lat="42.88257" lon="-0.2802">
        <ele>1911</ele>
        <time>2013-05-20T06:39:21Z</time>
      </trkpt>
      <trkpt lat="42.88257" lon="-0.28024">
        <ele>1912</ele>
        <time>2013-05-20T06:39:29Z</time>
      </trkpt>
      <trkpt lat="42.88258" lon="-0.28029">
        <ele>1913</ele>
        <time>2013-05-20T06:39:37Z</time>
      </trkpt>
      <trkpt lat="42.88259" lon="-0.28034">
        <ele>1915</ele>
        <time>2013-05-20T06:39:47Z</time>
      </trkpt>
      <trkpt lat="42.88259" lon="-0.28033">
        <ele>1915</ele>
        <time>2013-05-20T06:39:48Z</time>
      </trkpt>
      <trkpt lat="42.88259" lon="-0.28043">
        <ele>1916</ele>
        <time>2013-05-20T06:39:59Z</time>
      </trkpt>
      <trkpt lat="42.88261" lon="-0.2805">
        <ele>1917</ele>
        <time>2013-05-20T06:40:08Z</time>
      </trkpt>
      <trkpt lat="42.88261" lon="-0.28057">
        <ele>1918</ele>
        <time>2013-05-20T06:40:19Z</time>
      </trkpt>
      <trkpt lat="42.88262" lon="-0.28064">
        <ele>1920</ele>
        <time>2013-05-20T06:40:29Z</time>
      </trkpt>
      <trkpt lat="42.88262" lon="-0.28066">
        <ele>1920</ele>
        <time>2013-05-20T06:40:37Z</time>
      </trkpt>
      <trkpt lat="42.88262" lon="-0.2807">
        <ele>1921</ele>
        <time>2013-05-20T06:40:47Z</time>
      </trkpt>
      <trkpt lat="42.88263" lon="-0.28079">
        <ele>1923</ele>
        <time>2013-05-20T06:40:58Z</time>
      </trkpt>
      <trkpt lat="42.88264" lon="-0.28085">
        <ele>1925</ele>
        <time>2013-05-20T06:41:07Z</time>
      </trkpt>
      <trkpt lat="42.88265" lon="-0.28087">
        <ele>1926</ele>
        <time>2013-05-20T06:41:15Z</time>
      </trkpt>
      <trkpt lat="42.88262" lon="-0.28087">
        <ele>1926</ele>
        <time>2013-05-20T06:41:22Z</time>
      </trkpt>
      <trkpt lat="42.88259" lon="-0.28087">
        <ele>1928</ele>
        <time>2013-05-20T06:41:26Z</time>
      </trkpt>
      <trkpt lat="42.88253" lon="-0.28084">
        <ele>1929</ele>
        <time>2013-05-20T06:41:35Z</time>
      </trkpt>
      <trkpt lat="42.88248" lon="-0.28078">
        <ele>1930</ele>
        <time>2013-05-20T06:41:45Z</time>
      </trkpt>
      <trkpt lat="42.88249" lon="-0.28075">
        <ele>1931</ele>
        <time>2013-05-20T06:41:54Z</time>
      </trkpt>
      <trkpt lat="42.88247" lon="-0.28072">
        <ele>1932</ele>
        <time>2013-05-20T06:42:03Z</time>
      </trkpt>
      <trkpt lat="42.88244" lon="-0.2807">
        <ele>1933</ele>
        <time>2013-05-20T06:42:09Z</time>
      </trkpt>
      <trkpt lat="42.88241" lon="-0.28065">
        <ele>1934</ele>
        <time>2013-05-20T06:42:17Z</time>
      </trkpt>
      <trkpt lat="42.88238" lon="-0.28061">
        <ele>1935</ele>
        <time>2013-05-20T06:42:23Z</time>
      </trkpt>
      <trkpt lat="42.88234" lon="-0.2806">
        <ele>1937</ele>
        <time>2013-05-20T06:42:30Z</time>
      </trkpt>
      <trkpt lat="42.8823" lon="-0.28056">
        <ele>1938</ele>
        <time>2013-05-20T06:42:40Z</time>
      </trkpt>
      <trkpt lat="42.88227" lon="-0.28055">
        <ele>1939</ele>
        <time>2013-05-20T06:42:47Z</time>
      </trkpt>
      <trkpt lat="42.88226" lon="-0.28051">
        <ele>1939</ele>
        <time>2013-05-20T06:42:58Z</time>
      </trkpt>
      <trkpt lat="42.88222" lon="-0.2805">
        <ele>1941</ele>
        <time>2013-05-20T06:43:06Z</time>
      </trkpt>
      <trkpt lat="42.8822" lon="-0.28051">
        <ele>1942</ele>
        <time>2013-05-20T06:43:15Z</time>
      </trkpt>
      <trkpt lat="42.88217" lon="-0.28052">
        <ele>1943</ele>
        <time>2013-05-20T06:43:22Z</time>
      </trkpt>
      <trkpt lat="42.88216" lon="-0.28053">
        <ele>1943</ele>
        <time>2013-05-20T06:43:30Z</time>
      </trkpt>
      <trkpt lat="42.88216" lon="-0.28057">
        <ele>1944</ele>
        <time>2013-05-20T06:43:40Z</time>
      </trkpt>
      <trkpt lat="42.88216" lon="-0.28058">
        <ele>1944</ele>
        <time>2013-05-20T06:43:47Z</time>
      </trkpt>
      <trkpt lat="42.88218" lon="-0.28061">
        <ele>1945</ele>
        <time>2013-05-20T06:43:55Z</time>
      </trkpt>
      <trkpt lat="42.88219" lon="-0.28064">
        <ele>1947</ele>
        <time>2013-05-20T06:44:05Z</time>
      </trkpt>
      <trkpt lat="42.88219" lon="-0.28065">
        <ele>1948</ele>
        <time>2013-05-20T06:44:14Z</time>
      </trkpt>
      <trkpt lat="42.88218" lon="-0.28066">
        <ele>1949</ele>
        <time>2013-05-20T06:44:20Z</time>
      </trkpt>
      <trkpt lat="42.88215" lon="-0.28065">
        <ele>1949</ele>
        <time>2013-05-20T06:44:27Z</time>
      </trkpt>
      <trkpt lat="42.88214" lon="-0.28066">
        <ele>1950</ele>
        <time>2013-05-20T06:44:36Z</time>
      </trkpt>
      <trkpt lat="42.8821" lon="-0.28067">
        <ele>1951</ele>
        <time>2013-05-20T06:44:42Z</time>
      </trkpt>
      <trkpt lat="42.88206" lon="-0.28067">
        <ele>1952</ele>
        <time>2013-05-20T06:44:50Z</time>
      </trkpt>
      <trkpt lat="42.88204" lon="-0.28068">
        <ele>1952</ele>
        <time>2013-05-20T06:44:58Z</time>
      </trkpt>
      <trkpt lat="42.882" lon="-0.2807">
        <ele>1953</ele>
        <time>2013-05-20T06:45:06Z</time>
      </trkpt>
      <trkpt lat="42.88198" lon="-0.28071">
        <ele>1954</ele>
        <time>2013-05-20T06:45:13Z</time>
      </trkpt>
      <trkpt lat="42.88196" lon="-0.28073">
        <ele>1955</ele>
        <time>2013-05-20T06:45:22Z</time>
      </trkpt>
      <trkpt lat="42.88191" lon="-0.28075">
        <ele>1956</ele>
        <time>2013-05-20T06:45:31Z</time>
      </trkpt>
      <trkpt lat="42.8819" lon="-0.28075">
        <ele>1957</ele>
        <time>2013-05-20T06:45:38Z</time>
      </trkpt>
      <trkpt lat="42.88187" lon="-0.28077">
        <ele>1958</ele>
        <time>2013-05-20T06:45:45Z</time>
      </trkpt>
      <trkpt lat="42.88184" lon="-0.2808">
        <ele>1959</ele>
        <time>2013-05-20T06:45:52Z</time>
      </trkpt>
      <trkpt lat="42.88182" lon="-0.28085">
        <ele>1961</ele>
        <time>2013-05-20T06:46:00Z</time>
      </trkpt>
      <trkpt lat="42.88186" lon="-0.2809">
        <ele>1963</ele>
        <time>2013-05-20T06:46:10Z</time>
      </trkpt>
      <trkpt lat="42.88192" lon="-0.28094">
        <ele>1965</ele>
        <time>2013-05-20T06:46:20Z</time>
      </trkpt>
      <trkpt lat="42.88194" lon="-0.28097">
        <ele>1966</ele>
        <time>2013-05-20T06:46:29Z</time>
      </trkpt>
      <trkpt lat="42.88198" lon="-0.28104">
        <ele>1967</ele>
        <time>2013-05-20T06:46:38Z</time>
      </trkpt>
      <trkpt lat="42.88199" lon="-0.28104">
        <ele>1967</ele>
        <time>2013-05-20T06:46:47Z</time>
      </trkpt>
      <trkpt lat="42.882" lon="-0.28106">
        <ele>1968</ele>
        <time>2013-05-20T06:46:55Z</time>
      </trkpt>
      <trkpt lat="42.882" lon="-0.28108">
        <ele>1969</ele>
        <time>2013-05-20T06:47:04Z</time>
      </trkpt>
      <trkpt lat="42.88199" lon="-0.28111">
        <ele>1969</ele>
        <time>2013-05-20T06:47:11Z</time>
      </trkpt>
      <trkpt lat="42.88196" lon="-0.28114">
        <ele>1971</ele>
        <time>2013-05-20T06:47:20Z</time>
      </trkpt>
      <trkpt lat="42.88193" lon="-0.28117">
        <ele>1973</ele>
        <time>2013-05-20T06:47:29Z</time>
      </trkpt>
      <trkpt lat="42.88187" lon="-0.28122">
        <ele>1975</ele>
        <time>2013-05-20T06:47:38Z</time>
      </trkpt>
      <trkpt lat="42.88182" lon="-0.28126">
        <ele>1975</ele>
        <time>2013-05-20T06:47:47Z</time>
      </trkpt>
      <trkpt lat="42.88178" lon="-0.2813">
        <ele>1977</ele>
        <time>2013-05-20T06:47:55Z</time>
      </trkpt>
      <trkpt lat="42.88174" lon="-0.28131">
        <ele>1979</ele>
        <time>2013-05-20T06:48:03Z</time>
      </trkpt>
      <trkpt lat="42.88168" lon="-0.28132">
        <ele>1980</ele>
        <time>2013-05-20T06:48:14Z</time>
      </trkpt>
      <trkpt lat="42.88163" lon="-0.28134">
        <ele>1981</ele>
        <time>2013-05-20T06:48:23Z</time>
      </trkpt>
      <trkpt lat="42.88157" lon="-0.28138">
        <ele>1983</ele>
        <time>2013-05-20T06:48:33Z</time>
      </trkpt>
      <trkpt lat="42.88153" lon="-0.28139">
        <ele>1985</ele>
        <time>2013-05-20T06:48:41Z</time>
      </trkpt>
      <trkpt lat="42.8815" lon="-0.28139">
        <ele>1987</ele>
        <time>2013-05-20T06:48:49Z</time>
      </trkpt>
      <trkpt lat="42.88145" lon="-0.28141">
        <ele>1988</ele>
        <time>2013-05-20T06:49:02Z</time>
      </trkpt>
      <trkpt lat="42.88141" lon="-0.28143">
        <ele>1990</ele>
        <time>2013-05-20T06:49:11Z</time>
      </trkpt>
      <trkpt lat="42.88139" lon="-0.28145">
        <ele>1991</ele>
        <time>2013-05-20T06:49:18Z</time>
      </trkpt>
      <trkpt lat="42.88135" lon="-0.28149">
        <ele>1992</ele>
        <time>2013-05-20T06:49:27Z</time>
      </trkpt>
      <trkpt lat="42.88131" lon="-0.28151">
        <ele>1993</ele>
        <time>2013-05-20T06:49:35Z</time>
      </trkpt>
      <trkpt lat="42.88128" lon="-0.28153">
        <ele>1995</ele>
        <time>2013-05-20T06:49:45Z</time>
      </trkpt>
      <trkpt lat="42.88127" lon="-0.28156">
        <ele>1996</ele>
        <time>2013-05-20T06:49:54Z</time>
      </trkpt>
      <trkpt lat="42.88125" lon="-0.28161">
        <ele>1997</ele>
        <time>2013-05-20T06:50:01Z</time>
      </trkpt>
      <trkpt lat="42.88123" lon="-0.28163">
        <ele>1998</ele>
        <time>2013-05-20T06:50:06Z</time>
      </trkpt>
      <trkpt lat="42.88124" lon="-0.28165">
        <ele>1998</ele>
        <time>2013-05-20T06:50:21Z</time>
      </trkpt>
      <trkpt lat="42.88124" lon="-0.28163">
        <ele>1998</ele>
        <time>2013-05-20T06:50:35Z</time>
      </trkpt>
      <trkpt lat="42.8812" lon="-0.28166">
        <ele>1998</ele>
        <time>2013-05-20T06:50:41Z</time>
      </trkpt>
      <trkpt lat="42.88117" lon="-0.28172">
        <ele>1999</ele>
        <time>2013-05-20T06:50:48Z</time>
      </trkpt>
      <trkpt lat="42.88116" lon="-0.28177">
        <ele>1999</ele>
        <time>2013-05-20T06:50:55Z</time>
      </trkpt>
      <trkpt lat="42.88117" lon="-0.28178">
        <ele>1999</ele>
        <time>2013-05-20T06:51:03Z</time>
      </trkpt>
      <trkpt lat="42.88117" lon="-0.28179">
        <ele>2000</ele>
        <time>2013-05-20T06:51:15Z</time>
      </trkpt>
      <trkpt lat="42.8812" lon="-0.28184">
        <ele>2001</ele>
        <time>2013-05-20T06:51:24Z</time>
      </trkpt>
      <trkpt lat="42.88123" lon="-0.28187">
        <ele>2003</ele>
        <time>2013-05-20T06:51:31Z</time>
      </trkpt>
      <trkpt lat="42.88128" lon="-0.28189">
        <ele>2004</ele>
        <time>2013-05-20T06:51:39Z</time>
      </trkpt>
      <trkpt lat="42.88129" lon="-0.28188">
        <ele>2004</ele>
        <time>2013-05-20T06:51:51Z</time>
      </trkpt>
      <trkpt lat="42.88133" lon="-0.28192">
        <ele>2005</ele>
        <time>2013-05-20T06:52:00Z</time>
      </trkpt>
      <trkpt lat="42.88136" lon="-0.28194">
        <ele>2007</ele>
        <time>2013-05-20T06:52:09Z</time>
      </trkpt>
      <trkpt lat="42.8814" lon="-0.28195">
        <ele>2007</ele>
        <time>2013-05-20T06:52:18Z</time>
      </trkpt>
      <trkpt lat="42.88144" lon="-0.28197">
        <ele>2009</ele>
        <time>2013-05-20T06:52:25Z</time>
      </trkpt>
      <trkpt lat="42.88146" lon="-0.28199">
        <ele>2011</ele>
        <time>2013-05-20T06:52:33Z</time>
      </trkpt>
      <trkpt lat="42.88149" lon="-0.28204">
        <ele>2013</ele>
        <time>2013-05-20T06:52:43Z</time>
      </trkpt>
      <trkpt lat="42.88152" lon="-0.28204">
        <ele>2013</ele>
        <time>2013-05-20T06:52:51Z</time>
      </trkpt>
      <trkpt lat="42.88149" lon="-0.28205">
        <ele>2013</ele>
        <time>2013-05-20T06:53:01Z</time>
      </trkpt>
      <trkpt lat="42.88151" lon="-0.28212">
        <ele>2014</ele>
        <time>2013-05-20T06:53:11Z</time>
      </trkpt>
      <trkpt lat="42.8815" lon="-0.28214">
        <ele>2015</ele>
        <time>2013-05-20T06:53:25Z</time>
      </trkpt>
      <trkpt lat="42.88145" lon="-0.28217">
        <ele>2016</ele>
        <time>2013-05-20T06:53:34Z</time>
      </trkpt>
      <trkpt lat="42.88142" lon="-0.2822">
        <ele>2018</ele>
        <time>2013-05-20T06:53:43Z</time>
      </trkpt>
      <trkpt lat="42.88138" lon="-0.28225">
        <ele>2020</ele>
        <time>2013-05-20T06:53:55Z</time>
      </trkpt>
      <trkpt lat="42.88134" lon="-0.28226">
        <ele>2021</ele>
        <time>2013-05-20T06:54:03Z</time>
      </trkpt>
      <trkpt lat="42.88136" lon="-0.28228">
        <ele>2022</ele>
        <time>2013-05-20T06:54:11Z</time>
      </trkpt>
      <trkpt lat="42.88139" lon="-0.28233">
        <ele>2023</ele>
        <time>2013-05-20T06:54:19Z</time>
      </trkpt>
      <trkpt lat="42.88141" lon="-0.28237">
        <ele>2025</ele>
        <time>2013-05-20T06:54:26Z</time>
      </trkpt>
      <trkpt lat="42.88144" lon="-0.28243">
        <ele>2026</ele>
        <time>2013-05-20T06:54:36Z</time>
      </trkpt>
      <trkpt lat="42.88148" lon="-0.2825">
        <ele>2028</ele>
        <time>2013-05-20T06:54:45Z</time>
      </trkpt>
      <trkpt lat="42.8815" lon="-0.28255">
        <ele>2029</ele>
        <time>2013-05-20T06:54:54Z</time>
      </trkpt>
      <trkpt lat="42.88146" lon="-0.2826">
        <ele>2030</ele>
        <time>2013-05-20T06:55:04Z</time>
      </trkpt>
      <trkpt lat="42.88143" lon="-0.28265">
        <ele>2031</ele>
        <time>2013-05-20T06:55:12Z</time>
      </trkpt>
      <trkpt lat="42.8814" lon="-0.28265">
        <ele>2033</ele>
        <time>2013-05-20T06:55:19Z</time>
      </trkpt>
      <trkpt lat="42.88137" lon="-0.28262">
        <ele>2034</ele>
        <time>2013-05-20T06:55:27Z</time>
      </trkpt>
      <trkpt lat="42.88133" lon="-0.28261">
        <ele>2035</ele>
        <time>2013-05-20T06:55:35Z</time>
      </trkpt>
      <trkpt lat="42.88129" lon="-0.28267">
        <ele>2036</ele>
        <time>2013-05-20T06:55:44Z</time>
      </trkpt>
      <trkpt lat="42.88126" lon="-0.2827">
        <ele>2037</ele>
        <time>2013-05-20T06:55:52Z</time>
      </trkpt>
      <trkpt lat="42.88123" lon="-0.28275">
        <ele>2039</ele>
        <time>2013-05-20T06:56:01Z</time>
      </trkpt>
      <trkpt lat="42.8812" lon="-0.28278">
        <ele>2040</ele>
        <time>2013-05-20T06:56:10Z</time>
      </trkpt>
      <trkpt lat="42.88116" lon="-0.28281">
        <ele>2041</ele>
        <time>2013-05-20T06:56:18Z</time>
      </trkpt>
      <trkpt lat="42.88113" lon="-0.28285">
        <ele>2041</ele>
        <time>2013-05-20T06:56:24Z</time>
      </trkpt>
      <trkpt lat="42.88107" lon="-0.28291">
        <ele>2043</ele>
        <time>2013-05-20T06:56:33Z</time>
      </trkpt>
      <trkpt lat="42.88103" lon="-0.28297">
        <ele>2043</ele>
        <time>2013-05-20T06:56:40Z</time>
      </trkpt>
      <trkpt lat="42.88099" lon="-0.28305">
        <ele>2043</ele>
        <time>2013-05-20T06:56:48Z</time>
      </trkpt>
      <trkpt lat="42.88098" lon="-0.28307">
        <ele>2043</ele>
        <time>2013-05-20T06:56:54Z</time>
      </trkpt>
      <trkpt lat="42.88096" lon="-0.28308">
        <ele>2043</ele>
        <time>2013-05-20T06:56:56Z</time>
      </trkpt>
      <trkpt lat="42.88092" lon="-0.28321">
        <ele>2043</ele>
        <time>2013-05-20T06:57:04Z</time>
      </trkpt>
      <trkpt lat="42.8809" lon="-0.28324">
        <ele>2043</ele>
        <time>2013-05-20T06:57:10Z</time>
      </trkpt>
      <trkpt lat="42.8809" lon="-0.2833">
        <ele>2045</ele>
        <time>2013-05-20T06:57:17Z</time>
      </trkpt>
      <trkpt lat="42.8809" lon="-0.28335">
        <ele>2046</ele>
        <time>2013-05-20T06:57:26Z</time>
      </trkpt>
      <trkpt lat="42.88091" lon="-0.28342">
        <ele>2047</ele>
        <time>2013-05-20T06:57:35Z</time>
      </trkpt>
      <trkpt lat="42.88092" lon="-0.28348">
        <ele>2047</ele>
        <time>2013-05-20T06:57:42Z</time>
      </trkpt>
      <trkpt lat="42.88097" lon="-0.28355">
        <ele>2048</ele>
        <time>2013-05-20T06:57:51Z</time>
      </trkpt>
      <trkpt lat="42.88099" lon="-0.28358">
        <ele>2048</ele>
        <time>2013-05-20T06:57:57Z</time>
      </trkpt>
      <trkpt lat="42.88102" lon="-0.28357">
        <ele>2048</ele>
        <time>2013-05-20T06:58:05Z</time>
      </trkpt>
      <trkpt lat="42.88105" lon="-0.28358">
        <ele>2049</ele>
        <time>2013-05-20T06:58:13Z</time>
      </trkpt>
      <trkpt lat="42.88108" lon="-0.2836">
        <ele>2050</ele>
        <time>2013-05-20T06:58:21Z</time>
      </trkpt>
      <trkpt lat="42.88111" lon="-0.28363">
        <ele>2051</ele>
        <time>2013-05-20T06:58:27Z</time>
      </trkpt>
      <trkpt lat="42.88114" lon="-0.28366">
        <ele>2052</ele>
        <time>2013-05-20T06:58:34Z</time>
      </trkpt>
      <trkpt lat="42.88118" lon="-0.28371">
        <ele>2053</ele>
        <time>2013-05-20T06:58:43Z</time>
      </trkpt>
      <trkpt lat="42.88121" lon="-0.28374">
        <ele>2053</ele>
        <time>2013-05-20T06:58:49Z</time>
      </trkpt>
      <trkpt lat="42.88123" lon="-0.28374">
        <ele>2054</ele>
        <time>2013-05-20T06:58:57Z</time>
      </trkpt>
      <trkpt lat="42.88126" lon="-0.28378">
        <ele>2055</ele>
        <time>2013-05-20T06:59:04Z</time>
      </trkpt>
      <trkpt lat="42.88128" lon="-0.2838">
        <ele>2056</ele>
        <time>2013-05-20T06:59:13Z</time>
      </trkpt>
      <trkpt lat="42.88128" lon="-0.28382">
        <ele>2057</ele>
        <time>2013-05-20T06:59:23Z</time>
      </trkpt>
      <trkpt lat="42.88133" lon="-0.28389">
        <ele>2058</ele>
        <time>2013-05-20T06:59:32Z</time>
      </trkpt>
      <trkpt lat="42.88136" lon="-0.28392">
        <ele>2059</ele>
        <time>2013-05-20T06:59:40Z</time>
      </trkpt>
      <trkpt lat="42.88137" lon="-0.28393">
        <ele>2059</ele>
        <time>2013-05-20T06:59:46Z</time>
      </trkpt>
      <trkpt lat="42.88134" lon="-0.28394">
        <ele>2061</ele>
        <time>2013-05-20T06:59:55Z</time>
      </trkpt>
      <trkpt lat="42.88129" lon="-0.28398">
        <ele>2063</ele>
        <time>2013-05-20T07:00:04Z</time>
      </trkpt>
      <trkpt lat="42.88124" lon="-0.28402">
        <ele>2065</ele>
        <time>2013-05-20T07:00:14Z</time>
      </trkpt>
      <trkpt lat="42.8812" lon="-0.28406">
        <ele>2066</ele>
        <time>2013-05-20T07:00:24Z</time>
      </trkpt>
      <trkpt lat="42.88117" lon="-0.28411">
        <ele>2068</ele>
        <time>2013-05-20T07:00:35Z</time>
      </trkpt>
      <trkpt lat="42.88113" lon="-0.28416">
        <ele>2069</ele>
        <time>2013-05-20T07:00:45Z</time>
      </trkpt>
      <trkpt lat="42.8811" lon="-0.28419">
        <ele>2070</ele>
        <time>2013-05-20T07:00:54Z</time>
      </trkpt>
      <trkpt lat="42.88106" lon="-0.28421">
        <ele>2071</ele>
        <time>2013-05-20T07:01:02Z</time>
      </trkpt>
      <trkpt lat="42.88106" lon="-0.28423">
        <ele>2073</ele>
        <time>2013-05-20T07:01:09Z</time>
      </trkpt>
      <trkpt lat="42.88105" lon="-0.28428">
        <ele>2074</ele>
        <time>2013-05-20T07:01:17Z</time>
      </trkpt>
      <trkpt lat="42.88104" lon="-0.2843">
        <ele>2074</ele>
        <time>2013-05-20T07:01:23Z</time>
      </trkpt>
      <trkpt lat="42.88106" lon="-0.28434">
        <ele>2075</ele>
        <time>2013-05-20T07:01:31Z</time>
      </trkpt>
      <trkpt lat="42.88111" lon="-0.2844">
        <ele>2077</ele>
        <time>2013-05-20T07:01:40Z</time>
      </trkpt>
      <trkpt lat="42.88116" lon="-0.28447">
        <ele>2078</ele>
        <time>2013-05-20T07:01:49Z</time>
      </trkpt>
      <trkpt lat="42.8812" lon="-0.28449">
        <ele>2078</ele>
        <time>2013-05-20T07:01:59Z</time>
      </trkpt>
      <trkpt lat="42.88122" lon="-0.2845">
        <ele>2079</ele>
        <time>2013-05-20T07:02:08Z</time>
      </trkpt>
      <trkpt lat="42.88126" lon="-0.28453">
        <ele>2080</ele>
        <time>2013-05-20T07:02:17Z</time>
      </trkpt>
      <trkpt lat="42.8813" lon="-0.28452">
        <ele>2082</ele>
        <time>2013-05-20T07:02:28Z</time>
      </trkpt>
      <trkpt lat="42.88134" lon="-0.28452">
        <ele>2083</ele>
        <time>2013-05-20T07:02:36Z</time>
      </trkpt>
      <trkpt lat="42.88138" lon="-0.28454">
        <ele>2085</ele>
        <time>2013-05-20T07:02:46Z</time>
      </trkpt>
      <trkpt lat="42.88141" lon="-0.28457">
        <ele>2085</ele>
        <time>2013-05-20T07:02:56Z</time>
      </trkpt>
      <trkpt lat="42.88143" lon="-0.28461">
        <ele>2086</ele>
        <time>2013-05-20T07:03:04Z</time>
      </trkpt>
      <trkpt lat="42.88145" lon="-0.28466">
        <ele>2088</ele>
        <time>2013-05-20T07:03:13Z</time>
      </trkpt>
      <trkpt lat="42.88146" lon="-0.28472">
        <ele>2090</ele>
        <time>2013-05-20T07:03:23Z</time>
      </trkpt>
      <trkpt lat="42.88147" lon="-0.28476">
        <ele>2091</ele>
        <time>2013-05-20T07:03:32Z</time>
      </trkpt>
      <trkpt lat="42.88149" lon="-0.28479">
        <ele>2092</ele>
        <time>2013-05-20T07:03:40Z</time>
      </trkpt>
      <trkpt lat="42.8815" lon="-0.28483">
        <ele>2092</ele>
        <time>2013-05-20T07:03:47Z</time>
      </trkpt>
      <trkpt lat="42.88151" lon="-0.28487">
        <ele>2094</ele>
        <time>2013-05-20T07:03:55Z</time>
      </trkpt>
      <trkpt lat="42.8815" lon="-0.2849">
        <ele>2094</ele>
        <time>2013-05-20T07:04:03Z</time>
      </trkpt>
      <trkpt lat="42.8815" lon="-0.28493">
        <ele>2096</ele>
        <time>2013-05-20T07:04:10Z</time>
      </trkpt>
      <trkpt lat="42.88147" lon="-0.28492">
        <ele>2096</ele>
        <time>2013-05-20T07:04:15Z</time>
      </trkpt>
      <trkpt lat="42.88144" lon="-0.28492">
        <ele>2099</ele>
        <time>2013-05-20T07:04:24Z</time>
      </trkpt>
      <trkpt lat="42.8814" lon="-0.28493">
        <ele>2099</ele>
        <time>2013-05-20T07:04:32Z</time>
      </trkpt>
      <trkpt lat="42.88142" lon="-0.28494">
        <ele>2100</ele>
        <time>2013-05-20T07:04:42Z</time>
      </trkpt>
      <trkpt lat="42.88137" lon="-0.28496">
        <ele>2100</ele>
        <time>2013-05-20T07:04:51Z</time>
      </trkpt>
      <trkpt lat="42.88136" lon="-0.28498">
        <ele>2101</ele>
        <time>2013-05-20T07:04:59Z</time>
      </trkpt>
      <trkpt lat="42.88138" lon="-0.28503">
        <ele>2102</ele>
        <time>2013-05-20T07:05:09Z</time>
      </trkpt>
      <trkpt lat="42.88139" lon="-0.28506">
        <ele>2102</ele>
        <time>2013-05-20T07:05:16Z</time>
      </trkpt>
      <trkpt lat="42.88141" lon="-0.28512">
        <ele>2103</ele>
        <time>2013-05-20T07:05:28Z</time>
      </trkpt>
      <trkpt lat="42.8814" lon="-0.28517">
        <ele>2105</ele>
        <time>2013-05-20T07:05:36Z</time>
      </trkpt>
      <trkpt lat="42.8814" lon="-0.28521">
        <ele>2106</ele>
        <time>2013-05-20T07:05:45Z</time>
      </trkpt>
      <trkpt lat="42.88139" lon="-0.28525">
        <ele>2106</ele>
        <time>2013-05-20T07:05:56Z</time>
      </trkpt>
      <trkpt lat="42.88139" lon="-0.28526">
        <ele>2107</ele>
        <time>2013-05-20T07:06:05Z</time>
      </trkpt>
      <trkpt lat="42.8814" lon="-0.28528">
        <ele>2108</ele>
        <time>2013-05-20T07:06:14Z</time>
      </trkpt>
      <trkpt lat="42.8814" lon="-0.28533">
        <ele>2108</ele>
        <time>2013-05-20T07:06:23Z</time>
      </trkpt>
      <trkpt lat="42.88141" lon="-0.28535">
        <ele>2110</ele>
        <time>2013-05-20T07:06:31Z</time>
      </trkpt>
      <trkpt lat="42.88141" lon="-0.28537">
        <ele>2109</ele>
        <time>2013-05-20T07:06:46Z</time>
      </trkpt>
      <trkpt lat="42.88141" lon="-0.28538">
        <ele>2109</ele>
        <time>2013-05-20T07:06:53Z</time>
      </trkpt>
      <trkpt lat="42.88142" lon="-0.28542">
        <ele>2110</ele>
        <time>2013-05-20T07:07:01Z</time>
      </trkpt>
      <trkpt lat="42.88142" lon="-0.2854">
        <ele>2111</ele>
        <time>2013-05-20T07:07:10Z</time>
      </trkpt>
      <trkpt lat="42.88138" lon="-0.28537">
        <ele>2112</ele>
        <time>2013-05-20T07:07:18Z</time>
      </trkpt>
      <trkpt lat="42.88135" lon="-0.28534">
        <ele>2113</ele>
        <time>2013-05-20T07:07:27Z</time>
      </trkpt>
      <trkpt lat="42.88132" lon="-0.28531">
        <ele>2114</ele>
        <time>2013-05-20T07:07:33Z</time>
      </trkpt>
      <trkpt lat="42.88129" lon="-0.2853">
        <ele>2115</ele>
        <time>2013-05-20T07:07:41Z</time>
      </trkpt>
      <trkpt lat="42.88127" lon="-0.2853">
        <ele>2116</ele>
        <time>2013-05-20T07:07:49Z</time>
      </trkpt>
      <trkpt lat="42.88128" lon="-0.28534">
        <ele>2116</ele>
        <time>2013-05-20T07:07:59Z</time>
      </trkpt>
      <trkpt lat="42.88127" lon="-0.28535">
        <ele>2117</ele>
        <time>2013-05-20T07:08:06Z</time>
      </trkpt>
      <trkpt lat="42.88125" lon="-0.28534">
        <ele>2117</ele>
        <time>2013-05-20T07:08:14Z</time>
      </trkpt>
      <trkpt lat="42.88123" lon="-0.28536">
        <ele>2118</ele>
        <time>2013-05-20T07:08:22Z</time>
      </trkpt>
      <trkpt lat="42.88121" lon="-0.2854">
        <ele>2120</ele>
        <time>2013-05-20T07:08:30Z</time>
      </trkpt>
      <trkpt lat="42.88122" lon="-0.28545">
        <ele>2121</ele>
        <time>2013-05-20T07:08:38Z</time>
      </trkpt>
      <trkpt lat="42.88123" lon="-0.28551">
        <ele>2122</ele>
        <time>2013-05-20T07:08:47Z</time>
      </trkpt>
      <trkpt lat="42.88124" lon="-0.28554">
        <ele>2122</ele>
        <time>2013-05-20T07:08:53Z</time>
      </trkpt>
      <trkpt lat="42.88125" lon="-0.28556">
        <ele>2123</ele>
        <time>2013-05-20T07:09:02Z</time>
      </trkpt>
      <trkpt lat="42.88125" lon="-0.28559">
        <ele>2123</ele>
        <time>2013-05-20T07:09:14Z</time>
      </trkpt>
      <trkpt lat="42.88125" lon="-0.28559">
        <ele>2124</ele>
        <time>2013-05-20T07:09:21Z</time>
      </trkpt>
      <trkpt lat="42.88125" lon="-0.28559">
        <ele>2125</ele>
        <time>2013-05-20T07:09:31Z</time>
      </trkpt>
      <trkpt lat="42.88122" lon="-0.28559">
        <ele>2126</ele>
        <time>2013-05-20T07:09:40Z</time>
      </trkpt>
      <trkpt lat="42.88118" lon="-0.28561">
        <ele>2127</ele>
        <time>2013-05-20T07:09:49Z</time>
      </trkpt>
      <trkpt lat="42.88114" lon="-0.28561">
        <ele>2128</ele>
        <time>2013-05-20T07:09:56Z</time>
      </trkpt>
      <trkpt lat="42.88109" lon="-0.28562">
        <ele>2128</ele>
        <time>2013-05-20T07:10:06Z</time>
      </trkpt>
      <trkpt lat="42.88105" lon="-0.28564">
        <ele>2130</ele>
        <time>2013-05-20T07:10:14Z</time>
      </trkpt>
      <trkpt lat="42.88101" lon="-0.28563">
        <ele>2131</ele>
        <time>2013-05-20T07:10:22Z</time>
      </trkpt>
      <trkpt lat="42.88096" lon="-0.28563">
        <ele>2132</ele>
        <time>2013-05-20T07:10:31Z</time>
      </trkpt>
      <trkpt lat="42.88092" lon="-0.28563">
        <ele>2133</ele>
        <time>2013-05-20T07:10:39Z</time>
      </trkpt>
      <trkpt lat="42.88087" lon="-0.28564">
        <ele>2134</ele>
        <time>2013-05-20T07:10:49Z</time>
      </trkpt>
      <trkpt lat="42.88083" lon="-0.28564">
        <ele>2136</ele>
        <time>2013-05-20T07:10:58Z</time>
      </trkpt>
      <trkpt lat="42.88079" lon="-0.28564">
        <ele>2137</ele>
        <time>2013-05-20T07:11:07Z</time>
      </trkpt>
      <trkpt lat="42.88075" lon="-0.28565">
        <ele>2139</ele>
        <time>2013-05-20T07:11:17Z</time>
      </trkpt>
      <trkpt lat="42.88071" lon="-0.28566">
        <ele>2140</ele>
        <time>2013-05-20T07:11:26Z</time>
      </trkpt>
      <trkpt lat="42.88069" lon="-0.28567">
        <ele>2140</ele>
        <time>2013-05-20T07:11:33Z</time>
      </trkpt>
      <trkpt lat="42.88065" lon="-0.28568">
        <ele>2141</ele>
        <time>2013-05-20T07:11:42Z</time>
      </trkpt>
      <trkpt lat="42.88061" lon="-0.2857">
        <ele>2143</ele>
        <time>2013-05-20T07:11:52Z</time>
      </trkpt>
      <trkpt lat="42.88058" lon="-0.28572">
        <ele>2143</ele>
        <time>2013-05-20T07:12:01Z</time>
      </trkpt>
      <trkpt lat="42.88055" lon="-0.28574">
        <ele>2145</ele>
        <time>2013-05-20T07:12:11Z</time>
      </trkpt>
      <trkpt lat="42.88053" lon="-0.28577">
        <ele>2146</ele>
        <time>2013-05-20T07:12:18Z</time>
      </trkpt>
      <trkpt lat="42.88053" lon="-0.28583">
        <ele>2147</ele>
        <time>2013-05-20T07:12:27Z</time>
      </trkpt>
      <trkpt lat="42.88056" lon="-0.28588">
        <ele>2148</ele>
        <time>2013-05-20T07:12:35Z</time>
      </trkpt>
      <trkpt lat="42.88058" lon="-0.28593">
        <ele>2149</ele>
        <time>2013-05-20T07:12:43Z</time>
      </trkpt>
      <trkpt lat="42.8806" lon="-0.28597">
        <ele>2150</ele>
        <time>2013-05-20T07:12:52Z</time>
      </trkpt>
      <trkpt lat="42.88063" lon="-0.28602">
        <ele>2152</ele>
        <time>2013-05-20T07:13:00Z</time>
      </trkpt>
      <trkpt lat="42.88064" lon="-0.28605">
        <ele>2152</ele>
        <time>2013-05-20T07:13:09Z</time>
      </trkpt>
      <trkpt lat="42.88067" lon="-0.28609">
        <ele>2153</ele>
        <time>2013-05-20T07:13:17Z</time>
      </trkpt>
      <trkpt lat="42.8807" lon="-0.28616">
        <ele>2154</ele>
        <time>2013-05-20T07:13:28Z</time>
      </trkpt>
      <trkpt lat="42.88072" lon="-0.28621">
        <ele>2155</ele>
        <time>2013-05-20T07:13:36Z</time>
      </trkpt>
      <trkpt lat="42.88076" lon="-0.28625">
        <ele>2156</ele>
        <time>2013-05-20T07:13:46Z</time>
      </trkpt>
      <trkpt lat="42.8808" lon="-0.28628">
        <ele>2157</ele>
        <time>2013-05-20T07:13:55Z</time>
      </trkpt>
      <trkpt lat="42.88083" lon="-0.28631">
        <ele>2158</ele>
        <time>2013-05-20T07:14:02Z</time>
      </trkpt>
      <trkpt lat="42.88086" lon="-0.28634">
        <ele>2159</ele>
        <time>2013-05-20T07:14:11Z</time>
      </trkpt>
      <trkpt lat="42.88088" lon="-0.28636">
        <ele>2160</ele>
        <time>2013-05-20T07:14:20Z</time>
      </trkpt>
      <trkpt lat="42.88091" lon="-0.2864">
        <ele>2162</ele>
        <time>2013-05-20T07:14:32Z</time>
      </trkpt>
      <trkpt lat="42.88092" lon="-0.28643">
        <ele>2162</ele>
        <time>2013-05-20T07:14:40Z</time>
      </trkpt>
      <trkpt lat="42.88094" lon="-0.28646">
        <ele>2163</ele>
        <time>2013-05-20T07:14:48Z</time>
      </trkpt>
      <trkpt lat="42.88095" lon="-0.28649">
        <ele>2165</ele>
        <time>2013-05-20T07:14:56Z</time>
      </trkpt>
      <trkpt lat="42.88097" lon="-0.28654">
        <ele>2165</ele>
        <time>2013-05-20T07:15:04Z</time>
      </trkpt>
      <trkpt lat="42.88097" lon="-0.28654">
        <ele>2165</ele>
        <time>2013-05-20T07:15:13Z</time>
      </trkpt>
      <trkpt lat="42.88098" lon="-0.28657">
        <ele>2166</ele>
        <time>2013-05-20T07:15:21Z</time>
      </trkpt>
      <trkpt lat="42.881" lon="-0.28662">
        <ele>2166</ele>
        <time>2013-05-20T07:15:29Z</time>
      </trkpt>
      <trkpt lat="42.88101" lon="-0.28665">
        <ele>2167</ele>
        <time>2013-05-20T07:15:36Z</time>
      </trkpt>
      <trkpt lat="42.88101" lon="-0.28668">
        <ele>2169</ele>
        <time>2013-05-20T07:15:43Z</time>
      </trkpt>
      <trkpt lat="42.88102" lon="-0.28671">
        <ele>2168</ele>
        <time>2013-05-20T07:15:50Z</time>
      </trkpt>
      <trkpt lat="42.88103" lon="-0.28674">
        <ele>2170</ele>
        <time>2013-05-20T07:15:57Z</time>
      </trkpt>
      <trkpt lat="42.88104" lon="-0.28677">
        <ele>2171</ele>
        <time>2013-05-20T07:16:05Z</time>
      </trkpt>
      <trkpt lat="42.88105" lon="-0.2868">
        <ele>2172</ele>
        <time>2013-05-20T07:16:11Z</time>
      </trkpt>
      <trkpt lat="42.88105" lon="-0.28681">
        <ele>2172</ele>
        <time>2013-05-20T07:16:31Z</time>
      </trkpt>
      <trkpt lat="42.88106" lon="-0.28684">
        <ele>2173</ele>
        <time>2013-05-20T07:16:39Z</time>
      </trkpt>
      <trkpt lat="42.88104" lon="-0.28685">
        <ele>2173</ele>
        <time>2013-05-20T07:16:45Z</time>
      </trkpt>
      <trkpt lat="42.88099" lon="-0.28683">
        <ele>2175</ele>
        <time>2013-05-20T07:16:54Z</time>
      </trkpt>
      <trkpt lat="42.88094" lon="-0.28683">
        <ele>2176</ele>
        <time>2013-05-20T07:17:03Z</time>
      </trkpt>
      <trkpt lat="42.88092" lon="-0.28684">
        <ele>2178</ele>
        <time>2013-05-20T07:17:11Z</time>
      </trkpt>
      <trkpt lat="42.88088" lon="-0.28682">
        <ele>2178</ele>
        <time>2013-05-20T07:17:18Z</time>
      </trkpt>
      <trkpt lat="42.88087" lon="-0.28682">
        <ele>2178</ele>
        <time>2013-05-20T07:17:25Z</time>
      </trkpt>
      <trkpt lat="42.88085" lon="-0.28681">
        <ele>2179</ele>
        <time>2013-05-20T07:17:34Z</time>
      </trkpt>
      <trkpt lat="42.88084" lon="-0.28683">
        <ele>2180</ele>
        <time>2013-05-20T07:17:42Z</time>
      </trkpt>
      <trkpt lat="42.88084" lon="-0.28687">
        <ele>2180</ele>
        <time>2013-05-20T07:17:48Z</time>
      </trkpt>
      <trkpt lat="42.88084" lon="-0.2869">
        <ele>2181</ele>
        <time>2013-05-20T07:17:56Z</time>
      </trkpt>
      <trkpt lat="42.88086" lon="-0.28694">
        <ele>2181</ele>
        <time>2013-05-20T07:18:05Z</time>
      </trkpt>
      <trkpt lat="42.88086" lon="-0.28698">
        <ele>2182</ele>
        <time>2013-05-20T07:18:12Z</time>
      </trkpt>
      <trkpt lat="42.88087" lon="-0.28699">
        <ele>2182</ele>
        <time>2013-05-20T07:18:24Z</time>
      </trkpt>
      <trkpt lat="42.88087" lon="-0.287">
        <ele>2182</ele>
        <time>2013-05-20T07:18:36Z</time>
      </trkpt>
      <trkpt lat="42.88087" lon="-0.28704">
        <ele>2183</ele>
        <time>2013-05-20T07:18:43Z</time>
      </trkpt>
      <trkpt lat="42.88086" lon="-0.28709">
        <ele>2184</ele>
        <time>2013-05-20T07:18:49Z</time>
      </trkpt>
      <trkpt lat="42.88086" lon="-0.28716">
        <ele>2185</ele>
        <time>2013-05-20T07:19:00Z</time>
      </trkpt>
      <trkpt lat="42.88087" lon="-0.28724">
        <ele>2187</ele>
        <time>2013-05-20T07:19:09Z</time>
      </trkpt>
      <trkpt lat="42.88089" lon="-0.28729">
        <ele>2188</ele>
        <time>2013-05-20T07:19:18Z</time>
      </trkpt>
      <trkpt lat="42.88091" lon="-0.28735">
        <ele>2190</ele>
        <time>2013-05-20T07:19:26Z</time>
      </trkpt>
      <trkpt lat="42.88092" lon="-0.28739">
        <ele>2189</ele>
        <time>2013-05-20T07:19:33Z</time>
      </trkpt>
      <trkpt lat="42.88094" lon="-0.28743">
        <ele>2189</ele>
        <time>2013-05-20T07:19:40Z</time>
      </trkpt>
      <trkpt lat="42.88096" lon="-0.28748">
        <ele>2190</ele>
        <time>2013-05-20T07:19:47Z</time>
      </trkpt>
      <trkpt lat="42.88099" lon="-0.28751">
        <ele>2191</ele>
        <time>2013-05-20T07:19:55Z</time>
      </trkpt>
      <trkpt lat="42.88103" lon="-0.28757">
        <ele>2191</ele>
        <time>2013-05-20T07:20:06Z</time>
      </trkpt>
      <trkpt lat="42.88106" lon="-0.28762">
        <ele>2192</ele>
        <time>2013-05-20T07:20:14Z</time>
      </trkpt>
      <trkpt lat="42.88109" lon="-0.28766">
        <ele>2193</ele>
        <time>2013-05-20T07:20:22Z</time>
      </trkpt>
      <trkpt lat="42.88112" lon="-0.28769">
        <ele>2193</ele>
        <time>2013-05-20T07:20:28Z</time>
      </trkpt>
      <trkpt lat="42.88114" lon="-0.28772">
        <ele>2194</ele>
        <time>2013-05-20T07:20:34Z</time>
      </trkpt>
      <trkpt lat="42.88117" lon="-0.28774">
        <ele>2195</ele>
        <time>2013-05-20T07:20:42Z</time>
      </trkpt>
      <trkpt lat="42.88119" lon="-0.28776">
        <ele>2196</ele>
        <time>2013-05-20T07:20:48Z</time>
      </trkpt>
      <trkpt lat="42.88118" lon="-0.28776">
        <ele>2195</ele>
        <time>2013-05-20T07:20:57Z</time>
      </trkpt>
      <trkpt lat="42.88119" lon="-0.28776">
        <ele>2195</ele>
        <time>2013-05-20T07:21:08Z</time>
      </trkpt>
      <trkpt lat="42.88122" lon="-0.28779">
        <ele>2195</ele>
        <time>2013-05-20T07:21:19Z</time>
      </trkpt>
      <trkpt lat="42.88125" lon="-0.28783">
        <ele>2197</ele>
        <time>2013-05-20T07:21:28Z</time>
      </trkpt>
      <trkpt lat="42.88124" lon="-0.28782">
        <ele>2197</ele>
        <time>2013-05-20T07:21:40Z</time>
      </trkpt>
      <trkpt lat="42.88125" lon="-0.2878">
        <ele>2197</ele>
        <time>2013-05-20T07:21:53Z</time>
      </trkpt>
      <trkpt lat="42.88126" lon="-0.28781">
        <ele>2196</ele>
        <time>2013-05-20T07:22:06Z</time>
      </trkpt>
      <trkpt lat="42.88125" lon="-0.28783">
        <ele>2198</ele>
        <time>2013-05-20T07:22:18Z</time>
      </trkpt>
      <trkpt lat="42.88126" lon="-0.28783">
        <ele>2197</ele>
        <time>2013-05-20T07:22:34Z</time>
      </trkpt>
      <trkpt lat="42.88126" lon="-0.28785">
        <ele>2197</ele>
        <time>2013-05-20T07:22:45Z</time>
      </trkpt>
      <trkpt lat="42.88124" lon="-0.28785">
        <ele>2197</ele>
        <time>2013-05-20T07:22:54Z</time>
      </trkpt>
      <trkpt lat="42.88124" lon="-0.28784">
        <ele>2197</ele>
        <time>2013-05-20T07:23:03Z</time>
      </trkpt>
      <trkpt lat="42.88124" lon="-0.28784">
        <ele>2198</ele>
        <time>2013-05-20T07:23:15Z</time>
      </trkpt>
      <trkpt lat="42.88124" lon="-0.28785">
        <ele>2197</ele>
        <time>2013-05-20T07:23:22Z</time>
      </trkpt>
      <trkpt lat="42.88124" lon="-0.28785">
        <ele>2198</ele>
        <time>2013-05-20T07:23:34Z</time>
      </trkpt>
      <trkpt lat="42.88126" lon="-0.28784">
        <ele>2198</ele>
        <time>2013-05-20T07:23:44Z</time>
      </trkpt>
      <trkpt lat="42.88125" lon="-0.28786">
        <ele>2198</ele>
        <time>2013-05-20T07:23:52Z</time>
      </trkpt>
      <trkpt lat="42.88124" lon="-0.28786">
        <ele>2198</ele>
        <time>2013-05-20T07:24:04Z</time>
      </trkpt>
      <trkpt lat="42.88126" lon="-0.28786">
        <ele>2198</ele>
        <time>2013-05-20T07:24:15Z</time>
      </trkpt>
      <trkpt lat="42.88128" lon="-0.2879">
        <ele>2198</ele>
        <time>2013-05-20T07:24:22Z</time>
      </trkpt>
      <trkpt lat="42.8813" lon="-0.28794">
        <ele>2199</ele>
        <time>2013-05-20T07:24:29Z</time>
      </trkpt>
      <trkpt lat="42.88131" lon="-0.28798">
        <ele>2200</ele>
        <time>2013-05-20T07:24:37Z</time>
      </trkpt>
      <trkpt lat="42.88133" lon="-0.28802">
        <ele>2200</ele>
        <time>2013-05-20T07:24:44Z</time>
      </trkpt>
      <trkpt lat="42.88136" lon="-0.28809">
        <ele>2201</ele>
        <time>2013-05-20T07:24:54Z</time>
      </trkpt>
      <trkpt lat="42.88138" lon="-0.28812">
        <ele>2202</ele>
        <time>2013-05-20T07:25:01Z</time>
      </trkpt>
      <trkpt lat="42.88139" lon="-0.28817">
        <ele>2202</ele>
        <time>2013-05-20T07:25:06Z</time>
      </trkpt>
      <trkpt lat="42.88142" lon="-0.2882">
        <ele>2202</ele>
        <time>2013-05-20T07:25:12Z</time>
      </trkpt>
      <trkpt lat="42.88143" lon="-0.28823">
        <ele>2203</ele>
        <time>2013-05-20T07:25:19Z</time>
      </trkpt>
      <trkpt lat="42.88146" lon="-0.28828">
        <ele>2203</ele>
        <time>2013-05-20T07:25:26Z</time>
      </trkpt>
      <trkpt lat="42.88147" lon="-0.28832">
        <ele>2203</ele>
        <time>2013-05-20T07:25:32Z</time>
      </trkpt>
      <trkpt lat="42.88146" lon="-0.28833">
        <ele>2204</ele>
        <time>2013-05-20T07:25:40Z</time>
      </trkpt>
      <trkpt lat="42.88145" lon="-0.28833">
        <ele>2203</ele>
        <time>2013-05-20T07:25:56Z</time>
      </trkpt>
      <trkpt lat="42.88145" lon="-0.28833">
        <ele>2204</ele>
        <time>2013-05-20T07:26:12Z</time>
      </trkpt>
      <trkpt lat="42.88144" lon="-0.28834">
        <ele>2204</ele>
        <time>2013-05-20T07:26:24Z</time>
      </trkpt>
      <trkpt lat="42.88144" lon="-0.28833">
        <ele>2204</ele>
        <time>2013-05-20T07:26:35Z</time>
      </trkpt>
      <trkpt lat="42.88143" lon="-0.28833">
        <ele>2203</ele>
        <time>2013-05-20T07:26:47Z</time>
      </trkpt>
      <trkpt lat="42.88142" lon="-0.28833">
        <ele>2204</ele>
        <time>2013-05-20T07:27:03Z</time>
      </trkpt>
      <trkpt lat="42.88141" lon="-0.28833">
        <ele>2204</ele>
        <time>2013-05-20T07:27:17Z</time>
      </trkpt>
      <trkpt lat="42.88142" lon="-0.28833">
        <ele>2204</ele>
        <time>2013-05-20T07:27:26Z</time>
      </trkpt>
      <trkpt lat="42.88141" lon="-0.28833">
        <ele>2203</ele>
        <time>2013-05-20T07:27:35Z</time>
      </trkpt>
      <trkpt lat="42.88143" lon="-0.28834">
        <ele>2204</ele>
        <time>2013-05-20T07:27:46Z</time>
      </trkpt>
      <trkpt lat="42.88143" lon="-0.28836">
        <ele>2203</ele>
        <time>2013-05-20T07:28:01Z</time>
      </trkpt>
      <trkpt lat="42.88145" lon="-0.28837">
        <ele>2204</ele>
        <time>2013-05-20T07:28:07Z</time>
      </trkpt>
      <trkpt lat="42.88148" lon="-0.28841">
        <ele>2204</ele>
        <time>2013-05-20T07:28:14Z</time>
      </trkpt>
      <trkpt lat="42.8815" lon="-0.28845">
        <ele>2205</ele>
        <time>2013-05-20T07:28:20Z</time>
      </trkpt>
      <trkpt lat="42.88153" lon="-0.28851">
        <ele>2205</ele>
        <time>2013-05-20T07:28:28Z</time>
      </trkpt>
      <trkpt lat="42.88156" lon="-0.28857">
        <ele>2206</ele>
        <time>2013-05-20T07:28:35Z</time>
      </trkpt>
      <trkpt lat="42.88157" lon="-0.28861">
        <ele>2206</ele>
        <time>2013-05-20T07:28:41Z</time>
      </trkpt>
      <trkpt lat="42.88159" lon="-0.28867">
        <ele>2206</ele>
        <time>2013-05-20T07:28:48Z</time>
      </trkpt>
      <trkpt lat="42.88162" lon="-0.28873">
        <ele>2207</ele>
        <time>2013-05-20T07:28:57Z</time>
      </trkpt>
      <trkpt lat="42.88164" lon="-0.28879">
        <ele>2206</ele>
        <time>2013-05-20T07:29:04Z</time>
      </trkpt>
      <trkpt lat="42.88167" lon="-0.28885">
        <ele>2206</ele>
        <time>2013-05-20T07:29:13Z</time>
      </trkpt>
      <trkpt lat="42.88171" lon="-0.2889">
        <ele>2207</ele>
        <time>2013-05-20T07:29:21Z</time>
      </trkpt>
      <trkpt lat="42.88172" lon="-0.28891">
        <ele>2207</ele>
        <time>2013-05-20T07:29:27Z</time>
      </trkpt>
      <trkpt lat="42.88176" lon="-0.28894">
        <ele>2208</ele>
        <time>2013-05-20T07:29:32Z</time>
      </trkpt>
      <trkpt lat="42.88181" lon="-0.28897">
        <ele>2208</ele>
        <time>2013-05-20T07:29:39Z</time>
      </trkpt>
      <trkpt lat="42.88185" lon="-0.289">
        <ele>2210</ele>
        <time>2013-05-20T07:29:47Z</time>
      </trkpt>
      <trkpt lat="42.88188" lon="-0.28903">
        <ele>2209</ele>
        <time>2013-05-20T07:29:57Z</time>
      </trkpt>
      <trkpt lat="42.88191" lon="-0.28904">
        <ele>2210</ele>
        <time>2013-05-20T07:30:06Z</time>
      </trkpt>
      <trkpt lat="42.88196" lon="-0.28905">
        <ele>2209</ele>
        <time>2013-05-20T07:30:14Z</time>
      </trkpt>
      <trkpt lat="42.88199" lon="-0.28905">
        <ele>2209</ele>
        <time>2013-05-20T07:30:21Z</time>
      </trkpt>
      <trkpt lat="42.88203" lon="-0.28906">
        <ele>2211</ele>
        <time>2013-05-20T07:30:30Z</time>
      </trkpt>
      <trkpt lat="42.88206" lon="-0.28906">
        <ele>2212</ele>
        <time>2013-05-20T07:30:37Z</time>
      </trkpt>
      <trkpt lat="42.88209" lon="-0.28909">
        <ele>2213</ele>
        <time>2013-05-20T07:30:44Z</time>
      </trkpt>
      <trkpt lat="42.88213" lon="-0.28911">
        <ele>2214</ele>
        <time>2013-05-20T07:30:51Z</time>
      </trkpt>
      <trkpt lat="42.88218" lon="-0.28914">
        <ele>2215</ele>
        <time>2013-05-20T07:31:00Z</time>
      </trkpt>
      <trkpt lat="42.88221" lon="-0.28916">
        <ele>2215</ele>
        <time>2013-05-20T07:31:07Z</time>
      </trkpt>
      <trkpt lat="42.88223" lon="-0.28919">
        <ele>2215</ele>
        <time>2013-05-20T07:31:14Z</time>
      </trkpt>
      <trkpt lat="42.88226" lon="-0.28921">
        <ele>2215</ele>
        <time>2013-05-20T07:31:20Z</time>
      </trkpt>
      <trkpt lat="42.88227" lon="-0.28924">
        <ele>2215</ele>
        <time>2013-05-20T07:31:29Z</time>
      </trkpt>
      <trkpt lat="42.88232" lon="-0.28927">
        <ele>2216</ele>
        <time>2013-05-20T07:31:40Z</time>
      </trkpt>
      <trkpt lat="42.88233" lon="-0.28929">
        <ele>2215</ele>
        <time>2013-05-20T07:31:48Z</time>
      </trkpt>
      <trkpt lat="42.88236" lon="-0.28932">
        <ele>2216</ele>
        <time>2013-05-20T07:31:57Z</time>
      </trkpt>
      <trkpt lat="42.88235" lon="-0.28932">
        <ele>2216</ele>
        <time>2013-05-20T07:32:12Z</time>
      </trkpt>
      <trkpt lat="42.88236" lon="-0.28931">
        <ele>2216</ele>
        <time>2013-05-20T07:32:27Z</time>
      </trkpt>
      <trkpt lat="42.88236" lon="-0.28931">
        <ele>2215</ele>
        <time>2013-05-20T07:32:39Z</time>
      </trkpt>
      <trkpt lat="42.88237" lon="-0.28934">
        <ele>2216</ele>
        <time>2013-05-20T07:32:47Z</time>
      </trkpt>
      <trkpt lat="42.88238" lon="-0.28935">
        <ele>2216</ele>
        <time>2013-05-20T07:32:54Z</time>
      </trkpt>
      <trkpt lat="42.88241" lon="-0.28939">
        <ele>2216</ele>
        <time>2013-05-20T07:33:00Z</time>
      </trkpt>
      <trkpt lat="42.88244" lon="-0.28942">
        <ele>2216</ele>
        <time>2013-05-20T07:33:11Z</time>
      </trkpt>
      <trkpt lat="42.88248" lon="-0.28947">
        <ele>2217</ele>
        <time>2013-05-20T07:33:19Z</time>
      </trkpt>
      <trkpt lat="42.8825" lon="-0.28948">
        <ele>2216</ele>
        <time>2013-05-20T07:33:25Z</time>
      </trkpt>
      <trkpt lat="42.88254" lon="-0.2895">
        <ele>2217</ele>
        <time>2013-05-20T07:33:31Z</time>
      </trkpt>
      <trkpt lat="42.88256" lon="-0.28952">
        <ele>2217</ele>
        <time>2013-05-20T07:33:37Z</time>
      </trkpt>
      <trkpt lat="42.88256" lon="-0.28952">
        <ele>2216</ele>
        <time>2013-05-20T07:33:45Z</time>
      </trkpt>
      <trkpt lat="42.88258" lon="-0.28952">
        <ele>2216</ele>
        <time>2013-05-20T07:33:54Z</time>
      </trkpt>
      <trkpt lat="42.88263" lon="-0.28954">
        <ele>2216</ele>
        <time>2013-05-20T07:34:02Z</time>
      </trkpt>
      <trkpt lat="42.88269" lon="-0.28954">
        <ele>2215</ele>
        <time>2013-05-20T07:34:09Z</time>
      </trkpt>
      <trkpt lat="42.88275" lon="-0.28956">
        <ele>2216</ele>
        <time>2013-05-20T07:34:16Z</time>
      </trkpt>
      <trkpt lat="42.8828" lon="-0.28957">
        <ele>2215</ele>
        <time>2013-05-20T07:34:23Z</time>
      </trkpt>
      <trkpt lat="42.88284" lon="-0.28957">
        <ele>2215</ele>
        <time>2013-05-20T07:34:32Z</time>
      </trkpt>
      <trkpt lat="42.88286" lon="-0.28958">
        <ele>2215</ele>
        <time>2013-05-20T07:34:39Z</time>
      </trkpt>
      <trkpt lat="42.88287" lon="-0.28957">
        <ele>2215</ele>
        <time>2013-05-20T07:34:50Z</time>
      </trkpt>
      <trkpt lat="42.88288" lon="-0.28958">
        <ele>2215</ele>
        <time>2013-05-20T07:34:58Z</time>
      </trkpt>
      <trkpt lat="42.88291" lon="-0.28959">
        <ele>2215</ele>
        <time>2013-05-20T07:35:08Z</time>
      </trkpt>
      <trkpt lat="42.88293" lon="-0.28959">
        <ele>2215</ele>
        <time>2013-05-20T07:35:16Z</time>
      </trkpt>
      <trkpt lat="42.88292" lon="-0.28958">
        <ele>2216</ele>
        <time>2013-05-20T07:35:31Z</time>
      </trkpt>
      <trkpt lat="42.88292" lon="-0.28958">
        <ele>2215</ele>
        <time>2013-05-20T07:35:34Z</time>
      </trkpt>
      <trkpt lat="42.88292" lon="-0.28958">
        <ele>2216</ele>
        <time>2013-05-20T07:35:44Z</time>
      </trkpt>
      <trkpt lat="42.88295" lon="-0.28959">
        <ele>2213</ele>
        <time>2013-05-20T07:35:54Z</time>
      </trkpt>
      <trkpt lat="42.88295" lon="-0.28958">
        <ele>2219</ele>
        <time>2013-05-20T07:35:56Z</time>
      </trkpt>
      <trkpt lat="42.88296" lon="-0.28958">
        <ele>2218</ele>
        <time>2013-05-20T07:35:57Z</time>
      </trkpt>
      <trkpt lat="42.88296" lon="-0.28958">
        <ele>2213</ele>
        <time>2013-05-20T07:35:58Z</time>
      </trkpt>
      <trkpt lat="42.88296" lon="-0.28958">
        <ele>2215</ele>
        <time>2013-05-20T07:35:59Z</time>
      </trkpt>
      <trkpt lat="42.88296" lon="-0.28958">
        <ele>2218</ele>
        <time>2013-05-20T07:36:02Z</time>
      </trkpt>
      <trkpt lat="42.88296" lon="-0.28958">
        <ele>2215</ele>
        <time>2013-05-20T07:36:03Z</time>
      </trkpt>
      <trkpt lat="42.88299" lon="-0.28957">
        <ele>2215</ele>
        <time>2013-05-20T07:36:09Z</time>
      </trkpt>
      <trkpt lat="42.883" lon="-0.28957">
        <ele>2215</ele>
        <time>2013-05-20T07:36:11Z</time>
      </trkpt>
      <trkpt lat="42.88302" lon="-0.28957">
        <ele>2215</ele>
        <time>2013-05-20T07:36:17Z</time>
      </trkpt>
      <trkpt lat="42.88306" lon="-0.28957">
        <ele>2214</ele>
        <time>2013-05-20T07:36:26Z</time>
      </trkpt>
      <trkpt lat="42.88313" lon="-0.28955">
        <ele>2215</ele>
        <time>2013-05-20T07:36:38Z</time>
      </trkpt>
      <trkpt lat="42.88318" lon="-0.28955">
        <ele>2215</ele>
        <time>2013-05-20T07:36:50Z</time>
      </trkpt>
      <trkpt lat="42.88321" lon="-0.28954">
        <ele>2215</ele>
        <time>2013-05-20T07:37:00Z</time>
      </trkpt>
      <trkpt lat="42.88323" lon="-0.28954">
        <ele>2214</ele>
        <time>2013-05-20T07:37:09Z</time>
      </trkpt>
      <trkpt lat="42.8833" lon="-0.28953">
        <ele>2215</ele>
        <time>2013-05-20T07:37:20Z</time>
      </trkpt>
      <trkpt lat="42.88335" lon="-0.28953">
        <ele>2215</ele>
        <time>2013-05-20T07:37:28Z</time>
      </trkpt>
      <trkpt lat="42.88339" lon="-0.28952">
        <ele>2215</ele>
        <time>2013-05-20T07:37:35Z</time>
      </trkpt>
      <trkpt lat="42.88343" lon="-0.28952">
        <ele>2214</ele>
        <time>2013-05-20T07:37:43Z</time>
      </trkpt>
      <trkpt lat="42.88348" lon="-0.28951">
        <ele>2215</ele>
        <time>2013-05-20T07:37:51Z</time>
      </trkpt>
      <trkpt lat="42.88353" lon="-0.28953">
        <ele>2215</ele>
        <time>2013-05-20T07:38:00Z</time>
      </trkpt>
      <trkpt lat="42.88355" lon="-0.28954">
        <ele>2214</ele>
        <time>2013-05-20T07:38:07Z</time>
      </trkpt>
      <trkpt lat="42.88355" lon="-0.28954">
        <ele>2215</ele>
        <time>2013-05-20T07:38:15Z</time>
      </trkpt>
      <trkpt lat="42.88359" lon="-0.28955">
        <ele>2214</ele>
        <time>2013-05-20T07:38:22Z</time>
      </trkpt>
      <trkpt lat="42.88358" lon="-0.28954">
        <ele>2214</ele>
        <time>2013-05-20T07:38:30Z</time>
      </trkpt>
      <trkpt lat="42.88364" lon="-0.28956">
        <ele>2215</ele>
        <time>2013-05-20T07:38:39Z</time>
      </trkpt>
      <trkpt lat="42.8837" lon="-0.28957">
        <ele>2214</ele>
        <time>2013-05-20T07:38:47Z</time>
      </trkpt>
      <trkpt lat="42.88376" lon="-0.28956">
        <ele>2214</ele>
        <time>2013-05-20T07:38:55Z</time>
      </trkpt>
      <trkpt lat="42.88379" lon="-0.28956">
        <ele>2214</ele>
        <time>2013-05-20T07:38:59Z</time>
      </trkpt>
      <trkpt lat="42.88385" lon="-0.28957">
        <ele>2214</ele>
        <time>2013-05-20T07:39:07Z</time>
      </trkpt>
      <trkpt lat="42.88391" lon="-0.28956">
        <ele>2214</ele>
        <time>2013-05-20T07:39:15Z</time>
      </trkpt>
      <trkpt lat="42.88396" lon="-0.28956">
        <ele>2214</ele>
        <time>2013-05-20T07:39:22Z</time>
      </trkpt>
      <trkpt lat="42.884" lon="-0.28955">
        <ele>2213</ele>
        <time>2013-05-20T07:39:29Z</time>
      </trkpt>
      <trkpt lat="42.88406" lon="-0.28953">
        <ele>2214</ele>
        <time>2013-05-20T07:39:37Z</time>
      </trkpt>
      <trkpt lat="42.8841" lon="-0.28952">
        <ele>2213</ele>
        <time>2013-05-20T07:39:45Z</time>
      </trkpt>
      <trkpt lat="42.88412" lon="-0.28953">
        <ele>2214</ele>
        <time>2013-05-20T07:39:53Z</time>
      </trkpt>
      <trkpt lat="42.88417" lon="-0.28952">
        <ele>2213</ele>
        <time>2013-05-20T07:40:00Z</time>
      </trkpt>
      <trkpt lat="42.88422" lon="-0.28953">
        <ele>2214</ele>
        <time>2013-05-20T07:40:08Z</time>
      </trkpt>
      <trkpt lat="42.88427" lon="-0.28954">
        <ele>2214</ele>
        <time>2013-05-20T07:40:15Z</time>
      </trkpt>
      <trkpt lat="42.88431" lon="-0.28956">
        <ele>2214</ele>
        <time>2013-05-20T07:40:21Z</time>
      </trkpt>
      <trkpt lat="42.88433" lon="-0.28957">
        <ele>2215</ele>
        <time>2013-05-20T07:40:30Z</time>
      </trkpt>
      <trkpt lat="42.88436" lon="-0.28958">
        <ele>2215</ele>
        <time>2013-05-20T07:40:36Z</time>
      </trkpt>
      <trkpt lat="42.88442" lon="-0.28959">
        <ele>2215</ele>
        <time>2013-05-20T07:40:44Z</time>
      </trkpt>
      <trkpt lat="42.88446" lon="-0.2896">
        <ele>2215</ele>
        <time>2013-05-20T07:40:51Z</time>
      </trkpt>
      <trkpt lat="42.88449" lon="-0.2896">
        <ele>2215</ele>
        <time>2013-05-20T07:40:58Z</time>
      </trkpt>
      <trkpt lat="42.88454" lon="-0.2896">
        <ele>2215</ele>
        <time>2013-05-20T07:41:06Z</time>
      </trkpt>
      <trkpt lat="42.88458" lon="-0.2896">
        <ele>2215</ele>
        <time>2013-05-20T07:41:15Z</time>
      </trkpt>
      <trkpt lat="42.88464" lon="-0.2896">
        <ele>2216</ele>
        <time>2013-05-20T07:41:23Z</time>
      </trkpt>
      <trkpt lat="42.88465" lon="-0.2896">
        <ele>2216</ele>
        <time>2013-05-20T07:41:30Z</time>
      </trkpt>
      <trkpt lat="42.8847" lon="-0.28959">
        <ele>2215</ele>
        <time>2013-05-20T07:41:38Z</time>
      </trkpt>
      <trkpt lat="42.88476" lon="-0.28957">
        <ele>2216</ele>
        <time>2013-05-20T07:41:47Z</time>
      </trkpt>
      <trkpt lat="42.88481" lon="-0.28956">
        <ele>2217</ele>
        <time>2013-05-20T07:41:54Z</time>
      </trkpt>
      <trkpt lat="42.88487" lon="-0.28955">
        <ele>2217</ele>
        <time>2013-05-20T07:42:01Z</time>
      </trkpt>
      <trkpt lat="42.8849" lon="-0.28956">
        <ele>2218</ele>
        <time>2013-05-20T07:42:09Z</time>
      </trkpt>
      <trkpt lat="42.88494" lon="-0.28957">
        <ele>2219</ele>
        <time>2013-05-20T07:42:17Z</time>
      </trkpt>
      <trkpt lat="42.88494" lon="-0.28958">
        <ele>2219</ele>
        <time>2013-05-20T07:42:23Z</time>
      </trkpt>
      <trkpt lat="42.88495" lon="-0.28958">
        <ele>2219</ele>
        <time>2013-05-20T07:42:33Z</time>
      </trkpt>
      <trkpt lat="42.88495" lon="-0.28959">
        <ele>2220</ele>
        <time>2013-05-20T07:42:40Z</time>
      </trkpt>
      <trkpt lat="42.88495" lon="-0.2896">
        <ele>2219</ele>
        <time>2013-05-20T07:42:55Z</time>
      </trkpt>
      <trkpt lat="42.88496" lon="-0.28961">
        <ele>2220</ele>
        <time>2013-05-20T07:43:03Z</time>
      </trkpt>
      <trkpt lat="42.88497" lon="-0.28961">
        <ele>2220</ele>
        <time>2013-05-20T07:43:09Z</time>
      </trkpt>
      <trkpt lat="42.88501" lon="-0.28964">
        <ele>2219</ele>
        <time>2013-05-20T07:43:16Z</time>
      </trkpt>
      <trkpt lat="42.88505" lon="-0.28967">
        <ele>2219</ele>
        <time>2013-05-20T07:43:23Z</time>
      </trkpt>
      <trkpt lat="42.88508" lon="-0.28971">
        <ele>2219</ele>
        <time>2013-05-20T07:43:29Z</time>
      </trkpt>
      <trkpt lat="42.88512" lon="-0.28975">
        <ele>2219</ele>
        <time>2013-05-20T07:43:35Z</time>
      </trkpt>
      <trkpt lat="42.88516" lon="-0.28977">
        <ele>2219</ele>
        <time>2013-05-20T07:43:42Z</time>
      </trkpt>
      <trkpt lat="42.88519" lon="-0.2898">
        <ele>2218</ele>
        <time>2013-05-20T07:43:50Z</time>
      </trkpt>
      <trkpt lat="42.88522" lon="-0.28983">
        <ele>2218</ele>
        <time>2013-05-20T07:43:56Z</time>
      </trkpt>
      <trkpt lat="42.88528" lon="-0.28986">
        <ele>2218</ele>
        <time>2013-05-20T07:44:04Z</time>
      </trkpt>
      <trkpt lat="42.88531" lon="-0.28988">
        <ele>2218</ele>
        <time>2013-05-20T07:44:13Z</time>
      </trkpt>
      <trkpt lat="42.88531" lon="-0.28989">
        <ele>2218</ele>
        <time>2013-05-20T07:44:19Z</time>
      </trkpt>
      <trkpt lat="42.88533" lon="-0.28989">
        <ele>2217</ele>
        <time>2013-05-20T07:44:31Z</time>
      </trkpt>
      <trkpt lat="42.88539" lon="-0.2899">
        <ele>2218</ele>
        <time>2013-05-20T07:44:37Z</time>
      </trkpt>
      <trkpt lat="42.88544" lon="-0.28994">
        <ele>2217</ele>
        <time>2013-05-20T07:44:45Z</time>
      </trkpt>
      <trkpt lat="42.88549" lon="-0.28997">
        <ele>2217</ele>
        <time>2013-05-20T07:44:53Z</time>
      </trkpt>
      <trkpt lat="42.88555" lon="-0.28999">
        <ele>2217</ele>
        <time>2013-05-20T07:45:01Z</time>
      </trkpt>
      <trkpt lat="42.8856" lon="-0.29">
        <ele>2217</ele>
        <time>2013-05-20T07:45:08Z</time>
      </trkpt>
      <trkpt lat="42.88565" lon="-0.29001">
        <ele>2217</ele>
        <time>2013-05-20T07:45:14Z</time>
      </trkpt>
      <trkpt lat="42.8857" lon="-0.29002">
        <ele>2217</ele>
        <time>2013-05-20T07:45:21Z</time>
      </trkpt>
      <trkpt lat="42.88574" lon="-0.29003">
        <ele>2217</ele>
        <time>2013-05-20T07:45:27Z</time>
      </trkpt>
      <trkpt lat="42.88578" lon="-0.29003">
        <ele>2216</ele>
        <time>2013-05-20T07:45:34Z</time>
      </trkpt>
      <trkpt lat="42.8858" lon="-0.29001">
        <ele>2216</ele>
        <time>2013-05-20T07:45:43Z</time>
      </trkpt>
      <trkpt lat="42.88583" lon="-0.29">
        <ele>2216</ele>
        <time>2013-05-20T07:45:49Z</time>
      </trkpt>
      <trkpt lat="42.88583" lon="-0.29">
        <ele>2216</ele>
        <time>2013-05-20T07:45:56Z</time>
      </trkpt>
      <trkpt lat="42.88583" lon="-0.29002">
        <ele>2215</ele>
        <time>2013-05-20T07:46:04Z</time>
      </trkpt>
      <trkpt lat="42.88584" lon="-0.29002">
        <ele>2216</ele>
        <time>2013-05-20T07:46:14Z</time>
      </trkpt>
      <trkpt lat="42.88584" lon="-0.29">
        <ele>2216</ele>
        <time>2013-05-20T07:46:26Z</time>
      </trkpt>
      <trkpt lat="42.88585" lon="-0.28999">
        <ele>2215</ele>
        <time>2013-05-20T07:46:32Z</time>
      </trkpt>
      <trkpt lat="42.88586" lon="-0.29002">
        <ele>2215</ele>
        <time>2013-05-20T07:46:49Z</time>
      </trkpt>
      <trkpt lat="42.88587" lon="-0.28997">
        <ele>2215</ele>
        <time>2013-05-20T07:47:02Z</time>
      </trkpt>
      <trkpt lat="42.88591" lon="-0.2899">
        <ele>2215</ele>
        <time>2013-05-20T07:47:10Z</time>
      </trkpt>
      <trkpt lat="42.88596" lon="-0.28992">
        <ele>2214</ele>
        <time>2013-05-20T07:47:18Z</time>
      </trkpt>
      <trkpt lat="42.88598" lon="-0.28988">
        <ele>2214</ele>
        <time>2013-05-20T07:47:28Z</time>
      </trkpt>
      <trkpt lat="42.886" lon="-0.28987">
        <ele>2213</ele>
        <time>2013-05-20T07:47:31Z</time>
      </trkpt>
      <trkpt lat="42.88606" lon="-0.28986">
        <ele>2213</ele>
        <time>2013-05-20T07:47:38Z</time>
      </trkpt>
      <trkpt lat="42.88612" lon="-0.28987">
        <ele>2211</ele>
        <time>2013-05-20T07:47:46Z</time>
      </trkpt>
      <trkpt lat="42.88614" lon="-0.28988">
        <ele>2210</ele>
        <time>2013-05-20T07:47:54Z</time>
      </trkpt>
      <trkpt lat="42.88614" lon="-0.28987">
        <ele>2211</ele>
        <time>2013-05-20T07:48:08Z</time>
      </trkpt>
      <trkpt lat="42.88614" lon="-0.28987">
        <ele>2210</ele>
        <time>2013-05-20T07:48:22Z</time>
      </trkpt>
      <trkpt lat="42.88615" lon="-0.28993">
        <ele>2210</ele>
        <time>2013-05-20T07:48:30Z</time>
      </trkpt>
      <trkpt lat="42.88618" lon="-0.28996">
        <ele>2209</ele>
        <time>2013-05-20T07:48:38Z</time>
      </trkpt>
      <trkpt lat="42.88619" lon="-0.28997">
        <ele>2209</ele>
        <time>2013-05-20T07:48:49Z</time>
      </trkpt>
      <trkpt lat="42.8862" lon="-0.28997">
        <ele>2209</ele>
        <time>2013-05-20T07:48:50Z</time>
      </trkpt>
      <trkpt lat="42.88625" lon="-0.29005">
        <ele>2208</ele>
        <time>2013-05-20T07:48:59Z</time>
      </trkpt>
      <trkpt lat="42.88631" lon="-0.29012">
        <ele>2209</ele>
        <time>2013-05-20T07:49:07Z</time>
      </trkpt>
      <trkpt lat="42.88635" lon="-0.29017">
        <ele>2208</ele>
        <time>2013-05-20T07:49:14Z</time>
      </trkpt>
      <trkpt lat="42.88639" lon="-0.29024">
        <ele>2209</ele>
        <time>2013-05-20T07:49:23Z</time>
      </trkpt>
      <trkpt lat="42.88641" lon="-0.29026">
        <ele>2209</ele>
        <time>2013-05-20T07:49:29Z</time>
      </trkpt>
      <trkpt lat="42.88645" lon="-0.2903">
        <ele>2209</ele>
        <time>2013-05-20T07:49:36Z</time>
      </trkpt>
      <trkpt lat="42.88649" lon="-0.29034">
        <ele>2210</ele>
        <time>2013-05-20T07:49:43Z</time>
      </trkpt>
      <trkpt lat="42.88653" lon="-0.29038">
        <ele>2210</ele>
        <time>2013-05-20T07:49:50Z</time>
      </trkpt>
      <trkpt lat="42.88658" lon="-0.29039">
        <ele>2211</ele>
        <time>2013-05-20T07:49:57Z</time>
      </trkpt>
      <trkpt lat="42.88662" lon="-0.2904">
        <ele>2211</ele>
        <time>2013-05-20T07:50:04Z</time>
      </trkpt>
      <trkpt lat="42.88664" lon="-0.29041">
        <ele>2212</ele>
        <time>2013-05-20T07:50:11Z</time>
      </trkpt>
      <trkpt lat="42.88664" lon="-0.29042">
        <ele>2212</ele>
        <time>2013-05-20T07:50:19Z</time>
      </trkpt>
      <trkpt lat="42.88667" lon="-0.29042">
        <ele>2212</ele>
        <time>2013-05-20T07:50:29Z</time>
      </trkpt>
      <trkpt lat="42.88668" lon="-0.29048">
        <ele>2212</ele>
        <time>2013-05-20T07:50:35Z</time>
      </trkpt>
      <trkpt lat="42.8867" lon="-0.29052">
        <ele>2212</ele>
        <time>2013-05-20T07:50:41Z</time>
      </trkpt>
      <trkpt lat="42.88674" lon="-0.29055">
        <ele>2213</ele>
        <time>2013-05-20T07:50:49Z</time>
      </trkpt>
      <trkpt lat="42.88679" lon="-0.29059">
        <ele>2213</ele>
        <time>2013-05-20T07:50:56Z</time>
      </trkpt>
      <trkpt lat="42.88684" lon="-0.29063">
        <ele>2212</ele>
        <time>2013-05-20T07:51:03Z</time>
      </trkpt>
      <trkpt lat="42.8869" lon="-0.29065">
        <ele>2212</ele>
        <time>2013-05-20T07:51:10Z</time>
      </trkpt>
      <trkpt lat="42.88695" lon="-0.29065">
        <ele>2211</ele>
        <time>2013-05-20T07:51:18Z</time>
      </trkpt>
      <trkpt lat="42.88701" lon="-0.29065">
        <ele>2212</ele>
        <time>2013-05-20T07:51:26Z</time>
      </trkpt>
      <trkpt lat="42.88705" lon="-0.29065">
        <ele>2212</ele>
        <time>2013-05-20T07:51:32Z</time>
      </trkpt>
      <trkpt lat="42.88709" lon="-0.29065">
        <ele>2214</ele>
        <time>2013-05-20T07:51:38Z</time>
      </trkpt>
      <trkpt lat="42.88714" lon="-0.29068">
        <ele>2214</ele>
        <time>2013-05-20T07:51:47Z</time>
      </trkpt>
      <trkpt lat="42.88719" lon="-0.2907">
        <ele>2213</ele>
        <time>2013-05-20T07:51:55Z</time>
      </trkpt>
      <trkpt lat="42.88723" lon="-0.29073">
        <ele>2213</ele>
        <time>2013-05-20T07:52:05Z</time>
      </trkpt>
      <trkpt lat="42.88727" lon="-0.29076">
        <ele>2214</ele>
        <time>2013-05-20T07:52:12Z</time>
      </trkpt>
      <trkpt lat="42.88733" lon="-0.29082">
        <ele>2215</ele>
        <time>2013-05-20T07:52:23Z</time>
      </trkpt>
      <trkpt lat="42.88733" lon="-0.29083">
        <ele>2215</ele>
        <time>2013-05-20T07:52:34Z</time>
      </trkpt>
      <trkpt lat="42.88737" lon="-0.29085">
        <ele>2215</ele>
        <time>2013-05-20T07:52:40Z</time>
      </trkpt>
      <trkpt lat="42.88738" lon="-0.29086">
        <ele>2215</ele>
        <time>2013-05-20T07:52:46Z</time>
      </trkpt>
      <trkpt lat="42.88739" lon="-0.29088">
        <ele>2215</ele>
        <time>2013-05-20T07:52:55Z</time>
      </trkpt>
      <trkpt lat="42.88741" lon="-0.29091">
        <ele>2216</ele>
        <time>2013-05-20T07:53:02Z</time>
      </trkpt>
      <trkpt lat="42.88744" lon="-0.29096">
        <ele>2217</ele>
        <time>2013-05-20T07:53:09Z</time>
      </trkpt>
      <trkpt lat="42.88747" lon="-0.29099">
        <ele>2217</ele>
        <time>2013-05-20T07:53:16Z</time>
      </trkpt>
      <trkpt lat="42.8875" lon="-0.29104">
        <ele>2217</ele>
        <time>2013-05-20T07:53:23Z</time>
      </trkpt>
      <trkpt lat="42.88751" lon="-0.29105">
        <ele>2217</ele>
        <time>2013-05-20T07:53:30Z</time>
      </trkpt>
      <trkpt lat="42.8875" lon="-0.29106">
        <ele>2217</ele>
        <time>2013-05-20T07:53:46Z</time>
      </trkpt>
      <trkpt lat="42.88752" lon="-0.29109">
        <ele>2218</ele>
        <time>2013-05-20T07:53:58Z</time>
      </trkpt>
      <trkpt lat="42.88756" lon="-0.29114">
        <ele>2219</ele>
        <time>2013-05-20T07:54:08Z</time>
      </trkpt>
      <trkpt lat="42.88757" lon="-0.29112">
        <ele>2219</ele>
        <time>2013-05-20T07:54:20Z</time>
      </trkpt>
      <trkpt lat="42.88758" lon="-0.29115">
        <ele>2218</ele>
        <time>2013-05-20T07:54:29Z</time>
      </trkpt>
      <trkpt lat="42.88758" lon="-0.29115">
        <ele>2220</ele>
        <time>2013-05-20T07:54:37Z</time>
      </trkpt>
      <trkpt lat="42.88756" lon="-0.29113">
        <ele>2219</ele>
        <time>2013-05-20T07:54:45Z</time>
      </trkpt>
      <trkpt lat="42.88753" lon="-0.29115">
        <ele>2221</ele>
        <time>2013-05-20T07:54:55Z</time>
      </trkpt>
      <trkpt lat="42.88748" lon="-0.29114">
        <ele>2222</ele>
        <time>2013-05-20T07:55:05Z</time>
      </trkpt>
      <trkpt lat="42.88741" lon="-0.29112">
        <ele>2224</ele>
        <time>2013-05-20T07:55:18Z</time>
      </trkpt>
      <trkpt lat="42.88735" lon="-0.29107">
        <ele>2226</ele>
        <time>2013-05-20T07:55:28Z</time>
      </trkpt>
      <trkpt lat="42.88734" lon="-0.29108">
        <ele>2227</ele>
        <time>2013-05-20T07:55:35Z</time>
      </trkpt>
      <trkpt lat="42.88733" lon="-0.29109">
        <ele>2227</ele>
        <time>2013-05-20T07:55:41Z</time>
      </trkpt>
      <trkpt lat="42.88734" lon="-0.2911">
        <ele>2227</ele>
        <time>2013-05-20T07:55:50Z</time>
      </trkpt>
      <trkpt lat="42.88733" lon="-0.29113">
        <ele>2227</ele>
        <time>2013-05-20T07:56:04Z</time>
      </trkpt>
      <trkpt lat="42.88733" lon="-0.29111">
        <ele>2227</ele>
        <time>2013-05-20T07:56:16Z</time>
      </trkpt>
      <trkpt lat="42.88735" lon="-0.2911">
        <ele>2227</ele>
        <time>2013-05-20T07:56:25Z</time>
      </trkpt>
      <trkpt lat="42.88737" lon="-0.29118">
        <ele>2228</ele>
        <time>2013-05-20T07:56:34Z</time>
      </trkpt>
      <trkpt lat="42.88741" lon="-0.29126">
        <ele>2229</ele>
        <time>2013-05-20T07:56:43Z</time>
      </trkpt>
      <trkpt lat="42.88743" lon="-0.29131">
        <ele>2230</ele>
        <time>2013-05-20T07:56:53Z</time>
      </trkpt>
      <trkpt lat="42.88748" lon="-0.29137">
        <ele>2232</ele>
        <time>2013-05-20T07:57:03Z</time>
      </trkpt>
      <trkpt lat="42.88751" lon="-0.2914">
        <ele>2233</ele>
        <time>2013-05-20T07:57:10Z</time>
      </trkpt>
      <trkpt lat="42.88748" lon="-0.2914">
        <ele>2234</ele>
        <time>2013-05-20T07:57:17Z</time>
      </trkpt>
      <trkpt lat="42.88747" lon="-0.2914">
        <ele>2235</ele>
        <time>2013-05-20T07:57:25Z</time>
      </trkpt>
      <trkpt lat="42.88742" lon="-0.29142">
        <ele>2236</ele>
        <time>2013-05-20T07:57:34Z</time>
      </trkpt>
      <trkpt lat="42.88736" lon="-0.29141">
        <ele>2236</ele>
        <time>2013-05-20T07:57:43Z</time>
      </trkpt>
      <trkpt lat="42.88732" lon="-0.2914">
        <ele>2237</ele>
        <time>2013-05-20T07:57:51Z</time>
      </trkpt>
      <trkpt lat="42.88725" lon="-0.29138">
        <ele>2239</ele>
        <time>2013-05-20T07:58:02Z</time>
      </trkpt>
      <trkpt lat="42.8872" lon="-0.29135">
        <ele>2240</ele>
        <time>2013-05-20T07:58:12Z</time>
      </trkpt>
      <trkpt lat="42.88719" lon="-0.29136">
        <ele>2241</ele>
        <time>2013-05-20T07:58:20Z</time>
      </trkpt>
      <trkpt lat="42.8872" lon="-0.29137">
        <ele>2241</ele>
        <time>2013-05-20T07:58:27Z</time>
      </trkpt>
      <trkpt lat="42.88721" lon="-0.2914">
        <ele>2242</ele>
        <time>2013-05-20T07:58:33Z</time>
      </trkpt>
      <trkpt lat="42.88724" lon="-0.29147">
        <ele>2242</ele>
        <time>2013-05-20T07:58:42Z</time>
      </trkpt>
      <trkpt lat="42.88727" lon="-0.29151">
        <ele>2243</ele>
        <time>2013-05-20T07:58:48Z</time>
      </trkpt>
      <trkpt lat="42.88729" lon="-0.29156">
        <ele>2244</ele>
        <time>2013-05-20T07:58:55Z</time>
      </trkpt>
      <trkpt lat="42.88732" lon="-0.29159">
        <ele>2245</ele>
        <time>2013-05-20T07:59:04Z</time>
      </trkpt>
      <trkpt lat="42.88737" lon="-0.29161">
        <ele>2246</ele>
        <time>2013-05-20T07:59:11Z</time>
      </trkpt>
      <trkpt lat="42.88739" lon="-0.29163">
        <ele>2247</ele>
        <time>2013-05-20T07:59:18Z</time>
      </trkpt>
      <trkpt lat="42.88743" lon="-0.29166">
        <ele>2248</ele>
        <time>2013-05-20T07:59:26Z</time>
      </trkpt>
      <trkpt lat="42.88746" lon="-0.2917">
        <ele>2249</ele>
        <time>2013-05-20T07:59:33Z</time>
      </trkpt>
      <trkpt lat="42.88747" lon="-0.29177">
        <ele>2250</ele>
        <time>2013-05-20T07:59:42Z</time>
      </trkpt>
      <trkpt lat="42.88747" lon="-0.29182">
        <ele>2251</ele>
        <time>2013-05-20T07:59:50Z</time>
      </trkpt>
      <trkpt lat="42.88747" lon="-0.2919">
        <ele>2252</ele>
        <time>2013-05-20T07:59:59Z</time>
      </trkpt>
      <trkpt lat="42.88746" lon="-0.29196">
        <ele>2253</ele>
        <time>2013-05-20T08:00:06Z</time>
      </trkpt>
      <trkpt lat="42.88744" lon="-0.29201">
        <ele>2255</ele>
        <time>2013-05-20T08:00:13Z</time>
      </trkpt>
      <trkpt lat="42.88743" lon="-0.29204">
        <ele>2255</ele>
        <time>2013-05-20T08:00:22Z</time>
      </trkpt>
      <trkpt lat="42.88742" lon="-0.29206">
        <ele>2255</ele>
        <time>2013-05-20T08:00:37Z</time>
      </trkpt>
      <trkpt lat="42.88742" lon="-0.2921">
        <ele>2255</ele>
        <time>2013-05-20T08:00:45Z</time>
      </trkpt>
      <trkpt lat="42.88739" lon="-0.29215">
        <ele>2256</ele>
        <time>2013-05-20T08:00:53Z</time>
      </trkpt>
      <trkpt lat="42.88738" lon="-0.29216">
        <ele>2256</ele>
        <time>2013-05-20T08:01:00Z</time>
      </trkpt>
      <trkpt lat="42.88736" lon="-0.29219">
        <ele>2256</ele>
        <time>2013-05-20T08:01:08Z</time>
      </trkpt>
      <trkpt lat="42.88736" lon="-0.29223">
        <ele>2255</ele>
        <time>2013-05-20T08:01:18Z</time>
      </trkpt>
      <trkpt lat="42.88736" lon="-0.29233">
        <ele>2255</ele>
        <time>2013-05-20T08:01:26Z</time>
      </trkpt>
      <trkpt lat="42.88736" lon="-0.29241">
        <ele>2256</ele>
        <time>2013-05-20T08:01:36Z</time>
      </trkpt>
      <trkpt lat="42.88737" lon="-0.29246">
        <ele>2255</ele>
        <time>2013-05-20T08:01:42Z</time>
      </trkpt>
      <trkpt lat="42.88737" lon="-0.29253">
        <ele>2255</ele>
        <time>2013-05-20T08:01:51Z</time>
      </trkpt>
      <trkpt lat="42.88736" lon="-0.2926">
        <ele>2255</ele>
        <time>2013-05-20T08:01:58Z</time>
      </trkpt>
      <trkpt lat="42.88733" lon="-0.29265">
        <ele>2256</ele>
        <time>2013-05-20T08:02:06Z</time>
      </trkpt>
      <trkpt lat="42.88728" lon="-0.29272">
        <ele>2255</ele>
        <time>2013-05-20T08:02:16Z</time>
      </trkpt>
      <trkpt lat="42.88724" lon="-0.29276">
        <ele>2255</ele>
        <time>2013-05-20T08:02:22Z</time>
      </trkpt>
      <trkpt lat="42.88724" lon="-0.29279">
        <ele>2256</ele>
        <time>2013-05-20T08:02:31Z</time>
      </trkpt>
      <trkpt lat="42.88725" lon="-0.29278">
        <ele>2256</ele>
        <time>2013-05-20T08:02:38Z</time>
      </trkpt>
      <trkpt lat="42.88725" lon="-0.29278">
        <ele>2256</ele>
        <time>2013-05-20T08:02:47Z</time>
      </trkpt>
      <trkpt lat="42.88724" lon="-0.2928">
        <ele>2255</ele>
        <time>2013-05-20T08:02:56Z</time>
      </trkpt>
      <trkpt lat="42.88723" lon="-0.29283">
        <ele>2255</ele>
        <time>2013-05-20T08:03:02Z</time>
      </trkpt>
      <trkpt lat="42.88719" lon="-0.29289">
        <ele>2255</ele>
        <time>2013-05-20T08:03:10Z</time>
      </trkpt>
      <trkpt lat="42.88717" lon="-0.29293">
        <ele>2255</ele>
        <time>2013-05-20T08:03:17Z</time>
      </trkpt>
      <trkpt lat="42.88719" lon="-0.29294">
        <ele>2255</ele>
        <time>2013-05-20T08:03:24Z</time>
      </trkpt>
      <trkpt lat="42.88718" lon="-0.29294">
        <ele>2255</ele>
        <time>2013-05-20T08:03:39Z</time>
      </trkpt>
      <trkpt lat="42.88718" lon="-0.29292">
        <ele>2255</ele>
        <time>2013-05-20T08:03:54Z</time>
      </trkpt>
      <trkpt lat="42.88717" lon="-0.29291">
        <ele>2255</ele>
        <time>2013-05-20T08:04:09Z</time>
      </trkpt>
      <trkpt lat="42.88717" lon="-0.29291">
        <ele>2255</ele>
        <time>2013-05-20T08:04:19Z</time>
      </trkpt>
      <trkpt lat="42.88719" lon="-0.29293">
        <ele>2256</ele>
        <time>2013-05-20T08:04:34Z</time>
      </trkpt>
      <trkpt lat="42.88719" lon="-0.29292">
        <ele>2255</ele>
        <time>2013-05-20T08:04:41Z</time>
      </trkpt>
      <trkpt lat="42.88718" lon="-0.29291">
        <ele>2255</ele>
        <time>2013-05-20T08:04:52Z</time>
      </trkpt>
      <trkpt lat="42.88717" lon="-0.29294">
        <ele>2255</ele>
        <time>2013-05-20T08:04:59Z</time>
      </trkpt>
      <trkpt lat="42.88716" lon="-0.29298">
        <ele>2255</ele>
        <time>2013-05-20T08:05:05Z</time>
      </trkpt>
      <trkpt lat="42.88713" lon="-0.29304">
        <ele>2255</ele>
        <time>2013-05-20T08:05:12Z</time>
      </trkpt>
      <trkpt lat="42.88714" lon="-0.29303">
        <ele>2255</ele>
        <time>2013-05-20T08:05:20Z</time>
      </trkpt>
      <trkpt lat="42.88713" lon="-0.29306">
        <ele>2255</ele>
        <time>2013-05-20T08:05:25Z</time>
      </trkpt>
      <trkpt lat="42.88713" lon="-0.2931">
        <ele>2255</ele>
        <time>2013-05-20T08:05:34Z</time>
      </trkpt>
      <trkpt lat="42.88711" lon="-0.29316">
        <ele>2256</ele>
        <time>2013-05-20T08:05:41Z</time>
      </trkpt>
      <trkpt lat="42.88707" lon="-0.29325">
        <ele>2256</ele>
        <time>2013-05-20T08:05:49Z</time>
      </trkpt>
      <trkpt lat="42.88705" lon="-0.2933">
        <ele>2255</ele>
        <time>2013-05-20T08:05:55Z</time>
      </trkpt>
      <trkpt lat="42.88703" lon="-0.29339">
        <ele>2256</ele>
        <time>2013-05-20T08:06:02Z</time>
      </trkpt>
      <trkpt lat="42.88701" lon="-0.29345">
        <ele>2256</ele>
        <time>2013-05-20T08:06:10Z</time>
      </trkpt>
      <trkpt lat="42.88701" lon="-0.29351">
        <ele>2257</ele>
        <time>2013-05-20T08:06:16Z</time>
      </trkpt>
      <trkpt lat="42.887" lon="-0.29354">
        <ele>2257</ele>
        <time>2013-05-20T08:06:21Z</time>
      </trkpt>
      <trkpt lat="42.88699" lon="-0.29359">
        <ele>2257</ele>
        <time>2013-05-20T08:06:28Z</time>
      </trkpt>
      <trkpt lat="42.88697" lon="-0.29364">
        <ele>2259</ele>
        <time>2013-05-20T08:06:36Z</time>
      </trkpt>
      <trkpt lat="42.88696" lon="-0.2937">
        <ele>2259</ele>
        <time>2013-05-20T08:06:44Z</time>
      </trkpt>
      <trkpt lat="42.88694" lon="-0.29371">
        <ele>2259</ele>
        <time>2013-05-20T08:06:53Z</time>
      </trkpt>
      <trkpt lat="42.88695" lon="-0.29375">
        <ele>2259</ele>
        <time>2013-05-20T08:07:00Z</time>
      </trkpt>
      <trkpt lat="42.88694" lon="-0.29379">
        <ele>2259</ele>
        <time>2013-05-20T08:07:08Z</time>
      </trkpt>
      <trkpt lat="42.88694" lon="-0.29385">
        <ele>2259</ele>
        <time>2013-05-20T08:07:15Z</time>
      </trkpt>
      <trkpt lat="42.88693" lon="-0.29394">
        <ele>2259</ele>
        <time>2013-05-20T08:07:23Z</time>
      </trkpt>
      <trkpt lat="42.88693" lon="-0.29401">
        <ele>2260</ele>
        <time>2013-05-20T08:07:30Z</time>
      </trkpt>
      <trkpt lat="42.88694" lon="-0.29405">
        <ele>2259</ele>
        <time>2013-05-20T08:07:35Z</time>
      </trkpt>
      <trkpt lat="42.88694" lon="-0.29411">
        <ele>2259</ele>
        <time>2013-05-20T08:07:44Z</time>
      </trkpt>
      <trkpt lat="42.88695" lon="-0.29416">
        <ele>2259</ele>
        <time>2013-05-20T08:07:53Z</time>
      </trkpt>
      <trkpt lat="42.88697" lon="-0.29422">
        <ele>2260</ele>
        <time>2013-05-20T08:08:00Z</time>
      </trkpt>
      <trkpt lat="42.88696" lon="-0.2943">
        <ele>2260</ele>
        <time>2013-05-20T08:08:08Z</time>
      </trkpt>
      <trkpt lat="42.88696" lon="-0.29437">
        <ele>2260</ele>
        <time>2013-05-20T08:08:16Z</time>
      </trkpt>
      <trkpt lat="42.88698" lon="-0.29446">
        <ele>2259</ele>
        <time>2013-05-20T08:08:24Z</time>
      </trkpt>
      <trkpt lat="42.88698" lon="-0.29447">
        <ele>2259</ele>
        <time>2013-05-20T08:08:25Z</time>
      </trkpt>
      <trkpt lat="42.88698" lon="-0.29452">
        <ele>2259</ele>
        <time>2013-05-20T08:08:30Z</time>
      </trkpt>
      <trkpt lat="42.88701" lon="-0.2946">
        <ele>2260</ele>
        <time>2013-05-20T08:08:37Z</time>
      </trkpt>
      <trkpt lat="42.88702" lon="-0.29467">
        <ele>2260</ele>
        <time>2013-05-20T08:08:44Z</time>
      </trkpt>
      <trkpt lat="42.88702" lon="-0.29469">
        <ele>2261</ele>
        <time>2013-05-20T08:08:54Z</time>
      </trkpt>
      <trkpt lat="42.88703" lon="-0.29478">
        <ele>2261</ele>
        <time>2013-05-20T08:09:02Z</time>
      </trkpt>
      <trkpt lat="42.88704" lon="-0.29485">
        <ele>2262</ele>
        <time>2013-05-20T08:09:09Z</time>
      </trkpt>
      <trkpt lat="42.88704" lon="-0.29492">
        <ele>2262</ele>
        <time>2013-05-20T08:09:17Z</time>
      </trkpt>
      <trkpt lat="42.88705" lon="-0.29495">
        <ele>2262</ele>
        <time>2013-05-20T08:09:23Z</time>
      </trkpt>
      <trkpt lat="42.88706" lon="-0.29503">
        <ele>2263</ele>
        <time>2013-05-20T08:09:30Z</time>
      </trkpt>
      <trkpt lat="42.88707" lon="-0.29511">
        <ele>2263</ele>
        <time>2013-05-20T08:09:38Z</time>
      </trkpt>
      <trkpt lat="42.88708" lon="-0.29516">
        <ele>2263</ele>
        <time>2013-05-20T08:09:45Z</time>
      </trkpt>
      <trkpt lat="42.88709" lon="-0.29523">
        <ele>2263</ele>
        <time>2013-05-20T08:09:52Z</time>
      </trkpt>
      <trkpt lat="42.88712" lon="-0.29525">
        <ele>2263</ele>
        <time>2013-05-20T08:10:03Z</time>
      </trkpt>
      <trkpt lat="42.88712" lon="-0.29532">
        <ele>2263</ele>
        <time>2013-05-20T08:10:09Z</time>
      </trkpt>
      <trkpt lat="42.88711" lon="-0.29537">
        <ele>2264</ele>
        <time>2013-05-20T08:10:14Z</time>
      </trkpt>
      <trkpt lat="42.8871" lon="-0.29542">
        <ele>2264</ele>
        <time>2013-05-20T08:10:20Z</time>
      </trkpt>
      <trkpt lat="42.8871" lon="-0.29546">
        <ele>2264</ele>
        <time>2013-05-20T08:10:24Z</time>
      </trkpt>
      <trkpt lat="42.88708" lon="-0.29551">
        <ele>2264</ele>
        <time>2013-05-20T08:10:32Z</time>
      </trkpt>
      <trkpt lat="42.88705" lon="-0.29557">
        <ele>2264</ele>
        <time>2013-05-20T08:10:40Z</time>
      </trkpt>
      <trkpt lat="42.88702" lon="-0.29563">
        <ele>2264</ele>
        <time>2013-05-20T08:10:47Z</time>
      </trkpt>
      <trkpt lat="42.88702" lon="-0.29565">
        <ele>2264</ele>
        <time>2013-05-20T08:10:54Z</time>
      </trkpt>
      <trkpt lat="42.88701" lon="-0.29568">
        <ele>2264</ele>
        <time>2013-05-20T08:11:04Z</time>
      </trkpt>
      <trkpt lat="42.887" lon="-0.29574">
        <ele>2264</ele>
        <time>2013-05-20T08:11:10Z</time>
      </trkpt>
      <trkpt lat="42.88699" lon="-0.29579">
        <ele>2265</ele>
        <time>2013-05-20T08:11:16Z</time>
      </trkpt>
      <trkpt lat="42.88698" lon="-0.29588">
        <ele>2265</ele>
        <time>2013-05-20T08:11:24Z</time>
      </trkpt>
      <trkpt lat="42.88699" lon="-0.29595">
        <ele>2266</ele>
        <time>2013-05-20T08:11:32Z</time>
      </trkpt>
      <trkpt lat="42.88698" lon="-0.29603">
        <ele>2267</ele>
        <time>2013-05-20T08:11:40Z</time>
      </trkpt>
      <trkpt lat="42.88698" lon="-0.29611">
        <ele>2268</ele>
        <time>2013-05-20T08:11:48Z</time>
      </trkpt>
      <trkpt lat="42.88696" lon="-0.29618">
        <ele>2268</ele>
        <time>2013-05-20T08:11:54Z</time>
      </trkpt>
      <trkpt lat="42.88694" lon="-0.29624">
        <ele>2269</ele>
        <time>2013-05-20T08:12:02Z</time>
      </trkpt>
      <trkpt lat="42.88692" lon="-0.29627">
        <ele>2269</ele>
        <time>2013-05-20T08:12:08Z</time>
      </trkpt>
      <trkpt lat="42.88691" lon="-0.29628">
        <ele>2269</ele>
        <time>2013-05-20T08:12:15Z</time>
      </trkpt>
      <trkpt lat="42.8869" lon="-0.29634">
        <ele>2269</ele>
        <time>2013-05-20T08:12:22Z</time>
      </trkpt>
      <trkpt lat="42.88688" lon="-0.29643">
        <ele>2269</ele>
        <time>2013-05-20T08:12:32Z</time>
      </trkpt>
      <trkpt lat="42.88687" lon="-0.29649">
        <ele>2268</ele>
        <time>2013-05-20T08:12:37Z</time>
      </trkpt>
      <trkpt lat="42.88687" lon="-0.29651">
        <ele>2268</ele>
        <time>2013-05-20T08:12:39Z</time>
      </trkpt>
      <trkpt lat="42.88687" lon="-0.29663">
        <ele>2269</ele>
        <time>2013-05-20T08:12:48Z</time>
      </trkpt>
      <trkpt lat="42.88689" lon="-0.29671">
        <ele>2268</ele>
        <time>2013-05-20T08:12:56Z</time>
      </trkpt>
      <trkpt lat="42.88689" lon="-0.29671">
        <ele>2269</ele>
        <time>2013-05-20T08:13:09Z</time>
      </trkpt>
      <trkpt lat="42.88684" lon="-0.29671">
        <ele>2269</ele>
        <time>2013-05-20T08:13:23Z</time>
      </trkpt>
      <trkpt lat="42.88687" lon="-0.2968">
        <ele>2268</ele>
        <time>2013-05-20T08:13:36Z</time>
      </trkpt>
      <trkpt lat="42.88686" lon="-0.2969">
        <ele>2269</ele>
        <time>2013-05-20T08:13:46Z</time>
      </trkpt>
      <trkpt lat="42.88686" lon="-0.29696">
        <ele>2269</ele>
        <time>2013-05-20T08:13:54Z</time>
      </trkpt>
      <trkpt lat="42.88685" lon="-0.29695">
        <ele>2270</ele>
        <time>2013-05-20T08:14:05Z</time>
      </trkpt>
      <trkpt lat="42.88688" lon="-0.29699">
        <ele>2270</ele>
        <time>2013-05-20T08:14:21Z</time>
      </trkpt>
      <trkpt lat="42.88692" lon="-0.29688">
        <ele>2270</ele>
        <time>2013-05-20T08:14:58Z</time>
      </trkpt>
      <trkpt lat="42.88691" lon="-0.29699">
        <ele>2270</ele>
        <time>2013-05-20T08:15:11Z</time>
      </trkpt>
      <trkpt lat="42.88688" lon="-0.29698">
        <ele>2270</ele>
        <time>2013-05-20T08:15:24Z</time>
      </trkpt>
      <trkpt lat="42.88688" lon="-0.29695">
        <ele>2270</ele>
        <time>2013-05-20T08:15:33Z</time>
      </trkpt>
      <trkpt lat="42.88686" lon="-0.29693">
        <ele>2270</ele>
        <time>2013-05-20T08:15:45Z</time>
      </trkpt>
      <trkpt lat="42.88686" lon="-0.29691">
        <ele>2270</ele>
        <time>2013-05-20T08:16:00Z</time>
      </trkpt>
      <trkpt lat="42.88687" lon="-0.29693">
        <ele>2270</ele>
        <time>2013-05-20T08:16:15Z</time>
      </trkpt>
      <trkpt lat="42.88686" lon="-0.29692">
        <ele>2270</ele>
        <time>2013-05-20T08:16:31Z</time>
      </trkpt>
      <trkpt lat="42.88686" lon="-0.29694">
        <ele>2270</ele>
        <time>2013-05-20T08:16:43Z</time>
      </trkpt>
      <trkpt lat="42.88688" lon="-0.29697">
        <ele>2270</ele>
        <time>2013-05-20T08:16:59Z</time>
      </trkpt>
      <trkpt lat="42.88686" lon="-0.29693">
        <ele>2270</ele>
        <time>2013-05-20T08:17:12Z</time>
      </trkpt>
      <trkpt lat="42.88687" lon="-0.29694">
        <ele>2270</ele>
        <time>2013-05-20T08:17:26Z</time>
      </trkpt>
      <trkpt lat="42.88686" lon="-0.29694">
        <ele>2270</ele>
        <time>2013-05-20T08:17:33Z</time>
      </trkpt>
      <trkpt lat="42.88687" lon="-0.29693">
        <ele>2270</ele>
        <time>2013-05-20T08:17:48Z</time>
      </trkpt>
      <trkpt lat="42.88689" lon="-0.29696">
        <ele>2270</ele>
        <time>2013-05-20T08:18:02Z</time>
      </trkpt>
      <trkpt lat="42.88688" lon="-0.29694">
        <ele>2270</ele>
        <time>2013-05-20T08:18:15Z</time>
      </trkpt>
      <trkpt lat="42.88688" lon="-0.29694">
        <ele>2270</ele>
        <time>2013-05-20T08:18:22Z</time>
      </trkpt>
      <trkpt lat="42.88682" lon="-0.29694">
        <ele>2270</ele>
        <time>2013-05-20T08:18:28Z</time>
      </trkpt>
      <trkpt lat="42.88679" lon="-0.29697">
        <ele>2271</ele>
        <time>2013-05-20T08:18:32Z</time>
      </trkpt>
      <trkpt lat="42.8868" lon="-0.29707">
        <ele>2272</ele>
        <time>2013-05-20T08:18:39Z</time>
      </trkpt>
      <trkpt lat="42.88678" lon="-0.2971">
        <ele>2273</ele>
        <time>2013-05-20T08:18:45Z</time>
      </trkpt>
      <trkpt lat="42.88675" lon="-0.29715">
        <ele>2273</ele>
        <time>2013-05-20T08:18:51Z</time>
      </trkpt>
      <trkpt lat="42.88674" lon="-0.2972">
        <ele>2275</ele>
        <time>2013-05-20T08:18:58Z</time>
      </trkpt>
      <trkpt lat="42.88674" lon="-0.29722">
        <ele>2275</ele>
        <time>2013-05-20T08:19:00Z</time>
      </trkpt>
      <trkpt lat="42.88671" lon="-0.29728">
        <ele>2276</ele>
        <time>2013-05-20T08:19:08Z</time>
      </trkpt>
      <trkpt lat="42.88668" lon="-0.29732">
        <ele>2276</ele>
        <time>2013-05-20T08:19:14Z</time>
      </trkpt>
      <trkpt lat="42.88666" lon="-0.29738">
        <ele>2277</ele>
        <time>2013-05-20T08:19:22Z</time>
      </trkpt>
      <trkpt lat="42.88662" lon="-0.29744">
        <ele>2277</ele>
        <time>2013-05-20T08:19:30Z</time>
      </trkpt>
      <trkpt lat="42.88659" lon="-0.29751">
        <ele>2279</ele>
        <time>2013-05-20T08:19:37Z</time>
      </trkpt>
      <trkpt lat="42.88655" lon="-0.29758">
        <ele>2278</ele>
        <time>2013-05-20T08:19:45Z</time>
      </trkpt>
      <trkpt lat="42.88651" lon="-0.29763">
        <ele>2279</ele>
        <time>2013-05-20T08:19:53Z</time>
      </trkpt>
      <trkpt lat="42.88649" lon="-0.29764">
        <ele>2280</ele>
        <time>2013-05-20T08:19:59Z</time>
      </trkpt>
      <trkpt lat="42.88648" lon="-0.29766">
        <ele>2280</ele>
        <time>2013-05-20T08:20:05Z</time>
      </trkpt>
      <trkpt lat="42.88644" lon="-0.29773">
        <ele>2281</ele>
        <time>2013-05-20T08:20:13Z</time>
      </trkpt>
      <trkpt lat="42.88641" lon="-0.29777">
        <ele>2281</ele>
        <time>2013-05-20T08:20:19Z</time>
      </trkpt>
      <trkpt lat="42.88637" lon="-0.29778">
        <ele>2281</ele>
        <time>2013-05-20T08:20:24Z</time>
      </trkpt>
      <trkpt lat="42.88632" lon="-0.29784">
        <ele>2282</ele>
        <time>2013-05-20T08:20:32Z</time>
      </trkpt>
      <trkpt lat="42.88626" lon="-0.2979">
        <ele>2282</ele>
        <time>2013-05-20T08:20:41Z</time>
      </trkpt>
      <trkpt lat="42.88622" lon="-0.29795">
        <ele>2282</ele>
        <time>2013-05-20T08:20:49Z</time>
      </trkpt>
      <trkpt lat="42.88617" lon="-0.29801">
        <ele>2282</ele>
        <time>2013-05-20T08:20:56Z</time>
      </trkpt>
      <trkpt lat="42.88616" lon="-0.29803">
        <ele>2282</ele>
        <time>2013-05-20T08:20:58Z</time>
      </trkpt>
      <trkpt lat="42.88612" lon="-0.29809">
        <ele>2284</ele>
        <time>2013-05-20T08:21:08Z</time>
      </trkpt>
      <trkpt lat="42.8861" lon="-0.29817">
        <ele>2286</ele>
        <time>2013-05-20T08:21:15Z</time>
      </trkpt>
      <trkpt lat="42.88607" lon="-0.29818">
        <ele>2286</ele>
        <time>2013-05-20T08:21:21Z</time>
      </trkpt>
      <trkpt lat="42.88604" lon="-0.29812">
        <ele>2287</ele>
        <time>2013-05-20T08:21:28Z</time>
      </trkpt>
      <trkpt lat="42.88599" lon="-0.29809">
        <ele>2289</ele>
        <time>2013-05-20T08:21:36Z</time>
      </trkpt>
      <trkpt lat="42.88598" lon="-0.29809">
        <ele>2289</ele>
        <time>2013-05-20T08:21:38Z</time>
      </trkpt>
      <trkpt lat="42.88593" lon="-0.29812">
        <ele>2290</ele>
        <time>2013-05-20T08:21:43Z</time>
      </trkpt>
      <trkpt lat="42.88591" lon="-0.29816">
        <ele>2290</ele>
        <time>2013-05-20T08:21:49Z</time>
      </trkpt>
      <trkpt lat="42.88588" lon="-0.29818">
        <ele>2290</ele>
        <time>2013-05-20T08:21:55Z</time>
      </trkpt>
      <trkpt lat="42.88588" lon="-0.29822">
        <ele>2291</ele>
        <time>2013-05-20T08:22:03Z</time>
      </trkpt>
      <trkpt lat="42.88588" lon="-0.29825">
        <ele>2291</ele>
        <time>2013-05-20T08:22:06Z</time>
      </trkpt>
      <trkpt lat="42.88587" lon="-0.29832">
        <ele>2293</ele>
        <time>2013-05-20T08:22:13Z</time>
      </trkpt>
      <trkpt lat="42.88586" lon="-0.29837">
        <ele>2294</ele>
        <time>2013-05-20T08:22:19Z</time>
      </trkpt>
      <trkpt lat="42.88585" lon="-0.29843">
        <ele>2295</ele>
        <time>2013-05-20T08:22:25Z</time>
      </trkpt>
      <trkpt lat="42.88582" lon="-0.29851">
        <ele>2295</ele>
        <time>2013-05-20T08:22:32Z</time>
      </trkpt>
      <trkpt lat="42.88578" lon="-0.29859">
        <ele>2298</ele>
        <time>2013-05-20T08:22:42Z</time>
      </trkpt>
      <trkpt lat="42.88576" lon="-0.29864">
        <ele>2297</ele>
        <time>2013-05-20T08:22:50Z</time>
      </trkpt>
      <trkpt lat="42.88577" lon="-0.2986">
        <ele>2298</ele>
        <time>2013-05-20T08:23:00Z</time>
      </trkpt>
      <trkpt lat="42.88579" lon="-0.29864">
        <ele>2299</ele>
        <time>2013-05-20T08:23:18Z</time>
      </trkpt>
      <trkpt lat="42.88576" lon="-0.29863">
        <ele>2298</ele>
        <time>2013-05-20T08:23:26Z</time>
      </trkpt>
      <trkpt lat="42.88573" lon="-0.29866">
        <ele>2298</ele>
        <time>2013-05-20T08:23:39Z</time>
      </trkpt>
      <trkpt lat="42.88569" lon="-0.29874">
        <ele>2299</ele>
        <time>2013-05-20T08:23:48Z</time>
      </trkpt>
      <trkpt lat="42.8857" lon="-0.29875">
        <ele>2299</ele>
        <time>2013-05-20T08:23:57Z</time>
      </trkpt>
      <trkpt lat="42.88571" lon="-0.29869">
        <ele>2299</ele>
        <time>2013-05-20T08:24:16Z</time>
      </trkpt>
      <trkpt lat="42.8857" lon="-0.29873">
        <ele>2299</ele>
        <time>2013-05-20T08:24:32Z</time>
      </trkpt>
      <trkpt lat="42.8857" lon="-0.2987">
        <ele>2298</ele>
        <time>2013-05-20T08:24:47Z</time>
      </trkpt>
      <trkpt lat="42.8857" lon="-0.29877">
        <ele>2299</ele>
        <time>2013-05-20T08:24:57Z</time>
      </trkpt>
      <trkpt lat="42.8857" lon="-0.29883">
        <ele>2298</ele>
        <time>2013-05-20T08:25:07Z</time>
      </trkpt>
      <trkpt lat="42.88567" lon="-0.2989">
        <ele>2298</ele>
        <time>2013-05-20T08:25:16Z</time>
      </trkpt>
      <trkpt lat="42.88566" lon="-0.29891">
        <ele>2298</ele>
        <time>2013-05-20T08:25:26Z</time>
      </trkpt>
      <trkpt lat="42.88566" lon="-0.29892">
        <ele>2298</ele>
        <time>2013-05-20T08:25:36Z</time>
      </trkpt>
      <trkpt lat="42.88565" lon="-0.2989">
        <ele>2298</ele>
        <time>2013-05-20T08:25:51Z</time>
      </trkpt>
      <trkpt lat="42.88565" lon="-0.29891">
        <ele>2298</ele>
        <time>2013-05-20T08:26:01Z</time>
      </trkpt>
      <trkpt lat="42.88565" lon="-0.29891">
        <ele>2297</ele>
        <time>2013-05-20T08:26:08Z</time>
      </trkpt>
      <trkpt lat="42.88566" lon="-0.29891">
        <ele>2298</ele>
        <time>2013-05-20T08:26:17Z</time>
      </trkpt>
      <trkpt lat="42.88566" lon="-0.29893">
        <ele>2297</ele>
        <time>2013-05-20T08:26:25Z</time>
      </trkpt>
      <trkpt lat="42.88567" lon="-0.29893">
        <ele>2296</ele>
        <time>2013-05-20T08:26:32Z</time>
      </trkpt>
      <trkpt lat="42.88567" lon="-0.29894">
        <ele>2297</ele>
        <time>2013-05-20T08:26:38Z</time>
      </trkpt>
      <trkpt lat="42.88567" lon="-0.29894">
        <ele>2297</ele>
        <time>2013-05-20T08:26:48Z</time>
      </trkpt>
      <trkpt lat="42.88567" lon="-0.29893">
        <ele>2297</ele>
        <time>2013-05-20T08:26:54Z</time>
      </trkpt>
      <trkpt lat="42.88568" lon="-0.29893">
        <ele>2297</ele>
        <time>2013-05-20T08:27:01Z</time>
      </trkpt>
      <trkpt lat="42.88566" lon="-0.29894">
        <ele>2298</ele>
        <time>2013-05-20T08:27:08Z</time>
      </trkpt>
      <trkpt lat="42.88564" lon="-0.29891">
        <ele>2297</ele>
        <time>2013-05-20T08:27:20Z</time>
      </trkpt>
      <trkpt lat="42.88563" lon="-0.29884">
        <ele>2297</ele>
        <time>2013-05-20T08:27:29Z</time>
      </trkpt>
      <trkpt lat="42.8857" lon="-0.29892">
        <ele>2297</ele>
        <time>2013-05-20T08:27:34Z</time>
      </trkpt>
      <trkpt lat="42.88571" lon="-0.29895">
        <ele>2297</ele>
        <time>2013-05-20T08:27:45Z</time>
      </trkpt>
      <trkpt lat="42.88565" lon="-0.29895">
        <ele>2296</ele>
        <time>2013-05-20T08:27:52Z</time>
      </trkpt>
      <trkpt lat="42.88561" lon="-0.29895">
        <ele>2296</ele>
        <time>2013-05-20T08:27:57Z</time>
      </trkpt>
      <trkpt lat="42.88563" lon="-0.29897">
        <ele>2297</ele>
        <time>2013-05-20T08:28:06Z</time>
      </trkpt>
      <trkpt lat="42.88563" lon="-0.29896">
        <ele>2297</ele>
        <time>2013-05-20T08:28:12Z</time>
      </trkpt>
      <trkpt lat="42.88564" lon="-0.29893">
        <ele>2297</ele>
        <time>2013-05-20T08:28:19Z</time>
      </trkpt>
      <trkpt lat="42.88562" lon="-0.29893">
        <ele>2296</ele>
        <time>2013-05-20T08:28:28Z</time>
      </trkpt>
      <trkpt lat="42.8856" lon="-0.29893">
        <ele>2296</ele>
        <time>2013-05-20T08:28:39Z</time>
      </trkpt>
      <trkpt lat="42.88563" lon="-0.29897">
        <ele>2296</ele>
        <time>2013-05-20T08:29:03Z</time>
      </trkpt>
      <trkpt lat="42.88564" lon="-0.29898">
        <ele>2297</ele>
        <time>2013-05-20T08:29:25Z</time>
      </trkpt>
      <trkpt lat="42.88566" lon="-0.29898">
        <ele>2296</ele>
        <time>2013-05-20T08:29:42Z</time>
      </trkpt>
      <trkpt lat="42.88567" lon="-0.299">
        <ele>2296</ele>
        <time>2013-05-20T08:29:59Z</time>
      </trkpt>
      <trkpt lat="42.88564" lon="-0.29898">
        <ele>2297</ele>
        <time>2013-05-20T08:30:17Z</time>
      </trkpt>
      <trkpt lat="42.88564" lon="-0.29898">
        <ele>2297</ele>
        <time>2013-05-20T08:30:36Z</time>
      </trkpt>
      <trkpt lat="42.88564" lon="-0.29898">
        <ele>2296</ele>
        <time>2013-05-20T08:30:52Z</time>
      </trkpt>
      <trkpt lat="42.88564" lon="-0.29898">
        <ele>2296</ele>
        <time>2013-05-20T08:31:08Z</time>
      </trkpt>
      <trkpt lat="42.88563" lon="-0.29897">
        <ele>2296</ele>
        <time>2013-05-20T08:31:24Z</time>
      </trkpt>
      <trkpt lat="42.88563" lon="-0.29897">
        <ele>2296</ele>
        <time>2013-05-20T08:31:38Z</time>
      </trkpt>
      <trkpt lat="42.88563" lon="-0.29895">
        <ele>2296</ele>
        <time>2013-05-20T08:31:54Z</time>
      </trkpt>
      <trkpt lat="42.88565" lon="-0.29896">
        <ele>2296</ele>
        <time>2013-05-20T08:32:05Z</time>
      </trkpt>
      <trkpt lat="42.88563" lon="-0.29896">
        <ele>2296</ele>
        <time>2013-05-20T08:32:21Z</time>
      </trkpt>
      <trkpt lat="42.88562" lon="-0.29896">
        <ele>2296</ele>
        <time>2013-05-20T08:32:35Z</time>
      </trkpt>
      <trkpt lat="42.88565" lon="-0.29896">
        <ele>2296</ele>
        <time>2013-05-20T08:32:51Z</time>
      </trkpt>
      <trkpt lat="42.88565" lon="-0.29897">
        <ele>2296</ele>
        <time>2013-05-20T08:33:10Z</time>
      </trkpt>
      <trkpt lat="42.88561" lon="-0.29897">
        <ele>2297</ele>
        <time>2013-05-20T08:33:29Z</time>
      </trkpt>
      <trkpt lat="42.88562" lon="-0.29898">
        <ele>2297</ele>
        <time>2013-05-20T08:33:45Z</time>
      </trkpt>
      <trkpt lat="42.88563" lon="-0.29896">
        <ele>2296</ele>
        <time>2013-05-20T08:34:02Z</time>
      </trkpt>
      <trkpt lat="42.88565" lon="-0.29898">
        <ele>2297</ele>
        <time>2013-05-20T08:34:19Z</time>
      </trkpt>
      <trkpt lat="42.88563" lon="-0.29896">
        <ele>2297</ele>
        <time>2013-05-20T08:34:35Z</time>
      </trkpt>
      <trkpt lat="42.88563" lon="-0.29898">
        <ele>2296</ele>
        <time>2013-05-20T08:34:53Z</time>
      </trkpt>
      <trkpt lat="42.88564" lon="-0.29897">
        <ele>2297</ele>
        <time>2013-05-20T08:35:17Z</time>
      </trkpt>
      <trkpt lat="42.88564" lon="-0.29896">
        <ele>2296</ele>
        <time>2013-05-20T08:35:36Z</time>
      </trkpt>
      <trkpt lat="42.88565" lon="-0.29899">
        <ele>2297</ele>
        <time>2013-05-20T08:35:51Z</time>
      </trkpt>
      <trkpt lat="42.88563" lon="-0.29897">
        <ele>2296</ele>
        <time>2013-05-20T08:36:09Z</time>
      </trkpt>
      <trkpt lat="42.88566" lon="-0.29899">
        <ele>2297</ele>
        <time>2013-05-20T08:36:28Z</time>
      </trkpt>
      <trkpt lat="42.88566" lon="-0.29899">
        <ele>2296</ele>
        <time>2013-05-20T08:36:46Z</time>
      </trkpt>
      <trkpt lat="42.88565" lon="-0.29899">
        <ele>2297</ele>
        <time>2013-05-20T08:37:07Z</time>
      </trkpt>
      <trkpt lat="42.88563" lon="-0.299">
        <ele>2297</ele>
        <time>2013-05-20T08:37:24Z</time>
      </trkpt>
      <trkpt lat="42.88563" lon="-0.29897">
        <ele>2297</ele>
        <time>2013-05-20T08:37:46Z</time>
      </trkpt>
      <trkpt lat="42.88565" lon="-0.29898">
        <ele>2297</ele>
        <time>2013-05-20T08:38:03Z</time>
      </trkpt>
      <trkpt lat="42.88564" lon="-0.29897">
        <ele>2297</ele>
        <time>2013-05-20T08:38:27Z</time>
      </trkpt>
      <trkpt lat="42.88565" lon="-0.29898">
        <ele>2297</ele>
        <time>2013-05-20T08:38:46Z</time>
      </trkpt>
      <trkpt lat="42.88565" lon="-0.29897">
        <ele>2297</ele>
        <time>2013-05-20T08:39:06Z</time>
      </trkpt>
      <trkpt lat="42.88564" lon="-0.29897">
        <ele>2297</ele>
        <time>2013-05-20T08:39:25Z</time>
      </trkpt>
      <trkpt lat="42.88564" lon="-0.29898">
        <ele>2297</ele>
        <time>2013-05-20T08:39:46Z</time>
      </trkpt>
      <trkpt lat="42.88563" lon="-0.29897">
        <ele>2297</ele>
        <time>2013-05-20T08:40:04Z</time>
      </trkpt>
      <trkpt lat="42.88564" lon="-0.29898">
        <ele>2297</ele>
        <time>2013-05-20T08:40:24Z</time>
      </trkpt>
      <trkpt lat="42.88563" lon="-0.29897">
        <ele>2297</ele>
        <time>2013-05-20T08:40:44Z</time>
      </trkpt>
      <trkpt lat="42.88566" lon="-0.29898">
        <ele>2297</ele>
        <time>2013-05-20T08:41:05Z</time>
      </trkpt>
      <trkpt lat="42.88565" lon="-0.29898">
        <ele>2297</ele>
        <time>2013-05-20T08:41:31Z</time>
      </trkpt>
      <trkpt lat="42.88563" lon="-0.29898">
        <ele>2297</ele>
        <time>2013-05-20T08:41:55Z</time>
      </trkpt>
      <trkpt lat="42.88564" lon="-0.29897">
        <ele>2297</ele>
        <time>2013-05-20T08:42:13Z</time>
      </trkpt>
      <trkpt lat="42.88565" lon="-0.29897">
        <ele>2296</ele>
        <time>2013-05-20T08:42:36Z</time>
      </trkpt>
      <trkpt lat="42.88565" lon="-0.29898">
        <ele>2297</ele>
        <time>2013-05-20T08:43:01Z</time>
      </trkpt>
      <trkpt lat="42.88565" lon="-0.29898">
        <ele>2297</ele>
        <time>2013-05-20T08:43:23Z</time>
      </trkpt>
      <trkpt lat="42.88566" lon="-0.29899">
        <ele>2296</ele>
        <time>2013-05-20T08:43:36Z</time>
      </trkpt>
      <trkpt lat="42.88566" lon="-0.29899">
        <ele>2297</ele>
        <time>2013-05-20T08:43:57Z</time>
      </trkpt>
      <trkpt lat="42.88565" lon="-0.29896">
        <ele>2297</ele>
        <time>2013-05-20T08:44:18Z</time>
      </trkpt>
      <trkpt lat="42.88567" lon="-0.29899">
        <ele>2297</ele>
        <time>2013-05-20T08:44:33Z</time>
      </trkpt>
      <trkpt lat="42.88566" lon="-0.29897">
        <ele>2297</ele>
        <time>2013-05-20T08:44:41Z</time>
      </trkpt>
      <trkpt lat="42.88568" lon="-0.29895">
        <ele>2298</ele>
        <time>2013-05-20T08:44:50Z</time>
      </trkpt>
      <trkpt lat="42.88568" lon="-0.29893">
        <ele>2297</ele>
        <time>2013-05-20T08:45:07Z</time>
      </trkpt>
      <trkpt lat="42.88566" lon="-0.29895">
        <ele>2298</ele>
        <time>2013-05-20T08:45:23Z</time>
      </trkpt>
      <trkpt lat="42.88566" lon="-0.29896">
        <ele>2297</ele>
        <time>2013-05-20T08:45:37Z</time>
      </trkpt>
      <trkpt lat="42.88566" lon="-0.29895">
        <ele>2298</ele>
        <time>2013-05-20T08:46:02Z</time>
      </trkpt>
      <trkpt lat="42.88565" lon="-0.29898">
        <ele>2297</ele>
        <time>2013-05-20T08:46:16Z</time>
      </trkpt>
      <trkpt lat="42.88565" lon="-0.29899">
        <ele>2297</ele>
        <time>2013-05-20T08:46:34Z</time>
      </trkpt>
      <trkpt lat="42.88564" lon="-0.29897">
        <ele>2297</ele>
        <time>2013-05-20T08:46:52Z</time>
      </trkpt>
      <trkpt lat="42.88564" lon="-0.29896">
        <ele>2297</ele>
        <time>2013-05-20T08:47:10Z</time>
      </trkpt>
      <trkpt lat="42.88564" lon="-0.29896">
        <ele>2297</ele>
        <time>2013-05-20T08:47:31Z</time>
      </trkpt>
      <trkpt lat="42.88563" lon="-0.29898">
        <ele>2297</ele>
        <time>2013-05-20T08:47:50Z</time>
      </trkpt>
      <trkpt lat="42.88564" lon="-0.29899">
        <ele>2297</ele>
        <time>2013-05-20T08:48:12Z</time>
      </trkpt>
      <trkpt lat="42.88563" lon="-0.29898">
        <ele>2297</ele>
        <time>2013-05-20T08:48:33Z</time>
      </trkpt>
      <trkpt lat="42.88564" lon="-0.29899">
        <ele>2297</ele>
        <time>2013-05-20T08:48:51Z</time>
      </trkpt>
      <trkpt lat="42.88566" lon="-0.29899">
        <ele>2297</ele>
        <time>2013-05-20T08:49:10Z</time>
      </trkpt>
      <trkpt lat="42.88568" lon="-0.29899">
        <ele>2297</ele>
        <time>2013-05-20T08:49:34Z</time>
      </trkpt>
      <trkpt lat="42.88566" lon="-0.29897">
        <ele>2297</ele>
        <time>2013-05-20T08:49:56Z</time>
      </trkpt>
      <trkpt lat="42.88565" lon="-0.29897">
        <ele>2297</ele>
        <time>2013-05-20T08:50:17Z</time>
      </trkpt>
      <trkpt lat="42.88567" lon="-0.29897">
        <ele>2297</ele>
        <time>2013-05-20T08:50:43Z</time>
      </trkpt>
      <trkpt lat="42.88567" lon="-0.29897">
        <ele>2297</ele>
        <time>2013-05-20T08:51:04Z</time>
      </trkpt>
      <trkpt lat="42.88566" lon="-0.29898">
        <ele>2297</ele>
        <time>2013-05-20T08:51:23Z</time>
      </trkpt>
      <trkpt lat="42.88567" lon="-0.29898">
        <ele>2298</ele>
        <time>2013-05-20T08:51:46Z</time>
      </trkpt>
      <trkpt lat="42.88565" lon="-0.29897">
        <ele>2297</ele>
        <time>2013-05-20T08:52:07Z</time>
      </trkpt>
      <trkpt lat="42.88565" lon="-0.29898">
        <ele>2297</ele>
        <time>2013-05-20T08:52:24Z</time>
      </trkpt>
      <trkpt lat="42.88567" lon="-0.29897">
        <ele>2298</ele>
        <time>2013-05-20T08:52:30Z</time>
      </trkpt>
      <trkpt lat="42.88568" lon="-0.29898">
        <ele>2298</ele>
        <time>2013-05-20T08:52:38Z</time>
      </trkpt>
      <trkpt lat="42.88567" lon="-0.29899">
        <ele>2298</ele>
        <time>2013-05-20T08:52:46Z</time>
      </trkpt>
      <trkpt lat="42.88567" lon="-0.29895">
        <ele>2297</ele>
        <time>2013-05-20T08:52:55Z</time>
      </trkpt>
      <trkpt lat="42.88567" lon="-0.29896">
        <ele>2297</ele>
        <time>2013-05-20T08:53:06Z</time>
      </trkpt>
      <trkpt lat="42.88565" lon="-0.29896">
        <ele>2297</ele>
        <time>2013-05-20T08:53:13Z</time>
      </trkpt>
      <trkpt lat="42.88564" lon="-0.29897">
        <ele>2298</ele>
        <time>2013-05-20T08:53:26Z</time>
      </trkpt>
      <trkpt lat="42.88563" lon="-0.299">
        <ele>2297</ele>
        <time>2013-05-20T08:53:42Z</time>
      </trkpt>
      <trkpt lat="42.88564" lon="-0.29897">
        <ele>2297</ele>
        <time>2013-05-20T08:53:57Z</time>
      </trkpt>
      <trkpt lat="42.88561" lon="-0.299">
        <ele>2297</ele>
        <time>2013-05-20T08:54:06Z</time>
      </trkpt>
      <trkpt lat="42.88548" lon="-0.2991">
        <ele>2294</ele>
        <time>2013-05-20T08:54:16Z</time>
      </trkpt>
      <trkpt lat="42.88538" lon="-0.29916">
        <ele>2293</ele>
        <time>2013-05-20T08:54:24Z</time>
      </trkpt>
      <trkpt lat="42.88531" lon="-0.29924">
        <ele>2293</ele>
        <time>2013-05-20T08:54:30Z</time>
      </trkpt>
      <trkpt lat="42.88528" lon="-0.29927">
        <ele>2293</ele>
        <time>2013-05-20T08:54:37Z</time>
      </trkpt>
      <trkpt lat="42.88524" lon="-0.29932">
        <ele>2293</ele>
        <time>2013-05-20T08:54:42Z</time>
      </trkpt>
      <trkpt lat="42.88518" lon="-0.29937">
        <ele>2293</ele>
        <time>2013-05-20T08:54:50Z</time>
      </trkpt>
      <trkpt lat="42.88513" lon="-0.29941">
        <ele>2293</ele>
        <time>2013-05-20T08:54:55Z</time>
      </trkpt>
      <trkpt lat="42.88504" lon="-0.29951">
        <ele>2291</ele>
        <time>2013-05-20T08:55:04Z</time>
      </trkpt>
      <trkpt lat="42.88502" lon="-0.29955">
        <ele>2292</ele>
        <time>2013-05-20T08:55:10Z</time>
      </trkpt>
      <trkpt lat="42.88497" lon="-0.29959">
        <ele>2292</ele>
        <time>2013-05-20T08:55:19Z</time>
      </trkpt>
      <trkpt lat="42.88492" lon="-0.29965">
        <ele>2291</ele>
        <time>2013-05-20T08:55:26Z</time>
      </trkpt>
      <trkpt lat="42.8849" lon="-0.29967">
        <ele>2291</ele>
        <time>2013-05-20T08:55:29Z</time>
      </trkpt>
      <trkpt lat="42.88485" lon="-0.2997">
        <ele>2292</ele>
        <time>2013-05-20T08:55:36Z</time>
      </trkpt>
      <trkpt lat="42.88482" lon="-0.29972">
        <ele>2293</ele>
        <time>2013-05-20T08:55:43Z</time>
      </trkpt>
      <trkpt lat="42.88478" lon="-0.29974">
        <ele>2295</ele>
        <time>2013-05-20T08:55:50Z</time>
      </trkpt>
      <trkpt lat="42.88471" lon="-0.29975">
        <ele>2296</ele>
        <time>2013-05-20T08:56:01Z</time>
      </trkpt>
      <trkpt lat="42.88466" lon="-0.29977">
        <ele>2298</ele>
        <time>2013-05-20T08:56:11Z</time>
      </trkpt>
      <trkpt lat="42.88463" lon="-0.29976">
        <ele>2300</ele>
        <time>2013-05-20T08:56:20Z</time>
      </trkpt>
      <trkpt lat="42.8846" lon="-0.29974">
        <ele>2300</ele>
        <time>2013-05-20T08:56:30Z</time>
      </trkpt>
      <trkpt lat="42.88457" lon="-0.29974">
        <ele>2302</ele>
        <time>2013-05-20T08:56:38Z</time>
      </trkpt>
      <trkpt lat="42.88453" lon="-0.29975">
        <ele>2303</ele>
        <time>2013-05-20T08:56:48Z</time>
      </trkpt>
      <trkpt lat="42.88448" lon="-0.29975">
        <ele>2303</ele>
        <time>2013-05-20T08:56:56Z</time>
      </trkpt>
      <trkpt lat="42.88441" lon="-0.29972">
        <ele>2305</ele>
        <time>2013-05-20T08:57:07Z</time>
      </trkpt>
      <trkpt lat="42.88435" lon="-0.2997">
        <ele>2305</ele>
        <time>2013-05-20T08:57:16Z</time>
      </trkpt>
      <trkpt lat="42.88429" lon="-0.29973">
        <ele>2304</ele>
        <time>2013-05-20T08:57:23Z</time>
      </trkpt>
      <trkpt lat="42.88422" lon="-0.29975">
        <ele>2305</ele>
        <time>2013-05-20T08:57:34Z</time>
      </trkpt>
      <trkpt lat="42.88415" lon="-0.29975">
        <ele>2306</ele>
        <time>2013-05-20T08:57:44Z</time>
      </trkpt>
      <trkpt lat="42.88406" lon="-0.29975">
        <ele>2308</ele>
        <time>2013-05-20T08:57:55Z</time>
      </trkpt>
      <trkpt lat="42.884" lon="-0.29976">
        <ele>2307</ele>
        <time>2013-05-20T08:58:04Z</time>
      </trkpt>
      <trkpt lat="42.88393" lon="-0.29979">
        <ele>2309</ele>
        <time>2013-05-20T08:58:16Z</time>
      </trkpt>
      <trkpt lat="42.88387" lon="-0.2998">
        <ele>2310</ele>
        <time>2013-05-20T08:58:26Z</time>
      </trkpt>
      <trkpt lat="42.88382" lon="-0.29981">
        <ele>2311</ele>
        <time>2013-05-20T08:58:37Z</time>
      </trkpt>
      <trkpt lat="42.88378" lon="-0.29982">
        <ele>2311</ele>
        <time>2013-05-20T08:58:43Z</time>
      </trkpt>
      <trkpt lat="42.8837" lon="-0.29983">
        <ele>2312</ele>
        <time>2013-05-20T08:58:52Z</time>
      </trkpt>
      <trkpt lat="42.8836" lon="-0.29984">
        <ele>2313</ele>
        <time>2013-05-20T08:59:03Z</time>
      </trkpt>
      <trkpt lat="42.88353" lon="-0.29985">
        <ele>2314</ele>
        <time>2013-05-20T08:59:12Z</time>
      </trkpt>
      <trkpt lat="42.88348" lon="-0.29986">
        <ele>2315</ele>
        <time>2013-05-20T08:59:21Z</time>
      </trkpt>
      <trkpt lat="42.88344" lon="-0.29987">
        <ele>2316</ele>
        <time>2013-05-20T08:59:29Z</time>
      </trkpt>
      <trkpt lat="42.88338" lon="-0.2999">
        <ele>2317</ele>
        <time>2013-05-20T08:59:39Z</time>
      </trkpt>
      <trkpt lat="42.88336" lon="-0.29988">
        <ele>2318</ele>
        <time>2013-05-20T08:59:47Z</time>
      </trkpt>
      <trkpt lat="42.88331" lon="-0.2999">
        <ele>2318</ele>
        <time>2013-05-20T08:59:57Z</time>
      </trkpt>
      <trkpt lat="42.88324" lon="-0.29991">
        <ele>2319</ele>
        <time>2013-05-20T09:00:06Z</time>
      </trkpt>
      <trkpt lat="42.88317" lon="-0.29991">
        <ele>2321</ele>
        <time>2013-05-20T09:00:16Z</time>
      </trkpt>
      <trkpt lat="42.88311" lon="-0.29993">
        <ele>2322</ele>
        <time>2013-05-20T09:00:24Z</time>
      </trkpt>
      <trkpt lat="42.88305" lon="-0.29996">
        <ele>2323</ele>
        <time>2013-05-20T09:00:34Z</time>
      </trkpt>
      <trkpt lat="42.883" lon="-0.29997">
        <ele>2325</ele>
        <time>2013-05-20T09:00:44Z</time>
      </trkpt>
      <trkpt lat="42.88295" lon="-0.29997">
        <ele>2327</ele>
        <time>2013-05-20T09:00:55Z</time>
      </trkpt>
      <trkpt lat="42.88293" lon="-0.29999">
        <ele>2326</ele>
        <time>2013-05-20T09:01:04Z</time>
      </trkpt>
      <trkpt lat="42.88289" lon="-0.29997">
        <ele>2327</ele>
        <time>2013-05-20T09:01:13Z</time>
      </trkpt>
      <trkpt lat="42.88284" lon="-0.29999">
        <ele>2328</ele>
        <time>2013-05-20T09:01:23Z</time>
      </trkpt>
      <trkpt lat="42.88281" lon="-0.30002">
        <ele>2328</ele>
        <time>2013-05-20T09:01:33Z</time>
      </trkpt>
      <trkpt lat="42.88273" lon="-0.30004">
        <ele>2329</ele>
        <time>2013-05-20T09:01:43Z</time>
      </trkpt>
      <trkpt lat="42.88266" lon="-0.30005">
        <ele>2329</ele>
        <time>2013-05-20T09:01:55Z</time>
      </trkpt>
      <trkpt lat="42.8826" lon="-0.3001">
        <ele>2329</ele>
        <time>2013-05-20T09:02:06Z</time>
      </trkpt>
      <trkpt lat="42.88253" lon="-0.30013">
        <ele>2329</ele>
        <time>2013-05-20T09:02:19Z</time>
      </trkpt>
      <trkpt lat="42.88249" lon="-0.30015">
        <ele>2329</ele>
        <time>2013-05-20T09:02:30Z</time>
      </trkpt>
      <trkpt lat="42.88241" lon="-0.30018">
        <ele>2329</ele>
        <time>2013-05-20T09:02:40Z</time>
      </trkpt>
      <trkpt lat="42.88237" lon="-0.30022">
        <ele>2329</ele>
        <time>2013-05-20T09:02:49Z</time>
      </trkpt>
      <trkpt lat="42.88231" lon="-0.30025">
        <ele>2328</ele>
        <time>2013-05-20T09:02:57Z</time>
      </trkpt>
      <trkpt lat="42.88225" lon="-0.30022">
        <ele>2328</ele>
        <time>2013-05-20T09:03:07Z</time>
      </trkpt>
      <trkpt lat="42.88221" lon="-0.30024">
        <ele>2327</ele>
        <time>2013-05-20T09:03:18Z</time>
      </trkpt>
      <trkpt lat="42.88218" lon="-0.30025">
        <ele>2327</ele>
        <time>2013-05-20T09:03:29Z</time>
      </trkpt>
      <trkpt lat="42.88224" lon="-0.30031">
        <ele>2327</ele>
        <time>2013-05-20T09:03:47Z</time>
      </trkpt>
      <trkpt lat="42.88223" lon="-0.3003">
        <ele>2327</ele>
        <time>2013-05-20T09:03:58Z</time>
      </trkpt>
      <trkpt lat="42.88221" lon="-0.30029">
        <ele>2327</ele>
        <time>2013-05-20T09:04:09Z</time>
      </trkpt>
      <trkpt lat="42.88218" lon="-0.30029">
        <ele>2327</ele>
        <time>2013-05-20T09:04:18Z</time>
      </trkpt>
      <trkpt lat="42.88217" lon="-0.3003">
        <ele>2327</ele>
        <time>2013-05-20T09:04:28Z</time>
      </trkpt>
      <trkpt lat="42.88218" lon="-0.30033">
        <ele>2327</ele>
        <time>2013-05-20T09:04:41Z</time>
      </trkpt>
      <trkpt lat="42.88217" lon="-0.30034">
        <ele>2327</ele>
        <time>2013-05-20T09:04:55Z</time>
      </trkpt>
      <trkpt lat="42.8821" lon="-0.30036">
        <ele>2327</ele>
        <time>2013-05-20T09:05:05Z</time>
      </trkpt>
      <trkpt lat="42.88205" lon="-0.30039">
        <ele>2327</ele>
        <time>2013-05-20T09:05:13Z</time>
      </trkpt>
      <trkpt lat="42.88198" lon="-0.30043">
        <ele>2328</ele>
        <time>2013-05-20T09:05:22Z</time>
      </trkpt>
      <trkpt lat="42.88193" lon="-0.30045">
        <ele>2330</ele>
        <time>2013-05-20T09:05:30Z</time>
      </trkpt>
      <trkpt lat="42.88189" lon="-0.30049">
        <ele>2330</ele>
        <time>2013-05-20T09:05:38Z</time>
      </trkpt>
      <trkpt lat="42.88182" lon="-0.30051">
        <ele>2332</ele>
        <time>2013-05-20T09:05:47Z</time>
      </trkpt>
      <trkpt lat="42.88182" lon="-0.30052">
        <ele>2332</ele>
        <time>2013-05-20T09:05:48Z</time>
      </trkpt>
      <trkpt lat="42.88175" lon="-0.30055">
        <ele>2333</ele>
        <time>2013-05-20T09:05:59Z</time>
      </trkpt>
      <trkpt lat="42.8817" lon="-0.30055">
        <ele>2334</ele>
        <time>2013-05-20T09:06:06Z</time>
      </trkpt>
      <trkpt lat="42.88165" lon="-0.30055">
        <ele>2336</ele>
        <time>2013-05-20T09:06:16Z</time>
      </trkpt>
      <trkpt lat="42.88159" lon="-0.30055">
        <ele>2336</ele>
        <time>2013-05-20T09:06:25Z</time>
      </trkpt>
      <trkpt lat="42.88155" lon="-0.30056">
        <ele>2337</ele>
        <time>2013-05-20T09:06:33Z</time>
      </trkpt>
      <trkpt lat="42.88149" lon="-0.30057">
        <ele>2338</ele>
        <time>2013-05-20T09:06:41Z</time>
      </trkpt>
      <trkpt lat="42.88143" lon="-0.30059">
        <ele>2339</ele>
        <time>2013-05-20T09:06:49Z</time>
      </trkpt>
      <trkpt lat="42.88137" lon="-0.30062">
        <ele>2340</ele>
        <time>2013-05-20T09:06:58Z</time>
      </trkpt>
      <trkpt lat="42.88139" lon="-0.30061">
        <ele>2339</ele>
        <time>2013-05-20T09:07:06Z</time>
      </trkpt>
      <trkpt lat="42.88139" lon="-0.3006">
        <ele>2339</ele>
        <time>2013-05-20T09:07:15Z</time>
      </trkpt>
      <trkpt lat="42.88139" lon="-0.30061">
        <ele>2339</ele>
        <time>2013-05-20T09:07:25Z</time>
      </trkpt>
      <trkpt lat="42.88139" lon="-0.30062">
        <ele>2339</ele>
        <time>2013-05-20T09:07:35Z</time>
      </trkpt>
      <trkpt lat="42.88138" lon="-0.30062">
        <ele>2339</ele>
        <time>2013-05-20T09:07:52Z</time>
      </trkpt>
      <trkpt lat="42.88139" lon="-0.30061">
        <ele>2340</ele>
        <time>2013-05-20T09:08:03Z</time>
      </trkpt>
      <trkpt lat="42.88138" lon="-0.30061">
        <ele>2339</ele>
        <time>2013-05-20T09:08:10Z</time>
      </trkpt>
      <trkpt lat="42.88138" lon="-0.30062">
        <ele>2339</ele>
        <time>2013-05-20T09:08:20Z</time>
      </trkpt>
      <trkpt lat="42.88139" lon="-0.30061">
        <ele>2340</ele>
        <time>2013-05-20T09:08:29Z</time>
      </trkpt>
      <trkpt lat="42.88139" lon="-0.30061">
        <ele>2340</ele>
        <time>2013-05-20T09:08:40Z</time>
      </trkpt>
      <trkpt lat="42.88139" lon="-0.30061">
        <ele>2340</ele>
        <time>2013-05-20T09:08:52Z</time>
      </trkpt>
      <trkpt lat="42.88139" lon="-0.30059">
        <ele>2339</ele>
        <time>2013-05-20T09:09:07Z</time>
      </trkpt>
      <trkpt lat="42.88139" lon="-0.30057">
        <ele>2339</ele>
        <time>2013-05-20T09:09:21Z</time>
      </trkpt>
      <trkpt lat="42.88139" lon="-0.30058">
        <ele>2340</ele>
        <time>2013-05-20T09:09:34Z</time>
      </trkpt>
      <trkpt lat="42.88139" lon="-0.3006">
        <ele>2340</ele>
        <time>2013-05-20T09:09:44Z</time>
      </trkpt>
      <trkpt lat="42.88136" lon="-0.30062">
        <ele>2340</ele>
        <time>2013-05-20T09:09:58Z</time>
      </trkpt>
      <trkpt lat="42.88139" lon="-0.30061">
        <ele>2339</ele>
        <time>2013-05-20T09:10:13Z</time>
      </trkpt>
      <trkpt lat="42.88139" lon="-0.30061">
        <ele>2339</ele>
        <time>2013-05-20T09:10:27Z</time>
      </trkpt>
      <trkpt lat="42.88139" lon="-0.30061">
        <ele>2340</ele>
        <time>2013-05-20T09:10:39Z</time>
      </trkpt>
      <trkpt lat="42.88139" lon="-0.30062">
        <ele>2340</ele>
        <time>2013-05-20T09:10:54Z</time>
      </trkpt>
      <trkpt lat="42.88139" lon="-0.30061">
        <ele>2340</ele>
        <time>2013-05-20T09:11:13Z</time>
      </trkpt>
      <trkpt lat="42.88136" lon="-0.30061">
        <ele>2340</ele>
        <time>2013-05-20T09:11:23Z</time>
      </trkpt>
      <trkpt lat="42.88131" lon="-0.3006">
        <ele>2340</ele>
        <time>2013-05-20T09:11:31Z</time>
      </trkpt>
      <trkpt lat="42.88126" lon="-0.30059">
        <ele>2341</ele>
        <time>2013-05-20T09:11:37Z</time>
      </trkpt>
      <trkpt lat="42.88118" lon="-0.3006">
        <ele>2342</ele>
        <time>2013-05-20T09:11:45Z</time>
      </trkpt>
      <trkpt lat="42.88109" lon="-0.30065">
        <ele>2342</ele>
        <time>2013-05-20T09:11:54Z</time>
      </trkpt>
      <trkpt lat="42.88106" lon="-0.30068">
        <ele>2342</ele>
        <time>2013-05-20T09:11:58Z</time>
      </trkpt>
      <trkpt lat="42.88099" lon="-0.30072">
        <ele>2344</ele>
        <time>2013-05-20T09:12:06Z</time>
      </trkpt>
      <trkpt lat="42.88094" lon="-0.30077">
        <ele>2345</ele>
        <time>2013-05-20T09:12:14Z</time>
      </trkpt>
      <trkpt lat="42.88089" lon="-0.3008">
        <ele>2346</ele>
        <time>2013-05-20T09:12:21Z</time>
      </trkpt>
      <trkpt lat="42.88087" lon="-0.30074">
        <ele>2348</ele>
        <time>2013-05-20T09:12:28Z</time>
      </trkpt>
      <trkpt lat="42.8809" lon="-0.30065">
        <ele>2349</ele>
        <time>2013-05-20T09:12:39Z</time>
      </trkpt>
      <trkpt lat="42.88093" lon="-0.30057">
        <ele>2351</ele>
        <time>2013-05-20T09:12:48Z</time>
      </trkpt>
      <trkpt lat="42.88095" lon="-0.30052">
        <ele>2351</ele>
        <time>2013-05-20T09:12:56Z</time>
      </trkpt>
      <trkpt lat="42.88097" lon="-0.30045">
        <ele>2353</ele>
        <time>2013-05-20T09:13:06Z</time>
      </trkpt>
      <trkpt lat="42.88095" lon="-0.30047">
        <ele>2353</ele>
        <time>2013-05-20T09:13:14Z</time>
      </trkpt>
      <trkpt lat="42.8809" lon="-0.3005">
        <ele>2354</ele>
        <time>2013-05-20T09:13:22Z</time>
      </trkpt>
      <trkpt lat="42.88085" lon="-0.30051">
        <ele>2355</ele>
        <time>2013-05-20T09:13:29Z</time>
      </trkpt>
      <trkpt lat="42.88078" lon="-0.30052">
        <ele>2357</ele>
        <time>2013-05-20T09:13:38Z</time>
      </trkpt>
      <trkpt lat="42.88071" lon="-0.30054">
        <ele>2358</ele>
        <time>2013-05-20T09:13:51Z</time>
      </trkpt>
      <trkpt lat="42.8807" lon="-0.30055">
        <ele>2358</ele>
        <time>2013-05-20T09:13:59Z</time>
      </trkpt>
      <trkpt lat="42.88071" lon="-0.3005">
        <ele>2359</ele>
        <time>2013-05-20T09:14:10Z</time>
      </trkpt>
      <trkpt lat="42.88072" lon="-0.30054">
        <ele>2358</ele>
        <time>2013-05-20T09:14:27Z</time>
      </trkpt>
      <trkpt lat="42.8807" lon="-0.30056">
        <ele>2358</ele>
        <time>2013-05-20T09:14:42Z</time>
      </trkpt>
      <trkpt lat="42.88063" lon="-0.30057">
        <ele>2359</ele>
        <time>2013-05-20T09:14:51Z</time>
      </trkpt>
      <trkpt lat="42.88059" lon="-0.30058">
        <ele>2360</ele>
        <time>2013-05-20T09:14:55Z</time>
      </trkpt>
      <trkpt lat="42.88053" lon="-0.30056">
        <ele>2361</ele>
        <time>2013-05-20T09:15:04Z</time>
      </trkpt>
      <trkpt lat="42.88047" lon="-0.30056">
        <ele>2362</ele>
        <time>2013-05-20T09:15:11Z</time>
      </trkpt>
      <trkpt lat="42.88041" lon="-0.30054">
        <ele>2363</ele>
        <time>2013-05-20T09:15:20Z</time>
      </trkpt>
      <trkpt lat="42.88033" lon="-0.30054">
        <ele>2364</ele>
        <time>2013-05-20T09:15:31Z</time>
      </trkpt>
      <trkpt lat="42.88026" lon="-0.30056">
        <ele>2364</ele>
        <time>2013-05-20T09:15:38Z</time>
      </trkpt>
      <trkpt lat="42.88021" lon="-0.30057">
        <ele>2364</ele>
        <time>2013-05-20T09:15:44Z</time>
      </trkpt>
      <trkpt lat="42.88016" lon="-0.30061">
        <ele>2364</ele>
        <time>2013-05-20T09:15:51Z</time>
      </trkpt>
      <trkpt lat="42.8801" lon="-0.30068">
        <ele>2365</ele>
        <time>2013-05-20T09:16:00Z</time>
      </trkpt>
      <trkpt lat="42.88004" lon="-0.30075">
        <ele>2367</ele>
        <time>2013-05-20T09:16:10Z</time>
      </trkpt>
      <trkpt lat="42.87999" lon="-0.3008">
        <ele>2367</ele>
        <time>2013-05-20T09:16:18Z</time>
      </trkpt>
      <trkpt lat="42.87992" lon="-0.30086">
        <ele>2369</ele>
        <time>2013-05-20T09:16:27Z</time>
      </trkpt>
      <trkpt lat="42.87985" lon="-0.3009">
        <ele>2370</ele>
        <time>2013-05-20T09:16:35Z</time>
      </trkpt>
      <trkpt lat="42.87981" lon="-0.30092">
        <ele>2370</ele>
        <time>2013-05-20T09:16:43Z</time>
      </trkpt>
      <trkpt lat="42.87981" lon="-0.3009">
        <ele>2370</ele>
        <time>2013-05-20T09:17:00Z</time>
      </trkpt>
      <trkpt lat="42.87976" lon="-0.30099">
        <ele>2370</ele>
        <time>2013-05-20T09:17:08Z</time>
      </trkpt>
      <trkpt lat="42.87968" lon="-0.30107">
        <ele>2370</ele>
        <time>2013-05-20T09:17:19Z</time>
      </trkpt>
      <trkpt lat="42.8796" lon="-0.30113">
        <ele>2370</ele>
        <time>2013-05-20T09:17:28Z</time>
      </trkpt>
      <trkpt lat="42.87954" lon="-0.30115">
        <ele>2370</ele>
        <time>2013-05-20T09:17:35Z</time>
      </trkpt>
      <trkpt lat="42.87947" lon="-0.30121">
        <ele>2370</ele>
        <time>2013-05-20T09:17:44Z</time>
      </trkpt>
      <trkpt lat="42.87942" lon="-0.30123">
        <ele>2370</ele>
        <time>2013-05-20T09:17:51Z</time>
      </trkpt>
      <trkpt lat="42.87935" lon="-0.30127">
        <ele>2371</ele>
        <time>2013-05-20T09:17:59Z</time>
      </trkpt>
      <trkpt lat="42.87931" lon="-0.3013">
        <ele>2370</ele>
        <time>2013-05-20T09:18:06Z</time>
      </trkpt>
      <trkpt lat="42.87924" lon="-0.30134">
        <ele>2371</ele>
        <time>2013-05-20T09:18:15Z</time>
      </trkpt>
      <trkpt lat="42.87918" lon="-0.30135">
        <ele>2371</ele>
        <time>2013-05-20T09:18:22Z</time>
      </trkpt>
      <trkpt lat="42.8791" lon="-0.30136">
        <ele>2371</ele>
        <time>2013-05-20T09:18:32Z</time>
      </trkpt>
      <trkpt lat="42.87904" lon="-0.30138">
        <ele>2371</ele>
        <time>2013-05-20T09:18:41Z</time>
      </trkpt>
      <trkpt lat="42.879" lon="-0.30139">
        <ele>2371</ele>
        <time>2013-05-20T09:18:48Z</time>
      </trkpt>
      <trkpt lat="42.87893" lon="-0.30139">
        <ele>2371</ele>
        <time>2013-05-20T09:18:57Z</time>
      </trkpt>
      <trkpt lat="42.87886" lon="-0.30142">
        <ele>2370</ele>
        <time>2013-05-20T09:19:06Z</time>
      </trkpt>
      <trkpt lat="42.87879" lon="-0.30145">
        <ele>2370</ele>
        <time>2013-05-20T09:19:14Z</time>
      </trkpt>
      <trkpt lat="42.8787" lon="-0.30148">
        <ele>2369</ele>
        <time>2013-05-20T09:19:23Z</time>
      </trkpt>
      <trkpt lat="42.87867" lon="-0.3015">
        <ele>2368</ele>
        <time>2013-05-20T09:19:29Z</time>
      </trkpt>
      <trkpt lat="42.87861" lon="-0.30152">
        <ele>2368</ele>
        <time>2013-05-20T09:19:36Z</time>
      </trkpt>
      <trkpt lat="42.87855" lon="-0.30154">
        <ele>2368</ele>
        <time>2013-05-20T09:19:44Z</time>
      </trkpt>
      <trkpt lat="42.87848" lon="-0.30154">
        <ele>2368</ele>
        <time>2013-05-20T09:19:53Z</time>
      </trkpt>
      <trkpt lat="42.87841" lon="-0.30154">
        <ele>2368</ele>
        <time>2013-05-20T09:20:03Z</time>
      </trkpt>
      <trkpt lat="42.87834" lon="-0.30153">
        <ele>2368</ele>
        <time>2013-05-20T09:20:12Z</time>
      </trkpt>
      <trkpt lat="42.87826" lon="-0.30154">
        <ele>2369</ele>
        <time>2013-05-20T09:20:22Z</time>
      </trkpt>
      <trkpt lat="42.87826" lon="-0.30153">
        <ele>2370</ele>
        <time>2013-05-20T09:20:30Z</time>
      </trkpt>
      <trkpt lat="42.87822" lon="-0.30154">
        <ele>2369</ele>
        <time>2013-05-20T09:20:36Z</time>
      </trkpt>
      <trkpt lat="42.87817" lon="-0.30156">
        <ele>2369</ele>
        <time>2013-05-20T09:20:43Z</time>
      </trkpt>
      <trkpt lat="42.87811" lon="-0.30159">
        <ele>2369</ele>
        <time>2013-05-20T09:20:50Z</time>
      </trkpt>
      <trkpt lat="42.87804" lon="-0.30162">
        <ele>2369</ele>
        <time>2013-05-20T09:20:58Z</time>
      </trkpt>
      <trkpt lat="42.87799" lon="-0.30165">
        <ele>2370</ele>
        <time>2013-05-20T09:21:05Z</time>
      </trkpt>
      <trkpt lat="42.87792" lon="-0.30169">
        <ele>2370</ele>
        <time>2013-05-20T09:21:13Z</time>
      </trkpt>
      <trkpt lat="42.87786" lon="-0.30172">
        <ele>2371</ele>
        <time>2013-05-20T09:21:20Z</time>
      </trkpt>
      <trkpt lat="42.87779" lon="-0.30177">
        <ele>2371</ele>
        <time>2013-05-20T09:21:29Z</time>
      </trkpt>
      <trkpt lat="42.8777" lon="-0.30179">
        <ele>2372</ele>
        <time>2013-05-20T09:21:40Z</time>
      </trkpt>
      <trkpt lat="42.87764" lon="-0.3018">
        <ele>2373</ele>
        <time>2013-05-20T09:21:48Z</time>
      </trkpt>
      <trkpt lat="42.87757" lon="-0.30181">
        <ele>2375</ele>
        <time>2013-05-20T09:21:58Z</time>
      </trkpt>
      <trkpt lat="42.8775" lon="-0.30182">
        <ele>2376</ele>
        <time>2013-05-20T09:22:07Z</time>
      </trkpt>
      <trkpt lat="42.87742" lon="-0.30183">
        <ele>2377</ele>
        <time>2013-05-20T09:22:16Z</time>
      </trkpt>
      <trkpt lat="42.87735" lon="-0.30184">
        <ele>2378</ele>
        <time>2013-05-20T09:22:26Z</time>
      </trkpt>
      <trkpt lat="42.87732" lon="-0.30182">
        <ele>2380</ele>
        <time>2013-05-20T09:22:34Z</time>
      </trkpt>
      <trkpt lat="42.87732" lon="-0.30181">
        <ele>2380</ele>
        <time>2013-05-20T09:22:43Z</time>
      </trkpt>
      <trkpt lat="42.87731" lon="-0.30183">
        <ele>2380</ele>
        <time>2013-05-20T09:23:00Z</time>
      </trkpt>
      <trkpt lat="42.87732" lon="-0.30182">
        <ele>2379</ele>
        <time>2013-05-20T09:23:16Z</time>
      </trkpt>
      <trkpt lat="42.87731" lon="-0.30178">
        <ele>2380</ele>
        <time>2013-05-20T09:23:29Z</time>
      </trkpt>
      <trkpt lat="42.87732" lon="-0.30182">
        <ele>2380</ele>
        <time>2013-05-20T09:23:45Z</time>
      </trkpt>
      <trkpt lat="42.87733" lon="-0.30183">
        <ele>2380</ele>
        <time>2013-05-20T09:23:59Z</time>
      </trkpt>
      <trkpt lat="42.87733" lon="-0.30181">
        <ele>2380</ele>
        <time>2013-05-20T09:24:14Z</time>
      </trkpt>
      <trkpt lat="42.87732" lon="-0.30183">
        <ele>2380</ele>
        <time>2013-05-20T09:24:27Z</time>
      </trkpt>
      <trkpt lat="42.87731" lon="-0.30184">
        <ele>2380</ele>
        <time>2013-05-20T09:24:40Z</time>
      </trkpt>
      <trkpt lat="42.87731" lon="-0.30182">
        <ele>2380</ele>
        <time>2013-05-20T09:25:03Z</time>
      </trkpt>
      <trkpt lat="42.87733" lon="-0.30182">
        <ele>2380</ele>
        <time>2013-05-20T09:25:21Z</time>
      </trkpt>
      <trkpt lat="42.87732" lon="-0.30182">
        <ele>2380</ele>
        <time>2013-05-20T09:25:27Z</time>
      </trkpt>
      <trkpt lat="42.8773" lon="-0.30184">
        <ele>2380</ele>
        <time>2013-05-20T09:25:43Z</time>
      </trkpt>
      <trkpt lat="42.8773" lon="-0.30184">
        <ele>2380</ele>
        <time>2013-05-20T09:25:56Z</time>
      </trkpt>
      <trkpt lat="42.87729" lon="-0.30184">
        <ele>2381</ele>
        <time>2013-05-20T09:26:13Z</time>
      </trkpt>
      <trkpt lat="42.8773" lon="-0.30183">
        <ele>2380</ele>
        <time>2013-05-20T09:26:30Z</time>
      </trkpt>
      <trkpt lat="42.87729" lon="-0.30184">
        <ele>2380</ele>
        <time>2013-05-20T09:26:42Z</time>
      </trkpt>
      <trkpt lat="42.87721" lon="-0.30185">
        <ele>2382</ele>
        <time>2013-05-20T09:26:52Z</time>
      </trkpt>
      <trkpt lat="42.87713" lon="-0.30184">
        <ele>2383</ele>
        <time>2013-05-20T09:27:03Z</time>
      </trkpt>
      <trkpt lat="42.87709" lon="-0.30184">
        <ele>2384</ele>
        <time>2013-05-20T09:27:10Z</time>
      </trkpt>
      <trkpt lat="42.8771" lon="-0.30185">
        <ele>2385</ele>
        <time>2013-05-20T09:27:19Z</time>
      </trkpt>
      <trkpt lat="42.87707" lon="-0.30185">
        <ele>2385</ele>
        <time>2013-05-20T09:27:32Z</time>
      </trkpt>
      <trkpt lat="42.87702" lon="-0.30183">
        <ele>2386</ele>
        <time>2013-05-20T09:27:41Z</time>
      </trkpt>
      <trkpt lat="42.87701" lon="-0.30183">
        <ele>2386</ele>
        <time>2013-05-20T09:27:51Z</time>
      </trkpt>
      <trkpt lat="42.87697" lon="-0.30183">
        <ele>2386</ele>
        <time>2013-05-20T09:28:01Z</time>
      </trkpt>
      <trkpt lat="42.87692" lon="-0.30182">
        <ele>2388</ele>
        <time>2013-05-20T09:28:11Z</time>
      </trkpt>
      <trkpt lat="42.87686" lon="-0.3018">
        <ele>2389</ele>
        <time>2013-05-20T09:28:22Z</time>
      </trkpt>
      <trkpt lat="42.87681" lon="-0.3018">
        <ele>2389</ele>
        <time>2013-05-20T09:28:30Z</time>
      </trkpt>
      <trkpt lat="42.87675" lon="-0.30183">
        <ele>2391</ele>
        <time>2013-05-20T09:28:39Z</time>
      </trkpt>
      <trkpt lat="42.87671" lon="-0.30182">
        <ele>2392</ele>
        <time>2013-05-20T09:28:48Z</time>
      </trkpt>
      <trkpt lat="42.87674" lon="-0.30174">
        <ele>2394</ele>
        <time>2013-05-20T09:28:57Z</time>
      </trkpt>
      <trkpt lat="42.87675" lon="-0.30166">
        <ele>2395</ele>
        <time>2013-05-20T09:29:08Z</time>
      </trkpt>
      <trkpt lat="42.87672" lon="-0.30162">
        <ele>2397</ele>
        <time>2013-05-20T09:29:17Z</time>
      </trkpt>
      <trkpt lat="42.87665" lon="-0.3016">
        <ele>2398</ele>
        <time>2013-05-20T09:29:27Z</time>
      </trkpt>
      <trkpt lat="42.8766" lon="-0.30155">
        <ele>2400</ele>
        <time>2013-05-20T09:29:36Z</time>
      </trkpt>
      <trkpt lat="42.87653" lon="-0.30152">
        <ele>2401</ele>
        <time>2013-05-20T09:29:46Z</time>
      </trkpt>
      <trkpt lat="42.8765" lon="-0.30153">
        <ele>2402</ele>
        <time>2013-05-20T09:29:55Z</time>
      </trkpt>
      <trkpt lat="42.87648" lon="-0.30153">
        <ele>2402</ele>
        <time>2013-05-20T09:30:05Z</time>
      </trkpt>
      <trkpt lat="42.87641" lon="-0.30151">
        <ele>2403</ele>
        <time>2013-05-20T09:30:14Z</time>
      </trkpt>
      <trkpt lat="42.87634" lon="-0.30152">
        <ele>2404</ele>
        <time>2013-05-20T09:30:24Z</time>
      </trkpt>
      <trkpt lat="42.87627" lon="-0.30153">
        <ele>2406</ele>
        <time>2013-05-20T09:30:35Z</time>
      </trkpt>
      <trkpt lat="42.87619" lon="-0.3015">
        <ele>2407</ele>
        <time>2013-05-20T09:30:47Z</time>
      </trkpt>
      <trkpt lat="42.87612" lon="-0.30146">
        <ele>2409</ele>
        <time>2013-05-20T09:30:58Z</time>
      </trkpt>
      <trkpt lat="42.87608" lon="-0.30151">
        <ele>2410</ele>
        <time>2013-05-20T09:31:05Z</time>
      </trkpt>
      <trkpt lat="42.87602" lon="-0.30159">
        <ele>2412</ele>
        <time>2013-05-20T09:31:17Z</time>
      </trkpt>
      <trkpt lat="42.87597" lon="-0.30163">
        <ele>2413</ele>
        <time>2013-05-20T09:31:23Z</time>
      </trkpt>
      <trkpt lat="42.87591" lon="-0.30166">
        <ele>2414</ele>
        <time>2013-05-20T09:31:31Z</time>
      </trkpt>
      <trkpt lat="42.87586" lon="-0.30169">
        <ele>2415</ele>
        <time>2013-05-20T09:31:41Z</time>
      </trkpt>
      <trkpt lat="42.87583" lon="-0.30172">
        <ele>2415</ele>
        <time>2013-05-20T09:31:45Z</time>
      </trkpt>
      <trkpt lat="42.87575" lon="-0.30177">
        <ele>2416</ele>
        <time>2013-05-20T09:31:55Z</time>
      </trkpt>
      <trkpt lat="42.87568" lon="-0.30181">
        <ele>2416</ele>
        <time>2013-05-20T09:32:04Z</time>
      </trkpt>
      <trkpt lat="42.8756" lon="-0.30188">
        <ele>2417</ele>
        <time>2013-05-20T09:32:14Z</time>
      </trkpt>
      <trkpt lat="42.87554" lon="-0.30194">
        <ele>2417</ele>
        <time>2013-05-20T09:32:23Z</time>
      </trkpt>
      <trkpt lat="42.87549" lon="-0.30201">
        <ele>2418</ele>
        <time>2013-05-20T09:32:31Z</time>
      </trkpt>
      <trkpt lat="42.87547" lon="-0.30203">
        <ele>2419</ele>
        <time>2013-05-20T09:32:34Z</time>
      </trkpt>
      <trkpt lat="42.87543" lon="-0.30205">
        <ele>2419</ele>
        <time>2013-05-20T09:32:39Z</time>
      </trkpt>
      <trkpt lat="42.87535" lon="-0.30213">
        <ele>2420</ele>
        <time>2013-05-20T09:32:48Z</time>
      </trkpt>
      <trkpt lat="42.87528" lon="-0.30217">
        <ele>2421</ele>
        <time>2013-05-20T09:32:56Z</time>
      </trkpt>
      <trkpt lat="42.87523" lon="-0.30221">
        <ele>2421</ele>
        <time>2013-05-20T09:33:03Z</time>
      </trkpt>
      <trkpt lat="42.87515" lon="-0.30223">
        <ele>2422</ele>
        <time>2013-05-20T09:33:12Z</time>
      </trkpt>
      <trkpt lat="42.87509" lon="-0.30227">
        <ele>2423</ele>
        <time>2013-05-20T09:33:21Z</time>
      </trkpt>
      <trkpt lat="42.87503" lon="-0.3023">
        <ele>2424</ele>
        <time>2013-05-20T09:33:28Z</time>
      </trkpt>
      <trkpt lat="42.87495" lon="-0.30233">
        <ele>2425</ele>
        <time>2013-05-20T09:33:36Z</time>
      </trkpt>
      <trkpt lat="42.87489" lon="-0.30236">
        <ele>2426</ele>
        <time>2013-05-20T09:33:45Z</time>
      </trkpt>
      <trkpt lat="42.87488" lon="-0.30236">
        <ele>2426</ele>
        <time>2013-05-20T09:34:03Z</time>
      </trkpt>
      <trkpt lat="42.87487" lon="-0.30236">
        <ele>2426</ele>
        <time>2013-05-20T09:34:19Z</time>
      </trkpt>
      <trkpt lat="42.87488" lon="-0.30233">
        <ele>2426</ele>
        <time>2013-05-20T09:34:26Z</time>
      </trkpt>
      <trkpt lat="42.87482" lon="-0.30237">
        <ele>2426</ele>
        <time>2013-05-20T09:34:34Z</time>
      </trkpt>
      <trkpt lat="42.87474" lon="-0.30238">
        <ele>2426</ele>
        <time>2013-05-20T09:34:44Z</time>
      </trkpt>
      <trkpt lat="42.87467" lon="-0.30239">
        <ele>2428</ele>
        <time>2013-05-20T09:34:53Z</time>
      </trkpt>
      <trkpt lat="42.8746" lon="-0.30239">
        <ele>2429</ele>
        <time>2013-05-20T09:35:02Z</time>
      </trkpt>
      <trkpt lat="42.87455" lon="-0.3024">
        <ele>2430</ele>
        <time>2013-05-20T09:35:09Z</time>
      </trkpt>
      <trkpt lat="42.87449" lon="-0.3024">
        <ele>2430</ele>
        <time>2013-05-20T09:35:18Z</time>
      </trkpt>
      <trkpt lat="42.87444" lon="-0.30241">
        <ele>2431</ele>
        <time>2013-05-20T09:35:26Z</time>
      </trkpt>
      <trkpt lat="42.87438" lon="-0.30245">
        <ele>2433</ele>
        <time>2013-05-20T09:35:34Z</time>
      </trkpt>
      <trkpt lat="42.87434" lon="-0.30249">
        <ele>2433</ele>
        <time>2013-05-20T09:35:43Z</time>
      </trkpt>
      <trkpt lat="42.87433" lon="-0.3025">
        <ele>2433</ele>
        <time>2013-05-20T09:35:55Z</time>
      </trkpt>
      <trkpt lat="42.87436" lon="-0.30247">
        <ele>2433</ele>
        <time>2013-05-20T09:36:08Z</time>
      </trkpt>
      <trkpt lat="42.8743" lon="-0.3025">
        <ele>2434</ele>
        <time>2013-05-20T09:36:17Z</time>
      </trkpt>
      <trkpt lat="42.87425" lon="-0.30253">
        <ele>2436</ele>
        <time>2013-05-20T09:36:26Z</time>
      </trkpt>
      <trkpt lat="42.87419" lon="-0.30255">
        <ele>2437</ele>
        <time>2013-05-20T09:36:36Z</time>
      </trkpt>
      <trkpt lat="42.87415" lon="-0.30256">
        <ele>2438</ele>
        <time>2013-05-20T09:36:45Z</time>
      </trkpt>
      <trkpt lat="42.87409" lon="-0.30258">
        <ele>2439</ele>
        <time>2013-05-20T09:36:55Z</time>
      </trkpt>
      <trkpt lat="42.87403" lon="-0.30258">
        <ele>2441</ele>
        <time>2013-05-20T09:37:05Z</time>
      </trkpt>
      <trkpt lat="42.87394" lon="-0.30261">
        <ele>2442</ele>
        <time>2013-05-20T09:37:18Z</time>
      </trkpt>
      <trkpt lat="42.8739" lon="-0.3026">
        <ele>2443</ele>
        <time>2013-05-20T09:37:25Z</time>
      </trkpt>
      <trkpt lat="42.87386" lon="-0.30259">
        <ele>2445</ele>
        <time>2013-05-20T09:37:34Z</time>
      </trkpt>
      <trkpt lat="42.87382" lon="-0.30259">
        <ele>2446</ele>
        <time>2013-05-20T09:37:42Z</time>
      </trkpt>
      <trkpt lat="42.87377" lon="-0.30259">
        <ele>2446</ele>
        <time>2013-05-20T09:37:51Z</time>
      </trkpt>
      <trkpt lat="42.87376" lon="-0.30261">
        <ele>2447</ele>
        <time>2013-05-20T09:38:01Z</time>
      </trkpt>
      <trkpt lat="42.87375" lon="-0.3026">
        <ele>2447</ele>
        <time>2013-05-20T09:38:19Z</time>
      </trkpt>
      <trkpt lat="42.87373" lon="-0.3026">
        <ele>2447</ele>
        <time>2013-05-20T09:38:29Z</time>
      </trkpt>
      <trkpt lat="42.87369" lon="-0.30259">
        <ele>2447</ele>
        <time>2013-05-20T09:38:37Z</time>
      </trkpt>
      <trkpt lat="42.87365" lon="-0.30257">
        <ele>2449</ele>
        <time>2013-05-20T09:38:46Z</time>
      </trkpt>
      <trkpt lat="42.87359" lon="-0.30255">
        <ele>2449</ele>
        <time>2013-05-20T09:38:55Z</time>
      </trkpt>
      <trkpt lat="42.87355" lon="-0.30251">
        <ele>2449</ele>
        <time>2013-05-20T09:39:02Z</time>
      </trkpt>
      <trkpt lat="42.8735" lon="-0.30247">
        <ele>2450</ele>
        <time>2013-05-20T09:39:10Z</time>
      </trkpt>
      <trkpt lat="42.87344" lon="-0.30247">
        <ele>2450</ele>
        <time>2013-05-20T09:39:16Z</time>
      </trkpt>
      <trkpt lat="42.87338" lon="-0.30248">
        <ele>2450</ele>
        <time>2013-05-20T09:39:23Z</time>
      </trkpt>
      <trkpt lat="42.87333" lon="-0.3025">
        <ele>2450</ele>
        <time>2013-05-20T09:39:32Z</time>
      </trkpt>
      <trkpt lat="42.87327" lon="-0.30255">
        <ele>2451</ele>
        <time>2013-05-20T09:39:42Z</time>
      </trkpt>
      <trkpt lat="42.87322" lon="-0.30259">
        <ele>2451</ele>
        <time>2013-05-20T09:39:49Z</time>
      </trkpt>
      <trkpt lat="42.87316" lon="-0.30266">
        <ele>2453</ele>
        <time>2013-05-20T09:39:59Z</time>
      </trkpt>
      <trkpt lat="42.87309" lon="-0.3027">
        <ele>2454</ele>
        <time>2013-05-20T09:40:08Z</time>
      </trkpt>
      <trkpt lat="42.87301" lon="-0.30277">
        <ele>2455</ele>
        <time>2013-05-20T09:40:18Z</time>
      </trkpt>
      <trkpt lat="42.873" lon="-0.30278">
        <ele>2455</ele>
        <time>2013-05-20T09:40:25Z</time>
      </trkpt>
      <trkpt lat="42.873" lon="-0.30277">
        <ele>2455</ele>
        <time>2013-05-20T09:40:41Z</time>
      </trkpt>
      <trkpt lat="42.87295" lon="-0.30284">
        <ele>2456</ele>
        <time>2013-05-20T09:40:49Z</time>
      </trkpt>
      <trkpt lat="42.87288" lon="-0.30291">
        <ele>2457</ele>
        <time>2013-05-20T09:40:57Z</time>
      </trkpt>
      <trkpt lat="42.87283" lon="-0.30297">
        <ele>2458</ele>
        <time>2013-05-20T09:41:06Z</time>
      </trkpt>
      <trkpt lat="42.87276" lon="-0.30304">
        <ele>2459</ele>
        <time>2013-05-20T09:41:16Z</time>
      </trkpt>
      <trkpt lat="42.8727" lon="-0.30307">
        <ele>2459</ele>
        <time>2013-05-20T09:41:23Z</time>
      </trkpt>
      <trkpt lat="42.87264" lon="-0.30314">
        <ele>2459</ele>
        <time>2013-05-20T09:41:30Z</time>
      </trkpt>
      <trkpt lat="42.87261" lon="-0.30317">
        <ele>2460</ele>
        <time>2013-05-20T09:41:37Z</time>
      </trkpt>
      <trkpt lat="42.87254" lon="-0.30321">
        <ele>2461</ele>
        <time>2013-05-20T09:41:45Z</time>
      </trkpt>
      <trkpt lat="42.8725" lon="-0.30323">
        <ele>2461</ele>
        <time>2013-05-20T09:41:52Z</time>
      </trkpt>
      <trkpt lat="42.87245" lon="-0.30325">
        <ele>2462</ele>
        <time>2013-05-20T09:41:59Z</time>
      </trkpt>
      <trkpt lat="42.87238" lon="-0.30329">
        <ele>2462</ele>
        <time>2013-05-20T09:42:07Z</time>
      </trkpt>
      <trkpt lat="42.87231" lon="-0.30333">
        <ele>2464</ele>
        <time>2013-05-20T09:42:16Z</time>
      </trkpt>
      <trkpt lat="42.87225" lon="-0.30338">
        <ele>2465</ele>
        <time>2013-05-20T09:42:26Z</time>
      </trkpt>
      <trkpt lat="42.87218" lon="-0.30343">
        <ele>2466</ele>
        <time>2013-05-20T09:42:36Z</time>
      </trkpt>
      <trkpt lat="42.87212" lon="-0.30348">
        <ele>2466</ele>
        <time>2013-05-20T09:42:45Z</time>
      </trkpt>
      <trkpt lat="42.87208" lon="-0.30353">
        <ele>2468</ele>
        <time>2013-05-20T09:42:53Z</time>
      </trkpt>
      <trkpt lat="42.87204" lon="-0.3036">
        <ele>2470</ele>
        <time>2013-05-20T09:43:03Z</time>
      </trkpt>
      <trkpt lat="42.87202" lon="-0.30368">
        <ele>2471</ele>
        <time>2013-05-20T09:43:13Z</time>
      </trkpt>
      <trkpt lat="42.87201" lon="-0.30377">
        <ele>2472</ele>
        <time>2013-05-20T09:43:23Z</time>
      </trkpt>
      <trkpt lat="42.87198" lon="-0.30387">
        <ele>2474</ele>
        <time>2013-05-20T09:43:35Z</time>
      </trkpt>
      <trkpt lat="42.87196" lon="-0.30394">
        <ele>2476</ele>
        <time>2013-05-20T09:43:46Z</time>
      </trkpt>
      <trkpt lat="42.87193" lon="-0.30393">
        <ele>2476</ele>
        <time>2013-05-20T09:43:57Z</time>
      </trkpt>
      <trkpt lat="42.87193" lon="-0.30393">
        <ele>2476</ele>
        <time>2013-05-20T09:44:09Z</time>
      </trkpt>
      <trkpt lat="42.87192" lon="-0.30398">
        <ele>2476</ele>
        <time>2013-05-20T09:44:19Z</time>
      </trkpt>
      <trkpt lat="42.87187" lon="-0.30406">
        <ele>2477</ele>
        <time>2013-05-20T09:44:29Z</time>
      </trkpt>
      <trkpt lat="42.87181" lon="-0.30413">
        <ele>2479</ele>
        <time>2013-05-20T09:44:40Z</time>
      </trkpt>
      <trkpt lat="42.87178" lon="-0.3041">
        <ele>2481</ele>
        <time>2013-05-20T09:44:49Z</time>
      </trkpt>
      <trkpt lat="42.87181" lon="-0.30409">
        <ele>2480</ele>
        <time>2013-05-20T09:44:57Z</time>
      </trkpt>
      <trkpt lat="42.8718" lon="-0.30403">
        <ele>2482</ele>
        <time>2013-05-20T09:45:04Z</time>
      </trkpt>
      <trkpt lat="42.87179" lon="-0.30397">
        <ele>2483</ele>
        <time>2013-05-20T09:45:13Z</time>
      </trkpt>
      <trkpt lat="42.87175" lon="-0.30389">
        <ele>2485</ele>
        <time>2013-05-20T09:45:24Z</time>
      </trkpt>
      <trkpt lat="42.87171" lon="-0.30392">
        <ele>2486</ele>
        <time>2013-05-20T09:45:31Z</time>
      </trkpt>
      <trkpt lat="42.87167" lon="-0.30397">
        <ele>2487</ele>
        <time>2013-05-20T09:45:41Z</time>
      </trkpt>
      <trkpt lat="42.87164" lon="-0.30401">
        <ele>2488</ele>
        <time>2013-05-20T09:45:52Z</time>
      </trkpt>
      <trkpt lat="42.8716" lon="-0.30405">
        <ele>2489</ele>
        <time>2013-05-20T09:45:59Z</time>
      </trkpt>
      <trkpt lat="42.87154" lon="-0.30413">
        <ele>2490</ele>
        <time>2013-05-20T09:46:09Z</time>
      </trkpt>
      <trkpt lat="42.8715" lon="-0.30406">
        <ele>2491</ele>
        <time>2013-05-20T09:46:17Z</time>
      </trkpt>
      <trkpt lat="42.87147" lon="-0.30399">
        <ele>2493</ele>
        <time>2013-05-20T09:46:28Z</time>
      </trkpt>
      <trkpt lat="42.87142" lon="-0.30392">
        <ele>2494</ele>
        <time>2013-05-20T09:46:37Z</time>
      </trkpt>
      <trkpt lat="42.87138" lon="-0.30387">
        <ele>2496</ele>
        <time>2013-05-20T09:46:47Z</time>
      </trkpt>
      <trkpt lat="42.87132" lon="-0.30388">
        <ele>2497</ele>
        <time>2013-05-20T09:46:55Z</time>
      </trkpt>
      <trkpt lat="42.87125" lon="-0.30395">
        <ele>2499</ele>
        <time>2013-05-20T09:47:06Z</time>
      </trkpt>
      <trkpt lat="42.8712" lon="-0.30405">
        <ele>2501</ele>
        <time>2013-05-20T09:47:18Z</time>
      </trkpt>
      <trkpt lat="42.87118" lon="-0.30416">
        <ele>2502</ele>
        <time>2013-05-20T09:47:30Z</time>
      </trkpt>
      <trkpt lat="42.87117" lon="-0.30424">
        <ele>2505</ele>
        <time>2013-05-20T09:47:42Z</time>
      </trkpt>
      <trkpt lat="42.87117" lon="-0.30434">
        <ele>2506</ele>
        <time>2013-05-20T09:47:53Z</time>
      </trkpt>
      <trkpt lat="42.87114" lon="-0.30441">
        <ele>2507</ele>
        <time>2013-05-20T09:48:02Z</time>
      </trkpt>
      <trkpt lat="42.87111" lon="-0.30452">
        <ele>2510</ele>
        <time>2013-05-20T09:48:15Z</time>
      </trkpt>
      <trkpt lat="42.87109" lon="-0.3046">
        <ele>2511</ele>
        <time>2013-05-20T09:48:24Z</time>
      </trkpt>
      <trkpt lat="42.87105" lon="-0.30469">
        <ele>2512</ele>
        <time>2013-05-20T09:48:35Z</time>
      </trkpt>
      <trkpt lat="42.87102" lon="-0.30476">
        <ele>2513</ele>
        <time>2013-05-20T09:48:44Z</time>
      </trkpt>
      <trkpt lat="42.871" lon="-0.30486">
        <ele>2515</ele>
        <time>2013-05-20T09:48:54Z</time>
      </trkpt>
      <trkpt lat="42.87095" lon="-0.30495">
        <ele>2517</ele>
        <time>2013-05-20T09:49:04Z</time>
      </trkpt>
      <trkpt lat="42.8709" lon="-0.30501">
        <ele>2519</ele>
        <time>2013-05-20T09:49:14Z</time>
      </trkpt>
      <trkpt lat="42.87084" lon="-0.30506">
        <ele>2520</ele>
        <time>2013-05-20T09:49:22Z</time>
      </trkpt>
      <trkpt lat="42.87078" lon="-0.30508">
        <ele>2522</ele>
        <time>2013-05-20T09:49:32Z</time>
      </trkpt>
      <trkpt lat="42.87072" lon="-0.3051">
        <ele>2523</ele>
        <time>2013-05-20T09:49:43Z</time>
      </trkpt>
      <trkpt lat="42.87067" lon="-0.30516">
        <ele>2524</ele>
        <time>2013-05-20T09:49:52Z</time>
      </trkpt>
      <trkpt lat="42.87064" lon="-0.30524">
        <ele>2526</ele>
        <time>2013-05-20T09:50:02Z</time>
      </trkpt>
      <trkpt lat="42.87062" lon="-0.30531">
        <ele>2527</ele>
        <time>2013-05-20T09:50:10Z</time>
      </trkpt>
      <trkpt lat="42.8706" lon="-0.30537">
        <ele>2528</ele>
        <time>2013-05-20T09:50:19Z</time>
      </trkpt>
      <trkpt lat="42.87057" lon="-0.30544">
        <ele>2530</ele>
        <time>2013-05-20T09:50:28Z</time>
      </trkpt>
      <trkpt lat="42.87053" lon="-0.30552">
        <ele>2531</ele>
        <time>2013-05-20T09:50:37Z</time>
      </trkpt>
      <trkpt lat="42.8705" lon="-0.30562">
        <ele>2532</ele>
        <time>2013-05-20T09:50:47Z</time>
      </trkpt>
      <trkpt lat="42.8705" lon="-0.30572">
        <ele>2534</ele>
        <time>2013-05-20T09:50:56Z</time>
      </trkpt>
      <trkpt lat="42.87051" lon="-0.30574">
        <ele>2534</ele>
        <time>2013-05-20T09:51:07Z</time>
      </trkpt>
      <trkpt lat="42.87051" lon="-0.3058">
        <ele>2535</ele>
        <time>2013-05-20T09:51:18Z</time>
      </trkpt>
      <trkpt lat="42.87049" lon="-0.30582">
        <ele>2537</ele>
        <time>2013-05-20T09:51:25Z</time>
      </trkpt>
      <trkpt lat="42.87043" lon="-0.30577">
        <ele>2538</ele>
        <time>2013-05-20T09:51:34Z</time>
      </trkpt>
      <trkpt lat="42.87038" lon="-0.3057">
        <ele>2538</ele>
        <time>2013-05-20T09:51:45Z</time>
      </trkpt>
      <trkpt lat="42.87034" lon="-0.30563">
        <ele>2539</ele>
        <time>2013-05-20T09:51:55Z</time>
      </trkpt>
      <trkpt lat="42.8703" lon="-0.30556">
        <ele>2541</ele>
        <time>2013-05-20T09:52:05Z</time>
      </trkpt>
      <trkpt lat="42.87027" lon="-0.30546">
        <ele>2543</ele>
        <time>2013-05-20T09:52:16Z</time>
      </trkpt>
      <trkpt lat="42.87023" lon="-0.30548">
        <ele>2544</ele>
        <time>2013-05-20T09:52:23Z</time>
      </trkpt>
      <trkpt lat="42.8702" lon="-0.30557">
        <ele>2545</ele>
        <time>2013-05-20T09:52:32Z</time>
      </trkpt>
      <trkpt lat="42.87018" lon="-0.30564">
        <ele>2546</ele>
        <time>2013-05-20T09:52:40Z</time>
      </trkpt>
      <trkpt lat="42.87019" lon="-0.30574">
        <ele>2548</ele>
        <time>2013-05-20T09:52:50Z</time>
      </trkpt>
      <trkpt lat="42.87021" lon="-0.30583">
        <ele>2548</ele>
        <time>2013-05-20T09:53:00Z</time>
      </trkpt>
      <trkpt lat="42.87021" lon="-0.30588">
        <ele>2550</ele>
        <time>2013-05-20T09:53:09Z</time>
      </trkpt>
      <trkpt lat="42.87019" lon="-0.30584">
        <ele>2551</ele>
        <time>2013-05-20T09:53:16Z</time>
      </trkpt>
      <trkpt lat="42.87017" lon="-0.30583">
        <ele>2550</ele>
        <time>2013-05-20T09:53:25Z</time>
      </trkpt>
      <trkpt lat="42.87011" lon="-0.30579">
        <ele>2551</ele>
        <time>2013-05-20T09:53:34Z</time>
      </trkpt>
      <trkpt lat="42.87005" lon="-0.30575">
        <ele>2552</ele>
        <time>2013-05-20T09:53:44Z</time>
      </trkpt>
      <trkpt lat="42.87" lon="-0.30571">
        <ele>2554</ele>
        <time>2013-05-20T09:53:55Z</time>
      </trkpt>
      <trkpt lat="42.86995" lon="-0.30564">
        <ele>2555</ele>
        <time>2013-05-20T09:54:05Z</time>
      </trkpt>
      <trkpt lat="42.86991" lon="-0.30556">
        <ele>2558</ele>
        <time>2013-05-20T09:54:16Z</time>
      </trkpt>
      <trkpt lat="42.86988" lon="-0.30548">
        <ele>2559</ele>
        <time>2013-05-20T09:54:26Z</time>
      </trkpt>
      <trkpt lat="42.86987" lon="-0.30541">
        <ele>2560</ele>
        <time>2013-05-20T09:54:36Z</time>
      </trkpt>
      <trkpt lat="42.86985" lon="-0.30538">
        <ele>2562</ele>
        <time>2013-05-20T09:54:44Z</time>
      </trkpt>
      <trkpt lat="42.86981" lon="-0.30543">
        <ele>2562</ele>
        <time>2013-05-20T09:54:57Z</time>
      </trkpt>
      <trkpt lat="42.86978" lon="-0.30549">
        <ele>2563</ele>
        <time>2013-05-20T09:55:06Z</time>
      </trkpt>
      <trkpt lat="42.86976" lon="-0.30557">
        <ele>2564</ele>
        <time>2013-05-20T09:55:15Z</time>
      </trkpt>
      <trkpt lat="42.86975" lon="-0.30563">
        <ele>2565</ele>
        <time>2013-05-20T09:55:22Z</time>
      </trkpt>
      <trkpt lat="42.86975" lon="-0.30572">
        <ele>2566</ele>
        <time>2013-05-20T09:55:31Z</time>
      </trkpt>
      <trkpt lat="42.86973" lon="-0.30581">
        <ele>2568</ele>
        <time>2013-05-20T09:55:40Z</time>
      </trkpt>
      <trkpt lat="42.86973" lon="-0.3059">
        <ele>2569</ele>
        <time>2013-05-20T09:55:52Z</time>
      </trkpt>
      <trkpt lat="42.86973" lon="-0.30599">
        <ele>2572</ele>
        <time>2013-05-20T09:56:02Z</time>
      </trkpt>
      <trkpt lat="42.86972" lon="-0.30606">
        <ele>2573</ele>
        <time>2013-05-20T09:56:11Z</time>
      </trkpt>
      <trkpt lat="42.86966" lon="-0.30606">
        <ele>2575</ele>
        <time>2013-05-20T09:56:20Z</time>
      </trkpt>
      <trkpt lat="42.86962" lon="-0.30604">
        <ele>2575</ele>
        <time>2013-05-20T09:56:27Z</time>
      </trkpt>
      <trkpt lat="42.86958" lon="-0.30604">
        <ele>2577</ele>
        <time>2013-05-20T09:56:36Z</time>
      </trkpt>
      <trkpt lat="42.86956" lon="-0.3061">
        <ele>2578</ele>
        <time>2013-05-20T09:56:47Z</time>
      </trkpt>
      <trkpt lat="42.86954" lon="-0.30619">
        <ele>2579</ele>
        <time>2013-05-20T09:56:56Z</time>
      </trkpt>
      <trkpt lat="42.86955" lon="-0.30629">
        <ele>2580</ele>
        <time>2013-05-20T09:57:07Z</time>
      </trkpt>
      <trkpt lat="42.86958" lon="-0.30636">
        <ele>2581</ele>
        <time>2013-05-20T09:57:14Z</time>
      </trkpt>
      <trkpt lat="42.86964" lon="-0.30639">
        <ele>2583</ele>
        <time>2013-05-20T09:57:24Z</time>
      </trkpt>
      <trkpt lat="42.86969" lon="-0.30643">
        <ele>2584</ele>
        <time>2013-05-20T09:57:32Z</time>
      </trkpt>
      <trkpt lat="42.86973" lon="-0.30647">
        <ele>2586</ele>
        <time>2013-05-20T09:57:41Z</time>
      </trkpt>
      <trkpt lat="42.86974" lon="-0.30651">
        <ele>2587</ele>
        <time>2013-05-20T09:57:49Z</time>
      </trkpt>
      <trkpt lat="42.86971" lon="-0.30655">
        <ele>2587</ele>
        <time>2013-05-20T09:57:58Z</time>
      </trkpt>
      <trkpt lat="42.86962" lon="-0.30661">
        <ele>2588</ele>
        <time>2013-05-20T09:58:07Z</time>
      </trkpt>
      <trkpt lat="42.86954" lon="-0.30664">
        <ele>2589</ele>
        <time>2013-05-20T09:58:18Z</time>
      </trkpt>
      <trkpt lat="42.86947" lon="-0.30666">
        <ele>2591</ele>
        <time>2013-05-20T09:58:29Z</time>
      </trkpt>
      <trkpt lat="42.86943" lon="-0.30668">
        <ele>2593</ele>
        <time>2013-05-20T09:58:38Z</time>
      </trkpt>
      <trkpt lat="42.86945" lon="-0.30668">
        <ele>2594</ele>
        <time>2013-05-20T09:58:46Z</time>
      </trkpt>
      <trkpt lat="42.86948" lon="-0.30671">
        <ele>2594</ele>
        <time>2013-05-20T09:58:55Z</time>
      </trkpt>
      <trkpt lat="42.86947" lon="-0.30673">
        <ele>2594</ele>
        <time>2013-05-20T09:59:06Z</time>
      </trkpt>
      <trkpt lat="42.86946" lon="-0.30672">
        <ele>2595</ele>
        <time>2013-05-20T09:59:24Z</time>
      </trkpt>
      <trkpt lat="42.86948" lon="-0.30673">
        <ele>2594</ele>
        <time>2013-05-20T09:59:39Z</time>
      </trkpt>
      <trkpt lat="42.86947" lon="-0.30674">
        <ele>2594</ele>
        <time>2013-05-20T09:59:53Z</time>
      </trkpt>
      <trkpt lat="42.86946" lon="-0.30679">
        <ele>2596</ele>
        <time>2013-05-20T10:00:02Z</time>
      </trkpt>
      <trkpt lat="42.86946" lon="-0.30685">
        <ele>2598</ele>
        <time>2013-05-20T10:00:13Z</time>
      </trkpt>
      <trkpt lat="42.86946" lon="-0.30687">
        <ele>2598</ele>
        <time>2013-05-20T10:00:24Z</time>
      </trkpt>
      <trkpt lat="42.86947" lon="-0.30686">
        <ele>2599</ele>
        <time>2013-05-20T10:00:35Z</time>
      </trkpt>
      <trkpt lat="42.86944" lon="-0.30681">
        <ele>2599</ele>
        <time>2013-05-20T10:00:45Z</time>
      </trkpt>
      <trkpt lat="42.8694" lon="-0.3068">
        <ele>2601</ele>
        <time>2013-05-20T10:00:55Z</time>
      </trkpt>
      <trkpt lat="42.86932" lon="-0.30683">
        <ele>2602</ele>
        <time>2013-05-20T10:01:05Z</time>
      </trkpt>
      <trkpt lat="42.86926" lon="-0.30681">
        <ele>2604</ele>
        <time>2013-05-20T10:01:16Z</time>
      </trkpt>
      <trkpt lat="42.86926" lon="-0.3068">
        <ele>2605</ele>
        <time>2013-05-20T10:01:25Z</time>
      </trkpt>
      <trkpt lat="42.86931" lon="-0.3068">
        <ele>2605</ele>
        <time>2013-05-20T10:01:35Z</time>
      </trkpt>
      <trkpt lat="42.86935" lon="-0.30684">
        <ele>2607</ele>
        <time>2013-05-20T10:01:45Z</time>
      </trkpt>
      <trkpt lat="42.86935" lon="-0.3069">
        <ele>2607</ele>
        <time>2013-05-20T10:01:54Z</time>
      </trkpt>
      <trkpt lat="42.86936" lon="-0.30693">
        <ele>2608</ele>
        <time>2013-05-20T10:02:06Z</time>
      </trkpt>
      <trkpt lat="42.86929" lon="-0.30693">
        <ele>2609</ele>
        <time>2013-05-20T10:02:16Z</time>
      </trkpt>
      <trkpt lat="42.86922" lon="-0.3069">
        <ele>2611</ele>
        <time>2013-05-20T10:02:25Z</time>
      </trkpt>
      <trkpt lat="42.86917" lon="-0.30686">
        <ele>2612</ele>
        <time>2013-05-20T10:02:34Z</time>
      </trkpt>
      <trkpt lat="42.8691" lon="-0.30685">
        <ele>2613</ele>
        <time>2013-05-20T10:02:44Z</time>
      </trkpt>
      <trkpt lat="42.86904" lon="-0.30682">
        <ele>2615</ele>
        <time>2013-05-20T10:02:53Z</time>
      </trkpt>
      <trkpt lat="42.869" lon="-0.30676">
        <ele>2617</ele>
        <time>2013-05-20T10:03:04Z</time>
      </trkpt>
      <trkpt lat="42.86896" lon="-0.30672">
        <ele>2619</ele>
        <time>2013-05-20T10:03:14Z</time>
      </trkpt>
      <trkpt lat="42.86895" lon="-0.30675">
        <ele>2619</ele>
        <time>2013-05-20T10:03:22Z</time>
      </trkpt>
      <trkpt lat="42.86895" lon="-0.30681">
        <ele>2621</ele>
        <time>2013-05-20T10:03:31Z</time>
      </trkpt>
      <trkpt lat="42.86895" lon="-0.30686">
        <ele>2621</ele>
        <time>2013-05-20T10:03:37Z</time>
      </trkpt>
      <trkpt lat="42.8689" lon="-0.30694">
        <ele>2624</ele>
        <time>2013-05-20T10:03:47Z</time>
      </trkpt>
      <trkpt lat="42.8689" lon="-0.30693">
        <ele>2623</ele>
        <time>2013-05-20T10:03:55Z</time>
      </trkpt>
      <trkpt lat="42.86891" lon="-0.30693">
        <ele>2623</ele>
        <time>2013-05-20T10:04:08Z</time>
      </trkpt>
      <trkpt lat="42.8689" lon="-0.30694">
        <ele>2623</ele>
        <time>2013-05-20T10:04:21Z</time>
      </trkpt>
      <trkpt lat="42.8689" lon="-0.30695">
        <ele>2623</ele>
        <time>2013-05-20T10:04:35Z</time>
      </trkpt>
      <trkpt lat="42.86886" lon="-0.30696">
        <ele>2625</ele>
        <time>2013-05-20T10:04:46Z</time>
      </trkpt>
      <trkpt lat="42.86887" lon="-0.30691">
        <ele>2625</ele>
        <time>2013-05-20T10:04:55Z</time>
      </trkpt>
      <trkpt lat="42.86884" lon="-0.30685">
        <ele>2627</ele>
        <time>2013-05-20T10:05:07Z</time>
      </trkpt>
      <trkpt lat="42.86879" lon="-0.30679">
        <ele>2629</ele>
        <time>2013-05-20T10:05:18Z</time>
      </trkpt>
      <trkpt lat="42.86874" lon="-0.30676">
        <ele>2630</ele>
        <time>2013-05-20T10:05:27Z</time>
      </trkpt>
      <trkpt lat="42.86869" lon="-0.30671">
        <ele>2632</ele>
        <time>2013-05-20T10:05:37Z</time>
      </trkpt>
      <trkpt lat="42.86864" lon="-0.30666">
        <ele>2633</ele>
        <time>2013-05-20T10:05:46Z</time>
      </trkpt>
      <trkpt lat="42.86859" lon="-0.30661">
        <ele>2635</ele>
        <time>2013-05-20T10:05:57Z</time>
      </trkpt>
      <trkpt lat="42.86854" lon="-0.30658">
        <ele>2637</ele>
        <time>2013-05-20T10:06:07Z</time>
      </trkpt>
      <trkpt lat="42.8685" lon="-0.30655">
        <ele>2638</ele>
        <time>2013-05-20T10:06:15Z</time>
      </trkpt>
      <trkpt lat="42.86849" lon="-0.30655">
        <ele>2639</ele>
        <time>2013-05-20T10:06:25Z</time>
      </trkpt>
      <trkpt lat="42.86849" lon="-0.30654">
        <ele>2639</ele>
        <time>2013-05-20T10:06:42Z</time>
      </trkpt>
      <trkpt lat="42.86849" lon="-0.30654">
        <ele>2639</ele>
        <time>2013-05-20T10:06:55Z</time>
      </trkpt>
      <trkpt lat="42.86849" lon="-0.3066">
        <ele>2640</ele>
        <time>2013-05-20T10:07:03Z</time>
      </trkpt>
      <trkpt lat="42.86848" lon="-0.30668">
        <ele>2641</ele>
        <time>2013-05-20T10:07:14Z</time>
      </trkpt>
      <trkpt lat="42.86849" lon="-0.30674">
        <ele>2643</ele>
        <time>2013-05-20T10:07:22Z</time>
      </trkpt>
      <trkpt lat="42.86852" lon="-0.30681">
        <ele>2643</ele>
        <time>2013-05-20T10:07:33Z</time>
      </trkpt>
      <trkpt lat="42.86851" lon="-0.30687">
        <ele>2645</ele>
        <time>2013-05-20T10:07:42Z</time>
      </trkpt>
      <trkpt lat="42.86851" lon="-0.30689">
        <ele>2646</ele>
        <time>2013-05-20T10:07:53Z</time>
      </trkpt>
      <trkpt lat="42.86852" lon="-0.30685">
        <ele>2646</ele>
        <time>2013-05-20T10:08:05Z</time>
      </trkpt>
      <trkpt lat="42.86849" lon="-0.30682">
        <ele>2648</ele>
        <time>2013-05-20T10:08:14Z</time>
      </trkpt>
      <trkpt lat="42.86846" lon="-0.30681">
        <ele>2649</ele>
        <time>2013-05-20T10:08:19Z</time>
      </trkpt>
      <trkpt lat="42.86841" lon="-0.30681">
        <ele>2650</ele>
        <time>2013-05-20T10:08:29Z</time>
      </trkpt>
      <trkpt lat="42.86838" lon="-0.30678">
        <ele>2651</ele>
        <time>2013-05-20T10:08:40Z</time>
      </trkpt>
      <trkpt lat="42.86838" lon="-0.30679">
        <ele>2652</ele>
        <time>2013-05-20T10:08:49Z</time>
      </trkpt>
      <trkpt lat="42.86838" lon="-0.30685">
        <ele>2653</ele>
        <time>2013-05-20T10:08:59Z</time>
      </trkpt>
      <trkpt lat="42.86835" lon="-0.30688">
        <ele>2654</ele>
        <time>2013-05-20T10:09:07Z</time>
      </trkpt>
      <trkpt lat="42.86837" lon="-0.30687">
        <ele>2653</ele>
        <time>2013-05-20T10:09:18Z</time>
      </trkpt>
      <trkpt lat="42.86837" lon="-0.30689">
        <ele>2654</ele>
        <time>2013-05-20T10:09:35Z</time>
      </trkpt>
      <trkpt lat="42.86833" lon="-0.30687">
        <ele>2654</ele>
        <time>2013-05-20T10:09:45Z</time>
      </trkpt>
      <trkpt lat="42.86832" lon="-0.30686">
        <ele>2654</ele>
        <time>2013-05-20T10:09:47Z</time>
      </trkpt>
      <trkpt lat="42.86838" lon="-0.30683">
        <ele>2654</ele>
        <time>2013-05-20T10:09:55Z</time>
      </trkpt>
      <trkpt lat="42.86836" lon="-0.30686">
        <ele>2654</ele>
        <time>2013-05-20T10:10:10Z</time>
      </trkpt>
      <trkpt lat="42.86838" lon="-0.30683">
        <ele>2654</ele>
        <time>2013-05-20T10:10:21Z</time>
      </trkpt>
      <trkpt lat="42.86836" lon="-0.30684">
        <ele>2654</ele>
        <time>2013-05-20T10:10:38Z</time>
      </trkpt>
      <trkpt lat="42.86834" lon="-0.30685">
        <ele>2654</ele>
        <time>2013-05-20T10:10:54Z</time>
      </trkpt>
      <trkpt lat="42.86837" lon="-0.30684">
        <ele>2654</ele>
        <time>2013-05-20T10:11:10Z</time>
      </trkpt>
      <trkpt lat="42.86836" lon="-0.30686">
        <ele>2653</ele>
        <time>2013-05-20T10:11:19Z</time>
      </trkpt>
      <trkpt lat="42.86835" lon="-0.30686">
        <ele>2653</ele>
        <time>2013-05-20T10:11:32Z</time>
      </trkpt>
      <trkpt lat="42.86834" lon="-0.30688">
        <ele>2653</ele>
        <time>2013-05-20T10:11:50Z</time>
      </trkpt>
      <trkpt lat="42.86834" lon="-0.30688">
        <ele>2653</ele>
        <time>2013-05-20T10:12:05Z</time>
      </trkpt>
      <trkpt lat="42.86833" lon="-0.30687">
        <ele>2653</ele>
        <time>2013-05-20T10:12:20Z</time>
      </trkpt>
      <trkpt lat="42.86832" lon="-0.30688">
        <ele>2652</ele>
        <time>2013-05-20T10:12:29Z</time>
      </trkpt>
      <trkpt lat="42.86834" lon="-0.30687">
        <ele>2653</ele>
        <time>2013-05-20T10:12:41Z</time>
      </trkpt>
      <trkpt lat="42.86834" lon="-0.30688">
        <ele>2653</ele>
        <time>2013-05-20T10:12:54Z</time>
      </trkpt>
      <trkpt lat="42.86834" lon="-0.30689">
        <ele>2653</ele>
        <time>2013-05-20T10:13:10Z</time>
      </trkpt>
      <trkpt lat="42.86835" lon="-0.30685">
        <ele>2653</ele>
        <time>2013-05-20T10:13:25Z</time>
      </trkpt>
      <trkpt lat="42.86835" lon="-0.30684">
        <ele>2653</ele>
        <time>2013-05-20T10:13:45Z</time>
      </trkpt>
      <trkpt lat="42.86835" lon="-0.30684">
        <ele>2653</ele>
        <time>2013-05-20T10:14:00Z</time>
      </trkpt>
      <trkpt lat="42.86835" lon="-0.30687">
        <ele>2652</ele>
        <time>2013-05-20T10:14:14Z</time>
      </trkpt>
      <trkpt lat="42.86835" lon="-0.30688">
        <ele>2653</ele>
        <time>2013-05-20T10:14:26Z</time>
      </trkpt>
      <trkpt lat="42.86834" lon="-0.30687">
        <ele>2653</ele>
        <time>2013-05-20T10:14:40Z</time>
      </trkpt>
      <trkpt lat="42.86834" lon="-0.30689">
        <ele>2653</ele>
        <time>2013-05-20T10:14:53Z</time>
      </trkpt>
      <trkpt lat="42.86834" lon="-0.3069">
        <ele>2652</ele>
        <time>2013-05-20T10:15:09Z</time>
      </trkpt>
      <trkpt lat="42.86834" lon="-0.30689">
        <ele>2653</ele>
        <time>2013-05-20T10:15:30Z</time>
      </trkpt>
      <trkpt lat="42.86834" lon="-0.3069">
        <ele>2653</ele>
        <time>2013-05-20T10:15:43Z</time>
      </trkpt>
      <trkpt lat="42.86835" lon="-0.3069">
        <ele>2652</ele>
        <time>2013-05-20T10:16:02Z</time>
      </trkpt>
      <trkpt lat="42.86835" lon="-0.30687">
        <ele>2653</ele>
        <time>2013-05-20T10:16:15Z</time>
      </trkpt>
      <trkpt lat="42.86837" lon="-0.30687">
        <ele>2652</ele>
        <time>2013-05-20T10:16:24Z</time>
      </trkpt>
      <trkpt lat="42.86836" lon="-0.30685">
        <ele>2653</ele>
        <time>2013-05-20T10:16:35Z</time>
      </trkpt>
      <trkpt lat="42.86835" lon="-0.30687">
        <ele>2652</ele>
        <time>2013-05-20T10:16:47Z</time>
      </trkpt>
      <trkpt lat="42.86836" lon="-0.30687">
        <ele>2652</ele>
        <time>2013-05-20T10:16:57Z</time>
      </trkpt>
      <trkpt lat="42.86836" lon="-0.30685">
        <ele>2653</ele>
        <time>2013-05-20T10:17:12Z</time>
      </trkpt>
      <trkpt lat="42.86836" lon="-0.30686">
        <ele>2652</ele>
        <time>2013-05-20T10:17:23Z</time>
      </trkpt>
      <trkpt lat="42.86835" lon="-0.30685">
        <ele>2652</ele>
        <time>2013-05-20T10:17:40Z</time>
      </trkpt>
      <trkpt lat="42.86836" lon="-0.30685">
        <ele>2652</ele>
        <time>2013-05-20T10:17:51Z</time>
      </trkpt>
      <trkpt lat="42.86836" lon="-0.30685">
        <ele>2652</ele>
        <time>2013-05-20T10:18:02Z</time>
      </trkpt>
      <trkpt lat="42.86836" lon="-0.30685">
        <ele>2652</ele>
        <time>2013-05-20T10:18:18Z</time>
      </trkpt>
      <trkpt lat="42.86835" lon="-0.30684">
        <ele>2652</ele>
        <time>2013-05-20T10:18:31Z</time>
      </trkpt>
      <trkpt lat="42.86835" lon="-0.30686">
        <ele>2652</ele>
        <time>2013-05-20T10:18:44Z</time>
      </trkpt>
      <trkpt lat="42.86835" lon="-0.30685">
        <ele>2652</ele>
        <time>2013-05-20T10:18:54Z</time>
      </trkpt>
      <trkpt lat="42.86836" lon="-0.30685">
        <ele>2652</ele>
        <time>2013-05-20T10:19:07Z</time>
      </trkpt>
      <trkpt lat="42.86834" lon="-0.30685">
        <ele>2651</ele>
        <time>2013-05-20T10:19:26Z</time>
      </trkpt>
      <trkpt lat="42.86835" lon="-0.30685">
        <ele>2651</ele>
        <time>2013-05-20T10:19:38Z</time>
      </trkpt>
      <trkpt lat="42.86836" lon="-0.30684">
        <ele>2651</ele>
        <time>2013-05-20T10:19:53Z</time>
      </trkpt>
      <trkpt lat="42.86835" lon="-0.30685">
        <ele>2651</ele>
        <time>2013-05-20T10:20:11Z</time>
      </trkpt>
      <trkpt lat="42.86836" lon="-0.30686">
        <ele>2651</ele>
        <time>2013-05-20T10:20:25Z</time>
      </trkpt>
      <trkpt lat="42.86836" lon="-0.30685">
        <ele>2651</ele>
        <time>2013-05-20T10:20:39Z</time>
      </trkpt>
      <trkpt lat="42.86837" lon="-0.30684">
        <ele>2651</ele>
        <time>2013-05-20T10:21:00Z</time>
      </trkpt>
      <trkpt lat="42.86837" lon="-0.30685">
        <ele>2651</ele>
        <time>2013-05-20T10:21:17Z</time>
      </trkpt>
      <trkpt lat="42.86837" lon="-0.30684">
        <ele>2650</ele>
        <time>2013-05-20T10:21:33Z</time>
      </trkpt>
      <trkpt lat="42.86837" lon="-0.30683">
        <ele>2651</ele>
        <time>2013-05-20T10:21:52Z</time>
      </trkpt>
      <trkpt lat="42.86837" lon="-0.30686">
        <ele>2651</ele>
        <time>2013-05-20T10:22:11Z</time>
      </trkpt>
      <trkpt lat="42.86836" lon="-0.30684">
        <ele>2651</ele>
        <time>2013-05-20T10:22:24Z</time>
      </trkpt>
      <trkpt lat="42.86835" lon="-0.30685">
        <ele>2651</ele>
        <time>2013-05-20T10:22:37Z</time>
      </trkpt>
      <trkpt lat="42.86836" lon="-0.30686">
        <ele>2651</ele>
        <time>2013-05-20T10:22:51Z</time>
      </trkpt>
      <trkpt lat="42.86836" lon="-0.30685">
        <ele>2651</ele>
        <time>2013-05-20T10:23:09Z</time>
      </trkpt>
      <trkpt lat="42.86836" lon="-0.30686">
        <ele>2651</ele>
        <time>2013-05-20T10:23:21Z</time>
      </trkpt>
      <trkpt lat="42.86835" lon="-0.30686">
        <ele>2651</ele>
        <time>2013-05-20T10:23:33Z</time>
      </trkpt>
      <trkpt lat="42.86837" lon="-0.30686">
        <ele>2651</ele>
        <time>2013-05-20T10:23:52Z</time>
      </trkpt>
      <trkpt lat="42.86837" lon="-0.30685">
        <ele>2652</ele>
        <time>2013-05-20T10:24:02Z</time>
      </trkpt>
      <trkpt lat="42.86836" lon="-0.30686">
        <ele>2652</ele>
        <time>2013-05-20T10:24:12Z</time>
      </trkpt>
      <trkpt lat="42.86836" lon="-0.30683">
        <ele>2652</ele>
        <time>2013-05-20T10:24:22Z</time>
      </trkpt>
      <trkpt lat="42.86835" lon="-0.30684">
        <ele>2650</ele>
        <time>2013-05-20T10:24:30Z</time>
      </trkpt>
      <trkpt lat="42.86836" lon="-0.30685">
        <ele>2651</ele>
        <time>2013-05-20T10:24:44Z</time>
      </trkpt>
      <trkpt lat="42.86837" lon="-0.30686">
        <ele>2651</ele>
        <time>2013-05-20T10:25:02Z</time>
      </trkpt>
      <trkpt lat="42.86837" lon="-0.30685">
        <ele>2651</ele>
        <time>2013-05-20T10:25:20Z</time>
      </trkpt>
      <trkpt lat="42.86837" lon="-0.30685">
        <ele>2651</ele>
        <time>2013-05-20T10:25:37Z</time>
      </trkpt>
      <trkpt lat="42.86837" lon="-0.30685">
        <ele>2651</ele>
        <time>2013-05-20T10:25:53Z</time>
      </trkpt>
      <trkpt lat="42.86836" lon="-0.30685">
        <ele>2651</ele>
        <time>2013-05-20T10:26:05Z</time>
      </trkpt>
      <trkpt lat="42.86836" lon="-0.30685">
        <ele>2651</ele>
        <time>2013-05-20T10:26:14Z</time>
      </trkpt>
      <trkpt lat="42.86836" lon="-0.30685">
        <ele>2651</ele>
        <time>2013-05-20T10:26:25Z</time>
      </trkpt>
      <trkpt lat="42.86835" lon="-0.30684">
        <ele>2651</ele>
        <time>2013-05-20T10:26:35Z</time>
      </trkpt>
      <trkpt lat="42.86835" lon="-0.30684">
        <ele>2651</ele>
        <time>2013-05-20T10:26:55Z</time>
      </trkpt>
      <trkpt lat="42.86836" lon="-0.30686">
        <ele>2651</ele>
        <time>2013-05-20T10:27:12Z</time>
      </trkpt>
      <trkpt lat="42.86837" lon="-0.30683">
        <ele>2651</ele>
        <time>2013-05-20T10:27:23Z</time>
      </trkpt>
      <trkpt lat="42.86838" lon="-0.30684">
        <ele>2651</ele>
        <time>2013-05-20T10:27:41Z</time>
      </trkpt>
      <trkpt lat="42.86838" lon="-0.30684">
        <ele>2650</ele>
        <time>2013-05-20T10:28:03Z</time>
      </trkpt>
      <trkpt lat="42.86838" lon="-0.30684">
        <ele>2651</ele>
        <time>2013-05-20T10:28:26Z</time>
      </trkpt>
      <trkpt lat="42.86839" lon="-0.30683">
        <ele>2652</ele>
        <time>2013-05-20T10:28:47Z</time>
      </trkpt>
      <trkpt lat="42.86838" lon="-0.30683">
        <ele>2651</ele>
        <time>2013-05-20T10:29:09Z</time>
      </trkpt>
      <trkpt lat="42.86835" lon="-0.30683">
        <ele>2650</ele>
        <time>2013-05-20T10:29:25Z</time>
      </trkpt>
      <trkpt lat="42.86837" lon="-0.30685">
        <ele>2651</ele>
        <time>2013-05-20T10:29:48Z</time>
      </trkpt>
      <trkpt lat="42.86837" lon="-0.30684">
        <ele>2651</ele>
        <time>2013-05-20T10:30:14Z</time>
      </trkpt>
      <trkpt lat="42.86837" lon="-0.30682">
        <ele>2646</ele>
        <time>2013-05-20T10:30:26Z</time>
      </trkpt>
      <trkpt lat="42.86838" lon="-0.30683">
        <ele>2660</ele>
        <time>2013-05-20T10:30:28Z</time>
      </trkpt>
      <trkpt lat="42.86838" lon="-0.30683">
        <ele>2652</ele>
        <time>2013-05-20T10:30:29Z</time>
      </trkpt>
      <trkpt lat="42.86837" lon="-0.30683">
        <ele>2651</ele>
        <time>2013-05-20T10:30:48Z</time>
      </trkpt>
      <trkpt lat="42.86837" lon="-0.30683">
        <ele>2651</ele>
        <time>2013-05-20T10:31:11Z</time>
      </trkpt>
      <trkpt lat="42.86837" lon="-0.30683">
        <ele>2651</ele>
        <time>2013-05-20T10:31:30Z</time>
      </trkpt>
      <trkpt lat="42.86837" lon="-0.30683">
        <ele>2650</ele>
        <time>2013-05-20T10:31:50Z</time>
      </trkpt>
      <trkpt lat="42.86837" lon="-0.30683">
        <ele>2651</ele>
        <time>2013-05-20T10:32:12Z</time>
      </trkpt>
      <trkpt lat="42.86837" lon="-0.30684">
        <ele>2650</ele>
        <time>2013-05-20T10:32:32Z</time>
      </trkpt>
      <trkpt lat="42.86836" lon="-0.30685">
        <ele>2651</ele>
        <time>2013-05-20T10:32:52Z</time>
      </trkpt>
      <trkpt lat="42.86836" lon="-0.30686">
        <ele>2651</ele>
        <time>2013-05-20T10:33:05Z</time>
      </trkpt>
      <trkpt lat="42.86836" lon="-0.30687">
        <ele>2651</ele>
        <time>2013-05-20T10:33:24Z</time>
      </trkpt>
      <trkpt lat="42.86835" lon="-0.30687">
        <ele>2651</ele>
        <time>2013-05-20T10:33:38Z</time>
      </trkpt>
      <trkpt lat="42.86835" lon="-0.30684">
        <ele>2651</ele>
        <time>2013-05-20T10:33:56Z</time>
      </trkpt>
      <trkpt lat="42.86834" lon="-0.30685">
        <ele>2651</ele>
        <time>2013-05-20T10:34:11Z</time>
      </trkpt>
      <trkpt lat="42.86834" lon="-0.30684">
        <ele>2651</ele>
        <time>2013-05-20T10:34:24Z</time>
      </trkpt>
      <trkpt lat="42.86833" lon="-0.30686">
        <ele>2651</ele>
        <time>2013-05-20T10:34:42Z</time>
      </trkpt>
      <trkpt lat="42.86834" lon="-0.30687">
        <ele>2652</ele>
        <time>2013-05-20T10:34:57Z</time>
      </trkpt>
      <trkpt lat="42.86833" lon="-0.30686">
        <ele>2652</ele>
        <time>2013-05-20T10:35:09Z</time>
      </trkpt>
      <trkpt lat="42.86833" lon="-0.30687">
        <ele>2651</ele>
        <time>2013-05-20T10:35:25Z</time>
      </trkpt>
      <trkpt lat="42.86833" lon="-0.30685">
        <ele>2651</ele>
        <time>2013-05-20T10:35:38Z</time>
      </trkpt>
      <trkpt lat="42.86833" lon="-0.30687">
        <ele>2651</ele>
        <time>2013-05-20T10:35:59Z</time>
      </trkpt>
      <trkpt lat="42.86833" lon="-0.30687">
        <ele>2651</ele>
        <time>2013-05-20T10:36:16Z</time>
      </trkpt>
      <trkpt lat="42.86833" lon="-0.30686">
        <ele>2651</ele>
        <time>2013-05-20T10:36:36Z</time>
      </trkpt>
      <trkpt lat="42.86833" lon="-0.30686">
        <ele>2651</ele>
        <time>2013-05-20T10:36:52Z</time>
      </trkpt>
      <trkpt lat="42.86834" lon="-0.30686">
        <ele>2651</ele>
        <time>2013-05-20T10:37:11Z</time>
      </trkpt>
      <trkpt lat="42.86835" lon="-0.30688">
        <ele>2652</ele>
        <time>2013-05-20T10:37:24Z</time>
      </trkpt>
      <trkpt lat="42.86835" lon="-0.30685">
        <ele>2651</ele>
        <time>2013-05-20T10:37:46Z</time>
      </trkpt>
      <trkpt lat="42.86836" lon="-0.30688">
        <ele>2651</ele>
        <time>2013-05-20T10:38:00Z</time>
      </trkpt>
      <trkpt lat="42.86835" lon="-0.30687">
        <ele>2650</ele>
        <time>2013-05-20T10:38:09Z</time>
      </trkpt>
      <trkpt lat="42.86836" lon="-0.30686">
        <ele>2651</ele>
        <time>2013-05-20T10:38:25Z</time>
      </trkpt>
      <trkpt lat="42.86835" lon="-0.30687">
        <ele>2652</ele>
        <time>2013-05-20T10:38:41Z</time>
      </trkpt>
      <trkpt lat="42.86835" lon="-0.3069">
        <ele>2651</ele>
        <time>2013-05-20T10:39:03Z</time>
      </trkpt>
      <trkpt lat="42.86836" lon="-0.3069">
        <ele>2651</ele>
        <time>2013-05-20T10:39:14Z</time>
      </trkpt>
      <trkpt lat="42.86835" lon="-0.30689">
        <ele>2652</ele>
        <time>2013-05-20T10:39:25Z</time>
      </trkpt>
      <trkpt lat="42.86836" lon="-0.30688">
        <ele>2652</ele>
        <time>2013-05-20T10:39:42Z</time>
      </trkpt>
      <trkpt lat="42.86835" lon="-0.30689">
        <ele>2652</ele>
        <time>2013-05-20T10:39:57Z</time>
      </trkpt>
      <trkpt lat="42.86834" lon="-0.30688">
        <ele>2651</ele>
        <time>2013-05-20T10:40:18Z</time>
      </trkpt>
      <trkpt lat="42.86835" lon="-0.30688">
        <ele>2651</ele>
        <time>2013-05-20T10:40:38Z</time>
      </trkpt>
      <trkpt lat="42.86834" lon="-0.30688">
        <ele>2651</ele>
        <time>2013-05-20T10:40:53Z</time>
      </trkpt>
      <trkpt lat="42.86836" lon="-0.30687">
        <ele>2652</ele>
        <time>2013-05-20T10:41:04Z</time>
      </trkpt>
      <trkpt lat="42.86837" lon="-0.30689">
        <ele>2651</ele>
        <time>2013-05-20T10:41:12Z</time>
      </trkpt>
      <trkpt lat="42.86837" lon="-0.30689">
        <ele>2652</ele>
        <time>2013-05-20T10:41:30Z</time>
      </trkpt>
      <trkpt lat="42.86838" lon="-0.30688">
        <ele>2652</ele>
        <time>2013-05-20T10:41:48Z</time>
      </trkpt>
      <trkpt lat="42.86836" lon="-0.30687">
        <ele>2652</ele>
        <time>2013-05-20T10:41:59Z</time>
      </trkpt>
      <trkpt lat="42.86837" lon="-0.30688">
        <ele>2651</ele>
        <time>2013-05-20T10:42:10Z</time>
      </trkpt>
      <trkpt lat="42.86836" lon="-0.30684">
        <ele>2651</ele>
        <time>2013-05-20T10:42:25Z</time>
      </trkpt>
      <trkpt lat="42.86836" lon="-0.30688">
        <ele>2657</ele>
        <time>2013-05-20T10:43:30Z</time>
      </trkpt>
      <trkpt lat="42.86838" lon="-0.30685">
        <ele>2657</ele>
        <time>2013-05-20T10:43:31Z</time>
      </trkpt>
      <trkpt lat="42.86838" lon="-0.30687">
        <ele>2658</ele>
        <time>2013-05-20T10:43:46Z</time>
      </trkpt>
      <trkpt lat="42.86838" lon="-0.30687">
        <ele>2657</ele>
        <time>2013-05-20T10:43:52Z</time>
      </trkpt>
      <trkpt lat="42.86836" lon="-0.30687">
        <ele>2657</ele>
        <time>2013-05-20T10:44:01Z</time>
      </trkpt>
      <trkpt lat="42.86836" lon="-0.30686">
        <ele>2657</ele>
        <time>2013-05-20T10:44:11Z</time>
      </trkpt>
      <trkpt lat="42.86835" lon="-0.30683">
        <ele>2656</ele>
        <time>2013-05-20T10:44:27Z</time>
      </trkpt>
      <trkpt lat="42.86838" lon="-0.30683">
        <ele>2657</ele>
        <time>2013-05-20T10:44:43Z</time>
      </trkpt>
      <trkpt lat="42.86836" lon="-0.30686">
        <ele>2657</ele>
        <time>2013-05-20T10:45:00Z</time>
      </trkpt>
      <trkpt lat="42.86835" lon="-0.30686">
        <ele>2656</ele>
        <time>2013-05-20T10:45:11Z</time>
      </trkpt>
      <trkpt lat="42.86835" lon="-0.30687">
        <ele>2657</ele>
        <time>2013-05-20T10:45:37Z</time>
      </trkpt>
      <trkpt lat="42.86835" lon="-0.30686">
        <ele>2656</ele>
        <time>2013-05-20T10:46:03Z</time>
      </trkpt>
      <trkpt lat="42.86835" lon="-0.30687">
        <ele>2656</ele>
        <time>2013-05-20T10:46:27Z</time>
      </trkpt>
      <trkpt lat="42.86835" lon="-0.30687">
        <ele>2657</ele>
        <time>2013-05-20T10:46:49Z</time>
      </trkpt>
      <trkpt lat="42.86837" lon="-0.30686">
        <ele>2657</ele>
        <time>2013-05-20T10:46:55Z</time>
      </trkpt>
      <trkpt lat="42.86837" lon="-0.30684">
        <ele>2657</ele>
        <time>2013-05-20T10:47:09Z</time>
      </trkpt>
      <trkpt lat="42.86838" lon="-0.30685">
        <ele>2656</ele>
        <time>2013-05-20T10:47:14Z</time>
      </trkpt>
      <trkpt lat="42.86838" lon="-0.30684">
        <ele>2657</ele>
        <time>2013-05-20T10:47:24Z</time>
      </trkpt>
      <trkpt lat="42.86838" lon="-0.30685">
        <ele>2657</ele>
        <time>2013-05-20T10:47:33Z</time>
      </trkpt>
      <trkpt lat="42.86838" lon="-0.30685">
        <ele>2657</ele>
        <time>2013-05-20T10:47:41Z</time>
      </trkpt>
      <trkpt lat="42.86838" lon="-0.30684">
        <ele>2657</ele>
        <time>2013-05-20T10:47:54Z</time>
      </trkpt>
      <trkpt lat="42.86838" lon="-0.30683">
        <ele>2657</ele>
        <time>2013-05-20T10:48:04Z</time>
      </trkpt>
      <trkpt lat="42.86838" lon="-0.30684">
        <ele>2657</ele>
        <time>2013-05-20T10:48:11Z</time>
      </trkpt>
      <trkpt lat="42.86838" lon="-0.30684">
        <ele>2657</ele>
        <time>2013-05-20T10:48:27Z</time>
      </trkpt>
      <trkpt lat="42.86837" lon="-0.30684">
        <ele>2657</ele>
        <time>2013-05-20T10:48:40Z</time>
      </trkpt>
      <trkpt lat="42.86836" lon="-0.30686">
        <ele>2657</ele>
        <time>2013-05-20T10:48:46Z</time>
      </trkpt>
      <trkpt lat="42.86836" lon="-0.30686">
        <ele>2657</ele>
        <time>2013-05-20T10:48:58Z</time>
      </trkpt>
      <trkpt lat="42.86839" lon="-0.30685">
        <ele>2656</ele>
        <time>2013-05-20T10:49:05Z</time>
      </trkpt>
      <trkpt lat="42.8684" lon="-0.30684">
        <ele>2655</ele>
        <time>2013-05-20T10:49:11Z</time>
      </trkpt>
      <trkpt lat="42.86841" lon="-0.30681">
        <ele>2654</ele>
        <time>2013-05-20T10:49:20Z</time>
      </trkpt>
      <trkpt lat="42.86841" lon="-0.30681">
        <ele>2654</ele>
        <time>2013-05-20T10:49:23Z</time>
      </trkpt>
      <trkpt lat="42.86839" lon="-0.30679">
        <ele>2653</ele>
        <time>2013-05-20T10:49:30Z</time>
      </trkpt>
      <trkpt lat="42.86842" lon="-0.30681">
        <ele>2651</ele>
        <time>2013-05-20T10:49:38Z</time>
      </trkpt>
      <trkpt lat="42.86846" lon="-0.30682">
        <ele>2650</ele>
        <time>2013-05-20T10:49:42Z</time>
      </trkpt>
      <trkpt lat="42.8685" lon="-0.30688">
        <ele>2647</ele>
        <time>2013-05-20T10:49:47Z</time>
      </trkpt>
      <trkpt lat="42.86853" lon="-0.30685">
        <ele>2646</ele>
        <time>2013-05-20T10:49:49Z</time>
      </trkpt>
      <trkpt lat="42.86853" lon="-0.30682">
        <ele>2646</ele>
        <time>2013-05-20T10:49:50Z</time>
      </trkpt>
      <trkpt lat="42.86851" lon="-0.30666">
        <ele>2642</ele>
        <time>2013-05-20T10:49:54Z</time>
      </trkpt>
      <trkpt lat="42.86851" lon="-0.30662">
        <ele>2641</ele>
        <time>2013-05-20T10:49:55Z</time>
      </trkpt>
      <trkpt lat="42.86853" lon="-0.30656">
        <ele>2640</ele>
        <time>2013-05-20T10:49:57Z</time>
      </trkpt>
      <trkpt lat="42.86855" lon="-0.30655">
        <ele>2640</ele>
        <time>2013-05-20T10:49:58Z</time>
      </trkpt>
      <trkpt lat="42.86857" lon="-0.30654">
        <ele>2639</ele>
        <time>2013-05-20T10:49:59Z</time>
      </trkpt>
      <trkpt lat="42.86859" lon="-0.30651">
        <ele>2637</ele>
        <time>2013-05-20T10:50:00Z</time>
      </trkpt>
      <trkpt lat="42.86862" lon="-0.30649">
        <ele>2636</ele>
        <time>2013-05-20T10:50:01Z</time>
      </trkpt>
      <trkpt lat="42.86865" lon="-0.30647">
        <ele>2634</ele>
        <time>2013-05-20T10:50:02Z</time>
      </trkpt>
      <trkpt lat="42.86868" lon="-0.30644">
        <ele>2633</ele>
        <time>2013-05-20T10:50:03Z</time>
      </trkpt>
      <trkpt lat="42.8687" lon="-0.30642">
        <ele>2631</ele>
        <time>2013-05-20T10:50:04Z</time>
      </trkpt>
      <trkpt lat="42.86873" lon="-0.3064">
        <ele>2630</ele>
        <time>2013-05-20T10:50:05Z</time>
      </trkpt>
      <trkpt lat="42.86876" lon="-0.30638">
        <ele>2627</ele>
        <time>2013-05-20T10:50:06Z</time>
      </trkpt>
      <trkpt lat="42.86877" lon="-0.30635">
        <ele>2626</ele>
        <time>2013-05-20T10:50:07Z</time>
      </trkpt>
      <trkpt lat="42.8688" lon="-0.30633">
        <ele>2624</ele>
        <time>2013-05-20T10:50:08Z</time>
      </trkpt>
      <trkpt lat="42.86883" lon="-0.30634">
        <ele>2620</ele>
        <time>2013-05-20T10:50:10Z</time>
      </trkpt>
      <trkpt lat="42.86883" lon="-0.30634">
        <ele>2620</ele>
        <time>2013-05-20T10:50:11Z</time>
      </trkpt>
      <trkpt lat="42.86883" lon="-0.30634">
        <ele>2620</ele>
        <time>2013-05-20T10:50:21Z</time>
      </trkpt>
      <trkpt lat="42.86883" lon="-0.30635">
        <ele>2619</ele>
        <time>2013-05-20T10:50:22Z</time>
      </trkpt>
      <trkpt lat="42.86886" lon="-0.30634">
        <ele>2620</ele>
        <time>2013-05-20T10:50:24Z</time>
      </trkpt>
      <trkpt lat="42.86888" lon="-0.3063">
        <ele>2618</ele>
        <time>2013-05-20T10:50:25Z</time>
      </trkpt>
      <trkpt lat="42.86889" lon="-0.30627">
        <ele>2616</ele>
        <time>2013-05-20T10:50:26Z</time>
      </trkpt>
      <trkpt lat="42.86891" lon="-0.30625">
        <ele>2616</ele>
        <time>2013-05-20T10:50:27Z</time>
      </trkpt>
      <trkpt lat="42.86897" lon="-0.30626">
        <ele>2612</ele>
        <time>2013-05-20T10:50:29Z</time>
      </trkpt>
      <trkpt lat="42.86899" lon="-0.30624">
        <ele>2609</ele>
        <time>2013-05-20T10:50:31Z</time>
      </trkpt>
      <trkpt lat="42.86898" lon="-0.30623">
        <ele>2608</ele>
        <time>2013-05-20T10:50:38Z</time>
      </trkpt>
      <trkpt lat="42.86897" lon="-0.30623">
        <ele>2608</ele>
        <time>2013-05-20T10:50:48Z</time>
      </trkpt>
      <trkpt lat="42.86898" lon="-0.30624">
        <ele>2608</ele>
        <time>2013-05-20T10:50:55Z</time>
      </trkpt>
      <trkpt lat="42.86899" lon="-0.30623">
        <ele>2608</ele>
        <time>2013-05-20T10:51:08Z</time>
      </trkpt>
      <trkpt lat="42.86899" lon="-0.30625">
        <ele>2609</ele>
        <time>2013-05-20T10:51:22Z</time>
      </trkpt>
      <trkpt lat="42.86898" lon="-0.30624">
        <ele>2609</ele>
        <time>2013-05-20T10:51:30Z</time>
      </trkpt>
      <trkpt lat="42.86898" lon="-0.30622">
        <ele>2608</ele>
        <time>2013-05-20T10:51:41Z</time>
      </trkpt>
      <trkpt lat="42.86898" lon="-0.30625">
        <ele>2608</ele>
        <time>2013-05-20T10:51:54Z</time>
      </trkpt>
      <trkpt lat="42.86897" lon="-0.30625">
        <ele>2608</ele>
        <time>2013-05-20T10:52:07Z</time>
      </trkpt>
      <trkpt lat="42.86898" lon="-0.30622">
        <ele>2608</ele>
        <time>2013-05-20T10:52:24Z</time>
      </trkpt>
      <trkpt lat="42.86897" lon="-0.30623">
        <ele>2608</ele>
        <time>2013-05-20T10:52:38Z</time>
      </trkpt>
      <trkpt lat="42.86898" lon="-0.30623">
        <ele>2608</ele>
        <time>2013-05-20T10:52:40Z</time>
      </trkpt>
      <trkpt lat="42.86905" lon="-0.30624">
        <ele>2605</ele>
        <time>2013-05-20T10:52:44Z</time>
      </trkpt>
      <trkpt lat="42.8691" lon="-0.30621">
        <ele>2602</ele>
        <time>2013-05-20T10:52:46Z</time>
      </trkpt>
      <trkpt lat="42.86912" lon="-0.30625">
        <ele>2598</ele>
        <time>2013-05-20T10:52:48Z</time>
      </trkpt>
      <trkpt lat="42.86913" lon="-0.30626">
        <ele>2598</ele>
        <time>2013-05-20T10:52:49Z</time>
      </trkpt>
      <trkpt lat="42.86916" lon="-0.30625">
        <ele>2595</ele>
        <time>2013-05-20T10:52:52Z</time>
      </trkpt>
      <trkpt lat="42.86915" lon="-0.30625">
        <ele>2595</ele>
        <time>2013-05-20T10:52:53Z</time>
      </trkpt>
      <trkpt lat="42.86915" lon="-0.30624">
        <ele>2595</ele>
        <time>2013-05-20T10:52:57Z</time>
      </trkpt>
      <trkpt lat="42.86921" lon="-0.3061">
        <ele>2593</ele>
        <time>2013-05-20T10:53:02Z</time>
      </trkpt>
      <trkpt lat="42.86923" lon="-0.30605">
        <ele>2592</ele>
        <time>2013-05-20T10:53:03Z</time>
      </trkpt>
      <trkpt lat="42.86925" lon="-0.30596">
        <ele>2591</ele>
        <time>2013-05-20T10:53:05Z</time>
      </trkpt>
      <trkpt lat="42.86932" lon="-0.30574">
        <ele>2587</ele>
        <time>2013-05-20T10:53:09Z</time>
      </trkpt>
      <trkpt lat="42.86938" lon="-0.30557">
        <ele>2586</ele>
        <time>2013-05-20T10:53:14Z</time>
      </trkpt>
      <trkpt lat="42.86941" lon="-0.30556">
        <ele>2584</ele>
        <time>2013-05-20T10:53:17Z</time>
      </trkpt>
      <trkpt lat="42.86942" lon="-0.30556">
        <ele>2584</ele>
        <time>2013-05-20T10:53:23Z</time>
      </trkpt>
      <trkpt lat="42.86949" lon="-0.30559">
        <ele>2581</ele>
        <time>2013-05-20T10:53:28Z</time>
      </trkpt>
      <trkpt lat="42.86949" lon="-0.30557">
        <ele>2580</ele>
        <time>2013-05-20T10:53:29Z</time>
      </trkpt>
      <trkpt lat="42.86955" lon="-0.30558">
        <ele>2578</ele>
        <time>2013-05-20T10:53:32Z</time>
      </trkpt>
      <trkpt lat="42.86965" lon="-0.30559">
        <ele>2573</ele>
        <time>2013-05-20T10:53:37Z</time>
      </trkpt>
      <trkpt lat="42.86969" lon="-0.30545">
        <ele>2571</ele>
        <time>2013-05-20T10:53:40Z</time>
      </trkpt>
      <trkpt lat="42.86972" lon="-0.30537">
        <ele>2569</ele>
        <time>2013-05-20T10:53:43Z</time>
      </trkpt>
      <trkpt lat="42.86973" lon="-0.30533">
        <ele>2568</ele>
        <time>2013-05-20T10:53:47Z</time>
      </trkpt>
      <trkpt lat="42.86981" lon="-0.30538">
        <ele>2564</ele>
        <time>2013-05-20T10:53:51Z</time>
      </trkpt>
      <trkpt lat="42.86987" lon="-0.30542">
        <ele>2561</ele>
        <time>2013-05-20T10:53:54Z</time>
      </trkpt>
      <trkpt lat="42.86987" lon="-0.30546">
        <ele>2561</ele>
        <time>2013-05-20T10:53:55Z</time>
      </trkpt>
      <trkpt lat="42.86993" lon="-0.30555">
        <ele>2559</ele>
        <time>2013-05-20T10:53:58Z</time>
      </trkpt>
      <trkpt lat="42.86996" lon="-0.30553">
        <ele>2557</ele>
        <time>2013-05-20T10:53:59Z</time>
      </trkpt>
      <trkpt lat="42.87005" lon="-0.30554">
        <ele>2553</ele>
        <time>2013-05-20T10:54:04Z</time>
      </trkpt>
      <trkpt lat="42.87018" lon="-0.30569">
        <ele>2550</ele>
        <time>2013-05-20T10:54:08Z</time>
      </trkpt>
      <trkpt lat="42.87023" lon="-0.30561">
        <ele>2548</ele>
        <time>2013-05-20T10:54:10Z</time>
      </trkpt>
      <trkpt lat="42.87035" lon="-0.30535">
        <ele>2546</ele>
        <time>2013-05-20T10:54:16Z</time>
      </trkpt>
      <trkpt lat="42.87038" lon="-0.30527">
        <ele>2544</ele>
        <time>2013-05-20T10:54:21Z</time>
      </trkpt>
      <trkpt lat="42.87037" lon="-0.3052">
        <ele>2545</ele>
        <time>2013-05-20T10:54:28Z</time>
      </trkpt>
      <trkpt lat="42.87037" lon="-0.30514">
        <ele>2546</ele>
        <time>2013-05-20T10:54:34Z</time>
      </trkpt>
      <trkpt lat="42.87037" lon="-0.3051">
        <ele>2546</ele>
        <time>2013-05-20T10:54:37Z</time>
      </trkpt>
      <trkpt lat="42.87038" lon="-0.30486">
        <ele>2543</ele>
        <time>2013-05-20T10:54:43Z</time>
      </trkpt>
      <trkpt lat="42.87037" lon="-0.30463">
        <ele>2539</ele>
        <time>2013-05-20T10:54:47Z</time>
      </trkpt>
      <trkpt lat="42.87041" lon="-0.30432">
        <ele>2536</ele>
        <time>2013-05-20T10:54:51Z</time>
      </trkpt>
      <trkpt lat="42.87055" lon="-0.30389">
        <ele>2532</ele>
        <time>2013-05-20T10:54:57Z</time>
      </trkpt>
      <trkpt lat="42.87065" lon="-0.3036">
        <ele>2528</ele>
        <time>2013-05-20T10:55:01Z</time>
      </trkpt>
      <trkpt lat="42.8708" lon="-0.30331">
        <ele>2525</ele>
        <time>2013-05-20T10:55:05Z</time>
      </trkpt>
      <trkpt lat="42.87084" lon="-0.30325">
        <ele>2525</ele>
        <time>2013-05-20T10:55:06Z</time>
      </trkpt>
      <trkpt lat="42.87093" lon="-0.30311">
        <ele>2523</ele>
        <time>2013-05-20T10:55:09Z</time>
      </trkpt>
      <trkpt lat="42.87104" lon="-0.30299">
        <ele>2522</ele>
        <time>2013-05-20T10:55:12Z</time>
      </trkpt>
      <trkpt lat="42.87111" lon="-0.30294">
        <ele>2521</ele>
        <time>2013-05-20T10:55:14Z</time>
      </trkpt>
      <trkpt lat="42.87116" lon="-0.30291">
        <ele>2520</ele>
        <time>2013-05-20T10:55:16Z</time>
      </trkpt>
      <trkpt lat="42.87121" lon="-0.30291">
        <ele>2519</ele>
        <time>2013-05-20T10:55:21Z</time>
      </trkpt>
      <trkpt lat="42.87127" lon="-0.30292">
        <ele>2518</ele>
        <time>2013-05-20T10:55:25Z</time>
      </trkpt>
      <trkpt lat="42.87144" lon="-0.30287">
        <ele>2514</ele>
        <time>2013-05-20T10:55:30Z</time>
      </trkpt>
      <trkpt lat="42.87148" lon="-0.30286">
        <ele>2513</ele>
        <time>2013-05-20T10:55:31Z</time>
      </trkpt>
      <trkpt lat="42.8716" lon="-0.30282">
        <ele>2510</ele>
        <time>2013-05-20T10:55:34Z</time>
      </trkpt>
      <trkpt lat="42.87175" lon="-0.3028">
        <ele>2507</ele>
        <time>2013-05-20T10:55:40Z</time>
      </trkpt>
      <trkpt lat="42.87177" lon="-0.30281">
        <ele>2505</ele>
        <time>2013-05-20T10:55:43Z</time>
      </trkpt>
      <trkpt lat="42.87187" lon="-0.30279">
        <ele>2503</ele>
        <time>2013-05-20T10:55:51Z</time>
      </trkpt>
      <trkpt lat="42.87198" lon="-0.30276">
        <ele>2500</ele>
        <time>2013-05-20T10:55:55Z</time>
      </trkpt>
      <trkpt lat="42.87212" lon="-0.3027">
        <ele>2497</ele>
        <time>2013-05-20T10:56:00Z</time>
      </trkpt>
      <trkpt lat="42.87221" lon="-0.30263">
        <ele>2494</ele>
        <time>2013-05-20T10:56:04Z</time>
      </trkpt>
      <trkpt lat="42.87226" lon="-0.3026">
        <ele>2492</ele>
        <time>2013-05-20T10:56:07Z</time>
      </trkpt>
      <trkpt lat="42.87236" lon="-0.30254">
        <ele>2488</ele>
        <time>2013-05-20T10:56:11Z</time>
      </trkpt>
      <trkpt lat="42.87246" lon="-0.30253">
        <ele>2486</ele>
        <time>2013-05-20T10:56:16Z</time>
      </trkpt>
      <trkpt lat="42.8726" lon="-0.30245">
        <ele>2482</ele>
        <time>2013-05-20T10:56:22Z</time>
      </trkpt>
      <trkpt lat="42.87263" lon="-0.3024">
        <ele>2482</ele>
        <time>2013-05-20T10:56:28Z</time>
      </trkpt>
      <trkpt lat="42.87278" lon="-0.30233">
        <ele>2481</ele>
        <time>2013-05-20T10:56:34Z</time>
      </trkpt>
      <trkpt lat="42.87292" lon="-0.30222">
        <ele>2477</ele>
        <time>2013-05-20T10:56:39Z</time>
      </trkpt>
      <trkpt lat="42.87299" lon="-0.30219">
        <ele>2476</ele>
        <time>2013-05-20T10:56:41Z</time>
      </trkpt>
      <trkpt lat="42.87308" lon="-0.30214">
        <ele>2474</ele>
        <time>2013-05-20T10:56:44Z</time>
      </trkpt>
      <trkpt lat="42.87327" lon="-0.30207">
        <ele>2470</ele>
        <time>2013-05-20T10:56:49Z</time>
      </trkpt>
      <trkpt lat="42.8733" lon="-0.30206">
        <ele>2469</ele>
        <time>2013-05-20T10:56:50Z</time>
      </trkpt>
      <trkpt lat="42.87346" lon="-0.30203">
        <ele>2467</ele>
        <time>2013-05-20T10:56:56Z</time>
      </trkpt>
      <trkpt lat="42.87354" lon="-0.302">
        <ele>2466</ele>
        <time>2013-05-20T10:56:58Z</time>
      </trkpt>
      <trkpt lat="42.87376" lon="-0.30187">
        <ele>2462</ele>
        <time>2013-05-20T10:57:03Z</time>
      </trkpt>
      <trkpt lat="42.87383" lon="-0.30181">
        <ele>2460</ele>
        <time>2013-05-20T10:57:05Z</time>
      </trkpt>
      <trkpt lat="42.87394" lon="-0.30171">
        <ele>2458</ele>
        <time>2013-05-20T10:57:09Z</time>
      </trkpt>
      <trkpt lat="42.87406" lon="-0.30161">
        <ele>2456</ele>
        <time>2013-05-20T10:57:14Z</time>
      </trkpt>
      <trkpt lat="42.87414" lon="-0.30151">
        <ele>2454</ele>
        <time>2013-05-20T10:57:18Z</time>
      </trkpt>
      <trkpt lat="42.87425" lon="-0.30137">
        <ele>2451</ele>
        <time>2013-05-20T10:57:22Z</time>
      </trkpt>
      <trkpt lat="42.87446" lon="-0.30124">
        <ele>2450</ele>
        <time>2013-05-20T10:57:26Z</time>
      </trkpt>
      <trkpt lat="42.87459" lon="-0.30118">
        <ele>2447</ele>
        <time>2013-05-20T10:57:28Z</time>
      </trkpt>
      <trkpt lat="42.87477" lon="-0.30113">
        <ele>2447</ele>
        <time>2013-05-20T10:57:33Z</time>
      </trkpt>
      <trkpt lat="42.87498" lon="-0.30098">
        <ele>2444</ele>
        <time>2013-05-20T10:57:43Z</time>
      </trkpt>
      <trkpt lat="42.87509" lon="-0.30091">
        <ele>2443</ele>
        <time>2013-05-20T10:57:50Z</time>
      </trkpt>
      <trkpt lat="42.87521" lon="-0.30076">
        <ele>2440</ele>
        <time>2013-05-20T10:57:55Z</time>
      </trkpt>
      <trkpt lat="42.87527" lon="-0.30066">
        <ele>2439</ele>
        <time>2013-05-20T10:57:58Z</time>
      </trkpt>
      <trkpt lat="42.87541" lon="-0.30042">
        <ele>2437</ele>
        <time>2013-05-20T10:58:08Z</time>
      </trkpt>
      <trkpt lat="42.87556" lon="-0.30022">
        <ele>2435</ele>
        <time>2013-05-20T10:58:15Z</time>
      </trkpt>
      <trkpt lat="42.87566" lon="-0.30002">
        <ele>2434</ele>
        <time>2013-05-20T10:58:22Z</time>
      </trkpt>
      <trkpt lat="42.87569" lon="-0.29989">
        <ele>2433</ele>
        <time>2013-05-20T10:58:28Z</time>
      </trkpt>
      <trkpt lat="42.8757" lon="-0.29985">
        <ele>2432</ele>
        <time>2013-05-20T10:58:37Z</time>
      </trkpt>
      <trkpt lat="42.8757" lon="-0.29982">
        <ele>2433</ele>
        <time>2013-05-20T10:58:49Z</time>
      </trkpt>
      <trkpt lat="42.87575" lon="-0.29975">
        <ele>2431</ele>
        <time>2013-05-20T10:58:54Z</time>
      </trkpt>
      <trkpt lat="42.87584" lon="-0.29975">
        <ele>2428</ele>
        <time>2013-05-20T10:58:57Z</time>
      </trkpt>
      <trkpt lat="42.87584" lon="-0.29973">
        <ele>2427</ele>
        <time>2013-05-20T10:58:59Z</time>
      </trkpt>
      <trkpt lat="42.87584" lon="-0.29972">
        <ele>2427</ele>
        <time>2013-05-20T10:59:09Z</time>
      </trkpt>
      <trkpt lat="42.87584" lon="-0.29971">
        <ele>2427</ele>
        <time>2013-05-20T10:59:13Z</time>
      </trkpt>
      <trkpt lat="42.8759" lon="-0.29973">
        <ele>2426</ele>
        <time>2013-05-20T10:59:17Z</time>
      </trkpt>
      <trkpt lat="42.876" lon="-0.29998">
        <ele>2421</ele>
        <time>2013-05-20T10:59:23Z</time>
      </trkpt>
      <trkpt lat="42.87609" lon="-0.30014">
        <ele>2415</ele>
        <time>2013-05-20T10:59:27Z</time>
      </trkpt>
      <trkpt lat="42.87614" lon="-0.30008">
        <ele>2414</ele>
        <time>2013-05-20T10:59:29Z</time>
      </trkpt>
      <trkpt lat="42.87622" lon="-0.29986">
        <ele>2411</ele>
        <time>2013-05-20T10:59:34Z</time>
      </trkpt>
      <trkpt lat="42.87633" lon="-0.29982">
        <ele>2409</ele>
        <time>2013-05-20T10:59:38Z</time>
      </trkpt>
      <trkpt lat="42.8764" lon="-0.29978">
        <ele>2406</ele>
        <time>2013-05-20T10:59:40Z</time>
      </trkpt>
      <trkpt lat="42.87645" lon="-0.2997">
        <ele>2402</ele>
        <time>2013-05-20T10:59:42Z</time>
      </trkpt>
      <trkpt lat="42.87653" lon="-0.29969">
        <ele>2399</ele>
        <time>2013-05-20T10:59:44Z</time>
      </trkpt>
      <trkpt lat="42.87662" lon="-0.29971">
        <ele>2397</ele>
        <time>2013-05-20T10:59:46Z</time>
      </trkpt>
      <trkpt lat="42.87672" lon="-0.29971">
        <ele>2395</ele>
        <time>2013-05-20T10:59:49Z</time>
      </trkpt>
      <trkpt lat="42.87688" lon="-0.29976">
        <ele>2392</ele>
        <time>2013-05-20T10:59:54Z</time>
      </trkpt>
      <trkpt lat="42.877" lon="-0.29983">
        <ele>2389</ele>
        <time>2013-05-20T10:59:58Z</time>
      </trkpt>
      <trkpt lat="42.87701" lon="-0.29984">
        <ele>2389</ele>
        <time>2013-05-20T10:59:59Z</time>
      </trkpt>
      <trkpt lat="42.87706" lon="-0.29972">
        <ele>2386</ele>
        <time>2013-05-20T11:00:03Z</time>
      </trkpt>
      <trkpt lat="42.8771" lon="-0.29968">
        <ele>2384</ele>
        <time>2013-05-20T11:00:04Z</time>
      </trkpt>
      <trkpt lat="42.8773" lon="-0.2995">
        <ele>2377</ele>
        <time>2013-05-20T11:00:10Z</time>
      </trkpt>
      <trkpt lat="42.8773" lon="-0.29944">
        <ele>2375</ele>
        <time>2013-05-20T11:00:13Z</time>
      </trkpt>
      <trkpt lat="42.8773" lon="-0.29941">
        <ele>2374</ele>
        <time>2013-05-20T11:00:21Z</time>
      </trkpt>
      <trkpt lat="42.87732" lon="-0.29942">
        <ele>2375</ele>
        <time>2013-05-20T11:00:35Z</time>
      </trkpt>
      <trkpt lat="42.8773" lon="-0.29941">
        <ele>2374</ele>
        <time>2013-05-20T11:00:53Z</time>
      </trkpt>
      <trkpt lat="42.87733" lon="-0.29934">
        <ele>2372</ele>
        <time>2013-05-20T11:00:57Z</time>
      </trkpt>
      <trkpt lat="42.87741" lon="-0.29927">
        <ele>2369</ele>
        <time>2013-05-20T11:01:00Z</time>
      </trkpt>
      <trkpt lat="42.87748" lon="-0.29913">
        <ele>2365</ele>
        <time>2013-05-20T11:01:03Z</time>
      </trkpt>
      <trkpt lat="42.87776" lon="-0.29909">
        <ele>2360</ele>
        <time>2013-05-20T11:01:10Z</time>
      </trkpt>
      <trkpt lat="42.87779" lon="-0.29905">
        <ele>2359</ele>
        <time>2013-05-20T11:01:12Z</time>
      </trkpt>
      <trkpt lat="42.8778" lon="-0.29902">
        <ele>2356</ele>
        <time>2013-05-20T11:01:13Z</time>
      </trkpt>
      <trkpt lat="42.87781" lon="-0.29899">
        <ele>2356</ele>
        <time>2013-05-20T11:01:14Z</time>
      </trkpt>
      <trkpt lat="42.87782" lon="-0.29895">
        <ele>2353</ele>
        <time>2013-05-20T11:01:15Z</time>
      </trkpt>
      <trkpt lat="42.87785" lon="-0.2989">
        <ele>2352</ele>
        <time>2013-05-20T11:01:16Z</time>
      </trkpt>
      <trkpt lat="42.87789" lon="-0.29885">
        <ele>2349</ele>
        <time>2013-05-20T11:01:17Z</time>
      </trkpt>
      <trkpt lat="42.87796" lon="-0.29871">
        <ele>2344</ele>
        <time>2013-05-20T11:01:19Z</time>
      </trkpt>
      <trkpt lat="42.87795" lon="-0.29865">
        <ele>2341</ele>
        <time>2013-05-20T11:01:20Z</time>
      </trkpt>
      <trkpt lat="42.87783" lon="-0.2985">
        <ele>2339</ele>
        <time>2013-05-20T11:01:24Z</time>
      </trkpt>
      <trkpt lat="42.87773" lon="-0.29844">
        <ele>2339</ele>
        <time>2013-05-20T11:01:29Z</time>
      </trkpt>
      <trkpt lat="42.8777" lon="-0.29846">
        <ele>2338</ele>
        <time>2013-05-20T11:01:37Z</time>
      </trkpt>
      <trkpt lat="42.87781" lon="-0.2984">
        <ele>2336</ele>
        <time>2013-05-20T11:01:42Z</time>
      </trkpt>
      <trkpt lat="42.87786" lon="-0.29839">
        <ele>2335</ele>
        <time>2013-05-20T11:01:43Z</time>
      </trkpt>
      <trkpt lat="42.87797" lon="-0.29836">
        <ele>2334</ele>
        <time>2013-05-20T11:01:46Z</time>
      </trkpt>
      <trkpt lat="42.87799" lon="-0.29834">
        <ele>2333</ele>
        <time>2013-05-20T11:01:49Z</time>
      </trkpt>
      <trkpt lat="42.87799" lon="-0.29833">
        <ele>2333</ele>
        <time>2013-05-20T11:01:59Z</time>
      </trkpt>
      <trkpt lat="42.87798" lon="-0.2983">
        <ele>2333</ele>
        <time>2013-05-20T11:02:09Z</time>
      </trkpt>
      <trkpt lat="42.87793" lon="-0.29824">
        <ele>2332</ele>
        <time>2013-05-20T11:02:13Z</time>
      </trkpt>
      <trkpt lat="42.87787" lon="-0.29821">
        <ele>2331</ele>
        <time>2013-05-20T11:02:15Z</time>
      </trkpt>
      <trkpt lat="42.87781" lon="-0.29814">
        <ele>2331</ele>
        <time>2013-05-20T11:02:17Z</time>
      </trkpt>
      <trkpt lat="42.87771" lon="-0.29789">
        <ele>2328</ele>
        <time>2013-05-20T11:02:23Z</time>
      </trkpt>
      <trkpt lat="42.87763" lon="-0.29764">
        <ele>2326</ele>
        <time>2013-05-20T11:02:29Z</time>
      </trkpt>
      <trkpt lat="42.87758" lon="-0.29753">
        <ele>2325</ele>
        <time>2013-05-20T11:02:31Z</time>
      </trkpt>
      <trkpt lat="42.87756" lon="-0.29747">
        <ele>2325</ele>
        <time>2013-05-20T11:02:32Z</time>
      </trkpt>
      <trkpt lat="42.87758" lon="-0.29728">
        <ele>2322</ele>
        <time>2013-05-20T11:02:36Z</time>
      </trkpt>
      <trkpt lat="42.87758" lon="-0.29722">
        <ele>2321</ele>
        <time>2013-05-20T11:02:38Z</time>
      </trkpt>
      <trkpt lat="42.87766" lon="-0.29714">
        <ele>2320</ele>
        <time>2013-05-20T11:02:42Z</time>
      </trkpt>
      <trkpt lat="42.87765" lon="-0.29704">
        <ele>2317</ele>
        <time>2013-05-20T11:02:45Z</time>
      </trkpt>
      <trkpt lat="42.87767" lon="-0.29693">
        <ele>2316</ele>
        <time>2013-05-20T11:02:48Z</time>
      </trkpt>
      <trkpt lat="42.87765" lon="-0.29687">
        <ele>2313</ele>
        <time>2013-05-20T11:02:50Z</time>
      </trkpt>
      <trkpt lat="42.8775" lon="-0.29686">
        <ele>2311</ele>
        <time>2013-05-20T11:02:55Z</time>
      </trkpt>
      <trkpt lat="42.87742" lon="-0.29687">
        <ele>2309</ele>
        <time>2013-05-20T11:02:57Z</time>
      </trkpt>
      <trkpt lat="42.8773" lon="-0.29689">
        <ele>2308</ele>
        <time>2013-05-20T11:03:00Z</time>
      </trkpt>
      <trkpt lat="42.87722" lon="-0.29689">
        <ele>2306</ele>
        <time>2013-05-20T11:03:04Z</time>
      </trkpt>
      <trkpt lat="42.87714" lon="-0.29685">
        <ele>2305</ele>
        <time>2013-05-20T11:03:08Z</time>
      </trkpt>
      <trkpt lat="42.87713" lon="-0.29667">
        <ele>2300</ele>
        <time>2013-05-20T11:03:13Z</time>
      </trkpt>
      <trkpt lat="42.87718" lon="-0.29655">
        <ele>2298</ele>
        <time>2013-05-20T11:03:17Z</time>
      </trkpt>
      <trkpt lat="42.87722" lon="-0.29634">
        <ele>2298</ele>
        <time>2013-05-20T11:03:22Z</time>
      </trkpt>
      <trkpt lat="42.87727" lon="-0.29593">
        <ele>2293</ele>
        <time>2013-05-20T11:03:28Z</time>
      </trkpt>
      <trkpt lat="42.87736" lon="-0.29564">
        <ele>2290</ele>
        <time>2013-05-20T11:03:32Z</time>
      </trkpt>
      <trkpt lat="42.8774" lon="-0.29555">
        <ele>2290</ele>
        <time>2013-05-20T11:03:37Z</time>
      </trkpt>
      <trkpt lat="42.87742" lon="-0.29552">
        <ele>2291</ele>
        <time>2013-05-20T11:03:43Z</time>
      </trkpt>
      <trkpt lat="42.87743" lon="-0.29548">
        <ele>2290</ele>
        <time>2013-05-20T11:03:49Z</time>
      </trkpt>
      <trkpt lat="42.87744" lon="-0.29545">
        <ele>2293</ele>
        <time>2013-05-20T11:03:54Z</time>
      </trkpt>
      <trkpt lat="42.87744" lon="-0.2954">
        <ele>2291</ele>
        <time>2013-05-20T11:04:00Z</time>
      </trkpt>
      <trkpt lat="42.87747" lon="-0.29536">
        <ele>2292</ele>
        <time>2013-05-20T11:04:07Z</time>
      </trkpt>
      <trkpt lat="42.87749" lon="-0.29533">
        <ele>2292</ele>
        <time>2013-05-20T11:04:13Z</time>
      </trkpt>
      <trkpt lat="42.87748" lon="-0.29526">
        <ele>2293</ele>
        <time>2013-05-20T11:04:20Z</time>
      </trkpt>
      <trkpt lat="42.87751" lon="-0.29521">
        <ele>2294</ele>
        <time>2013-05-20T11:04:28Z</time>
      </trkpt>
      <trkpt lat="42.87754" lon="-0.29519">
        <ele>2293</ele>
        <time>2013-05-20T11:04:32Z</time>
      </trkpt>
      <trkpt lat="42.87755" lon="-0.29515">
        <ele>2294</ele>
        <time>2013-05-20T11:04:38Z</time>
      </trkpt>
      <trkpt lat="42.87755" lon="-0.29512">
        <ele>2293</ele>
        <time>2013-05-20T11:04:44Z</time>
      </trkpt>
      <trkpt lat="42.87756" lon="-0.29509">
        <ele>2295</ele>
        <time>2013-05-20T11:04:51Z</time>
      </trkpt>
      <trkpt lat="42.87759" lon="-0.29507">
        <ele>2295</ele>
        <time>2013-05-20T11:04:57Z</time>
      </trkpt>
      <trkpt lat="42.87762" lon="-0.29506">
        <ele>2296</ele>
        <time>2013-05-20T11:05:03Z</time>
      </trkpt>
      <trkpt lat="42.87762" lon="-0.29503">
        <ele>2296</ele>
        <time>2013-05-20T11:05:10Z</time>
      </trkpt>
      <trkpt lat="42.87763" lon="-0.29501">
        <ele>2297</ele>
        <time>2013-05-20T11:05:16Z</time>
      </trkpt>
      <trkpt lat="42.87766" lon="-0.29499">
        <ele>2298</ele>
        <time>2013-05-20T11:05:23Z</time>
      </trkpt>
      <trkpt lat="42.87768" lon="-0.29497">
        <ele>2298</ele>
        <time>2013-05-20T11:05:29Z</time>
      </trkpt>
      <trkpt lat="42.87769" lon="-0.29494">
        <ele>2299</ele>
        <time>2013-05-20T11:05:35Z</time>
      </trkpt>
      <trkpt lat="42.87771" lon="-0.29492">
        <ele>2298</ele>
        <time>2013-05-20T11:05:41Z</time>
      </trkpt>
      <trkpt lat="42.87772" lon="-0.29489">
        <ele>2299</ele>
        <time>2013-05-20T11:05:47Z</time>
      </trkpt>
      <trkpt lat="42.87774" lon="-0.29484">
        <ele>2300</ele>
        <time>2013-05-20T11:05:54Z</time>
      </trkpt>
      <trkpt lat="42.87776" lon="-0.2948">
        <ele>2301</ele>
        <time>2013-05-20T11:06:01Z</time>
      </trkpt>
      <trkpt lat="42.87778" lon="-0.29476">
        <ele>2302</ele>
        <time>2013-05-20T11:06:09Z</time>
      </trkpt>
      <trkpt lat="42.87779" lon="-0.29474">
        <ele>2302</ele>
        <time>2013-05-20T11:06:12Z</time>
      </trkpt>
      <trkpt lat="42.87779" lon="-0.29471">
        <ele>2302</ele>
        <time>2013-05-20T11:06:19Z</time>
      </trkpt>
      <trkpt lat="42.87779" lon="-0.29468">
        <ele>2302</ele>
        <time>2013-05-20T11:06:27Z</time>
      </trkpt>
      <trkpt lat="42.87779" lon="-0.29465">
        <ele>2303</ele>
        <time>2013-05-20T11:06:34Z</time>
      </trkpt>
      <trkpt lat="42.87778" lon="-0.29463">
        <ele>2303</ele>
        <time>2013-05-20T11:06:38Z</time>
      </trkpt>
      <trkpt lat="42.87779" lon="-0.29459">
        <ele>2304</ele>
        <time>2013-05-20T11:06:45Z</time>
      </trkpt>
      <trkpt lat="42.87785" lon="-0.29458">
        <ele>2304</ele>
        <time>2013-05-20T11:06:54Z</time>
      </trkpt>
      <trkpt lat="42.87787" lon="-0.29457">
        <ele>2304</ele>
        <time>2013-05-20T11:07:00Z</time>
      </trkpt>
      <trkpt lat="42.87789" lon="-0.29452">
        <ele>2306</ele>
        <time>2013-05-20T11:07:09Z</time>
      </trkpt>
      <trkpt lat="42.87791" lon="-0.29447">
        <ele>2305</ele>
        <time>2013-05-20T11:07:17Z</time>
      </trkpt>
      <trkpt lat="42.87795" lon="-0.29444">
        <ele>2306</ele>
        <time>2013-05-20T11:07:25Z</time>
      </trkpt>
      <trkpt lat="42.87798" lon="-0.2944">
        <ele>2307</ele>
        <time>2013-05-20T11:07:32Z</time>
      </trkpt>
      <trkpt lat="42.87799" lon="-0.29439">
        <ele>2307</ele>
        <time>2013-05-20T11:07:38Z</time>
      </trkpt>
      <trkpt lat="42.87801" lon="-0.29435">
        <ele>2308</ele>
        <time>2013-05-20T11:07:43Z</time>
      </trkpt>
      <trkpt lat="42.87803" lon="-0.29435">
        <ele>2308</ele>
        <time>2013-05-20T11:07:49Z</time>
      </trkpt>
      <trkpt lat="42.87806" lon="-0.29432">
        <ele>2308</ele>
        <time>2013-05-20T11:07:56Z</time>
      </trkpt>
      <trkpt lat="42.87808" lon="-0.29427">
        <ele>2310</ele>
        <time>2013-05-20T11:08:03Z</time>
      </trkpt>
      <trkpt lat="42.8781" lon="-0.29422">
        <ele>2309</ele>
        <time>2013-05-20T11:08:09Z</time>
      </trkpt>
      <trkpt lat="42.87811" lon="-0.2942">
        <ele>2310</ele>
        <time>2013-05-20T11:08:15Z</time>
      </trkpt>
      <trkpt lat="42.87812" lon="-0.29415">
        <ele>2312</ele>
        <time>2013-05-20T11:08:24Z</time>
      </trkpt>
      <trkpt lat="42.87814" lon="-0.29412">
        <ele>2312</ele>
        <time>2013-05-20T11:08:29Z</time>
      </trkpt>
      <trkpt lat="42.87815" lon="-0.29409">
        <ele>2312</ele>
        <time>2013-05-20T11:08:34Z</time>
      </trkpt>
      <trkpt lat="42.87819" lon="-0.29406">
        <ele>2312</ele>
        <time>2013-05-20T11:08:41Z</time>
      </trkpt>
      <trkpt lat="42.87821" lon="-0.29403">
        <ele>2313</ele>
        <time>2013-05-20T11:08:48Z</time>
      </trkpt>
      <trkpt lat="42.87823" lon="-0.294">
        <ele>2314</ele>
        <time>2013-05-20T11:08:54Z</time>
      </trkpt>
      <trkpt lat="42.87825" lon="-0.29398">
        <ele>2315</ele>
        <time>2013-05-20T11:09:01Z</time>
      </trkpt>
      <trkpt lat="42.87827" lon="-0.29395">
        <ele>2315</ele>
        <time>2013-05-20T11:09:07Z</time>
      </trkpt>
      <trkpt lat="42.87828" lon="-0.29394">
        <ele>2316</ele>
        <time>2013-05-20T11:09:15Z</time>
      </trkpt>
      <trkpt lat="42.8783" lon="-0.29391">
        <ele>2315</ele>
        <time>2013-05-20T11:09:21Z</time>
      </trkpt>
      <trkpt lat="42.87832" lon="-0.29388">
        <ele>2316</ele>
        <time>2013-05-20T11:09:29Z</time>
      </trkpt>
      <trkpt lat="42.87836" lon="-0.29383">
        <ele>2317</ele>
        <time>2013-05-20T11:09:38Z</time>
      </trkpt>
      <trkpt lat="42.87837" lon="-0.2938">
        <ele>2318</ele>
        <time>2013-05-20T11:09:43Z</time>
      </trkpt>
      <trkpt lat="42.87839" lon="-0.29377">
        <ele>2318</ele>
        <time>2013-05-20T11:09:48Z</time>
      </trkpt>
      <trkpt lat="42.8784" lon="-0.29375">
        <ele>2319</ele>
        <time>2013-05-20T11:09:54Z</time>
      </trkpt>
      <trkpt lat="42.87843" lon="-0.29372">
        <ele>2319</ele>
        <time>2013-05-20T11:10:00Z</time>
      </trkpt>
      <trkpt lat="42.87845" lon="-0.29371">
        <ele>2319</ele>
        <time>2013-05-20T11:10:05Z</time>
      </trkpt>
      <trkpt lat="42.87845" lon="-0.29366">
        <ele>2320</ele>
        <time>2013-05-20T11:10:10Z</time>
      </trkpt>
      <trkpt lat="42.87846" lon="-0.29363">
        <ele>2319</ele>
        <time>2013-05-20T11:10:16Z</time>
      </trkpt>
      <trkpt lat="42.87848" lon="-0.29361">
        <ele>2322</ele>
        <time>2013-05-20T11:10:26Z</time>
      </trkpt>
      <trkpt lat="42.8785" lon="-0.29358">
        <ele>2322</ele>
        <time>2013-05-20T11:10:32Z</time>
      </trkpt>
      <trkpt lat="42.87854" lon="-0.29355">
        <ele>2323</ele>
        <time>2013-05-20T11:10:40Z</time>
      </trkpt>
      <trkpt lat="42.87856" lon="-0.29351">
        <ele>2324</ele>
        <time>2013-05-20T11:10:46Z</time>
      </trkpt>
      <trkpt lat="42.87857" lon="-0.29349">
        <ele>2323</ele>
        <time>2013-05-20T11:10:52Z</time>
      </trkpt>
      <trkpt lat="42.87856" lon="-0.29344">
        <ele>2323</ele>
        <time>2013-05-20T11:11:02Z</time>
      </trkpt>
      <trkpt lat="42.87857" lon="-0.29347">
        <ele>2325</ele>
        <time>2013-05-20T11:11:12Z</time>
      </trkpt>
      <trkpt lat="42.87858" lon="-0.29345">
        <ele>2325</ele>
        <time>2013-05-20T11:11:18Z</time>
      </trkpt>
      <trkpt lat="42.87858" lon="-0.29345">
        <ele>2325</ele>
        <time>2013-05-20T11:11:24Z</time>
      </trkpt>
      <trkpt lat="42.8786" lon="-0.29344">
        <ele>2326</ele>
        <time>2013-05-20T11:11:30Z</time>
      </trkpt>
      <trkpt lat="42.87861" lon="-0.29343">
        <ele>2326</ele>
        <time>2013-05-20T11:11:35Z</time>
      </trkpt>
      <trkpt lat="42.87861" lon="-0.29341">
        <ele>2326</ele>
        <time>2013-05-20T11:11:41Z</time>
      </trkpt>
      <trkpt lat="42.87862" lon="-0.2934">
        <ele>2327</ele>
        <time>2013-05-20T11:11:46Z</time>
      </trkpt>
      <trkpt lat="42.87864" lon="-0.29336">
        <ele>2328</ele>
        <time>2013-05-20T11:11:52Z</time>
      </trkpt>
      <trkpt lat="42.87866" lon="-0.29334">
        <ele>2329</ele>
        <time>2013-05-20T11:11:58Z</time>
      </trkpt>
      <trkpt lat="42.87869" lon="-0.29333">
        <ele>2328</ele>
        <time>2013-05-20T11:12:04Z</time>
      </trkpt>
      <trkpt lat="42.87871" lon="-0.2933">
        <ele>2329</ele>
        <time>2013-05-20T11:12:10Z</time>
      </trkpt>
      <trkpt lat="42.87873" lon="-0.29327">
        <ele>2330</ele>
        <time>2013-05-20T11:12:16Z</time>
      </trkpt>
      <trkpt lat="42.87875" lon="-0.29324">
        <ele>2331</ele>
        <time>2013-05-20T11:12:23Z</time>
      </trkpt>
      <trkpt lat="42.87877" lon="-0.29321">
        <ele>2332</ele>
        <time>2013-05-20T11:12:30Z</time>
      </trkpt>
      <trkpt lat="42.87882" lon="-0.29318">
        <ele>2333</ele>
        <time>2013-05-20T11:12:37Z</time>
      </trkpt>
      <trkpt lat="42.87885" lon="-0.29315">
        <ele>2334</ele>
        <time>2013-05-20T11:12:44Z</time>
      </trkpt>
      <trkpt lat="42.87888" lon="-0.29311">
        <ele>2335</ele>
        <time>2013-05-20T11:12:50Z</time>
      </trkpt>
      <trkpt lat="42.87892" lon="-0.29308">
        <ele>2335</ele>
        <time>2013-05-20T11:12:57Z</time>
      </trkpt>
      <trkpt lat="42.87895" lon="-0.29305">
        <ele>2335</ele>
        <time>2013-05-20T11:13:04Z</time>
      </trkpt>
      <trkpt lat="42.87895" lon="-0.29302">
        <ele>2336</ele>
        <time>2013-05-20T11:13:14Z</time>
      </trkpt>
      <trkpt lat="42.87897" lon="-0.293">
        <ele>2336</ele>
        <time>2013-05-20T11:13:23Z</time>
      </trkpt>
      <trkpt lat="42.87898" lon="-0.293">
        <ele>2337</ele>
        <time>2013-05-20T11:13:29Z</time>
      </trkpt>
      <trkpt lat="42.87901" lon="-0.29297">
        <ele>2337</ele>
        <time>2013-05-20T11:13:35Z</time>
      </trkpt>
      <trkpt lat="42.87904" lon="-0.29293">
        <ele>2337</ele>
        <time>2013-05-20T11:13:42Z</time>
      </trkpt>
      <trkpt lat="42.87906" lon="-0.2929">
        <ele>2338</ele>
        <time>2013-05-20T11:13:48Z</time>
      </trkpt>
      <trkpt lat="42.87909" lon="-0.29287">
        <ele>2338</ele>
        <time>2013-05-20T11:13:54Z</time>
      </trkpt>
      <trkpt lat="42.87913" lon="-0.29283">
        <ele>2338</ele>
        <time>2013-05-20T11:14:01Z</time>
      </trkpt>
      <trkpt lat="42.87916" lon="-0.2928">
        <ele>2339</ele>
        <time>2013-05-20T11:14:07Z</time>
      </trkpt>
      <trkpt lat="42.8792" lon="-0.29279">
        <ele>2340</ele>
        <time>2013-05-20T11:14:13Z</time>
      </trkpt>
      <trkpt lat="42.87923" lon="-0.29277">
        <ele>2340</ele>
        <time>2013-05-20T11:14:19Z</time>
      </trkpt>
      <trkpt lat="42.87926" lon="-0.29275">
        <ele>2340</ele>
        <time>2013-05-20T11:14:25Z</time>
      </trkpt>
      <trkpt lat="42.87928" lon="-0.29275">
        <ele>2342</ele>
        <time>2013-05-20T11:14:31Z</time>
      </trkpt>
      <trkpt lat="42.87927" lon="-0.29273">
        <ele>2341</ele>
        <time>2013-05-20T11:14:39Z</time>
      </trkpt>
      <trkpt lat="42.87924" lon="-0.29273">
        <ele>2342</ele>
        <time>2013-05-20T11:14:46Z</time>
      </trkpt>
      <trkpt lat="42.8792" lon="-0.29273">
        <ele>2342</ele>
        <time>2013-05-20T11:14:53Z</time>
      </trkpt>
      <trkpt lat="42.87916" lon="-0.29273">
        <ele>2342</ele>
        <time>2013-05-20T11:14:59Z</time>
      </trkpt>
      <trkpt lat="42.87914" lon="-0.29265">
        <ele>2342</ele>
        <time>2013-05-20T11:15:05Z</time>
      </trkpt>
      <trkpt lat="42.8791" lon="-0.29262">
        <ele>2343</ele>
        <time>2013-05-20T11:15:12Z</time>
      </trkpt>
      <trkpt lat="42.87906" lon="-0.29261">
        <ele>2344</ele>
        <time>2013-05-20T11:15:19Z</time>
      </trkpt>
      <trkpt lat="42.87904" lon="-0.2926">
        <ele>2344</ele>
        <time>2013-05-20T11:15:23Z</time>
      </trkpt>
      <trkpt lat="42.87903" lon="-0.2926">
        <ele>2344</ele>
        <time>2013-05-20T11:15:26Z</time>
      </trkpt>
      <trkpt lat="42.87902" lon="-0.29259">
        <ele>2345</ele>
        <time>2013-05-20T11:15:31Z</time>
      </trkpt>
      <trkpt lat="42.87902" lon="-0.29256">
        <ele>2345</ele>
        <time>2013-05-20T11:15:36Z</time>
      </trkpt>
      <trkpt lat="42.87902" lon="-0.29256">
        <ele>2346</ele>
        <time>2013-05-20T11:15:37Z</time>
      </trkpt>
      <trkpt lat="42.87904" lon="-0.29251">
        <ele>2346</ele>
        <time>2013-05-20T11:15:42Z</time>
      </trkpt>
      <trkpt lat="42.87905" lon="-0.29249">
        <ele>2347</ele>
        <time>2013-05-20T11:15:47Z</time>
      </trkpt>
      <trkpt lat="42.87906" lon="-0.29246">
        <ele>2347</ele>
        <time>2013-05-20T11:15:52Z</time>
      </trkpt>
      <trkpt lat="42.87907" lon="-0.29243">
        <ele>2347</ele>
        <time>2013-05-20T11:15:57Z</time>
      </trkpt>
      <trkpt lat="42.87908" lon="-0.29242">
        <ele>2348</ele>
        <time>2013-05-20T11:16:01Z</time>
      </trkpt>
      <trkpt lat="42.8791" lon="-0.29237">
        <ele>2348</ele>
        <time>2013-05-20T11:16:07Z</time>
      </trkpt>
      <trkpt lat="42.87911" lon="-0.29235">
        <ele>2348</ele>
        <time>2013-05-20T11:16:11Z</time>
      </trkpt>
      <trkpt lat="42.87912" lon="-0.29232">
        <ele>2350</ele>
        <time>2013-05-20T11:16:16Z</time>
      </trkpt>
      <trkpt lat="42.87913" lon="-0.29231">
        <ele>2350</ele>
        <time>2013-05-20T11:16:18Z</time>
      </trkpt>
      <trkpt lat="42.87914" lon="-0.29229">
        <ele>2351</ele>
        <time>2013-05-20T11:16:24Z</time>
      </trkpt>
      <trkpt lat="42.87916" lon="-0.29227">
        <ele>2351</ele>
        <time>2013-05-20T11:16:29Z</time>
      </trkpt>
      <trkpt lat="42.87918" lon="-0.29223">
        <ele>2350</ele>
        <time>2013-05-20T11:16:34Z</time>
      </trkpt>
      <trkpt lat="42.8792" lon="-0.29219">
        <ele>2352</ele>
        <time>2013-05-20T11:16:40Z</time>
      </trkpt>
      <trkpt lat="42.87922" lon="-0.29217">
        <ele>2352</ele>
        <time>2013-05-20T11:16:45Z</time>
      </trkpt>
      <trkpt lat="42.87923" lon="-0.2921">
        <ele>2352</ele>
        <time>2013-05-20T11:16:51Z</time>
      </trkpt>
      <trkpt lat="42.87922" lon="-0.29209">
        <ele>2352</ele>
        <time>2013-05-20T11:16:57Z</time>
      </trkpt>
      <trkpt lat="42.87924" lon="-0.29206">
        <ele>2352</ele>
        <time>2013-05-20T11:17:03Z</time>
      </trkpt>
      <trkpt lat="42.87924" lon="-0.29205">
        <ele>2352</ele>
        <time>2013-05-20T11:17:05Z</time>
      </trkpt>
      <trkpt lat="42.87928" lon="-0.29196">
        <ele>2352</ele>
        <time>2013-05-20T11:17:13Z</time>
      </trkpt>
      <trkpt lat="42.87934" lon="-0.2919">
        <ele>2352</ele>
        <time>2013-05-20T11:17:22Z</time>
      </trkpt>
      <trkpt lat="42.87942" lon="-0.29182">
        <ele>2351</ele>
        <time>2013-05-20T11:17:29Z</time>
      </trkpt>
      <trkpt lat="42.87951" lon="-0.29172">
        <ele>2349</ele>
        <time>2013-05-20T11:17:34Z</time>
      </trkpt>
      <trkpt lat="42.87964" lon="-0.2916">
        <ele>2347</ele>
        <time>2013-05-20T11:17:39Z</time>
      </trkpt>
      <trkpt lat="42.87967" lon="-0.29145">
        <ele>2345</ele>
        <time>2013-05-20T11:17:43Z</time>
      </trkpt>
      <trkpt lat="42.87968" lon="-0.29143">
        <ele>2344</ele>
        <time>2013-05-20T11:17:44Z</time>
      </trkpt>
      <trkpt lat="42.87974" lon="-0.29129">
        <ele>2341</ele>
        <time>2013-05-20T11:17:48Z</time>
      </trkpt>
      <trkpt lat="42.87976" lon="-0.29127">
        <ele>2340</ele>
        <time>2013-05-20T11:17:55Z</time>
      </trkpt>
      <trkpt lat="42.87976" lon="-0.29128">
        <ele>2340</ele>
        <time>2013-05-20T11:18:02Z</time>
      </trkpt>
      <trkpt lat="42.87975" lon="-0.29128">
        <ele>2340</ele>
        <time>2013-05-20T11:18:16Z</time>
      </trkpt>
      <trkpt lat="42.87974" lon="-0.29126">
        <ele>2340</ele>
        <time>2013-05-20T11:18:27Z</time>
      </trkpt>
      <trkpt lat="42.87976" lon="-0.29127">
        <ele>2340</ele>
        <time>2013-05-20T11:18:38Z</time>
      </trkpt>
      <trkpt lat="42.87975" lon="-0.29127">
        <ele>2340</ele>
        <time>2013-05-20T11:18:57Z</time>
      </trkpt>
      <trkpt lat="42.87976" lon="-0.29126">
        <ele>2340</ele>
        <time>2013-05-20T11:19:15Z</time>
      </trkpt>
      <trkpt lat="42.87975" lon="-0.29127">
        <ele>2340</ele>
        <time>2013-05-20T11:19:32Z</time>
      </trkpt>
      <trkpt lat="42.87975" lon="-0.29126">
        <ele>2340</ele>
        <time>2013-05-20T11:19:54Z</time>
      </trkpt>
      <trkpt lat="42.87976" lon="-0.29127">
        <ele>2340</ele>
        <time>2013-05-20T11:20:19Z</time>
      </trkpt>
      <trkpt lat="42.87975" lon="-0.29127">
        <ele>2340</ele>
        <time>2013-05-20T11:20:36Z</time>
      </trkpt>
      <trkpt lat="42.87975" lon="-0.2913">
        <ele>2341</ele>
        <time>2013-05-20T11:20:58Z</time>
      </trkpt>
      <trkpt lat="42.87975" lon="-0.29125">
        <ele>2341</ele>
        <time>2013-05-20T11:21:07Z</time>
      </trkpt>
      <trkpt lat="42.87976" lon="-0.29126">
        <ele>2340</ele>
        <time>2013-05-20T11:21:17Z</time>
      </trkpt>
      <trkpt lat="42.87976" lon="-0.29126">
        <ele>2340</ele>
        <time>2013-05-20T11:21:27Z</time>
      </trkpt>
      <trkpt lat="42.87976" lon="-0.29126">
        <ele>2340</ele>
        <time>2013-05-20T11:21:34Z</time>
      </trkpt>
      <trkpt lat="42.87977" lon="-0.29126">
        <ele>2339</ele>
        <time>2013-05-20T11:21:47Z</time>
      </trkpt>
      <trkpt lat="42.87977" lon="-0.29126">
        <ele>2339</ele>
        <time>2013-05-20T11:21:59Z</time>
      </trkpt>
      <trkpt lat="42.87978" lon="-0.29126">
        <ele>2341</ele>
        <time>2013-05-20T11:22:10Z</time>
      </trkpt>
      <trkpt lat="42.87977" lon="-0.29125">
        <ele>2339</ele>
        <time>2013-05-20T11:22:25Z</time>
      </trkpt>
      <trkpt lat="42.87977" lon="-0.29126">
        <ele>2339</ele>
        <time>2013-05-20T11:22:40Z</time>
      </trkpt>
      <trkpt lat="42.87977" lon="-0.29126">
        <ele>2339</ele>
        <time>2013-05-20T11:23:04Z</time>
      </trkpt>
      <trkpt lat="42.87976" lon="-0.29129">
        <ele>2339</ele>
        <time>2013-05-20T11:23:21Z</time>
      </trkpt>
      <trkpt lat="42.87976" lon="-0.29129">
        <ele>2339</ele>
        <time>2013-05-20T11:23:41Z</time>
      </trkpt>
      <trkpt lat="42.87977" lon="-0.29128">
        <ele>2340</ele>
        <time>2013-05-20T11:23:52Z</time>
      </trkpt>
      <trkpt lat="42.87977" lon="-0.29128">
        <ele>2340</ele>
        <time>2013-05-20T11:24:03Z</time>
      </trkpt>
      <trkpt lat="42.87976" lon="-0.29129">
        <ele>2341</ele>
        <time>2013-05-20T11:24:22Z</time>
      </trkpt>
      <trkpt lat="42.87976" lon="-0.29128">
        <ele>2340</ele>
        <time>2013-05-20T11:24:42Z</time>
      </trkpt>
      <trkpt lat="42.87975" lon="-0.29129">
        <ele>2340</ele>
        <time>2013-05-20T11:24:52Z</time>
      </trkpt>
      <trkpt lat="42.87976" lon="-0.29127">
        <ele>2339</ele>
        <time>2013-05-20T11:25:08Z</time>
      </trkpt>
      <trkpt lat="42.87977" lon="-0.29125">
        <ele>2340</ele>
        <time>2013-05-20T11:25:22Z</time>
      </trkpt>
      <trkpt lat="42.87977" lon="-0.29125">
        <ele>2340</ele>
        <time>2013-05-20T11:25:41Z</time>
      </trkpt>
      <trkpt lat="42.87976" lon="-0.29126">
        <ele>2341</ele>
        <time>2013-05-20T11:25:49Z</time>
      </trkpt>
      <trkpt lat="42.87976" lon="-0.29126">
        <ele>2341</ele>
        <time>2013-05-20T11:25:56Z</time>
      </trkpt>
      <trkpt lat="42.87976" lon="-0.29125">
        <ele>2341</ele>
        <time>2013-05-20T11:26:08Z</time>
      </trkpt>
      <trkpt lat="42.87977" lon="-0.29125">
        <ele>2342</ele>
        <time>2013-05-20T11:26:22Z</time>
      </trkpt>
      <trkpt lat="42.87978" lon="-0.29128">
        <ele>2342</ele>
        <time>2013-05-20T11:26:35Z</time>
      </trkpt>
      <trkpt lat="42.87978" lon="-0.29128">
        <ele>2342</ele>
        <time>2013-05-20T11:26:41Z</time>
      </trkpt>
      <trkpt lat="42.87981" lon="-0.29126">
        <ele>2341</ele>
        <time>2013-05-20T11:26:44Z</time>
      </trkpt>
      <trkpt lat="42.8798" lon="-0.29113">
        <ele>2339</ele>
        <time>2013-05-20T11:26:48Z</time>
      </trkpt>
      <trkpt lat="42.87977" lon="-0.2911">
        <ele>2338</ele>
        <time>2013-05-20T11:26:49Z</time>
      </trkpt>
      <trkpt lat="42.87968" lon="-0.29106">
        <ele>2336</ele>
        <time>2013-05-20T11:26:52Z</time>
      </trkpt>
      <trkpt lat="42.87969" lon="-0.29095">
        <ele>2332</ele>
        <time>2013-05-20T11:26:55Z</time>
      </trkpt>
      <trkpt lat="42.87972" lon="-0.29092">
        <ele>2331</ele>
        <time>2013-05-20T11:26:56Z</time>
      </trkpt>
      <trkpt lat="42.87974" lon="-0.2908">
        <ele>2327</ele>
        <time>2013-05-20T11:27:00Z</time>
      </trkpt>
      <trkpt lat="42.87971" lon="-0.29077">
        <ele>2326</ele>
        <time>2013-05-20T11:27:01Z</time>
      </trkpt>
      <trkpt lat="42.87973" lon="-0.29063">
        <ele>2322</ele>
        <time>2013-05-20T11:27:05Z</time>
      </trkpt>
      <trkpt lat="42.87974" lon="-0.29052">
        <ele>2320</ele>
        <time>2013-05-20T11:27:08Z</time>
      </trkpt>
      <trkpt lat="42.87977" lon="-0.29042">
        <ele>2317</ele>
        <time>2013-05-20T11:27:11Z</time>
      </trkpt>
      <trkpt lat="42.87988" lon="-0.29041">
        <ele>2315</ele>
        <time>2013-05-20T11:27:15Z</time>
      </trkpt>
      <trkpt lat="42.87988" lon="-0.29026">
        <ele>2312</ele>
        <time>2013-05-20T11:27:18Z</time>
      </trkpt>
      <trkpt lat="42.87995" lon="-0.29025">
        <ele>2310</ele>
        <time>2013-05-20T11:27:21Z</time>
      </trkpt>
      <trkpt lat="42.87999" lon="-0.29021">
        <ele>2307</ele>
        <time>2013-05-20T11:27:23Z</time>
      </trkpt>
      <trkpt lat="42.87996" lon="-0.29006">
        <ele>2304</ele>
        <time>2013-05-20T11:27:27Z</time>
      </trkpt>
      <trkpt lat="42.87995" lon="-0.29004">
        <ele>2304</ele>
        <time>2013-05-20T11:27:32Z</time>
      </trkpt>
      <trkpt lat="42.87995" lon="-0.29004">
        <ele>2304</ele>
        <time>2013-05-20T11:27:38Z</time>
      </trkpt>
      <trkpt lat="42.87995" lon="-0.29003">
        <ele>2304</ele>
        <time>2013-05-20T11:27:40Z</time>
      </trkpt>
      <trkpt lat="42.87995" lon="-0.2899">
        <ele>2302</ele>
        <time>2013-05-20T11:27:44Z</time>
      </trkpt>
      <trkpt lat="42.8799" lon="-0.2898">
        <ele>2300</ele>
        <time>2013-05-20T11:27:47Z</time>
      </trkpt>
      <trkpt lat="42.87988" lon="-0.28975">
        <ele>2299</ele>
        <time>2013-05-20T11:27:50Z</time>
      </trkpt>
      <trkpt lat="42.87992" lon="-0.28965">
        <ele>2296</ele>
        <time>2013-05-20T11:27:54Z</time>
      </trkpt>
      <trkpt lat="42.8799" lon="-0.28957">
        <ele>2292</ele>
        <time>2013-05-20T11:27:56Z</time>
      </trkpt>
      <trkpt lat="42.87988" lon="-0.28955">
        <ele>2291</ele>
        <time>2013-05-20T11:27:57Z</time>
      </trkpt>
      <trkpt lat="42.87974" lon="-0.28946">
        <ele>2290</ele>
        <time>2013-05-20T11:28:04Z</time>
      </trkpt>
      <trkpt lat="42.8797" lon="-0.28944">
        <ele>2289</ele>
        <time>2013-05-20T11:28:06Z</time>
      </trkpt>
      <trkpt lat="42.87971" lon="-0.28928">
        <ele>2284</ele>
        <time>2013-05-20T11:28:10Z</time>
      </trkpt>
      <trkpt lat="42.87972" lon="-0.28919">
        <ele>2280</ele>
        <time>2013-05-20T11:28:12Z</time>
      </trkpt>
      <trkpt lat="42.87974" lon="-0.2891">
        <ele>2277</ele>
        <time>2013-05-20T11:28:14Z</time>
      </trkpt>
      <trkpt lat="42.87977" lon="-0.28896">
        <ele>2272</ele>
        <time>2013-05-20T11:28:17Z</time>
      </trkpt>
      <trkpt lat="42.87979" lon="-0.28886">
        <ele>2268</ele>
        <time>2013-05-20T11:28:19Z</time>
      </trkpt>
      <trkpt lat="42.87978" lon="-0.28875">
        <ele>2264</ele>
        <time>2013-05-20T11:28:21Z</time>
      </trkpt>
      <trkpt lat="42.87973" lon="-0.28872">
        <ele>2263</ele>
        <time>2013-05-20T11:28:24Z</time>
      </trkpt>
      <trkpt lat="42.87973" lon="-0.28872">
        <ele>2263</ele>
        <time>2013-05-20T11:28:33Z</time>
      </trkpt>
      <trkpt lat="42.87973" lon="-0.28872">
        <ele>2262</ele>
        <time>2013-05-20T11:28:38Z</time>
      </trkpt>
      <trkpt lat="42.87972" lon="-0.28861">
        <ele>2260</ele>
        <time>2013-05-20T11:28:43Z</time>
      </trkpt>
      <trkpt lat="42.87982" lon="-0.28855">
        <ele>2256</ele>
        <time>2013-05-20T11:28:47Z</time>
      </trkpt>
      <trkpt lat="42.87983" lon="-0.28845">
        <ele>2254</ele>
        <time>2013-05-20T11:28:49Z</time>
      </trkpt>
      <trkpt lat="42.87992" lon="-0.2884">
        <ele>2251</ele>
        <time>2013-05-20T11:28:51Z</time>
      </trkpt>
      <trkpt lat="42.88007" lon="-0.2884">
        <ele>2247</ele>
        <time>2013-05-20T11:28:55Z</time>
      </trkpt>
      <trkpt lat="42.88008" lon="-0.2883">
        <ele>2244</ele>
        <time>2013-05-20T11:28:57Z</time>
      </trkpt>
      <trkpt lat="42.88008" lon="-0.2882">
        <ele>2241</ele>
        <time>2013-05-20T11:28:59Z</time>
      </trkpt>
      <trkpt lat="42.88015" lon="-0.28819">
        <ele>2237</ele>
        <time>2013-05-20T11:29:01Z</time>
      </trkpt>
      <trkpt lat="42.88016" lon="-0.28822">
        <ele>2236</ele>
        <time>2013-05-20T11:29:05Z</time>
      </trkpt>
      <trkpt lat="42.88016" lon="-0.28822">
        <ele>2236</ele>
        <time>2013-05-20T11:29:08Z</time>
      </trkpt>
      <trkpt lat="42.88019" lon="-0.28812">
        <ele>2233</ele>
        <time>2013-05-20T11:29:12Z</time>
      </trkpt>
      <trkpt lat="42.88015" lon="-0.28805">
        <ele>2233</ele>
        <time>2013-05-20T11:29:14Z</time>
      </trkpt>
      <trkpt lat="42.88002" lon="-0.28795">
        <ele>2229</ele>
        <time>2013-05-20T11:29:20Z</time>
      </trkpt>
      <trkpt lat="42.88002" lon="-0.28792">
        <ele>2229</ele>
        <time>2013-05-20T11:29:21Z</time>
      </trkpt>
      <trkpt lat="42.8801" lon="-0.28785">
        <ele>2226</ele>
        <time>2013-05-20T11:29:24Z</time>
      </trkpt>
      <trkpt lat="42.88014" lon="-0.28784">
        <ele>2225</ele>
        <time>2013-05-20T11:29:26Z</time>
      </trkpt>
      <trkpt lat="42.88016" lon="-0.28773">
        <ele>2221</ele>
        <time>2013-05-20T11:29:30Z</time>
      </trkpt>
      <trkpt lat="42.88012" lon="-0.2877">
        <ele>2219</ele>
        <time>2013-05-20T11:29:32Z</time>
      </trkpt>
      <trkpt lat="42.88009" lon="-0.28767">
        <ele>2218</ele>
        <time>2013-05-20T11:29:34Z</time>
      </trkpt>
      <trkpt lat="42.88016" lon="-0.28758">
        <ele>2216</ele>
        <time>2013-05-20T11:29:38Z</time>
      </trkpt>
      <trkpt lat="42.8802" lon="-0.28759">
        <ele>2214</ele>
        <time>2013-05-20T11:29:41Z</time>
      </trkpt>
      <trkpt lat="42.8802" lon="-0.2876">
        <ele>2214</ele>
        <time>2013-05-20T11:29:47Z</time>
      </trkpt>
      <trkpt lat="42.88021" lon="-0.28759">
        <ele>2214</ele>
        <time>2013-05-20T11:29:50Z</time>
      </trkpt>
      <trkpt lat="42.8803" lon="-0.28758">
        <ele>2212</ele>
        <time>2013-05-20T11:29:56Z</time>
      </trkpt>
      <trkpt lat="42.88031" lon="-0.2875">
        <ele>2210</ele>
        <time>2013-05-20T11:29:58Z</time>
      </trkpt>
      <trkpt lat="42.88029" lon="-0.28747">
        <ele>2208</ele>
        <time>2013-05-20T11:29:59Z</time>
      </trkpt>
      <trkpt lat="42.88029" lon="-0.28743">
        <ele>2207</ele>
        <time>2013-05-20T11:30:00Z</time>
      </trkpt>
      <trkpt lat="42.88031" lon="-0.2874">
        <ele>2207</ele>
        <time>2013-05-20T11:30:01Z</time>
      </trkpt>
      <trkpt lat="42.88038" lon="-0.28739">
        <ele>2203</ele>
        <time>2013-05-20T11:30:03Z</time>
      </trkpt>
      <trkpt lat="42.88047" lon="-0.28737">
        <ele>2201</ele>
        <time>2013-05-20T11:30:06Z</time>
      </trkpt>
      <trkpt lat="42.88048" lon="-0.28733">
        <ele>2200</ele>
        <time>2013-05-20T11:30:07Z</time>
      </trkpt>
      <trkpt lat="42.88047" lon="-0.28729">
        <ele>2198</ele>
        <time>2013-05-20T11:30:08Z</time>
      </trkpt>
      <trkpt lat="42.88046" lon="-0.28724">
        <ele>2197</ele>
        <time>2013-05-20T11:30:09Z</time>
      </trkpt>
      <trkpt lat="42.88048" lon="-0.2872">
        <ele>2196</ele>
        <time>2013-05-20T11:30:10Z</time>
      </trkpt>
      <trkpt lat="42.88057" lon="-0.28718">
        <ele>2192</ele>
        <time>2013-05-20T11:30:12Z</time>
      </trkpt>
      <trkpt lat="42.8806" lon="-0.28719">
        <ele>2190</ele>
        <time>2013-05-20T11:30:13Z</time>
      </trkpt>
      <trkpt lat="42.88063" lon="-0.28721">
        <ele>2190</ele>
        <time>2013-05-20T11:30:15Z</time>
      </trkpt>
      <trkpt lat="42.88063" lon="-0.28721">
        <ele>2189</ele>
        <time>2013-05-20T11:30:23Z</time>
      </trkpt>
      <trkpt lat="42.88063" lon="-0.28721">
        <ele>2190</ele>
        <time>2013-05-20T11:30:34Z</time>
      </trkpt>
      <trkpt lat="42.88063" lon="-0.28721">
        <ele>2190</ele>
        <time>2013-05-20T11:30:41Z</time>
      </trkpt>
      <trkpt lat="42.88066" lon="-0.28712">
        <ele>2188</ele>
        <time>2013-05-20T11:30:45Z</time>
      </trkpt>
      <trkpt lat="42.88064" lon="-0.28708">
        <ele>2186</ele>
        <time>2013-05-20T11:30:46Z</time>
      </trkpt>
      <trkpt lat="42.88054" lon="-0.28685">
        <ele>2182</ele>
        <time>2013-05-20T11:30:53Z</time>
      </trkpt>
      <trkpt lat="42.88044" lon="-0.28668">
        <ele>2179</ele>
        <time>2013-05-20T11:30:59Z</time>
      </trkpt>
      <trkpt lat="42.88037" lon="-0.2866">
        <ele>2178</ele>
        <time>2013-05-20T11:31:03Z</time>
      </trkpt>
      <trkpt lat="42.88038" lon="-0.28657">
        <ele>2177</ele>
        <time>2013-05-20T11:31:04Z</time>
      </trkpt>
      <trkpt lat="42.8804" lon="-0.28656">
        <ele>2174</ele>
        <time>2013-05-20T11:31:05Z</time>
      </trkpt>
      <trkpt lat="42.88045" lon="-0.28653">
        <ele>2171</ele>
        <time>2013-05-20T11:31:07Z</time>
      </trkpt>
      <trkpt lat="42.88045" lon="-0.2865">
        <ele>2171</ele>
        <time>2013-05-20T11:31:08Z</time>
      </trkpt>
      <trkpt lat="42.88043" lon="-0.28646">
        <ele>2168</ele>
        <time>2013-05-20T11:31:09Z</time>
      </trkpt>
      <trkpt lat="42.88042" lon="-0.28644">
        <ele>2167</ele>
        <time>2013-05-20T11:31:10Z</time>
      </trkpt>
      <trkpt lat="42.88041" lon="-0.28638">
        <ele>2165</ele>
        <time>2013-05-20T11:31:12Z</time>
      </trkpt>
      <trkpt lat="42.88044" lon="-0.28636">
        <ele>2164</ele>
        <time>2013-05-20T11:31:13Z</time>
      </trkpt>
      <trkpt lat="42.88052" lon="-0.28636">
        <ele>2160</ele>
        <time>2013-05-20T11:31:15Z</time>
      </trkpt>
      <trkpt lat="42.88066" lon="-0.28634">
        <ele>2156</ele>
        <time>2013-05-20T11:31:20Z</time>
      </trkpt>
      <trkpt lat="42.88077" lon="-0.28632">
        <ele>2153</ele>
        <time>2013-05-20T11:31:23Z</time>
      </trkpt>
      <trkpt lat="42.88083" lon="-0.2863">
        <ele>2151</ele>
        <time>2013-05-20T11:31:26Z</time>
      </trkpt>
      <trkpt lat="42.88084" lon="-0.28632">
        <ele>2151</ele>
        <time>2013-05-20T11:31:32Z</time>
      </trkpt>
      <trkpt lat="42.88083" lon="-0.28633">
        <ele>2152</ele>
        <time>2013-05-20T11:31:40Z</time>
      </trkpt>
      <trkpt lat="42.88084" lon="-0.28633">
        <ele>2152</ele>
        <time>2013-05-20T11:31:43Z</time>
      </trkpt>
      <trkpt lat="42.88089" lon="-0.28621">
        <ele>2149</ele>
        <time>2013-05-20T11:31:48Z</time>
      </trkpt>
      <trkpt lat="42.88084" lon="-0.28616">
        <ele>2145</ele>
        <time>2013-05-20T11:31:51Z</time>
      </trkpt>
      <trkpt lat="42.88083" lon="-0.28616">
        <ele>2146</ele>
        <time>2013-05-20T11:31:52Z</time>
      </trkpt>
      <trkpt lat="42.88083" lon="-0.28615">
        <ele>2145</ele>
        <time>2013-05-20T11:32:01Z</time>
      </trkpt>
      <trkpt lat="42.88082" lon="-0.28612">
        <ele>2145</ele>
        <time>2013-05-20T11:32:08Z</time>
      </trkpt>
      <trkpt lat="42.88074" lon="-0.28598">
        <ele>2143</ele>
        <time>2013-05-20T11:32:15Z</time>
      </trkpt>
      <trkpt lat="42.88071" lon="-0.28593">
        <ele>2142</ele>
        <time>2013-05-20T11:32:17Z</time>
      </trkpt>
      <trkpt lat="42.88071" lon="-0.28589">
        <ele>2141</ele>
        <time>2013-05-20T11:32:18Z</time>
      </trkpt>
      <trkpt lat="42.88073" lon="-0.28586">
        <ele>2140</ele>
        <time>2013-05-20T11:32:19Z</time>
      </trkpt>
      <trkpt lat="42.88075" lon="-0.28585">
        <ele>2139</ele>
        <time>2013-05-20T11:32:20Z</time>
      </trkpt>
      <trkpt lat="42.88078" lon="-0.28584">
        <ele>2139</ele>
        <time>2013-05-20T11:32:21Z</time>
      </trkpt>
      <trkpt lat="42.88086" lon="-0.2858">
        <ele>2136</ele>
        <time>2013-05-20T11:32:24Z</time>
      </trkpt>
      <trkpt lat="42.88086" lon="-0.28577">
        <ele>2134</ele>
        <time>2013-05-20T11:32:25Z</time>
      </trkpt>
      <trkpt lat="42.88077" lon="-0.28563">
        <ele>2131</ele>
        <time>2013-05-20T11:32:30Z</time>
      </trkpt>
      <trkpt lat="42.88076" lon="-0.28559">
        <ele>2130</ele>
        <time>2013-05-20T11:32:31Z</time>
      </trkpt>
      <trkpt lat="42.88078" lon="-0.28555">
        <ele>2129</ele>
        <time>2013-05-20T11:32:32Z</time>
      </trkpt>
      <trkpt lat="42.88082" lon="-0.28553">
        <ele>2128</ele>
        <time>2013-05-20T11:32:33Z</time>
      </trkpt>
      <trkpt lat="42.8809" lon="-0.28553">
        <ele>2125</ele>
        <time>2013-05-20T11:32:35Z</time>
      </trkpt>
      <trkpt lat="42.88101" lon="-0.28553">
        <ele>2121</ele>
        <time>2013-05-20T11:32:38Z</time>
      </trkpt>
      <trkpt lat="42.88105" lon="-0.28554">
        <ele>2120</ele>
        <time>2013-05-20T11:32:40Z</time>
      </trkpt>
      <trkpt lat="42.88114" lon="-0.28554">
        <ele>2118</ele>
        <time>2013-05-20T11:32:44Z</time>
      </trkpt>
      <trkpt lat="42.88114" lon="-0.28543">
        <ele>2115</ele>
        <time>2013-05-20T11:32:48Z</time>
      </trkpt>
      <trkpt lat="42.88109" lon="-0.28535">
        <ele>2114</ele>
        <time>2013-05-20T11:32:51Z</time>
      </trkpt>
      <trkpt lat="42.88101" lon="-0.28523">
        <ele>2110</ele>
        <time>2013-05-20T11:32:55Z</time>
      </trkpt>
      <trkpt lat="42.88097" lon="-0.28519">
        <ele>2108</ele>
        <time>2013-05-20T11:32:58Z</time>
      </trkpt>
      <trkpt lat="42.88096" lon="-0.28519">
        <ele>2108</ele>
        <time>2013-05-20T11:33:08Z</time>
      </trkpt>
      <trkpt lat="42.88096" lon="-0.28513">
        <ele>2107</ele>
        <time>2013-05-20T11:33:11Z</time>
      </trkpt>
      <trkpt lat="42.88099" lon="-0.28511">
        <ele>2105</ele>
        <time>2013-05-20T11:33:12Z</time>
      </trkpt>
      <trkpt lat="42.88107" lon="-0.28511">
        <ele>2102</ele>
        <time>2013-05-20T11:33:14Z</time>
      </trkpt>
      <trkpt lat="42.8811" lon="-0.28511">
        <ele>2101</ele>
        <time>2013-05-20T11:33:15Z</time>
      </trkpt>
      <trkpt lat="42.88112" lon="-0.2851">
        <ele>2100</ele>
        <time>2013-05-20T11:33:16Z</time>
      </trkpt>
      <trkpt lat="42.88112" lon="-0.28506">
        <ele>2100</ele>
        <time>2013-05-20T11:33:17Z</time>
      </trkpt>
      <trkpt lat="42.8811" lon="-0.28503">
        <ele>2097</ele>
        <time>2013-05-20T11:33:18Z</time>
      </trkpt>
      <trkpt lat="42.88104" lon="-0.28495">
        <ele>2093</ele>
        <time>2013-05-20T11:33:22Z</time>
      </trkpt>
      <trkpt lat="42.88105" lon="-0.28491">
        <ele>2092</ele>
        <time>2013-05-20T11:33:23Z</time>
      </trkpt>
      <trkpt lat="42.88108" lon="-0.28488">
        <ele>2091</ele>
        <time>2013-05-20T11:33:24Z</time>
      </trkpt>
      <trkpt lat="42.88112" lon="-0.28486">
        <ele>2088</ele>
        <time>2013-05-20T11:33:25Z</time>
      </trkpt>
      <trkpt lat="42.8812" lon="-0.28481">
        <ele>2084</ele>
        <time>2013-05-20T11:33:27Z</time>
      </trkpt>
      <trkpt lat="42.88128" lon="-0.28473">
        <ele>2081</ele>
        <time>2013-05-20T11:33:30Z</time>
      </trkpt>
      <trkpt lat="42.88134" lon="-0.28464">
        <ele>2078</ele>
        <time>2013-05-20T11:33:35Z</time>
      </trkpt>
      <trkpt lat="42.88136" lon="-0.28461">
        <ele>2078</ele>
        <time>2013-05-20T11:33:41Z</time>
      </trkpt>
      <trkpt lat="42.88137" lon="-0.28463">
        <ele>2078</ele>
        <time>2013-05-20T11:33:58Z</time>
      </trkpt>
      <trkpt lat="42.88139" lon="-0.28458">
        <ele>2077</ele>
        <time>2013-05-20T11:34:05Z</time>
      </trkpt>
      <trkpt lat="42.88134" lon="-0.28448">
        <ele>2074</ele>
        <time>2013-05-20T11:34:09Z</time>
      </trkpt>
      <trkpt lat="42.88132" lon="-0.28439">
        <ele>2071</ele>
        <time>2013-05-20T11:34:12Z</time>
      </trkpt>
      <trkpt lat="42.88135" lon="-0.28436">
        <ele>2069</ele>
        <time>2013-05-20T11:34:13Z</time>
      </trkpt>
      <trkpt lat="42.88134" lon="-0.28421">
        <ele>2064</ele>
        <time>2013-05-20T11:34:18Z</time>
      </trkpt>
      <trkpt lat="42.88124" lon="-0.28412">
        <ele>2060</ele>
        <time>2013-05-20T11:34:22Z</time>
      </trkpt>
      <trkpt lat="42.88123" lon="-0.28402">
        <ele>2058</ele>
        <time>2013-05-20T11:34:24Z</time>
      </trkpt>
      <trkpt lat="42.88125" lon="-0.28398">
        <ele>2057</ele>
        <time>2013-05-20T11:34:25Z</time>
      </trkpt>
      <trkpt lat="42.88129" lon="-0.28395">
        <ele>2054</ele>
        <time>2013-05-20T11:34:26Z</time>
      </trkpt>
      <trkpt lat="42.88133" lon="-0.28393">
        <ele>2053</ele>
        <time>2013-05-20T11:34:27Z</time>
      </trkpt>
      <trkpt lat="42.88136" lon="-0.28391">
        <ele>2051</ele>
        <time>2013-05-20T11:34:28Z</time>
      </trkpt>
      <trkpt lat="42.88138" lon="-0.2839">
        <ele>2052</ele>
        <time>2013-05-20T11:34:29Z</time>
      </trkpt>
      <trkpt lat="42.88139" lon="-0.28386">
        <ele>2051</ele>
        <time>2013-05-20T11:34:30Z</time>
      </trkpt>
      <trkpt lat="42.88137" lon="-0.28382">
        <ele>2049</ele>
        <time>2013-05-20T11:34:31Z</time>
      </trkpt>
      <trkpt lat="42.88135" lon="-0.28379">
        <ele>2048</ele>
        <time>2013-05-20T11:34:32Z</time>
      </trkpt>
      <trkpt lat="42.88132" lon="-0.28377">
        <ele>2047</ele>
        <time>2013-05-20T11:34:33Z</time>
      </trkpt>
      <trkpt lat="42.88129" lon="-0.28375">
        <ele>2047</ele>
        <time>2013-05-20T11:34:34Z</time>
      </trkpt>
      <trkpt lat="42.88114" lon="-0.28366">
        <ele>2043</ele>
        <time>2013-05-20T11:34:40Z</time>
      </trkpt>
      <trkpt lat="42.88099" lon="-0.28358">
        <ele>2041</ele>
        <time>2013-05-20T11:34:46Z</time>
      </trkpt>
      <trkpt lat="42.88095" lon="-0.28354">
        <ele>2040</ele>
        <time>2013-05-20T11:34:48Z</time>
      </trkpt>
      <trkpt lat="42.88092" lon="-0.28355">
        <ele>2040</ele>
        <time>2013-05-20T11:34:54Z</time>
      </trkpt>
      <trkpt lat="42.88091" lon="-0.28353">
        <ele>2040</ele>
        <time>2013-05-20T11:35:01Z</time>
      </trkpt>
      <trkpt lat="42.8809" lon="-0.28352">
        <ele>2040</ele>
        <time>2013-05-20T11:35:10Z</time>
      </trkpt>
      <trkpt lat="42.8809" lon="-0.28348">
        <ele>2039</ele>
        <time>2013-05-20T11:35:17Z</time>
      </trkpt>
      <trkpt lat="42.8809" lon="-0.28346">
        <ele>2039</ele>
        <time>2013-05-20T11:35:18Z</time>
      </trkpt>
      <trkpt lat="42.88091" lon="-0.28333">
        <ele>2038</ele>
        <time>2013-05-20T11:35:24Z</time>
      </trkpt>
      <trkpt lat="42.88091" lon="-0.28318">
        <ele>2035</ele>
        <time>2013-05-20T11:35:29Z</time>
      </trkpt>
      <trkpt lat="42.88091" lon="-0.28315">
        <ele>2035</ele>
        <time>2013-05-20T11:35:34Z</time>
      </trkpt>
      <trkpt lat="42.88091" lon="-0.28311">
        <ele>2036</ele>
        <time>2013-05-20T11:35:39Z</time>
      </trkpt>
      <trkpt lat="42.88092" lon="-0.2831">
        <ele>2035</ele>
        <time>2013-05-20T11:35:41Z</time>
      </trkpt>
      <trkpt lat="42.88095" lon="-0.28305">
        <ele>2035</ele>
        <time>2013-05-20T11:35:47Z</time>
      </trkpt>
      <trkpt lat="42.88096" lon="-0.28301">
        <ele>2036</ele>
        <time>2013-05-20T11:35:53Z</time>
      </trkpt>
      <trkpt lat="42.88097" lon="-0.28298">
        <ele>2036</ele>
        <time>2013-05-20T11:35:57Z</time>
      </trkpt>
      <trkpt lat="42.88099" lon="-0.28295">
        <ele>2035</ele>
        <time>2013-05-20T11:36:02Z</time>
      </trkpt>
      <trkpt lat="42.88101" lon="-0.28292">
        <ele>2035</ele>
        <time>2013-05-20T11:36:08Z</time>
      </trkpt>
      <trkpt lat="42.88104" lon="-0.28289">
        <ele>2035</ele>
        <time>2013-05-20T11:36:15Z</time>
      </trkpt>
      <trkpt lat="42.88104" lon="-0.28288">
        <ele>2036</ele>
        <time>2013-05-20T11:36:16Z</time>
      </trkpt>
      <trkpt lat="42.88107" lon="-0.28283">
        <ele>2035</ele>
        <time>2013-05-20T11:36:21Z</time>
      </trkpt>
      <trkpt lat="42.88107" lon="-0.2828">
        <ele>2035</ele>
        <time>2013-05-20T11:36:26Z</time>
      </trkpt>
      <trkpt lat="42.88109" lon="-0.28276">
        <ele>2035</ele>
        <time>2013-05-20T11:36:29Z</time>
      </trkpt>
      <trkpt lat="42.88109" lon="-0.28273">
        <ele>2035</ele>
        <time>2013-05-20T11:36:31Z</time>
      </trkpt>
      <trkpt lat="42.88111" lon="-0.28269">
        <ele>2033</ele>
        <time>2013-05-20T11:36:33Z</time>
      </trkpt>
      <trkpt lat="42.88121" lon="-0.28267">
        <ele>2031</ele>
        <time>2013-05-20T11:36:39Z</time>
      </trkpt>
      <trkpt lat="42.88123" lon="-0.28267">
        <ele>2030</ele>
        <time>2013-05-20T11:36:40Z</time>
      </trkpt>
      <trkpt lat="42.88125" lon="-0.28266">
        <ele>2029</ele>
        <time>2013-05-20T11:36:41Z</time>
      </trkpt>
      <trkpt lat="42.88126" lon="-0.28262">
        <ele>2028</ele>
        <time>2013-05-20T11:36:42Z</time>
      </trkpt>
      <trkpt lat="42.88125" lon="-0.2826">
        <ele>2028</ele>
        <time>2013-05-20T11:36:43Z</time>
      </trkpt>
      <trkpt lat="42.88124" lon="-0.28257">
        <ele>2027</ele>
        <time>2013-05-20T11:36:48Z</time>
      </trkpt>
      <trkpt lat="42.8813" lon="-0.28251">
        <ele>2026</ele>
        <time>2013-05-20T11:36:52Z</time>
      </trkpt>
      <trkpt lat="42.88141" lon="-0.28249">
        <ele>2022</ele>
        <time>2013-05-20T11:36:56Z</time>
      </trkpt>
      <trkpt lat="42.88142" lon="-0.28246">
        <ele>2021</ele>
        <time>2013-05-20T11:36:57Z</time>
      </trkpt>
      <trkpt lat="42.88141" lon="-0.28241">
        <ele>2019</ele>
        <time>2013-05-20T11:36:58Z</time>
      </trkpt>
      <trkpt lat="42.88139" lon="-0.28237">
        <ele>2018</ele>
        <time>2013-05-20T11:36:59Z</time>
      </trkpt>
      <trkpt lat="42.88137" lon="-0.28235">
        <ele>2017</ele>
        <time>2013-05-20T11:37:00Z</time>
      </trkpt>
      <trkpt lat="42.88136" lon="-0.28234">
        <ele>2016</ele>
        <time>2013-05-20T11:37:01Z</time>
      </trkpt>
      <trkpt lat="42.88134" lon="-0.28233">
        <ele>2016</ele>
        <time>2013-05-20T11:37:02Z</time>
      </trkpt>
      <trkpt lat="42.88132" lon="-0.28231">
        <ele>2015</ele>
        <time>2013-05-20T11:37:03Z</time>
      </trkpt>
      <trkpt lat="42.8813" lon="-0.28228">
        <ele>2015</ele>
        <time>2013-05-20T11:37:05Z</time>
      </trkpt>
      <trkpt lat="42.88131" lon="-0.28225">
        <ele>2014</ele>
        <time>2013-05-20T11:37:06Z</time>
      </trkpt>
      <trkpt lat="42.8814" lon="-0.2822">
        <ele>2010</ele>
        <time>2013-05-20T11:37:09Z</time>
      </trkpt>
      <trkpt lat="42.88145" lon="-0.28218">
        <ele>2009</ele>
        <time>2013-05-20T11:37:11Z</time>
      </trkpt>
      <trkpt lat="42.88145" lon="-0.2821">
        <ele>2006</ele>
        <time>2013-05-20T11:37:14Z</time>
      </trkpt>
      <trkpt lat="42.88143" lon="-0.28208">
        <ele>2005</ele>
        <time>2013-05-20T11:37:15Z</time>
      </trkpt>
      <trkpt lat="42.88139" lon="-0.28206">
        <ele>2004</ele>
        <time>2013-05-20T11:37:17Z</time>
      </trkpt>
      <trkpt lat="42.88134" lon="-0.28202">
        <ele>2003</ele>
        <time>2013-05-20T11:37:20Z</time>
      </trkpt>
      <trkpt lat="42.88139" lon="-0.28191">
        <ele>1999</ele>
        <time>2013-05-20T11:37:23Z</time>
      </trkpt>
      <trkpt lat="42.88142" lon="-0.28188">
        <ele>1997</ele>
        <time>2013-05-20T11:37:24Z</time>
      </trkpt>
      <trkpt lat="42.88154" lon="-0.28178">
        <ele>1994</ele>
        <time>2013-05-20T11:37:30Z</time>
      </trkpt>
      <trkpt lat="42.88156" lon="-0.28169">
        <ele>1990</ele>
        <time>2013-05-20T11:37:33Z</time>
      </trkpt>
      <trkpt lat="42.8815" lon="-0.28166">
        <ele>1988</ele>
        <time>2013-05-20T11:37:37Z</time>
      </trkpt>
      <trkpt lat="42.88151" lon="-0.28166">
        <ele>1988</ele>
        <time>2013-05-20T11:37:46Z</time>
      </trkpt>
      <trkpt lat="42.88151" lon="-0.28164">
        <ele>1988</ele>
        <time>2013-05-20T11:37:53Z</time>
      </trkpt>
      <trkpt lat="42.8815" lon="-0.28163">
        <ele>1988</ele>
        <time>2013-05-20T11:37:55Z</time>
      </trkpt>
      <trkpt lat="42.88149" lon="-0.28159">
        <ele>1987</ele>
        <time>2013-05-20T11:37:57Z</time>
      </trkpt>
      <trkpt lat="42.88149" lon="-0.28157">
        <ele>1987</ele>
        <time>2013-05-20T11:37:58Z</time>
      </trkpt>
      <trkpt lat="42.88151" lon="-0.28155">
        <ele>1986</ele>
        <time>2013-05-20T11:37:59Z</time>
      </trkpt>
      <trkpt lat="42.88153" lon="-0.28154">
        <ele>1984</ele>
        <time>2013-05-20T11:38:00Z</time>
      </trkpt>
      <trkpt lat="42.88154" lon="-0.2815">
        <ele>1983</ele>
        <time>2013-05-20T11:38:01Z</time>
      </trkpt>
      <trkpt lat="42.88153" lon="-0.28147">
        <ele>1981</ele>
        <time>2013-05-20T11:38:02Z</time>
      </trkpt>
      <trkpt lat="42.88151" lon="-0.28146">
        <ele>1981</ele>
        <time>2013-05-20T11:38:03Z</time>
      </trkpt>
      <trkpt lat="42.88149" lon="-0.28143">
        <ele>1980</ele>
        <time>2013-05-20T11:38:04Z</time>
      </trkpt>
      <trkpt lat="42.88147" lon="-0.28141">
        <ele>1979</ele>
        <time>2013-05-20T11:38:05Z</time>
      </trkpt>
      <trkpt lat="42.88146" lon="-0.28138">
        <ele>1979</ele>
        <time>2013-05-20T11:38:06Z</time>
      </trkpt>
      <trkpt lat="42.8815" lon="-0.28132">
        <ele>1978</ele>
        <time>2013-05-20T11:38:08Z</time>
      </trkpt>
      <trkpt lat="42.88153" lon="-0.28132">
        <ele>1976</ele>
        <time>2013-05-20T11:38:09Z</time>
      </trkpt>
      <trkpt lat="42.88157" lon="-0.28132">
        <ele>1974</ele>
        <time>2013-05-20T11:38:10Z</time>
      </trkpt>
      <trkpt lat="42.8816" lon="-0.28132">
        <ele>1972</ele>
        <time>2013-05-20T11:38:11Z</time>
      </trkpt>
      <trkpt lat="42.88163" lon="-0.28131">
        <ele>1971</ele>
        <time>2013-05-20T11:38:12Z</time>
      </trkpt>
      <trkpt lat="42.88163" lon="-0.28127">
        <ele>1970</ele>
        <time>2013-05-20T11:38:13Z</time>
      </trkpt>
      <trkpt lat="42.88162" lon="-0.28124">
        <ele>1967</ele>
        <time>2013-05-20T11:38:14Z</time>
      </trkpt>
      <trkpt lat="42.8816" lon="-0.28122">
        <ele>1966</ele>
        <time>2013-05-20T11:38:15Z</time>
      </trkpt>
      <trkpt lat="42.88159" lon="-0.28121">
        <ele>1966</ele>
        <time>2013-05-20T11:38:16Z</time>
      </trkpt>
      <trkpt lat="42.88158" lon="-0.28119">
        <ele>1966</ele>
        <time>2013-05-20T11:38:17Z</time>
      </trkpt>
      <trkpt lat="42.88156" lon="-0.28117">
        <ele>1965</ele>
        <time>2013-05-20T11:38:18Z</time>
      </trkpt>
      <trkpt lat="42.88155" lon="-0.28114">
        <ele>1964</ele>
        <time>2013-05-20T11:38:19Z</time>
      </trkpt>
      <trkpt lat="42.88157" lon="-0.28106">
        <ele>1963</ele>
        <time>2013-05-20T11:38:22Z</time>
      </trkpt>
      <trkpt lat="42.88161" lon="-0.28105">
        <ele>1961</ele>
        <time>2013-05-20T11:38:23Z</time>
      </trkpt>
      <trkpt lat="42.88173" lon="-0.28103">
        <ele>1957</ele>
        <time>2013-05-20T11:38:26Z</time>
      </trkpt>
      <trkpt lat="42.8818" lon="-0.28099">
        <ele>1955</ele>
        <time>2013-05-20T11:38:28Z</time>
      </trkpt>
      <trkpt lat="42.8818" lon="-0.28095">
        <ele>1954</ele>
        <time>2013-05-20T11:38:29Z</time>
      </trkpt>
      <trkpt lat="42.88179" lon="-0.28091">
        <ele>1953</ele>
        <time>2013-05-20T11:38:30Z</time>
      </trkpt>
      <trkpt lat="42.88173" lon="-0.2808">
        <ele>1950</ele>
        <time>2013-05-20T11:38:34Z</time>
      </trkpt>
      <trkpt lat="42.88175" lon="-0.28077">
        <ele>1949</ele>
        <time>2013-05-20T11:38:35Z</time>
      </trkpt>
      <trkpt lat="42.88179" lon="-0.28075">
        <ele>1947</ele>
        <time>2013-05-20T11:38:36Z</time>
      </trkpt>
      <trkpt lat="42.88191" lon="-0.28067">
        <ele>1943</ele>
        <time>2013-05-20T11:38:40Z</time>
      </trkpt>
      <trkpt lat="42.88206" lon="-0.28062">
        <ele>1940</ele>
        <time>2013-05-20T11:38:44Z</time>
      </trkpt>
      <trkpt lat="42.88217" lon="-0.28059">
        <ele>1936</ele>
        <time>2013-05-20T11:38:47Z</time>
      </trkpt>
      <trkpt lat="42.88226" lon="-0.28059">
        <ele>1933</ele>
        <time>2013-05-20T11:38:51Z</time>
      </trkpt>
      <trkpt lat="42.88225" lon="-0.2806">
        <ele>1932</ele>
        <time>2013-05-20T11:39:00Z</time>
      </trkpt>
      <trkpt lat="42.88224" lon="-0.28059">
        <ele>1932</ele>
        <time>2013-05-20T11:39:09Z</time>
      </trkpt>
      <trkpt lat="42.88225" lon="-0.28057">
        <ele>1932</ele>
        <time>2013-05-20T11:39:21Z</time>
      </trkpt>
      <trkpt lat="42.88225" lon="-0.28058">
        <ele>1932</ele>
        <time>2013-05-20T11:39:31Z</time>
      </trkpt>
      <trkpt lat="42.88226" lon="-0.28058">
        <ele>1932</ele>
        <time>2013-05-20T11:39:42Z</time>
      </trkpt>
      <trkpt lat="42.88227" lon="-0.28056">
        <ele>1932</ele>
        <time>2013-05-20T11:39:55Z</time>
      </trkpt>
      <trkpt lat="42.88226" lon="-0.28059">
        <ele>1933</ele>
        <time>2013-05-20T11:40:05Z</time>
      </trkpt>
      <trkpt lat="42.88231" lon="-0.28063">
        <ele>1931</ele>
        <time>2013-05-20T11:40:09Z</time>
      </trkpt>
      <trkpt lat="42.88235" lon="-0.28066">
        <ele>1929</ele>
        <time>2013-05-20T11:40:12Z</time>
      </trkpt>
      <trkpt lat="42.88236" lon="-0.28065">
        <ele>1928</ele>
        <time>2013-05-20T11:40:14Z</time>
      </trkpt>
      <trkpt lat="42.88236" lon="-0.28063">
        <ele>1928</ele>
        <time>2013-05-20T11:40:16Z</time>
      </trkpt>
      <trkpt lat="42.88236" lon="-0.28062">
        <ele>1927</ele>
        <time>2013-05-20T11:40:17Z</time>
      </trkpt>
      <trkpt lat="42.88237" lon="-0.2806">
        <ele>1927</ele>
        <time>2013-05-20T11:40:18Z</time>
      </trkpt>
      <trkpt lat="42.88237" lon="-0.28057">
        <ele>1926</ele>
        <time>2013-05-20T11:40:19Z</time>
      </trkpt>
      <trkpt lat="42.88238" lon="-0.28056">
        <ele>1926</ele>
        <time>2013-05-20T11:40:20Z</time>
      </trkpt>
      <trkpt lat="42.8824" lon="-0.28057">
        <ele>1925</ele>
        <time>2013-05-20T11:40:21Z</time>
      </trkpt>
      <trkpt lat="42.88242" lon="-0.28058">
        <ele>1923</ele>
        <time>2013-05-20T11:40:22Z</time>
      </trkpt>
      <trkpt lat="42.88245" lon="-0.28055">
        <ele>1920</ele>
        <time>2013-05-20T11:40:24Z</time>
      </trkpt>
      <trkpt lat="42.88245" lon="-0.2805">
        <ele>1919</ele>
        <time>2013-05-20T11:40:26Z</time>
      </trkpt>
      <trkpt lat="42.88246" lon="-0.28047">
        <ele>1918</ele>
        <time>2013-05-20T11:40:27Z</time>
      </trkpt>
      <trkpt lat="42.88249" lon="-0.28046">
        <ele>1917</ele>
        <time>2013-05-20T11:40:28Z</time>
      </trkpt>
      <trkpt lat="42.88251" lon="-0.28048">
        <ele>1915</ele>
        <time>2013-05-20T11:40:29Z</time>
      </trkpt>
      <trkpt lat="42.88252" lon="-0.2805">
        <ele>1914</ele>
        <time>2013-05-20T11:40:30Z</time>
      </trkpt>
      <trkpt lat="42.88254" lon="-0.28051">
        <ele>1913</ele>
        <time>2013-05-20T11:40:31Z</time>
      </trkpt>
      <trkpt lat="42.88255" lon="-0.28053">
        <ele>1912</ele>
        <time>2013-05-20T11:40:35Z</time>
      </trkpt>
      <trkpt lat="42.88255" lon="-0.28053">
        <ele>1912</ele>
        <time>2013-05-20T11:40:41Z</time>
      </trkpt>
      <trkpt lat="42.88256" lon="-0.2805">
        <ele>1911</ele>
        <time>2013-05-20T11:40:50Z</time>
      </trkpt>
      <trkpt lat="42.88256" lon="-0.28048">
        <ele>1911</ele>
        <time>2013-05-20T11:40:51Z</time>
      </trkpt>
      <trkpt lat="42.88256" lon="-0.28046">
        <ele>1910</ele>
        <time>2013-05-20T11:40:52Z</time>
      </trkpt>
      <trkpt lat="42.88255" lon="-0.28039">
        <ele>1909</ele>
        <time>2013-05-20T11:40:55Z</time>
      </trkpt>
      <trkpt lat="42.88257" lon="-0.28038">
        <ele>1908</ele>
        <time>2013-05-20T11:40:56Z</time>
      </trkpt>
      <trkpt lat="42.8826" lon="-0.28038">
        <ele>1908</ele>
        <time>2013-05-20T11:40:57Z</time>
      </trkpt>
      <trkpt lat="42.88266" lon="-0.28041">
        <ele>1904</ele>
        <time>2013-05-20T11:40:59Z</time>
      </trkpt>
      <trkpt lat="42.88268" lon="-0.28039">
        <ele>1902</ele>
        <time>2013-05-20T11:41:00Z</time>
      </trkpt>
      <trkpt lat="42.88268" lon="-0.28036">
        <ele>1901</ele>
        <time>2013-05-20T11:41:01Z</time>
      </trkpt>
      <trkpt lat="42.88268" lon="-0.28033">
        <ele>1901</ele>
        <time>2013-05-20T11:41:02Z</time>
      </trkpt>
      <trkpt lat="42.88268" lon="-0.28031">
        <ele>1899</ele>
        <time>2013-05-20T11:41:03Z</time>
      </trkpt>
      <trkpt lat="42.88268" lon="-0.2803">
        <ele>1899</ele>
        <time>2013-05-20T11:41:04Z</time>
      </trkpt>
      <trkpt lat="42.88267" lon="-0.28028">
        <ele>1900</ele>
        <time>2013-05-20T11:41:05Z</time>
      </trkpt>
      <trkpt lat="42.88267" lon="-0.28026">
        <ele>1899</ele>
        <time>2013-05-20T11:41:06Z</time>
      </trkpt>
      <trkpt lat="42.88262" lon="-0.2801">
        <ele>1895</ele>
        <time>2013-05-20T11:41:11Z</time>
      </trkpt>
      <trkpt lat="42.88258" lon="-0.28002">
        <ele>1892</ele>
        <time>2013-05-20T11:41:14Z</time>
      </trkpt>
      <trkpt lat="42.88259" lon="-0.27999">
        <ele>1892</ele>
        <time>2013-05-20T11:41:15Z</time>
      </trkpt>
      <trkpt lat="42.88262" lon="-0.27997">
        <ele>1891</ele>
        <time>2013-05-20T11:41:16Z</time>
      </trkpt>
      <trkpt lat="42.88265" lon="-0.27997">
        <ele>1889</ele>
        <time>2013-05-20T11:41:17Z</time>
      </trkpt>
      <trkpt lat="42.88268" lon="-0.27998">
        <ele>1888</ele>
        <time>2013-05-20T11:41:18Z</time>
      </trkpt>
      <trkpt lat="42.88272" lon="-0.27995">
        <ele>1886</ele>
        <time>2013-05-20T11:41:20Z</time>
      </trkpt>
      <trkpt lat="42.8827" lon="-0.27987">
        <ele>1884</ele>
        <time>2013-05-20T11:41:22Z</time>
      </trkpt>
      <trkpt lat="42.88269" lon="-0.27984">
        <ele>1883</ele>
        <time>2013-05-20T11:41:23Z</time>
      </trkpt>
      <trkpt lat="42.88269" lon="-0.27982">
        <ele>1882</ele>
        <time>2013-05-20T11:41:24Z</time>
      </trkpt>
      <trkpt lat="42.88273" lon="-0.2798">
        <ele>1881</ele>
        <time>2013-05-20T11:41:25Z</time>
      </trkpt>
      <trkpt lat="42.88276" lon="-0.2798">
        <ele>1880</ele>
        <time>2013-05-20T11:41:26Z</time>
      </trkpt>
      <trkpt lat="42.88279" lon="-0.2797">
        <ele>1875</ele>
        <time>2013-05-20T11:41:31Z</time>
      </trkpt>
      <trkpt lat="42.88285" lon="-0.27969">
        <ele>1873</ele>
        <time>2013-05-20T11:41:34Z</time>
      </trkpt>
      <trkpt lat="42.88289" lon="-0.27968">
        <ele>1872</ele>
        <time>2013-05-20T11:41:36Z</time>
      </trkpt>
      <trkpt lat="42.88286" lon="-0.27959">
        <ele>1868</ele>
        <time>2013-05-20T11:41:40Z</time>
      </trkpt>
      <trkpt lat="42.88283" lon="-0.27958">
        <ele>1868</ele>
        <time>2013-05-20T11:41:46Z</time>
      </trkpt>
      <trkpt lat="42.88282" lon="-0.27958">
        <ele>1867</ele>
        <time>2013-05-20T11:41:57Z</time>
      </trkpt>
      <trkpt lat="42.88287" lon="-0.27953">
        <ele>1866</ele>
        <time>2013-05-20T11:42:01Z</time>
      </trkpt>
      <trkpt lat="42.88289" lon="-0.27953">
        <ele>1865</ele>
        <time>2013-05-20T11:42:02Z</time>
      </trkpt>
      <trkpt lat="42.88287" lon="-0.27942">
        <ele>1861</ele>
        <time>2013-05-20T11:42:06Z</time>
      </trkpt>
      <trkpt lat="42.88281" lon="-0.27934">
        <ele>1859</ele>
        <time>2013-05-20T11:42:11Z</time>
      </trkpt>
      <trkpt lat="42.88279" lon="-0.27931">
        <ele>1858</ele>
        <time>2013-05-20T11:42:17Z</time>
      </trkpt>
      <trkpt lat="42.88277" lon="-0.27927">
        <ele>1857</ele>
        <time>2013-05-20T11:42:22Z</time>
      </trkpt>
      <trkpt lat="42.88274" lon="-0.27921">
        <ele>1856</ele>
        <time>2013-05-20T11:42:27Z</time>
      </trkpt>
      <trkpt lat="42.88274" lon="-0.27918">
        <ele>1855</ele>
        <time>2013-05-20T11:42:28Z</time>
      </trkpt>
      <trkpt lat="42.88276" lon="-0.27916">
        <ele>1854</ele>
        <time>2013-05-20T11:42:29Z</time>
      </trkpt>
      <trkpt lat="42.88278" lon="-0.27916">
        <ele>1853</ele>
        <time>2013-05-20T11:42:30Z</time>
      </trkpt>
      <trkpt lat="42.8828" lon="-0.27916">
        <ele>1852</ele>
        <time>2013-05-20T11:42:31Z</time>
      </trkpt>
      <trkpt lat="42.88283" lon="-0.27916">
        <ele>1852</ele>
        <time>2013-05-20T11:42:32Z</time>
      </trkpt>
      <trkpt lat="42.8829" lon="-0.27916">
        <ele>1849</ele>
        <time>2013-05-20T11:42:35Z</time>
      </trkpt>
      <trkpt lat="42.88291" lon="-0.27914">
        <ele>1848</ele>
        <time>2013-05-20T11:42:36Z</time>
      </trkpt>
      <trkpt lat="42.88289" lon="-0.27911">
        <ele>1847</ele>
        <time>2013-05-20T11:42:37Z</time>
      </trkpt>
      <trkpt lat="42.88288" lon="-0.27909">
        <ele>1846</ele>
        <time>2013-05-20T11:42:38Z</time>
      </trkpt>
      <trkpt lat="42.88288" lon="-0.27906">
        <ele>1845</ele>
        <time>2013-05-20T11:42:39Z</time>
      </trkpt>
      <trkpt lat="42.8829" lon="-0.27905">
        <ele>1845</ele>
        <time>2013-05-20T11:42:40Z</time>
      </trkpt>
      <trkpt lat="42.88293" lon="-0.27905">
        <ele>1844</ele>
        <time>2013-05-20T11:42:41Z</time>
      </trkpt>
      <trkpt lat="42.88299" lon="-0.279">
        <ele>1841</ele>
        <time>2013-05-20T11:42:44Z</time>
      </trkpt>
      <trkpt lat="42.88296" lon="-0.27889">
        <ele>1836</ele>
        <time>2013-05-20T11:42:47Z</time>
      </trkpt>
      <trkpt lat="42.88304" lon="-0.27892">
        <ele>1833</ele>
        <time>2013-05-20T11:42:50Z</time>
      </trkpt>
      <trkpt lat="42.88305" lon="-0.27886">
        <ele>1830</ele>
        <time>2013-05-20T11:42:52Z</time>
      </trkpt>
      <trkpt lat="42.88309" lon="-0.27881">
        <ele>1828</ele>
        <time>2013-05-20T11:42:55Z</time>
      </trkpt>
      <trkpt lat="42.88312" lon="-0.27884">
        <ele>1826</ele>
        <time>2013-05-20T11:42:59Z</time>
      </trkpt>
      <trkpt lat="42.88314" lon="-0.27886">
        <ele>1826</ele>
        <time>2013-05-20T11:43:10Z</time>
      </trkpt>
      <trkpt lat="42.88315" lon="-0.27885">
        <ele>1826</ele>
        <time>2013-05-20T11:43:18Z</time>
      </trkpt>
      <trkpt lat="42.88319" lon="-0.27876">
        <ele>1823</ele>
        <time>2013-05-20T11:43:23Z</time>
      </trkpt>
      <trkpt lat="42.88312" lon="-0.27863">
        <ele>1820</ele>
        <time>2013-05-20T11:43:28Z</time>
      </trkpt>
      <trkpt lat="42.88312" lon="-0.27863">
        <ele>1820</ele>
        <time>2013-05-20T11:43:29Z</time>
      </trkpt>
      <trkpt lat="42.88312" lon="-0.27865">
        <ele>1819</ele>
        <time>2013-05-20T11:43:37Z</time>
      </trkpt>
      <trkpt lat="42.88312" lon="-0.27864">
        <ele>1819</ele>
        <time>2013-05-20T11:43:38Z</time>
      </trkpt>
      <trkpt lat="42.88317" lon="-0.27861">
        <ele>1818</ele>
        <time>2013-05-20T11:43:41Z</time>
      </trkpt>
      <trkpt lat="42.88319" lon="-0.27862">
        <ele>1817</ele>
        <time>2013-05-20T11:43:42Z</time>
      </trkpt>
      <trkpt lat="42.88321" lon="-0.27864">
        <ele>1816</ele>
        <time>2013-05-20T11:43:43Z</time>
      </trkpt>
      <trkpt lat="42.88322" lon="-0.27865">
        <ele>1815</ele>
        <time>2013-05-20T11:43:45Z</time>
      </trkpt>
      <trkpt lat="42.88325" lon="-0.27863">
        <ele>1815</ele>
        <time>2013-05-20T11:43:50Z</time>
      </trkpt>
      <trkpt lat="42.88323" lon="-0.27855">
        <ele>1812</ele>
        <time>2013-05-20T11:43:53Z</time>
      </trkpt>
      <trkpt lat="42.88322" lon="-0.2785">
        <ele>1811</ele>
        <time>2013-05-20T11:43:55Z</time>
      </trkpt>
      <trkpt lat="42.88323" lon="-0.27848">
        <ele>1810</ele>
        <time>2013-05-20T11:43:56Z</time>
      </trkpt>
      <trkpt lat="42.88325" lon="-0.27846">
        <ele>1810</ele>
        <time>2013-05-20T11:43:57Z</time>
      </trkpt>
      <trkpt lat="42.88327" lon="-0.27847">
        <ele>1807</ele>
        <time>2013-05-20T11:43:58Z</time>
      </trkpt>
      <trkpt lat="42.88328" lon="-0.27848">
        <ele>1807</ele>
        <time>2013-05-20T11:43:59Z</time>
      </trkpt>
      <trkpt lat="42.88328" lon="-0.27848">
        <ele>1806</ele>
        <time>2013-05-20T11:44:02Z</time>
      </trkpt>
      <trkpt lat="42.88329" lon="-0.27845">
        <ele>1807</ele>
        <time>2013-05-20T11:44:03Z</time>
      </trkpt>
      <trkpt lat="42.8833" lon="-0.27842">
        <ele>1804</ele>
        <time>2013-05-20T11:44:06Z</time>
      </trkpt>
      <trkpt lat="42.88332" lon="-0.27841">
        <ele>1803</ele>
        <time>2013-05-20T11:44:07Z</time>
      </trkpt>
      <trkpt lat="42.88333" lon="-0.27842">
        <ele>1803</ele>
        <time>2013-05-20T11:44:08Z</time>
      </trkpt>
      <trkpt lat="42.88335" lon="-0.27843">
        <ele>1801</ele>
        <time>2013-05-20T11:44:09Z</time>
      </trkpt>
      <trkpt lat="42.88336" lon="-0.27843">
        <ele>1801</ele>
        <time>2013-05-20T11:44:10Z</time>
      </trkpt>
      <trkpt lat="42.88338" lon="-0.27844">
        <ele>1801</ele>
        <time>2013-05-20T11:44:11Z</time>
      </trkpt>
      <trkpt lat="42.88339" lon="-0.27845">
        <ele>1800</ele>
        <time>2013-05-20T11:44:12Z</time>
      </trkpt>
      <trkpt lat="42.8834" lon="-0.27846">
        <ele>1799</ele>
        <time>2013-05-20T11:44:13Z</time>
      </trkpt>
      <trkpt lat="42.88342" lon="-0.27844">
        <ele>1799</ele>
        <time>2013-05-20T11:44:14Z</time>
      </trkpt>
      <trkpt lat="42.88344" lon="-0.27841">
        <ele>1797</ele>
        <time>2013-05-20T11:44:15Z</time>
      </trkpt>
      <trkpt lat="42.88343" lon="-0.27839">
        <ele>1796</ele>
        <time>2013-05-20T11:44:16Z</time>
      </trkpt>
      <trkpt lat="42.88342" lon="-0.27836">
        <ele>1795</ele>
        <time>2013-05-20T11:44:17Z</time>
      </trkpt>
      <trkpt lat="42.88342" lon="-0.27834">
        <ele>1795</ele>
        <time>2013-05-20T11:44:18Z</time>
      </trkpt>
      <trkpt lat="42.88341" lon="-0.27834">
        <ele>1794</ele>
        <time>2013-05-20T11:44:23Z</time>
      </trkpt>
      <trkpt lat="42.88341" lon="-0.27832">
        <ele>1793</ele>
        <time>2013-05-20T11:44:30Z</time>
      </trkpt>
      <trkpt lat="42.8834" lon="-0.27829">
        <ele>1793</ele>
        <time>2013-05-20T11:44:32Z</time>
      </trkpt>
      <trkpt lat="42.8834" lon="-0.27825">
        <ele>1793</ele>
        <time>2013-05-20T11:44:33Z</time>
      </trkpt>
      <trkpt lat="42.8834" lon="-0.2782">
        <ele>1792</ele>
        <time>2013-05-20T11:44:34Z</time>
      </trkpt>
      <trkpt lat="42.8834" lon="-0.27816">
        <ele>1790</ele>
        <time>2013-05-20T11:44:35Z</time>
      </trkpt>
      <trkpt lat="42.8834" lon="-0.27815">
        <ele>1790</ele>
        <time>2013-05-20T11:44:39Z</time>
      </trkpt>
      <trkpt lat="42.8834" lon="-0.27813">
        <ele>1790</ele>
        <time>2013-05-20T11:44:40Z</time>
      </trkpt>
      <trkpt lat="42.88341" lon="-0.27811">
        <ele>1789</ele>
        <time>2013-05-20T11:44:41Z</time>
      </trkpt>
      <trkpt lat="42.88341" lon="-0.27808">
        <ele>1788</ele>
        <time>2013-05-20T11:44:42Z</time>
      </trkpt>
      <trkpt lat="42.88341" lon="-0.27805">
        <ele>1788</ele>
        <time>2013-05-20T11:44:43Z</time>
      </trkpt>
      <trkpt lat="42.88341" lon="-0.27805">
        <ele>1787</ele>
        <time>2013-05-20T11:44:45Z</time>
      </trkpt>
      <trkpt lat="42.88342" lon="-0.27803">
        <ele>1787</ele>
        <time>2013-05-20T11:44:46Z</time>
      </trkpt>
      <trkpt lat="42.88343" lon="-0.27795">
        <ele>1785</ele>
        <time>2013-05-20T11:44:49Z</time>
      </trkpt>
      <trkpt lat="42.88349" lon="-0.27795">
        <ele>1783</ele>
        <time>2013-05-20T11:44:53Z</time>
      </trkpt>
      <trkpt lat="42.8835" lon="-0.27798">
        <ele>1781</ele>
        <time>2013-05-20T11:44:54Z</time>
      </trkpt>
      <trkpt lat="42.88357" lon="-0.27806">
        <ele>1779</ele>
        <time>2013-05-20T11:44:59Z</time>
      </trkpt>
      <trkpt lat="42.88357" lon="-0.27807">
        <ele>1779</ele>
        <time>2013-05-20T11:45:07Z</time>
      </trkpt>
      <trkpt lat="42.88359" lon="-0.27809">
        <ele>1778</ele>
        <time>2013-05-20T11:45:12Z</time>
      </trkpt>
      <trkpt lat="42.8836" lon="-0.27812">
        <ele>1778</ele>
        <time>2013-05-20T11:45:16Z</time>
      </trkpt>
      <trkpt lat="42.8836" lon="-0.27815">
        <ele>1779</ele>
        <time>2013-05-20T11:45:22Z</time>
      </trkpt>
      <trkpt lat="42.8836" lon="-0.27816">
        <ele>1779</ele>
        <time>2013-05-20T11:45:26Z</time>
      </trkpt>
      <trkpt lat="42.88362" lon="-0.27818">
        <ele>1779</ele>
        <time>2013-05-20T11:45:31Z</time>
      </trkpt>
      <trkpt lat="42.88366" lon="-0.27824">
        <ele>1777</ele>
        <time>2013-05-20T11:45:37Z</time>
      </trkpt>
      <trkpt lat="42.88368" lon="-0.27828">
        <ele>1776</ele>
        <time>2013-05-20T11:45:41Z</time>
      </trkpt>
      <trkpt lat="42.88368" lon="-0.27829">
        <ele>1775</ele>
        <time>2013-05-20T11:45:48Z</time>
      </trkpt>
      <trkpt lat="42.88368" lon="-0.27833">
        <ele>1776</ele>
        <time>2013-05-20T11:45:54Z</time>
      </trkpt>
      <trkpt lat="42.8837" lon="-0.27834">
        <ele>1775</ele>
        <time>2013-05-20T11:46:02Z</time>
      </trkpt>
      <trkpt lat="42.88369" lon="-0.27835">
        <ele>1775</ele>
        <time>2013-05-20T11:46:08Z</time>
      </trkpt>
      <trkpt lat="42.88369" lon="-0.27836">
        <ele>1775</ele>
        <time>2013-05-20T11:46:15Z</time>
      </trkpt>
      <trkpt lat="42.88369" lon="-0.2784">
        <ele>1776</ele>
        <time>2013-05-20T11:46:22Z</time>
      </trkpt>
      <trkpt lat="42.88369" lon="-0.27841">
        <ele>1776</ele>
        <time>2013-05-20T11:46:24Z</time>
      </trkpt>
      <trkpt lat="42.88372" lon="-0.27843">
        <ele>1775</ele>
        <time>2013-05-20T11:46:26Z</time>
      </trkpt>
      <trkpt lat="42.88373" lon="-0.27845">
        <ele>1774</ele>
        <time>2013-05-20T11:46:27Z</time>
      </trkpt>
      <trkpt lat="42.88376" lon="-0.27847">
        <ele>1774</ele>
        <time>2013-05-20T11:46:28Z</time>
      </trkpt>
      <trkpt lat="42.88378" lon="-0.27849">
        <ele>1773</ele>
        <time>2013-05-20T11:46:29Z</time>
      </trkpt>
      <trkpt lat="42.88386" lon="-0.27855">
        <ele>1770</ele>
        <time>2013-05-20T11:46:32Z</time>
      </trkpt>
      <trkpt lat="42.88393" lon="-0.2786">
        <ele>1767</ele>
        <time>2013-05-20T11:46:36Z</time>
      </trkpt>
      <trkpt lat="42.88394" lon="-0.27861">
        <ele>1767</ele>
        <time>2013-05-20T11:46:37Z</time>
      </trkpt>
      <trkpt lat="42.88395" lon="-0.27859">
        <ele>1766</ele>
        <time>2013-05-20T11:46:38Z</time>
      </trkpt>
      <trkpt lat="42.88396" lon="-0.27857">
        <ele>1766</ele>
        <time>2013-05-20T11:46:39Z</time>
      </trkpt>
      <trkpt lat="42.88397" lon="-0.27853">
        <ele>1764</ele>
        <time>2013-05-20T11:46:40Z</time>
      </trkpt>
      <trkpt lat="42.88397" lon="-0.27852">
        <ele>1763</ele>
        <time>2013-05-20T11:46:41Z</time>
      </trkpt>
      <trkpt lat="42.88399" lon="-0.2785">
        <ele>1763</ele>
        <time>2013-05-20T11:46:48Z</time>
      </trkpt>
      <trkpt lat="42.88403" lon="-0.27847">
        <ele>1760</ele>
        <time>2013-05-20T11:46:51Z</time>
      </trkpt>
      <trkpt lat="42.88404" lon="-0.27846">
        <ele>1760</ele>
        <time>2013-05-20T11:46:52Z</time>
      </trkpt>
      <trkpt lat="42.88405" lon="-0.27843">
        <ele>1759</ele>
        <time>2013-05-20T11:46:59Z</time>
      </trkpt>
      <trkpt lat="42.88406" lon="-0.27842">
        <ele>1759</ele>
        <time>2013-05-20T11:47:08Z</time>
      </trkpt>
      <trkpt lat="42.88405" lon="-0.27841">
        <ele>1759</ele>
        <time>2013-05-20T11:47:20Z</time>
      </trkpt>
      <trkpt lat="42.88405" lon="-0.27841">
        <ele>1759</ele>
        <time>2013-05-20T11:47:27Z</time>
      </trkpt>
      <trkpt lat="42.88406" lon="-0.27842">
        <ele>1759</ele>
        <time>2013-05-20T11:47:40Z</time>
      </trkpt>
      <trkpt lat="42.88402" lon="-0.27835">
        <ele>1756</ele>
        <time>2013-05-20T11:47:46Z</time>
      </trkpt>
      <trkpt lat="42.88402" lon="-0.27834">
        <ele>1757</ele>
        <time>2013-05-20T11:47:47Z</time>
      </trkpt>
      <trkpt lat="42.88403" lon="-0.27833">
        <ele>1757</ele>
        <time>2013-05-20T11:47:48Z</time>
      </trkpt>
      <trkpt lat="42.88404" lon="-0.27833">
        <ele>1756</ele>
        <time>2013-05-20T11:47:49Z</time>
      </trkpt>
      <trkpt lat="42.88406" lon="-0.27833">
        <ele>1755</ele>
        <time>2013-05-20T11:47:50Z</time>
      </trkpt>
      <trkpt lat="42.88407" lon="-0.27832">
        <ele>1755</ele>
        <time>2013-05-20T11:47:51Z</time>
      </trkpt>
      <trkpt lat="42.88408" lon="-0.27831">
        <ele>1753</ele>
        <time>2013-05-20T11:47:53Z</time>
      </trkpt>
      <trkpt lat="42.88408" lon="-0.27829">
        <ele>1752</ele>
        <time>2013-05-20T11:47:58Z</time>
      </trkpt>
      <trkpt lat="42.88409" lon="-0.27826">
        <ele>1751</ele>
        <time>2013-05-20T11:48:02Z</time>
      </trkpt>
      <trkpt lat="42.88408" lon="-0.2782">
        <ele>1750</ele>
        <time>2013-05-20T11:48:07Z</time>
      </trkpt>
      <trkpt lat="42.88405" lon="-0.2781">
        <ele>1746</ele>
        <time>2013-05-20T11:48:14Z</time>
      </trkpt>
      <trkpt lat="42.88404" lon="-0.27808">
        <ele>1746</ele>
        <time>2013-05-20T11:48:15Z</time>
      </trkpt>
      <trkpt lat="42.88405" lon="-0.27805">
        <ele>1744</ele>
        <time>2013-05-20T11:48:19Z</time>
      </trkpt>
      <trkpt lat="42.88406" lon="-0.27804">
        <ele>1744</ele>
        <time>2013-05-20T11:48:20Z</time>
      </trkpt>
      <trkpt lat="42.88406" lon="-0.27801">
        <ele>1743</ele>
        <time>2013-05-20T11:48:23Z</time>
      </trkpt>
      <trkpt lat="42.88406" lon="-0.27799">
        <ele>1743</ele>
        <time>2013-05-20T11:48:24Z</time>
      </trkpt>
      <trkpt lat="42.88406" lon="-0.27797">
        <ele>1742</ele>
        <time>2013-05-20T11:48:25Z</time>
      </trkpt>
      <trkpt lat="42.88407" lon="-0.27795">
        <ele>1741</ele>
        <time>2013-05-20T11:48:28Z</time>
      </trkpt>
      <trkpt lat="42.88407" lon="-0.27793">
        <ele>1741</ele>
        <time>2013-05-20T11:48:31Z</time>
      </trkpt>
      <trkpt lat="42.88408" lon="-0.27789">
        <ele>1739</ele>
        <time>2013-05-20T11:48:37Z</time>
      </trkpt>
      <trkpt lat="42.88408" lon="-0.27787">
        <ele>1738</ele>
        <time>2013-05-20T11:48:38Z</time>
      </trkpt>
      <trkpt lat="42.88408" lon="-0.27784">
        <ele>1737</ele>
        <time>2013-05-20T11:48:43Z</time>
      </trkpt>
      <trkpt lat="42.88408" lon="-0.2778">
        <ele>1736</ele>
        <time>2013-05-20T11:48:45Z</time>
      </trkpt>
      <trkpt lat="42.88409" lon="-0.27777">
        <ele>1735</ele>
        <time>2013-05-20T11:48:47Z</time>
      </trkpt>
      <trkpt lat="42.8841" lon="-0.27777">
        <ele>1735</ele>
        <time>2013-05-20T11:48:48Z</time>
      </trkpt>
      <trkpt lat="42.8841" lon="-0.27777">
        <ele>1734</ele>
        <time>2013-05-20T11:48:51Z</time>
      </trkpt>
      <trkpt lat="42.88411" lon="-0.27775">
        <ele>1733</ele>
        <time>2013-05-20T11:48:54Z</time>
      </trkpt>
      <trkpt lat="42.88412" lon="-0.27773">
        <ele>1731</ele>
        <time>2013-05-20T11:48:58Z</time>
      </trkpt>
      <trkpt lat="42.88413" lon="-0.27768">
        <ele>1730</ele>
        <time>2013-05-20T11:49:02Z</time>
      </trkpt>
      <trkpt lat="42.88414" lon="-0.27768">
        <ele>1730</ele>
        <time>2013-05-20T11:49:03Z</time>
      </trkpt>
      <trkpt lat="42.88415" lon="-0.27769">
        <ele>1728</ele>
        <time>2013-05-20T11:49:04Z</time>
      </trkpt>
      <trkpt lat="42.88416" lon="-0.27768">
        <ele>1728</ele>
        <time>2013-05-20T11:49:05Z</time>
      </trkpt>
      <trkpt lat="42.88417" lon="-0.27767">
        <ele>1725</ele>
        <time>2013-05-20T11:49:07Z</time>
      </trkpt>
      <trkpt lat="42.88417" lon="-0.27767">
        <ele>1725</ele>
        <time>2013-05-20T11:49:08Z</time>
      </trkpt>
      <trkpt lat="42.88417" lon="-0.27765">
        <ele>1725</ele>
        <time>2013-05-20T11:49:11Z</time>
      </trkpt>
      <trkpt lat="42.88418" lon="-0.27762">
        <ele>1724</ele>
        <time>2013-05-20T11:49:14Z</time>
      </trkpt>
      <trkpt lat="42.88419" lon="-0.27761">
        <ele>1724</ele>
        <time>2013-05-20T11:49:15Z</time>
      </trkpt>
      <trkpt lat="42.8842" lon="-0.2776">
        <ele>1721</ele>
        <time>2013-05-20T11:49:19Z</time>
      </trkpt>
      <trkpt lat="42.88421" lon="-0.2776">
        <ele>1721</ele>
        <time>2013-05-20T11:49:20Z</time>
      </trkpt>
      <trkpt lat="42.88419" lon="-0.2776">
        <ele>1720</ele>
        <time>2013-05-20T11:49:27Z</time>
      </trkpt>
      <trkpt lat="42.88421" lon="-0.27764">
        <ele>1720</ele>
        <time>2013-05-20T11:49:33Z</time>
      </trkpt>
      <trkpt lat="42.88422" lon="-0.27765">
        <ele>1720</ele>
        <time>2013-05-20T11:49:34Z</time>
      </trkpt>
      <trkpt lat="42.88428" lon="-0.27775">
        <ele>1718</ele>
        <time>2013-05-20T11:49:42Z</time>
      </trkpt>
      <trkpt lat="42.88432" lon="-0.27773">
        <ele>1718</ele>
        <time>2013-05-20T11:49:53Z</time>
      </trkpt>
      <trkpt lat="42.88433" lon="-0.27776">
        <ele>1718</ele>
        <time>2013-05-20T11:50:02Z</time>
      </trkpt>
      <trkpt lat="42.88434" lon="-0.27777">
        <ele>1717</ele>
        <time>2013-05-20T11:50:08Z</time>
      </trkpt>
      <trkpt lat="42.88433" lon="-0.27782">
        <ele>1718</ele>
        <time>2013-05-20T11:50:19Z</time>
      </trkpt>
      <trkpt lat="42.88433" lon="-0.27782">
        <ele>1717</ele>
        <time>2013-05-20T11:50:30Z</time>
      </trkpt>
      <trkpt lat="42.88433" lon="-0.27782">
        <ele>1718</ele>
        <time>2013-05-20T11:50:40Z</time>
      </trkpt>
      <trkpt lat="42.88435" lon="-0.27783">
        <ele>1717</ele>
        <time>2013-05-20T11:50:46Z</time>
      </trkpt>
      <trkpt lat="42.88437" lon="-0.27784">
        <ele>1716</ele>
        <time>2013-05-20T11:50:51Z</time>
      </trkpt>
      <trkpt lat="42.88437" lon="-0.27784">
        <ele>1715</ele>
        <time>2013-05-20T11:50:56Z</time>
      </trkpt>
      <trkpt lat="42.88439" lon="-0.27783">
        <ele>1714</ele>
        <time>2013-05-20T11:51:02Z</time>
      </trkpt>
      <trkpt lat="42.88441" lon="-0.27785">
        <ele>1713</ele>
        <time>2013-05-20T11:51:08Z</time>
      </trkpt>
      <trkpt lat="42.88443" lon="-0.27787">
        <ele>1713</ele>
        <time>2013-05-20T11:51:14Z</time>
      </trkpt>
      <trkpt lat="42.88445" lon="-0.27787">
        <ele>1712</ele>
        <time>2013-05-20T11:51:22Z</time>
      </trkpt>
      <trkpt lat="42.88446" lon="-0.27785">
        <ele>1711</ele>
        <time>2013-05-20T11:51:27Z</time>
      </trkpt>
      <trkpt lat="42.88446" lon="-0.27782">
        <ele>1709</ele>
        <time>2013-05-20T11:51:34Z</time>
      </trkpt>
      <trkpt lat="42.88449" lon="-0.27781">
        <ele>1706</ele>
        <time>2013-05-20T11:51:41Z</time>
      </trkpt>
      <trkpt lat="42.88453" lon="-0.2778">
        <ele>1705</ele>
        <time>2013-05-20T11:51:47Z</time>
      </trkpt>
      <trkpt lat="42.88453" lon="-0.27776">
        <ele>1705</ele>
        <time>2013-05-20T11:51:52Z</time>
      </trkpt>
      <trkpt lat="42.88452" lon="-0.27774">
        <ele>1705</ele>
        <time>2013-05-20T11:51:58Z</time>
      </trkpt>
      <trkpt lat="42.88452" lon="-0.27771">
        <ele>1703</ele>
        <time>2013-05-20T11:52:03Z</time>
      </trkpt>
      <trkpt lat="42.88453" lon="-0.27767">
        <ele>1702</ele>
        <time>2013-05-20T11:52:09Z</time>
      </trkpt>
      <trkpt lat="42.88453" lon="-0.27765">
        <ele>1703</ele>
        <time>2013-05-20T11:52:16Z</time>
      </trkpt>
      <trkpt lat="42.88453" lon="-0.27766">
        <ele>1702</ele>
        <time>2013-05-20T11:52:24Z</time>
      </trkpt>
      <trkpt lat="42.88453" lon="-0.27769">
        <ele>1702</ele>
        <time>2013-05-20T11:52:31Z</time>
      </trkpt>
      <trkpt lat="42.88454" lon="-0.27768">
        <ele>1702</ele>
        <time>2013-05-20T11:52:41Z</time>
      </trkpt>
      <trkpt lat="42.88454" lon="-0.27767">
        <ele>1702</ele>
        <time>2013-05-20T11:52:49Z</time>
      </trkpt>
      <trkpt lat="42.88454" lon="-0.27765">
        <ele>1702</ele>
        <time>2013-05-20T11:53:01Z</time>
      </trkpt>
      <trkpt lat="42.88453" lon="-0.27764">
        <ele>1702</ele>
        <time>2013-05-20T11:53:08Z</time>
      </trkpt>
      <trkpt lat="42.88452" lon="-0.2776">
        <ele>1701</ele>
        <time>2013-05-20T11:53:13Z</time>
      </trkpt>
      <trkpt lat="42.88451" lon="-0.27761">
        <ele>1700</ele>
        <time>2013-05-20T11:53:18Z</time>
      </trkpt>
      <trkpt lat="42.8845" lon="-0.27759">
        <ele>1700</ele>
        <time>2013-05-20T11:53:19Z</time>
      </trkpt>
      <trkpt lat="42.88449" lon="-0.27756">
        <ele>1699</ele>
        <time>2013-05-20T11:53:20Z</time>
      </trkpt>
      <trkpt lat="42.88448" lon="-0.27745">
        <ele>1695</ele>
        <time>2013-05-20T11:53:23Z</time>
      </trkpt>
      <trkpt lat="42.88449" lon="-0.27743">
        <ele>1696</ele>
        <time>2013-05-20T11:53:24Z</time>
      </trkpt>
      <trkpt lat="42.88453" lon="-0.27744">
        <ele>1693</ele>
        <time>2013-05-20T11:53:26Z</time>
      </trkpt>
      <trkpt lat="42.88454" lon="-0.2774">
        <ele>1690</ele>
        <time>2013-05-20T11:53:28Z</time>
      </trkpt>
      <trkpt lat="42.88454" lon="-0.27739">
        <ele>1690</ele>
        <time>2013-05-20T11:53:29Z</time>
      </trkpt>
      <trkpt lat="42.88454" lon="-0.27737">
        <ele>1689</ele>
        <time>2013-05-20T11:53:31Z</time>
      </trkpt>
      <trkpt lat="42.8846" lon="-0.27736">
        <ele>1689</ele>
        <time>2013-05-20T11:53:33Z</time>
      </trkpt>
      <trkpt lat="42.88461" lon="-0.27737">
        <ele>1686</ele>
        <time>2013-05-20T11:53:34Z</time>
      </trkpt>
      <trkpt lat="42.88462" lon="-0.27737">
        <ele>1685</ele>
        <time>2013-05-20T11:53:39Z</time>
      </trkpt>
      <trkpt lat="42.88462" lon="-0.27737">
        <ele>1684</ele>
        <time>2013-05-20T11:53:41Z</time>
      </trkpt>
      <trkpt lat="42.88465" lon="-0.27732">
        <ele>1682</ele>
        <time>2013-05-20T11:53:46Z</time>
      </trkpt>
      <trkpt lat="42.88471" lon="-0.27729">
        <ele>1679</ele>
        <time>2013-05-20T11:53:50Z</time>
      </trkpt>
      <trkpt lat="42.88473" lon="-0.2773">
        <ele>1678</ele>
        <time>2013-05-20T11:53:51Z</time>
      </trkpt>
      <trkpt lat="42.88476" lon="-0.27731">
        <ele>1677</ele>
        <time>2013-05-20T11:53:53Z</time>
      </trkpt>
      <trkpt lat="42.88478" lon="-0.27729">
        <ele>1676</ele>
        <time>2013-05-20T11:53:54Z</time>
      </trkpt>
      <trkpt lat="42.88478" lon="-0.27726">
        <ele>1674</ele>
        <time>2013-05-20T11:53:55Z</time>
      </trkpt>
      <trkpt lat="42.88478" lon="-0.27724">
        <ele>1674</ele>
        <time>2013-05-20T11:53:56Z</time>
      </trkpt>
      <trkpt lat="42.88477" lon="-0.27722">
        <ele>1673</ele>
        <time>2013-05-20T11:53:58Z</time>
      </trkpt>
      <trkpt lat="42.88476" lon="-0.27721">
        <ele>1672</ele>
        <time>2013-05-20T11:54:07Z</time>
      </trkpt>
      <trkpt lat="42.88477" lon="-0.27721">
        <ele>1671</ele>
        <time>2013-05-20T11:54:11Z</time>
      </trkpt>
      <trkpt lat="42.88477" lon="-0.27724">
        <ele>1672</ele>
        <time>2013-05-20T11:54:18Z</time>
      </trkpt>
      <trkpt lat="42.88478" lon="-0.27722">
        <ele>1671</ele>
        <time>2013-05-20T11:54:23Z</time>
      </trkpt>
      <trkpt lat="42.88478" lon="-0.27721">
        <ele>1671</ele>
        <time>2013-05-20T11:54:24Z</time>
      </trkpt>
      <trkpt lat="42.8848" lon="-0.2772">
        <ele>1668</ele>
        <time>2013-05-20T11:54:31Z</time>
      </trkpt>
      <trkpt lat="42.88482" lon="-0.27717">
        <ele>1667</ele>
        <time>2013-05-20T11:54:38Z</time>
      </trkpt>
      <trkpt lat="42.88484" lon="-0.27715">
        <ele>1665</ele>
        <time>2013-05-20T11:54:43Z</time>
      </trkpt>
      <trkpt lat="42.88486" lon="-0.27713">
        <ele>1666</ele>
        <time>2013-05-20T11:54:51Z</time>
      </trkpt>
      <trkpt lat="42.88485" lon="-0.27708">
        <ele>1665</ele>
        <time>2013-05-20T11:54:58Z</time>
      </trkpt>
      <trkpt lat="42.88485" lon="-0.27707">
        <ele>1664</ele>
        <time>2013-05-20T11:55:00Z</time>
      </trkpt>
      <trkpt lat="42.88485" lon="-0.27708">
        <ele>1663</ele>
        <time>2013-05-20T11:55:07Z</time>
      </trkpt>
      <trkpt lat="42.88487" lon="-0.27708">
        <ele>1663</ele>
        <time>2013-05-20T11:55:14Z</time>
      </trkpt>
      <trkpt lat="42.88488" lon="-0.27707">
        <ele>1662</ele>
        <time>2013-05-20T11:55:21Z</time>
      </trkpt>
      <trkpt lat="42.88488" lon="-0.27708">
        <ele>1662</ele>
        <time>2013-05-20T11:55:27Z</time>
      </trkpt>
      <trkpt lat="42.88489" lon="-0.27709">
        <ele>1662</ele>
        <time>2013-05-20T11:55:33Z</time>
      </trkpt>
      <trkpt lat="42.8849" lon="-0.2771">
        <ele>1661</ele>
        <time>2013-05-20T11:55:34Z</time>
      </trkpt>
      <trkpt lat="42.88492" lon="-0.27711">
        <ele>1660</ele>
        <time>2013-05-20T11:55:36Z</time>
      </trkpt>
      <trkpt lat="42.88493" lon="-0.27712">
        <ele>1660</ele>
        <time>2013-05-20T11:55:37Z</time>
      </trkpt>
      <trkpt lat="42.88496" lon="-0.2771">
        <ele>1660</ele>
        <time>2013-05-20T11:55:39Z</time>
      </trkpt>
      <trkpt lat="42.88497" lon="-0.27709">
        <ele>1659</ele>
        <time>2013-05-20T11:55:41Z</time>
      </trkpt>
      <trkpt lat="42.885" lon="-0.27707">
        <ele>1657</ele>
        <time>2013-05-20T11:55:45Z</time>
      </trkpt>
      <trkpt lat="42.88502" lon="-0.27707">
        <ele>1656</ele>
        <time>2013-05-20T11:55:52Z</time>
      </trkpt>
      <trkpt lat="42.88506" lon="-0.27707">
        <ele>1654</ele>
        <time>2013-05-20T11:55:59Z</time>
      </trkpt>
      <trkpt lat="42.88507" lon="-0.27705">
        <ele>1652</ele>
        <time>2013-05-20T11:56:04Z</time>
      </trkpt>
      <trkpt lat="42.88507" lon="-0.27706">
        <ele>1652</ele>
        <time>2013-05-20T11:56:06Z</time>
      </trkpt>
      <trkpt lat="42.88508" lon="-0.27705">
        <ele>1651</ele>
        <time>2013-05-20T11:56:07Z</time>
      </trkpt>
      <trkpt lat="42.88509" lon="-0.27702">
        <ele>1650</ele>
        <time>2013-05-20T11:56:08Z</time>
      </trkpt>
      <trkpt lat="42.8851" lon="-0.277">
        <ele>1649</ele>
        <time>2013-05-20T11:56:09Z</time>
      </trkpt>
      <trkpt lat="42.8851" lon="-0.27698">
        <ele>1649</ele>
        <time>2013-05-20T11:56:10Z</time>
      </trkpt>
      <trkpt lat="42.8851" lon="-0.27693">
        <ele>1648</ele>
        <time>2013-05-20T11:56:17Z</time>
      </trkpt>
      <trkpt lat="42.88509" lon="-0.27687">
        <ele>1648</ele>
        <time>2013-05-20T11:56:29Z</time>
      </trkpt>
      <trkpt lat="42.88511" lon="-0.27687">
        <ele>1648</ele>
        <time>2013-05-20T11:56:42Z</time>
      </trkpt>
      <trkpt lat="42.8851" lon="-0.27688">
        <ele>1648</ele>
        <time>2013-05-20T11:56:54Z</time>
      </trkpt>
      <trkpt lat="42.88509" lon="-0.27688">
        <ele>1649</ele>
        <time>2013-05-20T11:57:13Z</time>
      </trkpt>
      <trkpt lat="42.88511" lon="-0.27683">
        <ele>1649</ele>
        <time>2013-05-20T11:57:34Z</time>
      </trkpt>
      <trkpt lat="42.88512" lon="-0.27688">
        <ele>1648</ele>
        <time>2013-05-20T11:57:47Z</time>
      </trkpt>
      <trkpt lat="42.88516" lon="-0.27687">
        <ele>1649</ele>
        <time>2013-05-20T11:58:04Z</time>
      </trkpt>
      <trkpt lat="42.88513" lon="-0.27686">
        <ele>1650</ele>
        <time>2013-05-20T11:58:24Z</time>
      </trkpt>
      <trkpt lat="42.88513" lon="-0.27691">
        <ele>1649</ele>
        <time>2013-05-20T11:58:35Z</time>
      </trkpt>
      <trkpt lat="42.88513" lon="-0.27691">
        <ele>1649</ele>
        <time>2013-05-20T11:58:37Z</time>
      </trkpt>
      <trkpt lat="42.88513" lon="-0.27684">
        <ele>1647</ele>
        <time>2013-05-20T11:58:40Z</time>
      </trkpt>
      <trkpt lat="42.88511" lon="-0.27684">
        <ele>1646</ele>
        <time>2013-05-20T11:58:47Z</time>
      </trkpt>
      <trkpt lat="42.88511" lon="-0.27684">
        <ele>1646</ele>
        <time>2013-05-20T11:58:48Z</time>
      </trkpt>
      <trkpt lat="42.88511" lon="-0.27675">
        <ele>1645</ele>
        <time>2013-05-20T11:58:52Z</time>
      </trkpt>
      <trkpt lat="42.8851" lon="-0.27672">
        <ele>1644</ele>
        <time>2013-05-20T11:58:56Z</time>
      </trkpt>
      <trkpt lat="42.88511" lon="-0.27667">
        <ele>1643</ele>
        <time>2013-05-20T11:59:01Z</time>
      </trkpt>
      <trkpt lat="42.8851" lon="-0.27647">
        <ele>1640</ele>
        <time>2013-05-20T11:59:08Z</time>
      </trkpt>
      <trkpt lat="42.8851" lon="-0.27646">
        <ele>1639</ele>
        <time>2013-05-20T11:59:13Z</time>
      </trkpt>
      <trkpt lat="42.88515" lon="-0.27643">
        <ele>1637</ele>
        <time>2013-05-20T11:59:17Z</time>
      </trkpt>
      <trkpt lat="42.88515" lon="-0.27642">
        <ele>1636</ele>
        <time>2013-05-20T11:59:19Z</time>
      </trkpt>
      <trkpt lat="42.88515" lon="-0.27642">
        <ele>1636</ele>
        <time>2013-05-20T11:59:20Z</time>
      </trkpt>
      <trkpt lat="42.88516" lon="-0.27625">
        <ele>1632</ele>
        <time>2013-05-20T11:59:25Z</time>
      </trkpt>
      <trkpt lat="42.88516" lon="-0.27624">
        <ele>1632</ele>
        <time>2013-05-20T11:59:26Z</time>
      </trkpt>
      <trkpt lat="42.88516" lon="-0.27623">
        <ele>1632</ele>
        <time>2013-05-20T11:59:29Z</time>
      </trkpt>
      <trkpt lat="42.88519" lon="-0.27625">
        <ele>1629</ele>
        <time>2013-05-20T11:59:33Z</time>
      </trkpt>
      <trkpt lat="42.8852" lon="-0.27626">
        <ele>1628</ele>
        <time>2013-05-20T11:59:35Z</time>
      </trkpt>
      <trkpt lat="42.88523" lon="-0.27623">
        <ele>1626</ele>
        <time>2013-05-20T11:59:39Z</time>
      </trkpt>
      <trkpt lat="42.88525" lon="-0.2762">
        <ele>1626</ele>
        <time>2013-05-20T11:59:41Z</time>
      </trkpt>
      <trkpt lat="42.88532" lon="-0.27625">
        <ele>1622</ele>
        <time>2013-05-20T11:59:46Z</time>
      </trkpt>
      <trkpt lat="42.88532" lon="-0.27626">
        <ele>1622</ele>
        <time>2013-05-20T11:59:47Z</time>
      </trkpt>
      <trkpt lat="42.88533" lon="-0.27625">
        <ele>1622</ele>
        <time>2013-05-20T11:59:59Z</time>
      </trkpt>
      <trkpt lat="42.88532" lon="-0.27624">
        <ele>1622</ele>
        <time>2013-05-20T12:00:11Z</time>
      </trkpt>
      <trkpt lat="42.88533" lon="-0.27624">
        <ele>1622</ele>
        <time>2013-05-20T12:00:23Z</time>
      </trkpt>
      <trkpt lat="42.88532" lon="-0.27624">
        <ele>1622</ele>
        <time>2013-05-20T12:00:33Z</time>
      </trkpt>
      <trkpt lat="42.88534" lon="-0.2762">
        <ele>1622</ele>
        <time>2013-05-20T12:00:41Z</time>
      </trkpt>
      <trkpt lat="42.88533" lon="-0.2762">
        <ele>1622</ele>
        <time>2013-05-20T12:00:50Z</time>
      </trkpt>
      <trkpt lat="42.88533" lon="-0.27625">
        <ele>1622</ele>
        <time>2013-05-20T12:00:58Z</time>
      </trkpt>
      <trkpt lat="42.88533" lon="-0.27625">
        <ele>1622</ele>
        <time>2013-05-20T12:01:06Z</time>
      </trkpt>
      <trkpt lat="42.88533" lon="-0.27627">
        <ele>1622</ele>
        <time>2013-05-20T12:01:17Z</time>
      </trkpt>
      <trkpt lat="42.88531" lon="-0.27628">
        <ele>1622</ele>
        <time>2013-05-20T12:01:27Z</time>
      </trkpt>
      <trkpt lat="42.88533" lon="-0.27627">
        <ele>1622</ele>
        <time>2013-05-20T12:01:39Z</time>
      </trkpt>
      <trkpt lat="42.88533" lon="-0.27626">
        <ele>1622</ele>
        <time>2013-05-20T12:01:49Z</time>
      </trkpt>
      <trkpt lat="42.88532" lon="-0.27625">
        <ele>1622</ele>
        <time>2013-05-20T12:01:58Z</time>
      </trkpt>
      <trkpt lat="42.88533" lon="-0.27625">
        <ele>1622</ele>
        <time>2013-05-20T12:02:05Z</time>
      </trkpt>
      <trkpt lat="42.88534" lon="-0.27627">
        <ele>1621</ele>
        <time>2013-05-20T12:02:18Z</time>
      </trkpt>
      <trkpt lat="42.88534" lon="-0.27627">
        <ele>1622</ele>
        <time>2013-05-20T12:02:26Z</time>
      </trkpt>
      <trkpt lat="42.88533" lon="-0.27627">
        <ele>1622</ele>
        <time>2013-05-20T12:02:39Z</time>
      </trkpt>
      <trkpt lat="42.88534" lon="-0.27626">
        <ele>1621</ele>
        <time>2013-05-20T12:02:50Z</time>
      </trkpt>
      <trkpt lat="42.88533" lon="-0.27627">
        <ele>1622</ele>
        <time>2013-05-20T12:02:56Z</time>
      </trkpt>
      <trkpt lat="42.88533" lon="-0.27623">
        <ele>1621</ele>
        <time>2013-05-20T12:03:12Z</time>
      </trkpt>
      <trkpt lat="42.88533" lon="-0.27622">
        <ele>1621</ele>
        <time>2013-05-20T12:03:23Z</time>
      </trkpt>
      <trkpt lat="42.88533" lon="-0.27621">
        <ele>1621</ele>
        <time>2013-05-20T12:03:31Z</time>
      </trkpt>
      <trkpt lat="42.88534" lon="-0.27621">
        <ele>1621</ele>
        <time>2013-05-20T12:03:39Z</time>
      </trkpt>
      <trkpt lat="42.88534" lon="-0.27621">
        <ele>1622</ele>
        <time>2013-05-20T12:03:47Z</time>
      </trkpt>
      <trkpt lat="42.88534" lon="-0.27621">
        <ele>1621</ele>
        <time>2013-05-20T12:03:57Z</time>
      </trkpt>
      <trkpt lat="42.88533" lon="-0.27621">
        <ele>1621</ele>
        <time>2013-05-20T12:04:04Z</time>
      </trkpt>
      <trkpt lat="42.88535" lon="-0.27619">
        <ele>1621</ele>
        <time>2013-05-20T12:04:14Z</time>
      </trkpt>
      <trkpt lat="42.88534" lon="-0.27619">
        <ele>1621</ele>
        <time>2013-05-20T12:04:27Z</time>
      </trkpt>
      <trkpt lat="42.88534" lon="-0.2762">
        <ele>1622</ele>
        <time>2013-05-20T12:04:37Z</time>
      </trkpt>
      <trkpt lat="42.88534" lon="-0.2762">
        <ele>1622</ele>
        <time>2013-05-20T12:04:46Z</time>
      </trkpt>
      <trkpt lat="42.88534" lon="-0.27619">
        <ele>1622</ele>
        <time>2013-05-20T12:04:57Z</time>
      </trkpt>
      <trkpt lat="42.88536" lon="-0.27621">
        <ele>1622</ele>
        <time>2013-05-20T12:05:14Z</time>
      </trkpt>
      <trkpt lat="42.88535" lon="-0.27622">
        <ele>1621</ele>
        <time>2013-05-20T12:05:24Z</time>
      </trkpt>
      <trkpt lat="42.88536" lon="-0.27621">
        <ele>1621</ele>
        <time>2013-05-20T12:05:36Z</time>
      </trkpt>
      <trkpt lat="42.88532" lon="-0.27615">
        <ele>1622</ele>
        <time>2013-05-20T12:05:52Z</time>
      </trkpt>
      <trkpt lat="42.88534" lon="-0.27612">
        <ele>1621</ele>
        <time>2013-05-20T12:06:13Z</time>
      </trkpt>
      <trkpt lat="42.88533" lon="-0.27614">
        <ele>1621</ele>
        <time>2013-05-20T12:06:24Z</time>
      </trkpt>
      <trkpt lat="42.88535" lon="-0.27611">
        <ele>1621</ele>
        <time>2013-05-20T12:06:46Z</time>
      </trkpt>
      <trkpt lat="42.88535" lon="-0.27612">
        <ele>1622</ele>
        <time>2013-05-20T12:06:59Z</time>
      </trkpt>
      <trkpt lat="42.88534" lon="-0.27613">
        <ele>1623</ele>
        <time>2013-05-20T12:07:10Z</time>
      </trkpt>
      <trkpt lat="42.88534" lon="-0.27613">
        <ele>1622</ele>
        <time>2013-05-20T12:07:17Z</time>
      </trkpt>
      <trkpt lat="42.88535" lon="-0.27614">
        <ele>1622</ele>
        <time>2013-05-20T12:07:25Z</time>
      </trkpt>
      <trkpt lat="42.88536" lon="-0.2762">
        <ele>1620</ele>
        <time>2013-05-20T12:07:32Z</time>
      </trkpt>
      <trkpt lat="42.88538" lon="-0.27618">
        <ele>1619</ele>
        <time>2013-05-20T12:07:38Z</time>
      </trkpt>
      <trkpt lat="42.88538" lon="-0.27617">
        <ele>1618</ele>
        <time>2013-05-20T12:07:44Z</time>
      </trkpt>
      <trkpt lat="42.8854" lon="-0.27615">
        <ele>1617</ele>
        <time>2013-05-20T12:07:51Z</time>
      </trkpt>
      <trkpt lat="42.88543" lon="-0.27613">
        <ele>1615</ele>
        <time>2013-05-20T12:07:58Z</time>
      </trkpt>
      <trkpt lat="42.88544" lon="-0.27613">
        <ele>1614</ele>
        <time>2013-05-20T12:08:04Z</time>
      </trkpt>
      <trkpt lat="42.88548" lon="-0.27614">
        <ele>1613</ele>
        <time>2013-05-20T12:08:11Z</time>
      </trkpt>
      <trkpt lat="42.88551" lon="-0.2761">
        <ele>1612</ele>
        <time>2013-05-20T12:08:18Z</time>
      </trkpt>
      <trkpt lat="42.88552" lon="-0.2761">
        <ele>1611</ele>
        <time>2013-05-20T12:08:25Z</time>
      </trkpt>
      <trkpt lat="42.88553" lon="-0.27608">
        <ele>1611</ele>
        <time>2013-05-20T12:08:41Z</time>
      </trkpt>
      <trkpt lat="42.88549" lon="-0.27612">
        <ele>1611</ele>
        <time>2013-05-20T12:08:58Z</time>
      </trkpt>
      <trkpt lat="42.8855" lon="-0.27612">
        <ele>1611</ele>
        <time>2013-05-20T12:09:13Z</time>
      </trkpt>
      <trkpt lat="42.88552" lon="-0.2761">
        <ele>1609</ele>
        <time>2013-05-20T12:09:20Z</time>
      </trkpt>
      <trkpt lat="42.88558" lon="-0.27612">
        <ele>1608</ele>
        <time>2013-05-20T12:09:28Z</time>
      </trkpt>
      <trkpt lat="42.8856" lon="-0.2761">
        <ele>1606</ele>
        <time>2013-05-20T12:09:35Z</time>
      </trkpt>
      <trkpt lat="42.88562" lon="-0.27608">
        <ele>1605</ele>
        <time>2013-05-20T12:09:42Z</time>
      </trkpt>
      <trkpt lat="42.88563" lon="-0.27605">
        <ele>1605</ele>
        <time>2013-05-20T12:09:48Z</time>
      </trkpt>
      <trkpt lat="42.88564" lon="-0.276">
        <ele>1604</ele>
        <time>2013-05-20T12:09:54Z</time>
      </trkpt>
      <trkpt lat="42.88567" lon="-0.27599">
        <ele>1602</ele>
        <time>2013-05-20T12:10:01Z</time>
      </trkpt>
      <trkpt lat="42.88568" lon="-0.27596">
        <ele>1602</ele>
        <time>2013-05-20T12:10:06Z</time>
      </trkpt>
      <trkpt lat="42.88569" lon="-0.27595">
        <ele>1600</ele>
        <time>2013-05-20T12:10:09Z</time>
      </trkpt>
      <trkpt lat="42.88573" lon="-0.27591">
        <ele>1598</ele>
        <time>2013-05-20T12:10:16Z</time>
      </trkpt>
      <trkpt lat="42.88576" lon="-0.27589">
        <ele>1596</ele>
        <time>2013-05-20T12:10:22Z</time>
      </trkpt>
      <trkpt lat="42.88577" lon="-0.27587">
        <ele>1595</ele>
        <time>2013-05-20T12:10:28Z</time>
      </trkpt>
      <trkpt lat="42.88578" lon="-0.27586">
        <ele>1595</ele>
        <time>2013-05-20T12:10:37Z</time>
      </trkpt>
      <trkpt lat="42.88581" lon="-0.27587">
        <ele>1594</ele>
        <time>2013-05-20T12:10:44Z</time>
      </trkpt>
      <trkpt lat="42.88585" lon="-0.27587">
        <ele>1593</ele>
        <time>2013-05-20T12:10:50Z</time>
      </trkpt>
      <trkpt lat="42.88586" lon="-0.27588">
        <ele>1592</ele>
        <time>2013-05-20T12:10:52Z</time>
      </trkpt>
      <trkpt lat="42.88589" lon="-0.27587">
        <ele>1591</ele>
        <time>2013-05-20T12:11:00Z</time>
      </trkpt>
      <trkpt lat="42.88589" lon="-0.27587">
        <ele>1591</ele>
        <time>2013-05-20T12:11:01Z</time>
      </trkpt>
      <trkpt lat="42.88593" lon="-0.27585">
        <ele>1590</ele>
        <time>2013-05-20T12:11:07Z</time>
      </trkpt>
      <trkpt lat="42.88598" lon="-0.27583">
        <ele>1589</ele>
        <time>2013-05-20T12:11:15Z</time>
      </trkpt>
      <trkpt lat="42.886" lon="-0.2758">
        <ele>1588</ele>
        <time>2013-05-20T12:11:21Z</time>
      </trkpt>
      <trkpt lat="42.88602" lon="-0.27577">
        <ele>1587</ele>
        <time>2013-05-20T12:11:28Z</time>
      </trkpt>
      <trkpt lat="42.88602" lon="-0.27575">
        <ele>1586</ele>
        <time>2013-05-20T12:11:33Z</time>
      </trkpt>
      <trkpt lat="42.88603" lon="-0.27573">
        <ele>1585</ele>
        <time>2013-05-20T12:11:35Z</time>
      </trkpt>
      <trkpt lat="42.88607" lon="-0.27567">
        <ele>1584</ele>
        <time>2013-05-20T12:11:42Z</time>
      </trkpt>
      <trkpt lat="42.88607" lon="-0.27562">
        <ele>1582</ele>
        <time>2013-05-20T12:11:49Z</time>
      </trkpt>
      <trkpt lat="42.88607" lon="-0.27558">
        <ele>1581</ele>
        <time>2013-05-20T12:11:55Z</time>
      </trkpt>
      <trkpt lat="42.88607" lon="-0.27553">
        <ele>1580</ele>
        <time>2013-05-20T12:12:01Z</time>
      </trkpt>
      <trkpt lat="42.88607" lon="-0.27551">
        <ele>1579</ele>
        <time>2013-05-20T12:12:07Z</time>
      </trkpt>
      <trkpt lat="42.88607" lon="-0.2755">
        <ele>1578</ele>
        <time>2013-05-20T12:12:14Z</time>
      </trkpt>
      <trkpt lat="42.88605" lon="-0.27546">
        <ele>1577</ele>
        <time>2013-05-20T12:12:21Z</time>
      </trkpt>
      <trkpt lat="42.88602" lon="-0.27546">
        <ele>1576</ele>
        <time>2013-05-20T12:12:23Z</time>
      </trkpt>
      <trkpt lat="42.88596" lon="-0.27543">
        <ele>1575</ele>
        <time>2013-05-20T12:12:30Z</time>
      </trkpt>
      <trkpt lat="42.8859" lon="-0.2754">
        <ele>1576</ele>
        <time>2013-05-20T12:12:36Z</time>
      </trkpt>
      <trkpt lat="42.88587" lon="-0.2754">
        <ele>1576</ele>
        <time>2013-05-20T12:12:43Z</time>
      </trkpt>
      <trkpt lat="42.88584" lon="-0.27538">
        <ele>1575</ele>
        <time>2013-05-20T12:12:52Z</time>
      </trkpt>
      <trkpt lat="42.8858" lon="-0.27538">
        <ele>1575</ele>
        <time>2013-05-20T12:13:01Z</time>
      </trkpt>
      <trkpt lat="42.88575" lon="-0.27539">
        <ele>1575</ele>
        <time>2013-05-20T12:13:09Z</time>
      </trkpt>
      <trkpt lat="42.8857" lon="-0.27538">
        <ele>1575</ele>
        <time>2013-05-20T12:13:16Z</time>
      </trkpt>
      <trkpt lat="42.8857" lon="-0.27539">
        <ele>1575</ele>
        <time>2013-05-20T12:13:23Z</time>
      </trkpt>
      <trkpt lat="42.88569" lon="-0.27537">
        <ele>1575</ele>
        <time>2013-05-20T12:13:30Z</time>
      </trkpt>
      <trkpt lat="42.88568" lon="-0.27535">
        <ele>1575</ele>
        <time>2013-05-20T12:13:37Z</time>
      </trkpt>
      <trkpt lat="42.88568" lon="-0.27531">
        <ele>1575</ele>
        <time>2013-05-20T12:13:44Z</time>
      </trkpt>
      <trkpt lat="42.88567" lon="-0.27527">
        <ele>1575</ele>
        <time>2013-05-20T12:13:47Z</time>
      </trkpt>
      <trkpt lat="42.88561" lon="-0.27519">
        <ele>1575</ele>
        <time>2013-05-20T12:13:54Z</time>
      </trkpt>
      <trkpt lat="42.88558" lon="-0.27515">
        <ele>1575</ele>
        <time>2013-05-20T12:14:00Z</time>
      </trkpt>
      <trkpt lat="42.88559" lon="-0.27512">
        <ele>1575</ele>
        <time>2013-05-20T12:14:04Z</time>
      </trkpt>
      <trkpt lat="42.8855" lon="-0.27504">
        <ele>1576</ele>
        <time>2013-05-20T12:14:11Z</time>
      </trkpt>
      <trkpt lat="42.88546" lon="-0.27495">
        <ele>1574</ele>
        <time>2013-05-20T12:14:19Z</time>
      </trkpt>
      <trkpt lat="42.88546" lon="-0.27492">
        <ele>1575</ele>
        <time>2013-05-20T12:14:26Z</time>
      </trkpt>
      <trkpt lat="42.88546" lon="-0.27487">
        <ele>1575</ele>
        <time>2013-05-20T12:14:34Z</time>
      </trkpt>
      <trkpt lat="42.88543" lon="-0.27479">
        <ele>1575</ele>
        <time>2013-05-20T12:14:42Z</time>
      </trkpt>
      <trkpt lat="42.88542" lon="-0.27475">
        <ele>1575</ele>
        <time>2013-05-20T12:14:51Z</time>
      </trkpt>
      <trkpt lat="42.88538" lon="-0.27471">
        <ele>1575</ele>
        <time>2013-05-20T12:15:00Z</time>
      </trkpt>
      <trkpt lat="42.88524" lon="-0.2746">
        <ele>1575</ele>
        <time>2013-05-20T12:15:06Z</time>
      </trkpt>
      <trkpt lat="42.88522" lon="-0.27452">
        <ele>1574</ele>
        <time>2013-05-20T12:15:14Z</time>
      </trkpt>
      <trkpt lat="42.8852" lon="-0.27446">
        <ele>1575</ele>
        <time>2013-05-20T12:15:23Z</time>
      </trkpt>
      <trkpt lat="42.8852" lon="-0.27445">
        <ele>1575</ele>
        <time>2013-05-20T12:15:30Z</time>
      </trkpt>
      <trkpt lat="42.88517" lon="-0.27439">
        <ele>1576</ele>
        <time>2013-05-20T12:15:41Z</time>
      </trkpt>
      <trkpt lat="42.88519" lon="-0.27434">
        <ele>1574</ele>
        <time>2013-05-20T12:15:48Z</time>
      </trkpt>
      <trkpt lat="42.8852" lon="-0.27431">
        <ele>1574</ele>
        <time>2013-05-20T12:15:55Z</time>
      </trkpt>
      <trkpt lat="42.88522" lon="-0.27431">
        <ele>1574</ele>
        <time>2013-05-20T12:16:03Z</time>
      </trkpt>
      <trkpt lat="42.8852" lon="-0.27428">
        <ele>1574</ele>
        <time>2013-05-20T12:16:10Z</time>
      </trkpt>
      <trkpt lat="42.88515" lon="-0.27443">
        <ele>1573</ele>
        <time>2013-05-20T12:16:17Z</time>
      </trkpt>
      <trkpt lat="42.8851" lon="-0.27449">
        <ele>1572</ele>
        <time>2013-05-20T12:16:24Z</time>
      </trkpt>
      <trkpt lat="42.88501" lon="-0.27446">
        <ele>1571</ele>
        <time>2013-05-20T12:16:32Z</time>
      </trkpt>
      <trkpt lat="42.88495" lon="-0.27443">
        <ele>1571</ele>
        <time>2013-05-20T12:16:38Z</time>
      </trkpt>
      <trkpt lat="42.88488" lon="-0.27437">
        <ele>1570</ele>
        <time>2013-05-20T12:16:47Z</time>
      </trkpt>
      <trkpt lat="42.88486" lon="-0.27436">
        <ele>1570</ele>
        <time>2013-05-20T12:16:53Z</time>
      </trkpt>
      <trkpt lat="42.88486" lon="-0.27434">
        <ele>1570</ele>
        <time>2013-05-20T12:16:59Z</time>
      </trkpt>
      <trkpt lat="42.88487" lon="-0.27428">
        <ele>1570</ele>
        <time>2013-05-20T12:17:06Z</time>
      </trkpt>
      <trkpt lat="42.88487" lon="-0.27427">
        <ele>1569</ele>
        <time>2013-05-20T12:17:12Z</time>
      </trkpt>
      <trkpt lat="42.88485" lon="-0.27427">
        <ele>1569</ele>
        <time>2013-05-20T12:17:18Z</time>
      </trkpt>
      <trkpt lat="42.88482" lon="-0.27427">
        <ele>1568</ele>
        <time>2013-05-20T12:17:29Z</time>
      </trkpt>
      <trkpt lat="42.88483" lon="-0.27424">
        <ele>1567</ele>
        <time>2013-05-20T12:17:38Z</time>
      </trkpt>
      <trkpt lat="42.88483" lon="-0.27423">
        <ele>1565</ele>
        <time>2013-05-20T12:17:47Z</time>
      </trkpt>
      <trkpt lat="42.88485" lon="-0.27421">
        <ele>1564</ele>
        <time>2013-05-20T12:17:53Z</time>
      </trkpt>
      <trkpt lat="42.88485" lon="-0.27417">
        <ele>1561</ele>
        <time>2013-05-20T12:18:02Z</time>
      </trkpt>
      <trkpt lat="42.88484" lon="-0.27415">
        <ele>1560</ele>
        <time>2013-05-20T12:18:09Z</time>
      </trkpt>
      <trkpt lat="42.88486" lon="-0.27413">
        <ele>1559</ele>
        <time>2013-05-20T12:18:18Z</time>
      </trkpt>
      <trkpt lat="42.88486" lon="-0.27408">
        <ele>1557</ele>
        <time>2013-05-20T12:18:25Z</time>
      </trkpt>
      <trkpt lat="42.88493" lon="-0.27407">
        <ele>1557</ele>
        <time>2013-05-20T12:18:32Z</time>
      </trkpt>
      <trkpt lat="42.8849" lon="-0.27403">
        <ele>1556</ele>
        <time>2013-05-20T12:18:39Z</time>
      </trkpt>
      <trkpt lat="42.88486" lon="-0.27398">
        <ele>1554</ele>
        <time>2013-05-20T12:18:46Z</time>
      </trkpt>
      <trkpt lat="42.88486" lon="-0.27389">
        <ele>1552</ele>
        <time>2013-05-20T12:18:54Z</time>
      </trkpt>
      <trkpt lat="42.88486" lon="-0.27382">
        <ele>1550</ele>
        <time>2013-05-20T12:19:01Z</time>
      </trkpt>
      <trkpt lat="42.88492" lon="-0.27375">
        <ele>1548</ele>
        <time>2013-05-20T12:19:10Z</time>
      </trkpt>
      <trkpt lat="42.88494" lon="-0.27371">
        <ele>1545</ele>
        <time>2013-05-20T12:19:16Z</time>
      </trkpt>
      <trkpt lat="42.885" lon="-0.27365">
        <ele>1546</ele>
        <time>2013-05-20T12:19:23Z</time>
      </trkpt>
      <trkpt lat="42.88498" lon="-0.27362">
        <ele>1545</ele>
        <time>2013-05-20T12:19:27Z</time>
      </trkpt>
      <trkpt lat="42.88498" lon="-0.2736">
        <ele>1545</ele>
        <time>2013-05-20T12:19:28Z</time>
      </trkpt>
      <trkpt lat="42.885" lon="-0.27357">
        <ele>1545</ele>
        <time>2013-05-20T12:19:32Z</time>
      </trkpt>
      <trkpt lat="42.88487" lon="-0.27348">
        <ele>1544</ele>
        <time>2013-05-20T12:19:39Z</time>
      </trkpt>
      <trkpt lat="42.88486" lon="-0.27344">
        <ele>1543</ele>
        <time>2013-05-20T12:19:48Z</time>
      </trkpt>
      <trkpt lat="42.88488" lon="-0.27343">
        <ele>1542</ele>
        <time>2013-05-20T12:19:53Z</time>
      </trkpt>
      <trkpt lat="42.88489" lon="-0.2734">
        <ele>1542</ele>
        <time>2013-05-20T12:20:00Z</time>
      </trkpt>
      <trkpt lat="42.88488" lon="-0.27338">
        <ele>1539</ele>
        <time>2013-05-20T12:20:04Z</time>
      </trkpt>
      <trkpt lat="42.88494" lon="-0.2734">
        <ele>1538</ele>
        <time>2013-05-20T12:20:12Z</time>
      </trkpt>
      <trkpt lat="42.88494" lon="-0.27342">
        <ele>1537</ele>
        <time>2013-05-20T12:20:17Z</time>
      </trkpt>
      <trkpt lat="42.88498" lon="-0.27344">
        <ele>1535</ele>
        <time>2013-05-20T12:20:24Z</time>
      </trkpt>
      <trkpt lat="42.88501" lon="-0.27343">
        <ele>1534</ele>
        <time>2013-05-20T12:20:30Z</time>
      </trkpt>
      <trkpt lat="42.88501" lon="-0.27341">
        <ele>1532</ele>
        <time>2013-05-20T12:20:37Z</time>
      </trkpt>
      <trkpt lat="42.88503" lon="-0.27341">
        <ele>1531</ele>
        <time>2013-05-20T12:20:43Z</time>
      </trkpt>
      <trkpt lat="42.88507" lon="-0.27341">
        <ele>1528</ele>
        <time>2013-05-20T12:20:53Z</time>
      </trkpt>
      <trkpt lat="42.88508" lon="-0.27341">
        <ele>1529</ele>
        <time>2013-05-20T12:20:54Z</time>
      </trkpt>
      <trkpt lat="42.88511" lon="-0.2734">
        <ele>1527</ele>
        <time>2013-05-20T12:21:00Z</time>
      </trkpt>
      <trkpt lat="42.88511" lon="-0.2734">
        <ele>1527</ele>
        <time>2013-05-20T12:21:01Z</time>
      </trkpt>
      <trkpt lat="42.88514" lon="-0.27338">
        <ele>1524</ele>
        <time>2013-05-20T12:21:09Z</time>
      </trkpt>
      <trkpt lat="42.88516" lon="-0.27342">
        <ele>1522</ele>
        <time>2013-05-20T12:21:17Z</time>
      </trkpt>
      <trkpt lat="42.88522" lon="-0.27341">
        <ele>1520</ele>
        <time>2013-05-20T12:21:24Z</time>
      </trkpt>
      <trkpt lat="42.88524" lon="-0.2734">
        <ele>1520</ele>
        <time>2013-05-20T12:21:25Z</time>
      </trkpt>
      <trkpt lat="42.88528" lon="-0.27339">
        <ele>1519</ele>
        <time>2013-05-20T12:21:32Z</time>
      </trkpt>
      <trkpt lat="42.88533" lon="-0.27339">
        <ele>1519</ele>
        <time>2013-05-20T12:21:38Z</time>
      </trkpt>
      <trkpt lat="42.88534" lon="-0.27337">
        <ele>1519</ele>
        <time>2013-05-20T12:21:44Z</time>
      </trkpt>
      <trkpt lat="42.88537" lon="-0.27334">
        <ele>1519</ele>
        <time>2013-05-20T12:21:48Z</time>
      </trkpt>
      <trkpt lat="42.88536" lon="-0.27331">
        <ele>1517</ele>
        <time>2013-05-20T12:21:54Z</time>
      </trkpt>
      <trkpt lat="42.88534" lon="-0.27331">
        <ele>1517</ele>
        <time>2013-05-20T12:21:55Z</time>
      </trkpt>
      <trkpt lat="42.88538" lon="-0.27329">
        <ele>1515</ele>
        <time>2013-05-20T12:22:03Z</time>
      </trkpt>
      <trkpt lat="42.88545" lon="-0.27328">
        <ele>1513</ele>
        <time>2013-05-20T12:22:11Z</time>
      </trkpt>
      <trkpt lat="42.88549" lon="-0.27328">
        <ele>1512</ele>
        <time>2013-05-20T12:22:18Z</time>
      </trkpt>
      <trkpt lat="42.88549" lon="-0.27332">
        <ele>1513</ele>
        <time>2013-05-20T12:22:26Z</time>
      </trkpt>
      <trkpt lat="42.88554" lon="-0.27331">
        <ele>1512</ele>
        <time>2013-05-20T12:22:33Z</time>
      </trkpt>
      <trkpt lat="42.88556" lon="-0.27326">
        <ele>1512</ele>
        <time>2013-05-20T12:22:40Z</time>
      </trkpt>
      <trkpt lat="42.88562" lon="-0.27319">
        <ele>1513</ele>
        <time>2013-05-20T12:22:47Z</time>
      </trkpt>
      <trkpt lat="42.8856" lon="-0.27312">
        <ele>1513</ele>
        <time>2013-05-20T12:22:54Z</time>
      </trkpt>
      <trkpt lat="42.88561" lon="-0.27305">
        <ele>1513</ele>
        <time>2013-05-20T12:23:01Z</time>
      </trkpt>
      <trkpt lat="42.88565" lon="-0.27297">
        <ele>1512</ele>
        <time>2013-05-20T12:23:08Z</time>
      </trkpt>
      <trkpt lat="42.88566" lon="-0.27292">
        <ele>1513</ele>
        <time>2013-05-20T12:23:15Z</time>
      </trkpt>
      <trkpt lat="42.88568" lon="-0.27287">
        <ele>1513</ele>
        <time>2013-05-20T12:23:20Z</time>
      </trkpt>
      <trkpt lat="42.88572" lon="-0.27278">
        <ele>1514</ele>
        <time>2013-05-20T12:23:27Z</time>
      </trkpt>
      <trkpt lat="42.88573" lon="-0.27272">
        <ele>1514</ele>
        <time>2013-05-20T12:23:34Z</time>
      </trkpt>
      <trkpt lat="42.88579" lon="-0.27268">
        <ele>1513</ele>
        <time>2013-05-20T12:23:37Z</time>
      </trkpt>
      <trkpt lat="42.88586" lon="-0.27263">
        <ele>1513</ele>
        <time>2013-05-20T12:23:44Z</time>
      </trkpt>
      <trkpt lat="42.88587" lon="-0.2726">
        <ele>1513</ele>
        <time>2013-05-20T12:23:47Z</time>
      </trkpt>
      <trkpt lat="42.88587" lon="-0.27256">
        <ele>1513</ele>
        <time>2013-05-20T12:23:53Z</time>
      </trkpt>
      <trkpt lat="42.88586" lon="-0.27261">
        <ele>1514</ele>
        <time>2013-05-20T12:24:01Z</time>
      </trkpt>
      <trkpt lat="42.88587" lon="-0.2726">
        <ele>1513</ele>
        <time>2013-05-20T12:24:12Z</time>
      </trkpt>
      <trkpt lat="42.88584" lon="-0.27259">
        <ele>1513</ele>
        <time>2013-05-20T12:24:22Z</time>
      </trkpt>
      <trkpt lat="42.88581" lon="-0.27259">
        <ele>1514</ele>
        <time>2013-05-20T12:24:28Z</time>
      </trkpt>
      <trkpt lat="42.88581" lon="-0.27262">
        <ele>1514</ele>
        <time>2013-05-20T12:24:36Z</time>
      </trkpt>
      <trkpt lat="42.88578" lon="-0.2726">
        <ele>1513</ele>
        <time>2013-05-20T12:24:45Z</time>
      </trkpt>
      <trkpt lat="42.88577" lon="-0.27256">
        <ele>1513</ele>
        <time>2013-05-20T12:24:56Z</time>
      </trkpt>
      <trkpt lat="42.88579" lon="-0.27257">
        <ele>1512</ele>
        <time>2013-05-20T12:25:09Z</time>
      </trkpt>
      <trkpt lat="42.88579" lon="-0.27255">
        <ele>1512</ele>
        <time>2013-05-20T12:25:28Z</time>
      </trkpt>
      <trkpt lat="42.88579" lon="-0.27256">
        <ele>1512</ele>
        <time>2013-05-20T12:25:47Z</time>
      </trkpt>
      <trkpt lat="42.8858" lon="-0.27256">
        <ele>1513</ele>
        <time>2013-05-20T12:25:57Z</time>
      </trkpt>
      <trkpt lat="42.88583" lon="-0.27257">
        <ele>1513</ele>
        <time>2013-05-20T12:26:09Z</time>
      </trkpt>
    </trkseg>
  </trk>
</gpx>